GFSMW_sfc_wetblb_000.txt.gz
Wetbulb
45.53 46.27 46.40 46.40 45.95 46.01 46.55 46.93 46.91 46.63 45.94 44.86 44.43 43.66 43.85 45.06 45.28 46.32 50.66 50.40 49.60 49.37 46.56 46.05 47.56 47.09 45.22 45.17 44.37 43.47 43.08 42.08 42.43 40.88 41.48 41.26 41.85 42.20 43.19 44.36 45.69 50.08 53.64
45.62 46.92 46.50 43.92 45.65 45.79 45.88 45.97 46.32 46.42 46.06 44.74 44.54 44.75 43.78 44.26 45.38 45.88 46.11 49.05 49.01 47.72 46.98 45.66 45.93 45.76 44.81 43.91 44.13 44.18 42.49 42.39 42.30 40.62 38.97 37.04 40.26 41.34 42.71 44.03 43.88 44.16 47.02
45.32 45.80 46.92 45.12 44.50 45.47 45.79 46.62 46.46 46.26 46.49 46.14 44.56 43.94 43.64 43.54 43.80 43.92 44.40 46.21 47.69 48.19 47.15 46.05 45.22 44.22 43.78 43.10 43.06 42.52 41.81 40.17 41.60 41.60 40.31 36.61 34.79 39.70 41.98 42.17 43.80 43.60 44.09
45.58 45.53 45.02 44.63 45.33 46.16 45.52 45.95 46.97 46.81 46.78 46.29 44.22 43.44 45.47 44.90 46.32 46.57 43.84 45.24 47.40 47.13 46.73 46.25 45.26 44.19 43.92 43.29 43.37 43.65 42.03 41.11 39.19 41.26 43.50 41.49 39.84 36.82 36.26 40.76 42.90 44.53 44.77
44.23 43.79 43.69 44.67 45.59 46.28 46.32 46.50 46.83 46.98 48.03 47.34 45.97 44.66 44.08 45.64 46.57 43.00 42.79 42.91 44.23 45.76 46.29 45.69 44.65 44.03 44.08 42.72 41.10 40.69 39.17 40.57 38.90 38.85 38.51 38.42 38.71 38.35 36.63 34.11 37.55 41.84 43.89
43.34 45.33 45.74 46.05 46.25 46.53 46.43 47.71 47.08 47.59 48.03 47.71 47.02 44.91 43.74 45.35 43.94 43.91 43.37 43.13 41.65 41.55 42.89 43.13 42.19 41.42 40.74 40.37 39.82 39.94 37.77 38.11 38.74 37.36 37.94 37.43 35.64 35.76 35.23 34.48 34.82 35.78 39.31
44.09 43.99 44.98 45.34 45.66 45.55 45.90 46.59 46.57 47.75 49.01 46.82 46.68 46.47 45.46 45.36 44.36 44.69 44.15 43.46 41.75 41.04 40.62 41.04 40.78 40.15 39.49 39.91 39.39 40.55 40.26 38.40 37.40 35.89 36.42 38.04 37.82 38.68 37.73 36.38 35.46 35.07 38.52
45.02 44.58 45.35 45.44 45.76 46.09 46.13 46.91 47.50 46.37 46.70 46.20 46.30 45.02 44.80 44.43 44.25 42.89 42.03 39.68 41.11 40.30 40.29 39.18 39.75 40.79 40.97 40.39 40.68 41.09 40.57 39.47 36.88 36.65 37.08 37.96 38.35 38.61 38.23 36.70 35.48 33.67 34.47
43.90 44.65 45.78 45.68 44.67 44.51 45.10 45.28 44.95 46.03 46.04 44.93 42.97 40.92 40.35 40.50 38.17 37.54 38.68 39.42 39.40 39.99 39.74 40.71 41.52 42.31 42.82 42.13 40.21 37.94 37.66 38.35 37.73 37.20 36.70 37.28 38.35 38.67 39.05 38.36 36.97 34.47 30.79
43.95 44.97 44.75 45.05 44.98 44.42 44.91 45.38 45.35 45.34 44.92 41.12 40.59 39.07 37.93 38.23 38.13 38.06 37.43 37.59 38.85 40.90 41.67 42.34 42.46 42.94 41.33 40.01 38.94 37.92 36.67 36.16 36.52 37.02 35.97 36.75 37.55 37.81 38.36 38.28 37.51 36.74 34.40
42.71 43.58 45.55 46.66 47.16 46.99 46.34 44.99 43.92 43.53 40.21 39.18 39.17 38.04 37.22 37.65 36.91 36.59 36.85 37.28 38.34 39.59 40.36 40.33 39.64 39.47 39.10 38.55 37.01 35.81 35.70 35.02 34.88 34.57 34.64 34.67 35.56 35.44 35.61 36.15 36.37 35.52 35.14
42.93 43.61 44.47 44.88 44.60 44.27 43.50 43.80 43.64 40.35 39.10 39.09 38.36 37.49 36.43 35.44 35.04 35.59 36.26 36.93 37.20 38.40 37.99 37.77 37.62 37.61 37.09 36.64 35.41 34.31 34.12 32.56 31.86 32.33 32.36 33.08 35.15 33.37 33.21 33.43 33.32 33.69 33.75
43.00 43.49 43.60 44.16 43.99 43.59 43.35 43.82 42.94 39.06 39.34 38.76 36.49 34.94 34.40 33.79 34.41 34.64 35.30 36.33 36.88 36.61 36.57 36.40 36.00 36.57 36.29 35.07 34.16 33.13 32.54 32.37 32.34 31.95 31.36 31.62 31.58 30.08 30.32 30.08 30.15 31.08 33.34
43.71 43.40 42.92 43.07 43.38 43.17 43.08 43.15 39.26 39.44 39.34 38.37 34.31 33.44 33.25 33.59 34.04 34.10 34.98 35.97 36.02 35.60 35.18 35.83 35.99 35.67 34.57 33.53 32.77 32.32 30.68 29.40 29.59 29.43 29.36 29.57 29.23 28.50 28.06 28.55 28.25 29.11 28.76
43.02 42.76 42.42 42.30 42.50 42.47 42.62 40.04 39.73 39.92 38.68 35.95 35.29 35.42 36.35 36.07 35.58 34.86 35.34 37.31 36.87 35.81 35.21 34.30 33.27 32.16 32.07 32.68 30.57 29.42 28.15 27.44 27.48 28.17 28.27 28.80 30.03 32.68 32.35 30.55 29.11 28.23 27.41
42.94 42.98 43.50 43.37 42.84 42.50 41.17 39.94 39.48 39.66 39.97 39.75 40.19 39.85 39.35 38.94 38.01 38.08 38.57 37.51 35.53 34.13 32.33 30.97 30.26 29.34 31.29 33.59 33.28 31.64 27.64 27.74 27.07 26.15 26.93 27.48 29.40 29.42 30.85 31.58 32.14 30.65 27.04
41.79 42.03 43.05 42.79 41.65 40.15 39.44 38.63 39.10 40.06 41.09 40.65 40.60 40.56 40.32 39.43 38.34 38.35 37.07 33.96 31.36 29.60 28.83 28.32 27.87 27.49 27.88 32.72 32.61 32.05 28.13 27.14 26.67 26.12 25.98 26.31 27.80 28.73 28.03 29.34 30.69 30.90 31.44
42.62 42.86 42.42 40.94 39.85 39.14 38.54 38.67 38.92 39.71 39.44 39.11 39.58 38.82 38.44 36.92 35.20 32.76 31.14 28.99 28.48 27.55 26.87 26.79 27.22 26.92 28.07 31.55 31.20 30.92 27.58 26.52 26.66 26.77 26.75 26.19 26.36 27.29 27.74 27.15 26.83 27.20 27.64
43.16 42.48 40.18 39.06 38.42 37.25 37.50 37.73 37.45 38.32 36.47 32.54 32.54 32.92 32.82 32.34 31.54 29.45 27.21 27.18 25.99 25.59 25.43 26.30 26.15 26.72 26.59 30.02 29.76 28.71 24.27 24.93 25.84 27.64 27.77 28.00 27.87 29.52 30.94 29.02 28.03 27.40 28.32
41.12 38.53 38.38 37.59 36.46 37.20 35.86 32.00 31.66 31.76 31.80 32.84 32.81 33.32 33.02 31.26 29.25 27.77 26.83 25.98 24.47 24.93 26.00 26.79 25.91 26.76 23.64 27.63 28.31 27.65 26.35 24.54 24.28 25.35 26.23 28.22 27.85 29.29 29.66 27.54 27.22 26.57 27.56
37.99 38.19 37.58 36.48 37.02 38.74 36.74 31.19 30.70 30.75 33.26 33.37 33.02 32.01 31.38 30.10 28.75 26.54 25.37 24.16 23.82 23.66 18.18 17.39 20.05 22.60 24.19 23.73 27.83 28.33 25.98 25.01 24.80 24.88 25.41 26.29 28.46 29.14 29.82 29.57 27.85 27.48 28.94
36.74 37.17 36.41 36.19 38.49 34.20 32.23 30.48 29.27 32.74 32.84 32.00 31.10 30.31 29.94 29.11 27.85 25.20 24.43 24.02 22.92 19.45 17.61 12.98 15.86 19.72 19.09 25.31 26.82 27.75 27.43 27.34 26.11 25.54 26.81 27.46 29.42 29.81 30.73 30.09 29.38 29.66 29.12
34.78 35.66 35.46 36.84 35.49 32.14 31.84 30.27 30.30 31.61 30.71 29.31 28.56 28.25 28.04 26.97 25.88 23.92 23.16 22.30 21.10 17.36 16.49 20.21 17.22 20.39 22.45 22.97 26.57 26.45 26.89 28.50 27.53 27.84 27.92 28.34 27.73 27.44 27.68 28.71 29.27 28.27 28.11
33.33 34.81 36.45 34.46 33.40 31.51 30.51 30.10 30.73 30.35 28.85 27.78 27.69 27.53 25.94 25.34 24.05 24.00 23.73 22.65 17.10 16.04 21.41 19.32 19.97 21.31 21.42 22.22 23.51 25.39 27.05 28.14 28.61 25.84 24.89 23.73 24.63 23.21 22.75 23.97 25.29 25.81 27.05
34.24 35.39 36.38 35.62 32.66 30.70 29.75 30.16 29.60 29.23 28.21 27.83 27.63 26.22 25.20 23.20 23.53 23.75 23.19 22.35 21.29 19.74 19.49 17.52 22.82 20.26 19.08 22.25 27.38 27.05 27.04 28.07 26.73 24.99 21.11 20.97 20.59 20.66 21.33 21.89 23.06 24.56 26.37
36.09 35.70 35.82 32.11 31.45 30.26 29.35 30.13 29.88 28.40 27.35 27.08 26.10 22.54 21.56 20.57 22.50 22.31 22.51 26.56 26.13 26.80 26.31 26.61 24.22 22.64 25.00 27.34 26.81 27.08 28.22 27.53 27.13 23.74 19.50 18.51 18.74 18.75 20.04 19.57 20.42 22.49 23.50

GFSMW_sfc_wetblb_003.txt.gz
Wetbulb
43.64 44.19 44.33 44.04 44.54 44.83 45.48 44.72 44.77 44.85 45.07 44.24 43.80 43.28 43.59 43.99 44.71 45.10 47.22 49.97 50.43 49.49 47.18 46.20 47.35 46.65 44.80 44.51 44.33 42.87 42.09 41.59 41.33 40.18 40.18 40.74 41.12 41.26 41.57 42.25 43.00 44.21 46.14
43.70 44.07 43.83 42.77 44.31 44.33 44.72 44.85 45.52 45.50 44.82 43.99 43.78 43.98 42.93 43.29 43.81 44.52 45.35 48.48 50.18 49.72 47.84 45.85 46.35 46.81 45.52 43.92 43.75 42.86 41.61 41.48 41.52 39.39 37.79 35.70 37.70 39.60 42.27 41.89 42.92 43.55 44.07
43.86 44.35 44.72 43.20 42.85 43.44 43.91 44.99 45.27 45.13 45.22 44.99 43.67 43.07 42.64 42.77 42.39 43.52 43.11 44.97 48.07 50.22 48.57 46.25 45.62 45.69 45.93 44.71 42.88 42.58 41.93 39.63 40.16 40.62 38.81 34.69 33.33 36.66 39.38 39.88 41.49 41.45 42.26
43.69 44.05 44.48 44.15 43.92 44.30 44.04 44.61 45.03 44.85 45.45 45.28 44.28 42.86 43.64 44.20 46.50 46.07 45.62 45.41 45.28 47.20 48.97 47.96 45.24 44.54 43.57 41.95 41.40 42.01 40.64 39.53 37.31 38.41 41.92 39.58 38.42 32.11 30.92 36.79 37.08 38.39 40.65
42.71 42.98 43.64 43.23 42.68 43.79 43.85 44.61 45.85 46.79 46.89 46.25 45.46 44.83 43.58 45.30 46.28 45.48 42.32 43.09 43.16 44.90 46.63 47.64 45.89 43.34 44.23 43.74 42.83 40.78 39.28 37.93 37.23 36.34 36.02 35.55 35.83 36.19 33.95 30.04 33.04 36.49 37.64
43.11 44.37 44.62 44.92 45.46 45.00 45.12 45.53 46.11 46.58 47.41 46.94 46.37 44.60 43.15 43.99 43.63 43.81 42.43 43.47 41.40 41.91 43.21 43.90 44.14 42.04 41.51 40.30 37.84 38.50 38.36 38.38 37.84 37.38 37.88 36.43 34.10 32.45 32.09 31.02 32.08 33.52 35.84
41.81 42.77 42.44 44.64 44.80 44.33 44.23 45.07 44.84 44.86 45.00 44.82 44.87 44.70 43.86 42.96 42.51 42.88 42.91 41.29 38.82 38.41 38.48 40.05 38.71 38.83 39.18 39.73 40.83 39.73 39.80 39.38 38.27 36.02 36.12 37.56 36.22 35.81 34.89 33.64 33.27 32.17 34.03
43.38 43.48 44.75 43.86 43.22 43.45 43.88 43.91 44.17 44.27 44.73 44.31 43.30 42.57 41.75 41.66 42.45 41.31 40.35 39.01 37.47 36.64 38.16 39.46 41.53 41.97 41.56 42.27 42.83 42.40 41.35 40.85 39.58 38.92 37.19 35.17 35.28 35.81 35.73 33.77 32.14 31.49 33.01
42.48 42.59 42.85 43.49 43.14 43.35 43.94 43.72 43.99 44.04 44.15 42.32 39.84 40.18 39.71 39.55 39.94 37.64 37.16 36.72 36.99 38.87 39.66 40.93 41.66 41.73 41.64 41.83 42.42 41.04 39.47 38.66 38.28 37.31 35.83 34.35 35.23 35.70 36.38 36.97 36.12 33.81 29.35
41.20 42.73 43.05 43.69 44.26 43.99 43.60 43.44 43.33 43.08 42.55 38.83 39.45 40.34 39.16 37.81 37.45 36.66 36.35 36.48 37.82 40.00 41.06 41.64 41.89 41.51 41.93 41.45 40.91 38.84 38.26 37.18 36.96 37.06 35.23 34.51 35.17 35.54 35.95 36.71 36.81 35.82 33.12
41.12 42.45 43.34 43.95 43.87 43.71 43.42 42.78 42.71 42.42 39.95 38.06 38.23 38.40 38.65 36.59 35.74 35.35 35.88 36.71 38.72 39.57 38.84 38.65 39.79 39.85 39.18 38.93 37.87 36.64 35.85 35.12 34.41 34.02 34.04 33.21 33.78 33.03 32.92 33.95 34.72 34.38 34.40
42.39 43.06 43.45 43.62 43.10 42.88 42.81 42.16 42.05 40.61 38.42 38.76 38.47 38.83 37.08 35.45 33.98 34.48 35.58 36.55 37.30 38.08 37.49 37.08 37.34 37.42 36.85 36.08 34.88 33.70 33.73 32.43 31.40 31.94 31.27 31.26 33.66 31.59 32.01 32.15 31.94 32.42 32.99
42.99 43.77 43.65 44.16 43.76 43.03 42.52 42.10 42.28 38.28 38.65 38.41 37.99 36.27 33.64 32.50 32.89 34.67 36.32 36.80 36.71 36.70 36.61 36.07 35.00 35.27 35.09 34.06 33.10 32.17 31.97 31.32 31.14 30.84 30.53 30.72 30.45 29.49 29.69 29.80 29.31 29.53 31.71
43.25 43.02 43.24 42.63 42.27 42.87 42.34 41.93 39.31 38.90 38.65 37.62 34.84 32.15 31.74 32.13 32.74 33.80 35.20 36.08 37.07 35.86 35.53 35.39 35.25 34.85 33.39 32.40 32.00 31.04 28.99 27.86 28.43 28.81 28.52 28.07 27.65 27.37 27.64 28.05 27.71 28.33 27.95
42.42 42.39 42.92 42.29 41.96 41.77 41.03 40.02 38.93 38.94 38.73 37.84 34.86 34.39 36.28 36.05 34.78 37.33 38.07 37.58 37.29 37.34 35.81 34.48 32.61 31.72 31.24 31.53 29.40 28.73 28.08 27.60 27.28 27.73 27.81 27.81 28.95 31.40 30.65 29.27 28.31 27.77 27.33
41.94 42.85 41.83 41.98 41.91 41.30 39.60 38.74 38.50 38.41 38.93 37.83 38.56 39.95 39.93 39.72 39.14 38.87 38.79 37.73 37.96 37.13 33.23 31.02 30.06 29.10 30.57 33.56 32.95 31.59 28.00 27.48 26.58 25.48 26.34 26.87 28.66 28.54 29.72 29.94 30.43 29.60 26.57
40.83 40.62 40.87 41.22 41.09 39.06 38.54 37.37 37.35 38.46 37.81 37.85 39.34 40.03 39.19 39.55 38.88 38.47 38.41 37.27 32.65 30.47 29.45 28.86 28.59 28.38 28.61 32.28 32.21 31.66 27.73 26.71 26.07 25.86 25.93 26.43 27.45 28.36 27.18 28.38 29.26 29.76 30.31
41.39 40.94 42.02 40.28 38.99 38.48 37.10 36.52 37.10 37.15 37.38 36.08 33.44 34.22 35.21 34.60 32.88 31.84 30.49 28.79 28.10 27.49 26.82 27.09 27.54 27.33 28.25 31.07 30.65 30.47 26.42 24.91 25.54 25.96 26.18 25.87 26.17 26.99 27.22 26.99 26.71 27.20 27.76
40.55 41.54 40.13 38.63 37.29 35.68 34.85 32.55 31.53 32.47 32.35 32.41 32.60 33.21 33.01 31.11 29.83 28.56 27.10 26.98 25.93 25.81 25.96 27.08 26.93 25.83 25.60 28.60 28.61 27.43 21.89 22.98 23.43 26.11 26.32 26.10 26.00 27.87 29.66 26.96 26.12 26.25 27.17
41.88 39.07 37.94 36.99 35.58 36.12 33.11 33.11 31.32 31.40 31.23 33.22 32.44 31.42 31.16 29.75 27.88 26.52 25.87 25.98 24.86 25.63 26.11 25.52 25.20 25.35 22.36 26.24 27.78 26.93 24.18 23.61 24.19 24.88 25.72 27.29 26.90 28.25 28.54 26.61 26.04 25.17 26.11
39.11 38.25 36.51 35.22 35.96 35.27 32.28 29.69 29.31 29.58 31.36 31.68 31.21 30.46 30.51 29.15 27.48 25.89 25.64 24.30 24.04 23.56 18.54 17.24 19.08 21.47 23.36 22.67 27.11 27.48 25.91 24.20 23.88 24.07 24.71 26.41 28.34 28.70 29.19 29.69 28.38 27.63 27.97
36.19 35.82 34.52 34.74 35.48 31.71 30.59 28.71 27.88 30.07 30.11 30.18 29.47 28.71 28.27 27.62 26.57 24.68 23.94 23.53 22.26 20.03 17.65 13.23 15.92 19.25 18.14 24.53 25.63 26.98 27.14 26.90 24.79 24.65 27.00 26.84 27.66 27.93 27.31 27.23 28.78 28.92 29.14
34.20 33.94 33.33 34.42 35.82 31.98 30.76 29.73 29.29 29.92 28.95 28.13 27.36 27.29 27.23 26.24 25.14 23.64 22.75 21.97 20.69 18.06 16.55 20.66 18.52 19.87 21.61 20.91 24.64 25.54 26.72 27.72 26.46 27.98 26.47 26.11 25.82 25.51 24.39 25.44 26.33 24.99 26.18
32.37 32.30 33.47 34.20 34.33 35.48 31.40 30.66 30.25 29.65 28.21 27.46 27.26 26.90 25.31 24.34 23.30 23.62 23.66 22.21 18.26 16.68 21.15 18.92 18.72 20.70 19.24 19.82 21.34 25.28 26.12 27.17 28.41 25.84 24.39 22.45 23.28 21.53 21.72 22.69 23.55 24.04 24.39
32.47 34.15 34.30 33.79 33.67 33.08 28.76 29.27 28.80 28.85 27.69 27.81 27.32 25.45 24.80 23.50 23.14 23.08 22.87 22.89 21.49 18.77 19.30 16.93 20.62 19.33 17.87 20.64 26.11 25.98 25.41 26.79 26.23 23.52 21.49 20.81 18.95 18.31 19.36 19.90 20.49 21.48 22.57
33.08 34.60 33.60 32.71 30.79 28.95 27.66 28.20 29.19 28.05 26.89 26.99 26.25 22.49 20.86 20.65 22.84 21.40 21.76 25.66 25.06 25.78 25.19 25.41 22.48 22.51 24.05 25.76 26.01 26.03 26.57 26.66 25.23 22.98 19.71 17.23 16.92 15.72 17.73 17.26 17.21 18.51 20.19

GFSMW_sfc_wetblb_006.txt.gz
Wetbulb
41.84 42.11 42.81 43.66 44.36 44.82 44.94 44.77 45.27 45.52 44.73 43.93 43.87 43.25 43.93 43.58 44.18 44.92 46.37 47.46 49.61 50.07 49.42 48.14 47.09 47.03 45.41 45.41 43.57 42.75 42.03 41.23 41.39 40.53 39.87 40.23 41.24 41.07 41.71 42.52 43.55 44.53 45.68
42.07 43.63 43.25 42.28 43.95 44.74 44.90 44.29 44.25 44.07 43.20 42.81 42.52 42.67 41.97 42.57 42.62 43.57 44.18 45.32 46.47 48.46 49.44 48.47 46.89 46.30 46.70 43.99 43.36 42.37 40.91 41.13 40.86 38.99 37.54 35.41 37.16 38.86 41.36 42.06 41.51 42.93 43.52
42.75 42.22 42.81 42.07 42.13 42.86 42.71 43.43 43.49 43.32 43.46 43.88 43.13 42.70 42.36 42.96 42.97 44.08 43.39 44.87 45.00 46.81 48.54 48.91 47.89 46.29 46.44 46.00 44.65 43.37 41.58 40.82 40.03 40.18 38.03 34.37 32.86 35.15 37.98 38.50 40.10 39.20 40.06
42.22 43.55 42.80 41.77 42.71 42.67 43.04 43.89 44.55 44.84 45.71 45.46 44.07 43.02 41.99 41.94 44.26 44.18 44.67 45.36 44.75 44.43 46.18 48.46 47.52 46.13 45.79 45.50 44.13 43.50 42.26 39.97 38.11 38.98 41.42 38.81 37.38 31.43 31.01 36.05 38.68 38.18 38.85
41.23 40.60 41.27 43.36 42.97 42.55 43.30 43.86 45.25 45.45 45.43 44.68 44.35 43.77 43.51 43.51 44.24 44.36 43.20 43.92 43.95 42.82 43.60 44.82 45.65 44.71 42.77 42.28 43.57 41.38 40.08 39.57 37.78 36.62 36.49 35.62 36.86 36.38 32.86 30.18 33.12 36.38 38.14
42.63 43.02 43.25 44.43 43.29 43.24 43.48 43.80 44.43 44.99 45.40 44.40 43.68 42.13 40.89 41.10 41.61 42.41 41.83 42.54 42.11 40.68 40.54 41.78 41.85 40.48 39.25 37.95 37.89 39.64 38.83 36.57 38.50 37.79 37.37 36.24 34.47 33.23 32.34 31.50 31.55 32.47 35.85
40.94 40.92 42.29 42.56 43.14 43.21 43.50 44.23 43.70 43.74 43.98 43.47 41.31 40.12 39.99 39.85 39.70 40.97 41.64 40.64 39.60 36.53 36.38 37.55 38.67 39.04 39.44 40.30 41.59 40.03 40.18 40.16 39.63 39.24 39.02 38.88 38.53 38.31 36.62 34.62 32.42 31.55 33.49
42.21 42.36 42.90 42.16 42.46 42.91 42.92 42.85 42.94 43.09 43.12 42.55 40.08 40.04 40.52 40.13 40.55 40.74 39.86 38.30 36.49 36.25 38.53 39.45 40.33 40.05 40.26 40.62 40.77 40.50 40.96 40.90 39.97 38.44 38.07 37.34 37.60 38.05 37.29 35.82 32.22 30.69 31.87
40.96 41.79 43.53 43.91 43.68 44.28 44.41 43.02 42.62 42.70 43.10 41.66 38.66 39.09 39.76 40.06 40.47 39.72 36.76 36.08 36.14 39.20 39.24 39.43 39.72 40.16 41.48 41.64 41.11 39.40 38.60 38.11 37.82 37.28 37.57 37.36 37.71 37.68 37.76 37.23 35.79 33.03 28.83
41.74 43.31 43.43 44.08 44.51 43.45 43.10 43.10 42.36 42.28 42.57 39.17 38.98 40.21 39.22 40.18 40.04 37.32 35.79 35.49 36.83 39.10 39.26 39.17 38.72 39.28 38.77 39.52 40.57 40.03 40.03 38.81 38.26 37.86 36.80 36.04 36.28 35.98 36.05 35.91 35.70 35.12 33.14
40.86 41.74 42.64 43.20 43.34 42.98 42.83 42.45 41.85 41.66 41.63 37.87 38.28 38.14 39.50 39.08 37.58 34.59 34.70 35.51 37.62 38.14 37.11 37.99 37.81 38.04 39.02 38.98 37.99 37.63 36.68 35.56 35.17 34.71 33.80 32.69 33.28 32.53 32.84 32.92 33.25 32.85 33.03
41.90 41.98 42.39 42.86 42.64 42.45 42.60 42.37 41.52 41.52 38.93 38.70 38.50 38.27 36.70 34.22 33.06 33.44 34.40 35.45 35.81 36.00 35.82 36.84 36.73 36.44 35.53 35.08 34.59 33.72 33.34 32.47 31.24 31.07 30.72 30.92 33.03 31.52 31.99 31.77 30.94 31.52 31.93
41.90 42.42 43.50 42.88 42.77 42.57 42.28 42.32 41.80 39.75 38.97 38.82 37.59 34.30 32.45 31.06 31.77 32.65 34.24 35.71 35.94 36.23 36.53 36.23 36.71 36.46 35.54 34.58 33.29 31.76 31.00 30.41 30.11 29.72 29.20 29.35 29.31 28.24 28.94 28.96 28.86 29.34 30.81
41.61 41.74 41.88 42.53 42.37 42.23 42.03 41.45 40.17 39.20 38.76 38.63 35.75 33.49 32.43 31.75 32.95 35.44 36.20 36.37 36.67 36.94 37.02 37.10 35.76 34.76 32.91 32.31 31.81 31.12 29.31 28.41 28.61 28.65 28.01 27.44 27.23 26.76 26.67 27.07 27.06 27.80 27.44
41.62 41.20 41.59 43.09 42.14 42.35 42.24 39.93 39.25 38.84 38.54 37.97 37.70 36.11 38.10 37.89 36.38 36.69 37.06 37.29 37.15 37.66 38.17 37.40 33.68 31.86 31.21 31.38 29.78 28.94 28.12 27.45 27.00 27.58 27.58 27.78 28.67 30.75 29.98 28.20 27.36 27.00 26.97
40.34 41.32 40.64 40.71 41.47 41.63 39.25 38.65 38.01 38.14 38.83 37.77 37.40 38.99 40.40 39.95 38.31 38.45 37.90 37.74 37.18 37.31 37.72 33.93 28.95 28.33 29.95 33.15 32.73 31.91 28.72 28.25 27.41 26.04 26.30 26.58 28.48 28.20 29.28 29.78 30.08 29.20 26.18
39.27 37.72 38.68 40.31 40.87 39.19 37.82 37.04 37.43 37.36 37.35 37.87 35.65 35.00 36.13 37.19 36.89 37.29 36.77 35.26 32.18 29.43 28.00 27.61 27.88 28.12 28.25 31.41 31.72 31.45 28.22 27.37 26.53 25.41 25.49 26.05 27.08 27.88 27.11 28.07 28.69 28.71 29.27
39.04 39.38 39.70 40.03 38.23 38.21 36.84 35.07 33.95 33.71 32.88 32.27 33.15 34.42 33.80 31.68 30.60 29.72 28.61 28.02 27.63 26.80 26.08 26.63 27.39 26.54 26.56 29.56 29.36 29.01 26.26 24.86 24.82 25.22 25.37 25.37 25.68 26.78 27.14 27.09 26.91 27.22 27.58
39.92 39.72 39.62 38.17 36.37 35.58 32.47 30.92 30.50 30.53 31.45 32.87 33.00 32.71 30.14 28.99 28.58 27.17 25.99 26.05 25.48 25.39 25.92 27.19 25.71 24.38 24.42 27.66 28.07 27.42 23.09 22.53 22.74 25.25 25.78 25.65 25.94 27.59 28.91 27.05 26.25 26.17 27.11
40.37 39.19 37.79 36.41 35.34 35.84 33.36 33.02 31.33 30.24 29.55 31.12 29.91 29.28 28.91 27.63 25.88 24.75 24.66 25.28 24.42 25.77 25.71 24.17 24.05 24.40 22.16 25.63 27.51 26.70 23.78 22.78 24.18 24.12 26.02 26.81 26.79 28.36 29.07 27.36 26.48 25.19 26.45
39.07 38.34 36.29 34.12 35.23 35.83 32.87 30.29 29.06 28.25 30.12 29.86 29.06 28.41 27.50 26.49 24.90 24.13 24.15 23.41 23.41 23.23 18.55 16.57 18.80 21.03 22.82 22.29 26.49 27.02 25.07 24.82 24.25 24.60 24.36 25.81 28.30 27.78 27.89 27.77 25.86 25.57 27.78
36.81 36.45 34.08 33.33 35.26 35.16 30.50 29.89 28.77 29.45 29.97 28.69 27.24 26.70 26.63 26.12 25.35 23.55 23.21 23.07 21.66 19.43 17.38 13.41 15.83 18.74 17.58 24.06 24.81 25.98 26.41 27.02 25.66 24.89 26.25 26.51 26.86 26.58 26.20 25.43 25.94 26.49 26.38
35.85 34.36 32.36 33.13 34.47 33.41 32.22 32.11 33.17 30.05 28.79 27.61 26.33 26.24 26.43 25.74 24.90 23.20 22.25 21.81 20.57 17.17 16.71 20.60 19.07 19.63 21.54 20.11 23.71 24.41 26.15 27.23 25.68 27.20 27.77 26.45 24.93 24.22 23.03 24.26 25.08 24.33 23.79
33.17 31.82 32.25 33.18 32.89 33.81 33.82 29.78 28.66 28.45 27.74 27.08 26.47 26.23 25.05 24.57 23.17 23.48 23.40 22.11 17.90 16.38 19.98 18.44 18.28 19.69 19.11 19.24 20.68 24.71 24.65 26.20 27.46 25.94 24.97 23.87 23.55 20.47 20.28 21.68 22.26 22.15 22.86
32.24 32.15 32.86 32.64 32.28 32.18 30.77 28.74 27.66 27.80 26.69 27.21 27.23 25.98 24.87 23.60 23.58 23.45 22.16 22.53 21.12 18.59 19.95 17.36 16.75 18.48 17.59 20.19 25.28 24.85 24.25 25.56 25.16 24.60 22.64 20.38 18.94 17.79 18.89 19.30 19.17 20.07 21.05
32.23 31.98 32.99 31.63 32.04 30.52 28.75 27.93 27.15 26.89 26.14 26.50 25.96 21.63 20.83 19.93 22.37 21.55 21.03 25.09 24.20 25.22 24.72 24.34 21.32 21.47 23.04 24.83 25.09 24.90 25.33 25.27 23.89 21.37 18.50 17.37 16.25 15.05 17.19 17.09 16.54 17.51 17.95

GFSMW_sfc_wetblb_009.txt.gz
Wetbulb
48.64 49.28 49.70 50.62 51.70 53.39 54.86 55.70 55.20 54.96 54.43 53.24 52.72 53.31 52.82 52.88 53.36 53.61 53.55 53.61 53.92 54.60 55.43 55.60 55.99 55.83 54.22 54.38 54.16 52.92 51.44 50.70 51.11 49.66 49.88 50.12 51.12 50.87 50.69 50.51 51.08 49.85 51.35
48.59 48.50 49.74 50.84 51.67 53.04 52.89 51.00 50.46 50.82 50.72 51.40 51.81 51.81 51.43 52.14 51.80 52.29 53.23 53.55 52.98 53.01 52.88 53.86 53.96 54.42 53.70 54.26 54.13 52.34 51.52 50.57 51.27 48.75 48.46 45.45 47.59 48.38 49.19 49.10 49.11 50.09 49.37
49.20 49.24 49.69 50.31 50.52 49.99 49.66 49.82 50.26 51.20 51.73 51.74 52.04 52.44 52.51 52.48 52.18 51.99 52.03 52.53 52.76 52.47 52.24 52.13 52.57 53.00 53.30 52.15 54.07 53.46 51.41 50.44 50.62 50.39 48.74 44.94 43.06 46.31 47.52 47.47 46.90 47.75 47.22
49.19 49.39 49.50 49.56 49.59 49.56 51.35 51.76 51.84 51.92 51.50 51.73 50.67 49.75 48.59 47.76 49.55 49.88 50.37 50.78 51.86 51.61 51.31 50.79 50.97 51.48 52.00 51.74 51.96 52.76 52.08 50.77 49.48 48.09 47.57 47.30 45.68 43.27 42.91 44.46 45.60 45.30 44.66
47.92 47.48 48.64 48.99 49.29 50.27 50.59 51.17 51.27 51.09 50.94 50.29 49.20 49.06 48.57 48.84 48.93 48.86 48.62 48.82 49.91 50.41 49.57 49.08 49.11 49.29 49.91 50.64 50.48 50.51 49.07 49.36 48.42 46.72 45.93 44.38 43.73 43.99 40.69 39.53 41.52 42.28 43.57
47.04 48.08 48.85 49.36 49.62 50.65 50.85 51.20 50.92 50.70 50.94 50.40 48.72 48.33 47.77 47.58 47.55 48.02 47.60 48.20 48.62 48.13 47.02 46.54 47.19 46.42 46.35 45.82 45.83 45.38 45.52 45.11 45.10 43.94 43.92 43.22 41.07 39.87 39.44 37.96 38.62 39.42 41.77
47.38 47.93 48.28 48.63 49.19 49.74 49.97 50.25 50.08 49.68 50.02 49.78 47.68 47.32 47.87 48.02 47.17 46.65 46.53 46.35 46.29 45.90 45.30 45.12 45.73 45.39 45.66 45.64 45.50 44.96 44.18 43.52 42.12 40.89 40.18 40.36 38.93 38.84 37.28 36.69 37.38 38.13 40.78
47.24 47.87 47.77 48.04 48.62 49.18 49.39 49.65 49.35 49.31 49.63 49.70 47.64 47.24 47.75 46.79 45.74 46.14 45.92 45.57 44.06 44.12 44.89 45.30 45.65 45.72 45.57 45.33 45.41 44.50 41.23 39.93 39.44 37.89 37.18 36.18 37.04 37.65 37.98 37.56 36.47 35.06 37.24
47.00 47.32 48.25 48.87 49.13 49.23 49.40 48.89 48.62 48.77 49.15 48.85 46.76 46.49 45.96 45.49 45.06 44.97 44.14 43.20 42.80 44.14 45.39 45.70 45.30 45.46 45.51 44.90 43.26 42.97 39.97 38.82 37.21 37.37 37.85 37.62 38.84 39.35 39.81 39.10 38.30 35.31 31.92
47.74 48.57 48.95 48.98 49.01 49.39 49.13 49.33 49.35 47.90 47.93 47.53 45.33 45.06 44.97 44.62 43.32 41.57 41.09 41.56 42.77 44.63 44.97 43.83 43.01 42.55 42.77 42.28 41.56 41.74 41.55 40.95 40.99 40.51 39.77 39.87 39.45 38.75 39.04 38.29 38.14 37.46 35.13
47.67 48.19 48.42 48.90 48.51 48.74 48.92 48.64 48.43 47.28 46.91 44.41 44.20 44.18 43.31 41.24 39.60 39.73 40.56 41.24 43.10 42.70 41.11 41.15 40.98 40.36 39.35 39.73 40.61 40.31 40.18 39.22 38.89 38.99 38.01 36.95 37.31 36.90 36.98 37.84 37.38 36.27 35.93
47.30 47.63 47.73 47.94 48.10 48.04 48.10 47.89 47.48 45.82 44.06 43.79 43.91 42.45 40.18 38.59 38.68 39.52 40.17 41.15 40.53 40.71 40.38 40.45 39.84 39.21 39.35 40.43 38.74 37.58 37.50 36.79 35.97 36.01 35.93 35.67 35.77 36.08 36.36 36.08 35.43 35.53 36.24
46.93 47.20 47.14 46.85 46.72 46.26 46.33 46.50 45.35 43.78 43.92 43.48 42.49 40.31 39.23 38.48 40.24 40.65 41.17 41.54 41.25 41.16 41.41 40.29 39.53 39.04 37.85 37.39 36.87 35.84 35.79 35.58 35.51 35.09 34.40 33.94 33.58 33.15 33.53 33.44 33.17 33.42 33.73
45.98 46.01 45.74 44.74 44.59 44.85 44.80 43.88 43.43 43.49 42.64 42.62 41.55 40.21 39.62 40.03 40.42 40.83 40.98 41.02 40.75 40.28 39.07 38.48 38.79 38.41 37.57 36.24 35.63 35.45 35.05 34.57 33.86 33.49 33.10 32.55 31.85 31.42 31.47 31.33 31.48 31.62 31.52
44.74 43.75 42.32 41.82 43.12 43.45 43.61 42.86 42.78 42.18 42.59 41.73 41.29 41.03 41.49 41.41 39.72 39.28 39.63 40.35 40.21 39.87 39.93 39.41 38.26 34.88 34.24 34.02 34.87 34.22 33.56 33.26 32.85 33.02 32.50 32.16 31.51 30.87 31.04 30.72 31.15 31.27 30.51
40.84 40.53 40.63 40.50 41.48 42.42 41.62 40.80 41.01 40.94 41.68 40.65 37.97 37.63 38.02 38.85 38.70 38.76 38.81 38.82 37.48 35.57 34.20 33.35 32.67 32.67 32.49 32.84 33.19 32.92 32.93 32.16 31.08 30.05 30.22 30.47 30.14 30.21 29.64 29.65 29.88 30.18 28.80
38.92 39.07 40.13 41.08 41.77 41.85 40.48 39.92 39.90 39.88 39.53 37.44 37.04 37.54 38.09 36.35 35.58 35.19 34.80 33.97 33.41 33.45 32.66 32.37 32.44 31.88 31.81 29.89 30.37 30.11 30.63 30.16 29.59 28.70 28.45 28.70 29.32 29.67 30.04 29.30 28.62 28.62 28.98
38.46 39.25 40.51 41.68 42.58 41.44 40.17 38.93 38.47 37.63 36.93 36.55 37.28 37.56 35.69 33.96 34.02 33.60 32.61 32.22 32.39 31.58 31.12 31.37 30.98 30.02 29.77 28.35 28.55 28.36 29.46 29.11 28.75 28.63 28.82 28.49 28.97 29.37 28.08 27.66 28.08 28.78 29.61
40.18 40.55 42.38 42.35 41.15 39.56 39.86 36.63 36.21 35.99 36.02 36.26 35.81 34.45 33.81 32.90 32.44 31.37 31.07 31.31 30.74 30.52 30.27 29.51 28.95 28.52 28.52 27.51 27.42 27.90 28.30 27.76 27.49 28.26 29.06 28.83 28.40 28.76 29.20 28.25 27.79 28.83 29.26
40.97 41.10 42.58 41.20 38.96 39.50 39.75 37.70 37.25 36.22 35.29 34.53 33.69 33.54 32.68 31.98 31.23 30.69 30.32 30.63 30.32 29.38 28.90 27.75 28.38 27.43 27.05 26.75 26.75 27.09 27.29 25.97 26.22 27.78 28.60 28.20 28.33 28.18 28.66 28.86 27.85 26.31 27.44
39.79 41.64 41.61 38.72 38.59 39.69 39.28 36.62 34.61 33.79 35.55 34.29 33.24 32.49 32.00 31.46 31.40 30.11 30.42 29.60 29.14 28.15 27.29 26.90 27.26 27.03 26.53 26.34 26.06 26.11 26.30 26.07 26.12 26.65 27.49 29.14 28.93 28.40 27.46 27.19 26.95 26.15 27.25
39.53 40.51 39.50 38.09 38.32 39.15 37.70 35.41 35.16 37.69 37.68 33.89 32.52 32.00 31.83 31.14 30.08 29.64 29.65 28.98 28.45 27.29 26.43 25.77 26.21 26.70 26.26 25.41 25.17 25.35 26.17 26.50 26.88 26.37 28.08 29.66 26.92 26.02 25.11 25.16 25.61 26.11 26.13
39.08 39.57 38.25 37.17 37.76 38.93 37.93 35.72 37.70 37.56 35.38 32.86 32.15 31.71 31.43 30.75 30.34 29.10 28.80 27.88 27.85 26.69 25.45 24.78 24.01 23.90 25.32 25.62 24.76 25.21 26.03 26.01 26.78 28.25 26.99 25.55 25.14 24.18 24.08 23.59 24.10 24.39 25.55
37.48 37.79 36.65 36.43 36.84 38.84 36.98 36.40 36.17 34.39 32.56 31.78 31.81 31.59 30.83 30.29 30.74 29.53 28.77 27.37 27.20 25.72 24.67 23.88 22.58 22.62 23.07 23.93 25.13 25.96 26.38 25.92 27.44 26.98 26.58 24.69 23.52 22.88 23.21 24.32 24.57 24.91 25.08
36.48 36.58 35.91 36.08 36.94 37.17 36.22 34.65 33.25 32.50 31.33 31.31 31.27 30.78 30.31 29.23 28.60 28.92 27.78 27.23 27.53 25.52 24.29 23.46 22.96 21.68 21.26 22.79 24.96 25.10 24.61 25.60 24.94 25.19 24.16 22.22 21.25 21.91 22.27 22.77 22.95 23.70 23.77
35.76 35.17 34.96 34.68 33.21 33.08 32.08 31.92 31.48 30.81 30.28 29.68 30.02 29.96 28.94 28.45 27.57 26.99 26.52 26.32 25.20 24.87 24.20 23.75 23.24 23.29 23.02 24.11 24.00 23.67 23.73 23.71 22.96 22.10 19.86 18.91 19.49 19.98 20.21 20.52 21.01 22.35 21.90

GFSMW_sfc_wetblb_012.txt.gz
Wetbulb
55.47 55.88 56.68 57.53 57.93 59.86 60.13 60.62 60.35 57.50 59.50 59.12 57.05 57.55 57.16 57.47 58.10 58.67 58.37 58.42 58.27 57.93 57.86 57.47 57.80 58.27 57.74 58.08 58.37 57.85 57.08 56.28 56.80 54.13 53.58 54.02 55.18 55.21 54.62 54.71 54.21 53.48 53.84
54.34 55.01 56.51 57.33 57.93 57.37 57.02 56.38 55.79 55.98 56.36 57.46 57.52 57.45 57.02 57.71 57.62 57.94 57.60 57.18 56.15 56.12 55.60 56.02 55.77 56.13 55.76 56.41 56.76 56.89 55.96 56.19 56.48 53.20 52.39 49.18 51.79 53.84 54.10 54.26 53.42 53.70 53.30
53.27 53.85 54.47 55.41 56.20 56.19 56.31 55.88 56.50 56.62 56.75 56.75 57.36 57.36 57.40 56.96 55.54 54.37 54.51 54.65 54.70 54.44 54.50 54.48 54.60 54.71 54.78 54.00 55.15 55.49 55.13 53.64 55.67 56.42 52.27 48.88 47.26 50.60 53.29 52.78 52.81 52.83 52.35
53.05 53.28 53.78 54.37 55.64 56.09 56.87 56.37 56.36 56.02 55.83 55.98 54.98 54.35 53.43 52.11 53.23 53.49 53.68 53.54 53.97 53.40 53.04 53.24 53.39 53.73 53.71 53.41 53.70 53.91 54.22 54.00 52.17 54.32 55.12 54.61 53.04 48.36 47.17 50.45 51.60 51.68 50.61
52.94 53.05 53.54 54.38 55.12 55.89 56.17 56.60 55.96 55.47 55.18 54.67 54.35 53.95 53.16 53.19 53.37 53.19 52.36 52.23 52.31 52.34 52.12 52.31 52.14 52.44 52.85 53.01 53.08 52.90 52.77 53.02 52.07 51.42 51.43 50.05 51.04 51.20 46.52 46.60 46.15 49.37 49.67
52.18 53.12 53.85 54.47 54.90 56.15 56.16 55.76 55.04 54.30 54.76 54.57 53.24 52.49 52.28 51.87 51.41 50.95 49.89 49.77 50.13 50.36 51.06 51.17 51.06 51.37 51.09 50.72 50.48 50.15 49.02 48.54 47.74 47.99 47.68 45.99 41.99 42.84 42.89 44.79 46.51 46.89 47.33
52.90 52.73 52.75 53.52 54.07 54.54 55.10 54.73 54.50 53.52 53.85 53.45 52.60 52.04 51.82 51.61 50.52 49.81 48.86 48.10 47.97 48.42 49.14 50.05 50.25 50.08 50.49 50.05 48.36 45.29 43.42 42.57 40.40 39.51 39.10 38.42 37.60 37.74 38.44 38.86 38.81 40.07 43.79
52.12 52.23 52.48 53.36 53.71 53.67 54.05 54.28 53.94 53.04 52.82 52.64 52.10 52.06 52.17 51.38 49.63 48.77 47.75 46.99 47.37 47.96 49.01 49.29 48.97 48.62 48.56 48.00 47.22 45.80 43.87 40.84 39.56 38.71 38.37 37.86 38.38 38.89 38.09 37.25 36.92 35.24 37.85
51.01 51.68 52.42 53.15 53.55 53.48 53.49 53.72 53.62 53.61 53.22 52.45 52.24 51.34 50.90 49.11 47.83 47.07 46.81 46.79 47.38 47.29 48.56 48.24 47.69 46.88 46.27 45.34 44.43 42.86 41.85 42.31 41.45 40.70 40.46 39.73 40.23 39.95 39.53 39.48 38.86 35.30 32.18
51.37 52.12 52.70 52.86 53.07 53.77 54.13 53.93 53.54 52.73 52.52 52.02 50.78 49.61 48.81 47.70 46.26 45.90 45.56 46.13 46.88 47.53 46.44 45.71 45.24 44.65 43.85 42.94 41.67 41.72 41.92 41.03 41.10 40.78 40.57 41.38 41.39 40.33 40.06 39.61 38.95 37.96 35.39
51.14 51.44 52.02 52.32 53.03 53.15 52.79 52.26 52.10 51.21 50.43 49.88 49.11 48.13 46.90 45.58 45.45 45.14 44.96 45.22 45.52 44.60 44.15 43.76 43.41 42.13 40.97 40.81 40.65 41.14 41.15 39.98 39.56 39.90 39.53 39.24 39.83 39.42 39.65 39.82 38.85 37.72 37.44
51.16 51.57 51.88 51.80 51.77 51.27 50.68 49.99 49.85 48.97 48.64 48.19 47.44 46.47 45.43 45.18 44.76 44.45 44.40 44.69 43.97 44.36 43.79 42.71 41.71 40.89 40.52 41.36 39.25 39.06 39.20 38.28 37.38 37.68 38.13 37.42 37.56 37.99 38.46 38.35 38.10 38.06 38.58
50.16 50.87 51.17 50.54 49.54 48.85 48.03 48.21 47.88 47.62 47.46 46.84 46.13 45.49 45.01 44.44 43.41 43.68 43.24 43.58 42.94 42.41 42.06 41.54 40.09 40.16 40.81 40.49 39.78 39.23 38.88 38.62 38.29 37.75 37.11 36.76 36.92 36.20 36.58 36.65 36.30 36.45 36.42
49.30 49.69 49.26 48.62 46.70 46.81 46.57 46.97 46.85 47.16 46.00 45.69 45.04 44.50 43.83 43.17 43.36 42.96 42.60 42.50 42.31 41.39 41.06 40.91 40.33 39.73 38.39 37.99 37.79 37.72 37.59 37.29 37.13 37.01 36.75 36.06 35.43 34.53 34.58 34.50 34.26 34.27 34.56
47.26 46.41 46.06 44.76 45.49 45.13 46.23 46.63 45.59 44.91 45.30 44.78 44.24 43.02 42.74 42.64 42.13 41.67 41.37 41.22 40.89 39.96 39.13 38.45 37.92 37.75 37.10 36.18 35.64 35.72 35.82 35.81 35.39 35.75 35.38 35.53 34.73 32.46 32.34 32.10 32.44 33.38 33.40
44.01 41.53 41.87 43.18 43.50 44.71 45.43 43.81 43.64 44.18 44.93 43.86 42.41 41.71 41.59 41.33 40.59 40.06 39.55 38.93 38.03 37.89 37.66 37.17 36.64 36.35 35.88 31.18 30.69 31.57 33.30 33.73 33.86 33.68 34.25 34.48 33.38 33.11 32.21 31.05 30.57 30.88 30.73
39.86 40.82 42.27 43.01 44.25 45.68 44.22 43.13 43.29 43.87 43.35 42.49 41.53 40.77 40.74 39.73 38.97 38.35 37.39 36.81 36.66 37.04 36.26 36.06 35.85 34.99 35.23 29.82 29.55 29.01 31.58 31.92 32.59 32.72 32.71 32.30 32.58 32.42 32.53 31.26 31.05 30.21 29.75
41.13 42.19 43.21 43.43 44.98 45.72 43.95 44.07 43.57 42.78 41.99 41.29 40.52 40.40 39.13 37.84 37.59 36.56 36.04 36.13 36.38 35.69 35.27 35.02 34.43 33.87 33.71 29.78 28.58 27.95 30.83 31.88 32.02 32.25 32.10 31.87 31.96 31.53 30.60 29.62 29.07 29.83 31.34
43.26 43.47 44.15 44.66 45.77 45.04 44.38 43.54 42.91 42.32 41.59 39.67 38.95 39.08 38.11 36.82 36.02 35.36 35.39 35.80 35.32 34.85 34.35 33.75 32.93 32.45 32.39 29.82 27.97 27.73 29.40 29.75 30.00 30.25 30.31 29.55 29.38 29.71 29.86 29.55 29.06 29.28 30.34
43.51 43.16 43.65 44.58 45.30 45.20 44.58 43.07 42.26 41.27 39.59 39.79 39.46 39.16 38.16 36.35 35.22 35.43 35.46 35.64 35.16 33.84 33.57 32.08 32.30 30.74 30.44 28.92 27.43 27.58 28.43 26.84 27.33 28.77 29.50 29.83 30.29 29.80 29.16 29.49 29.40 27.32 28.20
42.94 43.26 43.17 43.21 44.13 44.67 43.76 42.11 41.42 39.52 39.79 40.24 39.65 38.72 37.87 36.04 35.83 35.79 36.11 35.27 34.27 32.78 30.97 30.39 30.08 30.40 29.30 28.61 27.35 26.68 26.12 26.80 26.35 26.84 28.11 30.70 29.77 28.11 27.53 27.06 27.46 26.80 28.36
42.16 42.51 41.57 41.50 42.78 43.36 42.50 41.42 40.23 40.79 40.85 40.65 39.56 37.78 36.98 36.03 35.29 35.53 35.53 34.79 33.49 31.04 29.31 30.19 29.58 29.49 30.84 28.10 27.22 26.35 26.69 27.23 27.26 27.05 29.10 30.56 26.97 26.64 25.92 25.78 25.77 25.43 26.28
41.77 41.77 40.79 40.31 41.26 42.08 42.29 40.77 40.75 40.91 39.43 37.69 37.24 36.83 36.42 35.58 35.80 34.89 34.12 32.45 31.66 28.77 27.88 26.92 26.55 27.30 28.44 28.69 26.52 26.51 26.75 26.52 27.07 28.93 28.03 26.35 25.65 25.59 25.98 25.20 24.84 25.42 28.32
40.17 40.50 39.53 38.53 38.48 40.58 40.13 39.45 39.27 38.60 37.54 37.25 36.20 36.47 35.83 34.69 35.53 34.85 32.73 31.42 29.03 27.43 26.31 25.77 25.53 25.76 26.34 25.71 25.86 26.50 26.58 26.31 27.52 26.54 28.76 26.56 25.31 26.03 26.41 26.50 26.45 27.08 27.53
39.47 39.28 38.04 37.72 37.46 38.67 38.04 38.49 36.97 36.26 35.37 34.93 35.30 34.89 34.47 34.19 33.64 33.12 32.00 30.42 29.56 27.18 25.81 25.75 25.24 23.93 23.30 23.57 24.79 24.67 24.51 25.27 24.75 25.26 26.42 24.73 23.62 24.69 25.14 25.00 25.32 26.58 26.45
38.87 38.04 38.03 37.40 37.27 37.08 36.71 35.61 35.48 34.49 33.20 32.54 33.46 34.07 33.62 33.42 32.16 31.53 30.76 27.13 25.74 24.63 24.00 23.37 23.70 24.36 23.48 23.43 23.62 23.51 23.24 23.03 23.03 24.16 22.31 21.52 21.63 22.29 23.20 23.52 23.94 24.89 24.58

GFSMW_sfc_wetblb_015.txt.gz
Wetbulb
59.71 59.25 59.10 59.95 61.12 62.96 63.36 64.18 63.09 60.32 60.58 59.99 58.31 58.28 57.89 58.64 59.24 59.80 59.71 59.74 59.03 58.08 57.78 57.05 57.37 57.95 56.60 57.73 59.07 58.56 58.00 57.43 59.27 57.49 57.28 57.68 58.17 58.00 57.05 57.55 56.51 55.68 55.67
56.01 57.12 58.47 59.36 59.38 59.51 59.67 59.24 58.50 58.31 58.40 58.55 58.51 58.90 58.37 58.61 58.91 59.33 58.66 58.22 57.29 56.57 55.69 55.54 55.12 55.37 54.44 56.60 57.09 57.09 55.87 56.74 57.97 55.41 55.19 52.29 54.25 57.03 57.12 56.63 56.60 56.83 56.03
54.37 55.45 56.50 57.74 58.72 58.30 58.32 57.99 58.13 58.25 58.13 58.14 58.39 58.04 58.15 58.07 57.14 57.08 56.52 56.76 56.53 55.65 55.14 54.52 54.53 54.94 55.27 54.32 55.92 55.72 55.11 53.23 55.29 56.83 53.83 49.67 48.66 52.71 56.34 57.14 56.21 56.32 55.80
54.74 55.45 56.26 56.76 57.52 57.85 58.38 58.15 57.64 57.39 57.33 57.56 56.73 56.31 55.15 54.16 55.38 55.59 55.77 55.21 55.02 53.94 53.41 53.23 54.11 54.68 53.76 53.76 54.33 53.71 54.99 54.12 51.74 53.82 53.34 55.07 53.68 48.74 48.12 53.92 54.34 53.93 53.48
55.12 54.93 55.58 56.35 57.16 57.99 58.24 58.10 57.30 57.03 57.19 57.08 56.14 55.05 54.30 54.59 54.89 54.52 53.85 53.04 53.11 52.84 52.20 52.34 53.26 52.77 52.51 52.67 52.62 51.85 51.55 51.22 50.04 49.96 49.83 49.09 49.36 49.66 45.30 45.99 49.85 50.14 51.20
54.43 55.07 55.74 56.30 56.69 57.77 58.01 57.86 57.12 56.72 56.65 56.69 55.99 54.53 53.53 53.08 52.19 52.00 50.87 50.92 50.85 50.65 51.30 50.61 51.46 52.07 51.53 51.21 50.86 49.46 48.40 46.62 46.00 44.77 43.52 41.28 40.84 40.71 40.87 39.50 44.86 44.56 48.47
54.74 54.45 54.71 55.36 55.57 55.88 56.52 57.07 56.55 56.08 56.35 55.27 55.03 54.76 53.50 53.06 51.78 50.84 49.89 48.48 47.93 48.50 49.73 49.70 50.27 49.96 50.34 49.43 48.05 46.33 45.07 43.56 42.19 39.87 39.42 39.50 38.20 38.08 37.11 36.94 36.94 38.06 41.29
53.86 53.83 54.37 54.95 55.50 55.54 56.22 56.20 55.77 55.24 55.90 55.66 54.87 54.62 53.63 52.04 50.79 49.58 47.78 46.93 47.04 48.11 48.71 49.16 49.69 48.40 48.05 46.37 44.46 43.36 41.77 41.04 41.99 40.62 39.83 39.26 40.06 40.17 39.12 37.94 37.12 35.71 37.83
52.70 53.22 54.28 54.81 54.90 55.14 55.48 55.45 54.88 54.38 54.43 54.58 54.15 52.88 51.78 50.37 48.77 47.63 47.20 47.25 47.48 47.46 48.57 48.18 46.84 45.99 44.28 44.53 44.86 43.86 42.87 43.23 42.46 42.36 41.98 40.85 40.33 40.41 39.86 39.70 38.04 35.21 32.44
52.93 53.64 53.87 54.40 54.50 54.85 55.06 55.04 54.26 53.48 52.93 51.74 51.94 50.84 50.16 49.21 47.48 46.91 46.27 46.19 46.61 46.77 45.94 45.87 45.32 43.77 43.69 42.98 43.06 41.99 42.32 41.94 42.50 42.21 41.25 40.90 41.00 40.85 40.76 39.56 39.11 38.62 35.62
52.66 53.00 53.41 53.80 54.10 54.52 53.99 53.17 52.53 51.90 51.19 50.69 49.96 49.15 48.32 47.42 46.81 46.11 46.12 45.23 45.27 44.76 44.47 44.01 43.54 42.47 41.81 42.02 41.90 41.23 41.23 40.11 40.09 40.15 39.24 39.20 39.90 39.12 39.61 40.05 39.89 38.83 37.70
52.24 51.77 51.59 51.98 52.16 52.27 52.22 51.36 50.78 49.51 49.36 49.19 48.29 47.37 47.10 46.83 46.20 45.38 43.92 44.04 43.42 44.45 44.50 43.80 41.97 42.02 41.93 41.47 40.47 40.35 39.88 39.01 38.51 38.91 38.82 38.47 38.53 38.18 38.59 38.32 37.57 37.71 38.75
49.93 50.50 51.03 50.96 49.90 50.41 50.02 48.75 48.90 48.55 48.55 47.37 46.39 46.19 46.08 45.51 43.62 43.30 43.01 42.88 42.80 42.43 42.86 42.48 41.46 40.89 40.58 39.69 39.19 38.90 38.38 37.96 37.98 37.70 37.10 37.12 37.03 36.24 36.74 37.02 36.58 36.53 36.59
48.79 48.86 49.41 49.28 49.48 48.20 47.49 47.72 47.89 47.90 46.70 46.00 45.52 45.11 45.02 43.91 42.81 43.25 42.79 41.99 41.93 40.80 39.79 39.96 39.41 39.23 38.80 38.59 38.43 37.75 36.53 36.59 36.67 37.34 37.02 36.77 36.06 35.74 35.63 35.44 35.18 34.76 34.24
48.32 47.71 47.61 46.91 46.38 46.25 46.58 47.15 46.89 46.31 45.96 45.00 44.74 44.45 44.32 43.18 42.24 42.10 41.26 40.89 40.30 39.47 39.25 38.78 38.69 38.52 38.23 37.09 35.79 35.08 34.10 34.14 34.45 35.45 35.98 36.61 36.57 34.47 33.91 32.83 32.41 32.21 31.95
45.93 45.85 44.71 45.16 44.85 45.15 45.62 46.44 45.77 45.68 45.22 44.25 43.58 43.90 42.79 41.57 41.58 40.61 39.92 39.27 38.75 38.44 38.51 37.81 37.63 37.17 36.81 31.13 30.57 30.78 31.96 31.83 32.46 32.78 34.14 35.21 35.30 35.08 34.30 33.59 32.94 31.88 29.89
42.63 44.94 44.42 44.92 45.20 45.38 46.17 46.05 45.20 45.79 44.45 43.61 43.37 42.79 41.95 40.94 40.19 39.29 38.68 37.96 37.63 38.01 37.29 37.05 36.83 35.86 35.79 30.44 30.07 29.64 31.14 30.45 31.49 32.66 33.08 33.17 34.32 33.86 33.72 33.34 32.42 31.73 31.61
44.12 44.90 45.09 44.74 45.08 45.70 46.05 46.70 45.90 44.88 43.98 43.13 42.71 42.27 41.46 40.45 39.12 38.81 37.65 37.58 37.48 36.94 36.46 35.93 35.62 34.81 34.39 31.27 29.62 28.76 29.97 30.59 31.03 31.70 31.98 31.89 32.09 32.69 31.47 30.86 30.27 30.88 31.38
45.17 45.07 45.26 44.85 44.72 45.02 45.62 45.15 44.07 43.62 43.17 42.29 41.27 41.01 40.94 39.16 38.12 37.55 37.04 37.21 36.79 36.24 35.55 35.36 34.30 32.60 32.54 31.84 29.73 28.75 28.92 28.44 28.58 29.63 30.73 30.27 29.79 30.70 30.83 29.56 29.02 29.38 30.18
44.84 44.28 44.74 44.59 44.25 44.13 44.41 43.26 42.51 42.13 41.85 42.08 41.26 41.31 40.16 38.73 37.58 37.37 36.95 37.31 36.79 35.57 35.17 33.93 32.91 31.36 31.15 31.60 29.79 28.99 28.74 26.58 27.43 28.54 28.94 29.85 30.24 30.39 30.49 30.01 29.80 28.15 28.34
43.76 44.73 44.25 43.26 43.33 43.53 42.99 41.45 41.48 41.03 42.07 42.09 41.74 41.22 40.34 39.01 38.09 37.38 37.36 36.70 36.11 35.36 33.81 32.94 32.72 31.88 31.87 31.03 29.71 28.15 27.68 27.16 27.19 27.02 28.20 30.56 28.90 28.01 27.77 27.61 27.65 27.05 28.34
43.43 43.56 42.50 41.99 42.55 42.35 41.37 40.22 39.99 41.86 42.56 42.17 40.26 38.67 38.71 37.93 37.41 36.84 36.65 36.06 34.91 33.37 32.12 31.85 31.18 31.44 32.50 30.21 28.71 27.39 27.04 27.56 26.75 26.39 28.87 30.15 28.10 27.08 26.86 26.57 26.64 26.36 26.16
41.99 42.13 41.16 40.72 41.04 41.13 40.59 38.74 39.80 40.76 39.91 39.46 38.12 38.62 38.03 37.42 37.44 36.24 35.38 34.12 33.75 31.10 29.55 28.24 28.44 28.72 30.10 29.78 28.27 26.59 26.56 26.40 26.88 28.53 27.36 27.76 27.65 26.96 26.81 27.84 26.41 26.27 27.86
40.19 40.58 40.12 39.34 39.01 40.10 39.93 39.50 39.07 38.26 37.44 36.25 36.46 36.74 36.30 35.93 36.48 36.01 34.99 33.15 31.87 28.89 27.92 26.97 26.23 26.53 25.82 27.45 26.60 26.13 26.38 25.45 25.86 25.48 26.13 27.97 26.85 26.89 28.19 28.54 28.47 29.05 28.86
39.90 39.97 39.34 38.89 38.82 39.63 39.17 38.88 37.79 36.79 35.56 35.08 35.10 35.05 35.57 35.41 34.93 34.54 33.74 32.46 31.88 28.64 26.94 26.04 24.89 23.83 22.87 24.11 24.56 24.47 24.00 24.39 23.75 24.06 26.88 25.15 24.06 23.81 25.42 26.70 26.96 27.90 27.50
39.36 39.42 39.32 39.07 38.95 38.38 37.24 36.97 37.45 35.98 34.09 32.68 33.55 34.55 34.33 34.02 32.32 32.80 31.95 28.25 26.98 25.70 24.73 23.12 23.85 24.45 23.47 23.33 23.45 23.60 23.33 23.54 23.31 24.42 22.74 22.10 22.21 22.03 23.00 23.78 24.50 25.54 25.11

GFSMW_sfc_wetblb_018.txt.gz
Wetbulb
57.46 58.33 59.30 60.50 61.73 63.04 61.67 62.50 59.87 60.16 59.39 58.30 56.84 56.99 56.56 57.13 57.67 57.75 58.97 57.58 57.27 56.07 54.86 53.82 53.59 53.19 52.23 52.21 52.81 52.26 51.22 51.59 52.43 52.29 52.17 52.99 54.54 54.53 54.48 54.09 52.04 52.11 52.62
55.55 57.17 57.89 58.24 58.55 58.60 58.83 58.53 58.10 58.10 57.38 57.42 57.01 57.00 56.60 57.20 56.88 57.45 57.18 57.03 55.75 55.01 54.12 53.34 52.29 51.90 50.72 50.37 50.36 50.59 50.40 50.32 51.06 49.88 49.57 46.76 49.26 51.81 53.29 54.24 53.36 52.20 53.31
54.03 55.40 56.49 57.41 58.18 57.52 57.64 57.26 57.49 57.38 57.14 57.05 56.61 56.28 56.30 55.95 55.10 54.80 54.57 55.62 55.01 53.91 52.82 51.98 51.12 50.79 50.57 49.19 48.50 48.68 48.56 47.76 48.95 49.51 47.91 44.88 43.12 46.47 49.65 50.30 51.48 52.71 53.15
54.48 55.22 56.04 56.30 56.73 57.04 57.95 57.37 57.51 57.14 56.91 56.91 55.40 54.54 53.59 51.95 53.43 53.58 53.51 53.04 52.97 52.54 50.99 50.49 50.03 49.19 49.65 48.67 48.54 49.91 48.53 47.84 45.97 47.30 47.32 44.85 44.90 42.85 42.46 46.90 49.37 50.71 51.15
54.58 54.43 55.02 55.83 56.53 57.59 57.51 57.69 57.56 56.94 56.90 56.22 55.60 53.56 52.57 52.59 52.64 51.98 51.38 50.69 50.47 49.93 49.63 48.87 48.17 47.91 48.42 48.08 48.64 48.04 46.11 45.04 43.28 42.22 41.82 40.84 40.87 42.21 40.10 38.46 41.66 45.29 48.75
54.39 54.70 55.76 56.35 56.24 57.75 57.62 57.49 56.65 56.38 56.78 55.43 54.72 53.62 52.51 51.40 50.43 49.80 48.47 47.49 47.08 47.06 47.46 48.25 47.31 47.73 47.97 46.70 46.42 45.16 44.09 42.83 42.40 41.71 40.53 39.30 37.87 36.78 36.72 36.58 36.60 37.48 41.90
54.43 54.63 54.57 54.78 55.60 55.67 56.31 56.18 55.88 54.77 55.52 55.75 54.31 53.85 52.09 51.02 48.90 47.74 46.06 44.98 45.00 45.06 45.40 46.78 47.17 46.62 46.02 44.73 44.16 42.81 41.32 40.69 40.10 40.08 38.25 38.81 37.71 38.52 37.44 36.58 36.00 35.28 37.12
54.15 53.98 54.29 54.63 54.79 55.26 55.43 55.57 54.65 53.69 53.49 53.78 53.12 53.07 51.77 49.44 48.26 46.54 45.27 44.55 44.23 44.78 46.22 45.34 46.34 43.95 44.16 44.42 43.87 43.26 42.11 40.65 40.87 41.06 40.54 39.28 39.11 38.73 38.03 36.99 35.47 32.93 35.83
53.45 53.59 54.42 54.78 54.20 54.23 54.42 54.33 53.42 52.75 52.85 52.39 51.58 50.59 49.44 48.38 46.62 45.70 45.09 44.50 45.00 45.07 44.48 44.72 44.05 43.47 43.50 43.28 42.48 41.34 40.80 41.07 41.08 41.31 40.63 40.06 39.44 39.07 38.73 37.53 37.34 34.26 29.93
52.75 53.17 53.33 53.59 53.92 54.06 54.06 53.64 52.86 51.35 51.20 50.10 49.21 48.32 47.76 47.40 46.16 45.34 44.42 43.80 43.28 43.90 43.15 43.38 43.09 42.98 42.85 41.86 40.96 39.97 40.33 40.64 41.01 40.90 40.24 39.62 40.36 40.00 39.36 39.52 38.81 37.08 34.76
51.78 52.20 52.22 52.74 52.78 53.41 51.82 51.62 50.68 49.43 48.70 48.34 48.16 47.06 46.39 46.21 45.80 44.85 43.60 43.02 42.86 42.32 42.31 43.20 42.30 41.44 40.52 40.86 40.59 40.18 39.41 39.30 38.27 39.02 38.90 38.27 38.55 37.73 37.50 37.29 37.58 37.24 36.51
51.06 51.19 51.48 51.89 51.21 50.69 51.05 50.10 48.88 48.21 47.85 47.55 46.39 45.28 45.57 45.28 44.60 43.11 42.70 42.43 41.58 42.09 41.65 41.20 40.77 40.14 40.09 39.75 39.24 38.00 38.08 37.35 36.72 37.07 37.32 37.18 38.10 36.19 35.48 35.29 34.37 34.10 33.68
50.05 50.49 50.39 49.90 49.39 49.33 48.86 48.25 47.64 47.20 47.16 45.96 44.85 44.18 44.32 43.90 42.46 41.70 42.15 41.98 41.11 40.56 39.79 38.63 37.45 36.93 36.80 36.24 35.77 35.52 34.98 33.51 33.33 33.33 33.75 34.09 34.42 32.82 33.20 33.49 33.05 33.02 34.13
48.92 48.78 48.47 48.26 47.81 47.12 47.01 46.38 46.37 47.37 45.88 45.18 43.83 43.15 43.42 42.73 41.37 41.35 41.41 40.93 40.47 38.72 37.55 37.38 37.23 37.24 36.68 36.55 35.58 34.92 33.00 32.03 31.88 32.21 32.10 32.45 32.49 31.92 31.80 31.99 30.66 31.31 29.53
47.81 47.08 46.51 46.25 45.67 45.66 45.55 45.98 46.20 46.43 45.75 44.44 43.21 42.83 43.30 42.62 41.35 41.24 40.74 39.94 39.06 37.79 37.49 36.79 36.50 36.24 36.18 33.69 31.64 31.51 30.49 29.83 29.63 30.09 31.24 32.05 33.77 35.96 33.63 31.54 28.88 28.06 26.73
45.56 45.19 45.68 45.60 45.09 45.30 45.02 45.12 45.46 45.92 45.53 44.30 43.24 43.73 43.32 42.56 41.11 40.39 40.07 39.21 37.32 36.82 36.21 35.40 35.27 34.76 35.61 31.51 31.24 29.93 27.72 29.19 28.48 27.46 28.78 30.83 33.39 33.38 34.76 34.44 34.11 31.18 26.88
43.93 44.40 44.55 45.28 44.63 43.92 44.23 43.53 44.48 45.77 44.91 44.06 43.99 43.13 42.71 41.40 40.59 40.01 38.73 37.39 35.71 35.53 34.78 34.45 34.38 33.33 32.86 31.84 31.15 30.04 28.06 27.20 26.96 27.20 27.75 29.08 31.67 31.48 31.31 30.76 31.88 31.33 31.97
43.95 44.30 44.85 43.91 43.99 44.02 43.86 43.78 43.57 43.00 42.79 43.01 42.62 42.52 41.61 40.67 40.05 38.98 37.69 36.63 35.58 34.37 33.58 33.21 32.96 31.92 32.36 33.26 31.79 30.45 26.66 25.99 26.33 26.99 26.33 26.56 27.34 28.68 29.25 28.18 27.73 28.17 28.90
45.14 44.38 43.91 43.75 43.68 43.46 43.20 42.16 41.53 41.45 41.31 41.13 40.64 40.77 40.83 39.90 39.09 38.05 36.70 35.09 34.47 33.50 33.35 33.36 31.84 30.11 29.79 32.55 32.36 30.49 26.36 26.08 25.25 26.08 26.91 27.00 26.23 29.15 30.98 28.77 27.26 27.25 28.12
43.82 42.98 43.64 43.59 42.62 42.31 42.02 40.48 39.75 39.36 39.03 40.94 40.69 41.15 40.99 39.65 37.38 36.42 35.67 34.79 34.88 33.87 32.91 31.72 31.12 31.95 29.19 32.49 32.28 29.58 26.22 23.18 24.61 25.74 26.79 28.45 28.82 28.85 28.23 26.97 26.92 25.64 26.03
42.98 43.48 42.88 41.41 41.29 41.48 40.79 39.09 38.77 37.93 39.51 40.38 40.17 39.81 39.58 38.26 37.54 36.66 35.51 34.47 33.04 31.71 30.35 29.69 29.71 29.49 29.92 29.24 30.00 28.59 25.75 24.51 23.68 24.04 24.41 26.25 28.93 29.18 28.81 27.65 25.75 25.07 27.14
41.58 41.41 40.03 39.82 40.71 40.83 39.83 38.35 37.40 39.05 39.20 38.69 38.08 38.06 38.81 38.57 37.68 35.27 34.22 33.31 31.36 29.82 28.23 25.52 26.74 28.15 28.02 29.57 28.68 27.86 26.30 25.80 23.91 23.30 25.23 26.72 27.14 28.22 27.55 26.89 27.45 27.98 26.43
39.87 40.26 39.19 38.97 39.77 40.25 39.79 37.67 38.23 38.44 37.44 36.43 36.01 36.46 36.83 37.00 36.63 34.33 31.71 30.04 29.91 27.70 26.57 26.51 24.91 24.75 25.76 25.33 26.87 25.43 25.39 25.21 23.22 24.95 25.08 26.34 28.07 27.13 27.03 27.69 28.88 27.62 25.73
38.82 39.34 38.77 38.25 38.56 39.83 39.62 38.58 37.87 37.53 36.17 34.74 34.46 34.66 34.33 34.41 34.01 33.90 31.73 29.64 28.04 26.56 26.17 24.69 22.88 22.37 22.81 22.21 22.13 22.63 23.31 24.00 23.79 23.40 23.18 25.62 25.84 25.21 25.66 27.09 27.58 27.34 27.61
39.37 38.98 38.51 37.80 37.89 38.93 38.32 37.83 36.94 36.67 34.51 33.69 33.35 32.47 32.53 32.48 31.97 31.98 29.25 28.84 27.94 26.09 24.06 23.24 22.16 19.10 17.67 20.34 23.05 22.77 22.15 22.55 23.20 22.23 24.41 23.11 22.14 21.86 23.04 23.84 24.31 25.85 25.29
38.64 38.11 38.14 37.83 37.77 37.75 36.96 37.08 36.69 35.16 32.75 30.16 30.44 30.17 30.81 30.72 30.22 29.91 29.07 29.94 27.68 27.05 26.45 24.32 21.47 20.20 22.93 24.04 23.98 23.83 24.01 24.64 24.02 22.42 20.85 19.72 19.52 19.91 21.29 21.51 21.59 22.77 23.56

GFSMW_sfc_wetblb_021.txt.gz
Wetbulb
53.56 54.51 54.77 54.96 55.43 54.81 55.19 54.39 53.99 53.03 53.25 52.36 51.24 51.19 50.79 51.58 52.20 53.23 53.15 53.77 52.89 52.16 50.89 50.29 49.51 49.26 48.24 47.69 47.90 47.43 47.26 47.49 48.27 47.41 48.11 48.01 49.59 50.11 51.87 52.45 51.05 50.73 51.35
52.39 53.75 53.73 52.85 52.40 51.90 52.59 52.67 52.65 52.55 52.48 51.51 51.21 51.78 50.70 51.66 51.80 52.22 52.65 52.75 51.05 50.37 49.73 47.74 47.51 47.54 47.46 46.90 46.55 45.70 45.09 44.98 46.15 44.52 45.52 42.72 45.13 46.52 48.07 48.54 49.97 50.12 51.20
50.93 52.49 52.61 50.99 50.63 50.66 50.98 52.26 52.33 52.33 51.83 51.71 51.45 50.87 51.11 50.23 49.89 50.08 50.19 49.57 49.24 48.62 47.65 47.08 46.23 46.27 46.08 45.79 45.12 44.95 44.88 44.26 45.07 44.72 42.96 40.17 40.13 40.42 45.98 46.64 47.98 47.46 49.34
51.60 52.45 51.43 50.61 50.73 50.54 51.37 51.80 51.96 51.82 52.60 51.81 50.28 49.37 47.93 47.07 48.43 48.13 47.80 47.35 47.17 46.76 46.87 46.18 45.66 45.24 45.07 44.42 44.66 46.44 44.11 42.93 40.77 42.14 43.16 41.41 41.58 37.46 36.25 42.36 43.57 42.51 45.22
49.34 49.63 50.48 51.16 51.39 51.61 51.11 51.53 52.02 51.91 51.65 51.40 50.51 48.63 47.71 48.04 48.17 47.09 45.52 44.61 45.15 45.78 45.97 45.64 44.56 44.55 45.24 44.68 43.93 43.55 43.63 43.42 42.42 40.71 40.33 39.75 37.77 37.30 34.84 33.80 36.49 38.96 40.54
48.94 50.14 50.95 51.93 51.22 51.09 50.85 50.63 51.02 51.30 51.42 51.46 50.33 48.40 47.11 46.44 45.10 43.79 42.80 42.80 43.10 43.55 43.79 45.08 44.51 44.34 42.74 42.73 42.96 43.02 41.44 41.04 40.99 40.37 39.82 39.04 36.66 36.09 35.55 34.06 34.02 34.09 36.53
47.85 48.39 49.06 51.29 51.64 49.08 49.67 50.38 50.12 49.75 49.97 50.03 49.26 47.78 45.91 44.78 42.95 41.73 41.10 41.01 41.15 40.92 41.54 42.51 42.95 42.30 42.24 41.62 41.23 40.95 41.62 40.72 39.68 37.52 37.39 37.04 37.13 37.46 36.48 35.46 34.43 33.52 34.78
48.76 48.17 48.74 48.57 48.77 49.59 49.09 49.35 49.37 49.27 49.35 48.77 47.40 46.26 45.82 44.47 43.02 42.14 41.42 40.76 40.72 40.79 40.99 41.27 41.74 42.90 42.83 41.27 40.95 40.03 40.22 39.19 38.24 37.15 37.76 38.91 38.45 39.13 38.07 36.23 35.19 31.49 30.30
48.51 49.25 48.58 48.47 48.03 48.10 48.64 48.35 48.17 47.86 48.51 46.56 45.62 44.77 44.76 44.06 42.55 41.59 40.75 40.54 40.08 41.98 40.33 40.00 40.73 42.84 42.08 40.94 40.11 38.93 37.77 37.58 37.44 38.09 40.60 40.51 39.95 39.20 39.50 39.14 37.15 34.32 29.31
47.77 47.22 47.48 48.04 48.19 47.91 47.83 47.32 47.49 46.19 45.16 44.24 44.87 43.70 42.69 42.50 41.67 40.86 39.76 39.79 39.44 40.07 38.84 39.38 40.24 40.53 40.33 39.71 38.49 37.69 38.16 37.61 37.21 37.63 37.40 36.70 39.40 38.81 39.25 38.92 38.49 37.27 34.13
45.61 46.61 47.23 47.28 47.37 47.26 46.69 46.33 44.49 43.90 43.35 43.00 42.45 41.37 41.08 41.34 40.99 40.37 39.71 39.34 39.26 39.23 39.22 39.84 38.94 38.49 38.35 38.27 37.59 37.01 37.47 37.13 36.37 35.51 35.30 35.52 37.04 36.78 36.89 36.97 36.51 35.75 35.84
45.76 45.91 46.44 46.27 45.51 45.19 44.87 44.55 43.12 42.78 42.48 42.23 41.77 41.02 40.99 40.56 39.76 39.27 39.40 39.05 38.15 38.37 38.16 37.62 35.69 35.40 34.87 34.95 34.53 34.11 32.45 31.79 30.54 30.75 30.44 30.88 33.56 31.72 32.69 33.16 32.50 32.43 32.38
45.29 45.03 44.71 44.38 43.92 43.32 43.03 42.42 42.10 42.65 42.35 41.84 40.30 39.41 39.67 39.74 38.46 38.04 38.74 38.78 37.83 37.10 35.88 34.98 34.39 34.31 34.58 33.76 32.93 32.55 31.59 30.64 30.77 29.99 29.38 29.20 29.54 28.83 29.92 30.49 29.97 30.07 31.99
44.33 43.56 42.86 43.16 42.74 42.89 42.04 41.68 41.75 42.55 42.46 41.60 40.18 40.12 39.23 40.53 38.05 38.11 38.05 38.52 37.24 35.74 34.20 34.39 34.64 34.75 34.26 32.98 31.99 31.14 29.31 28.56 29.11 29.57 28.95 28.81 28.90 28.44 28.78 30.07 29.06 29.58 27.32
43.29 43.15 42.30 42.11 41.52 41.11 41.04 41.12 41.37 41.77 42.16 41.54 40.58 40.48 41.28 41.20 38.41 38.70 39.63 39.03 37.17 35.56 34.37 33.98 33.75 33.58 33.20 31.72 29.09 28.48 27.11 26.66 26.85 27.53 28.23 28.52 30.03 32.69 32.96 31.33 29.78 27.18 25.45
42.49 42.29 42.32 42.12 41.88 40.81 39.91 40.37 40.07 40.49 42.22 41.31 41.14 41.98 40.94 39.91 39.98 38.80 39.17 38.34 36.05 33.39 33.05 32.73 32.94 31.43 32.50 31.80 31.09 29.00 25.92 26.40 26.10 24.80 25.60 26.96 29.18 29.74 30.80 32.03 31.89 31.19 27.54
41.03 41.57 41.94 42.21 40.67 39.24 39.90 37.97 38.21 39.02 38.30 38.54 39.25 39.84 39.77 39.96 39.92 39.61 39.49 36.95 33.74 32.27 31.58 31.61 31.43 30.18 29.15 32.42 31.66 30.83 27.12 25.42 24.45 23.84 24.59 25.15 27.35 27.77 27.89 29.32 30.26 30.15 31.44
41.84 42.24 42.16 41.31 38.88 38.45 37.84 37.85 37.77 37.24 37.03 37.01 38.76 39.13 39.02 38.54 38.21 38.41 37.26 34.88 32.70 31.90 31.04 31.07 29.39 28.70 30.49 32.85 32.99 32.31 26.59 25.04 25.04 24.84 24.65 24.26 25.13 26.22 26.97 26.53 26.57 26.68 27.41
41.44 40.13 38.46 38.35 37.26 36.95 37.09 36.54 35.86 35.73 35.77 37.41 37.71 37.98 38.53 37.39 36.80 36.10 34.05 34.49 32.92 31.39 31.08 29.87 28.97 27.98 28.02 31.81 31.94 29.22 26.42 26.25 25.49 26.04 25.98 25.63 25.14 27.62 29.86 26.96 25.31 25.91 27.27
38.55 38.16 37.83 37.07 35.88 36.24 36.35 35.64 34.69 34.38 35.28 36.44 36.27 37.28 37.45 37.15 36.79 34.76 34.99 33.96 30.98 31.04 29.79 29.46 28.74 29.94 26.69 30.41 30.14 28.65 23.36 20.90 23.37 23.76 24.85 26.17 26.03 28.63 28.72 27.37 23.16 22.62 23.75
38.11 37.61 36.25 34.87 35.18 36.00 35.86 34.52 33.91 33.85 35.58 35.96 36.10 36.28 36.92 36.51 37.09 34.85 33.47 31.66 29.00 28.21 26.08 25.55 26.54 27.21 27.60 25.87 28.59 27.51 23.97 22.93 23.34 22.34 22.57 24.45 26.61 26.93 28.64 28.01 26.01 24.53 25.82
35.65 36.37 34.63 34.47 35.32 36.15 35.40 33.64 33.22 35.12 35.46 34.74 34.16 33.90 34.52 35.59 36.22 33.79 32.42 29.43 26.71 25.91 23.56 16.04 19.25 22.54 23.31 26.57 25.92 25.85 25.00 24.62 21.70 21.69 23.27 24.21 27.19 27.87 27.16 26.98 28.14 28.89 27.47
34.11 35.27 33.90 34.60 35.61 35.65 35.40 33.40 33.81 34.73 34.19 32.71 32.00 31.59 31.94 32.73 32.56 28.78 26.45 26.10 25.61 21.51 21.80 23.02 16.73 20.03 22.62 20.79 24.38 24.02 24.40 24.19 22.56 23.36 24.48 26.18 25.96 25.87 26.08 27.22 27.58 27.09 27.02
33.44 34.21 34.58 33.90 33.83 35.18 35.72 34.16 33.93 34.11 32.57 30.76 30.60 30.73 30.05 30.18 29.64 28.63 27.17 25.52 21.13 19.51 23.26 20.32 18.47 16.88 19.35 17.95 20.30 21.16 18.32 23.20 23.62 22.83 23.16 24.70 24.06 23.98 24.30 24.39 24.86 25.29 24.94
34.07 34.41 33.49 33.62 33.72 34.70 34.47 34.06 33.61 33.18 31.18 30.07 29.64 27.97 27.36 27.58 27.74 27.16 25.20 25.47 23.66 22.26 19.57 18.56 18.11 7.98 7.23 17.19 24.31 23.26 22.11 22.13 23.79 21.94 21.83 20.84 20.24 20.54 21.78 21.99 22.54 22.77 23.70
33.91 34.09 34.47 33.79 33.80 33.98 33.78 33.67 33.85 31.68 29.40 27.81 26.92 26.02 25.14 24.75 26.31 25.87 25.55 29.35 27.93 28.89 28.13 26.05 16.79 13.16 21.33 24.72 25.47 24.83 24.68 24.80 23.63 19.95 18.42 17.57 18.52 18.37 18.93 19.23 19.99 20.87 22.41

GFSMW_sfc_wetblb_024.txt.gz
Wetbulb
51.23 52.24 52.47 52.83 52.55 53.25 53.04 53.25 52.76 51.79 51.74 51.33 50.58 50.29 49.31 49.72 51.05 51.27 50.93 49.76 49.34 49.41 47.84 46.44 46.31 46.59 45.86 45.15 45.66 45.72 44.32 44.28 44.77 44.07 45.33 45.04 46.51 46.21 46.37 47.10 47.87 48.67 50.21
50.35 51.20 51.16 50.65 50.47 50.26 51.22 50.94 51.56 50.80 50.50 50.04 49.57 49.87 49.21 49.74 49.38 49.62 48.54 48.45 48.00 47.28 47.30 45.18 44.79 44.58 44.26 43.69 43.42 43.21 42.63 43.25 44.10 42.62 42.35 40.28 43.29 42.77 43.40 44.35 45.01 44.83 46.56
49.24 49.84 50.14 49.67 50.07 48.99 49.82 50.26 50.32 50.46 50.28 50.36 49.56 49.11 48.78 48.27 47.77 46.61 45.63 46.63 47.08 46.15 45.11 44.58 43.96 43.64 43.62 43.41 43.05 43.39 42.99 42.32 42.45 42.31 41.64 38.58 36.77 37.73 40.47 41.09 42.18 41.08 42.67
50.00 50.26 49.51 48.75 48.93 48.72 49.35 49.90 50.32 50.58 50.80 50.16 49.06 47.88 46.40 45.54 45.87 44.68 43.44 43.55 44.80 44.65 44.53 44.78 44.37 43.76 44.00 42.82 43.16 44.22 44.06 43.83 41.14 42.82 42.12 41.25 40.72 34.99 33.46 37.51 38.75 39.07 39.74
49.44 48.84 49.72 49.51 49.55 49.82 49.23 49.12 50.44 50.56 50.16 49.39 48.44 47.53 46.25 45.74 44.82 43.32 42.68 42.94 43.43 43.82 44.12 44.10 43.48 42.99 42.21 41.38 40.87 40.19 39.64 40.04 38.69 37.98 37.70 39.31 37.76 36.33 34.25 31.62 33.41 36.64 37.70
47.51 48.66 49.57 50.36 49.43 48.71 48.31 48.25 48.52 49.15 49.45 48.75 47.17 45.97 44.37 43.22 41.69 41.24 40.59 40.91 41.51 41.35 41.61 42.02 42.55 41.58 40.92 40.22 39.73 39.16 38.50 38.14 38.19 37.81 36.86 36.23 35.36 34.23 34.60 33.30 33.09 33.31 34.80
46.57 47.36 48.38 48.49 48.94 47.51 47.64 48.18 47.90 47.77 48.69 47.54 45.92 44.96 43.80 42.36 41.05 40.47 39.89 39.21 39.57 39.35 39.32 40.05 40.60 40.64 40.86 41.06 41.78 40.02 39.06 37.82 36.65 35.96 35.93 36.69 37.84 37.94 36.27 35.02 33.73 32.79 33.29
46.62 46.91 46.72 46.84 47.04 47.62 47.19 46.93 46.99 46.89 46.95 45.93 44.62 44.15 43.98 42.50 41.59 40.91 39.80 39.56 38.94 38.96 39.11 39.28 40.51 41.11 41.77 41.00 39.72 38.25 37.16 36.77 35.69 35.14 35.65 37.04 39.64 39.44 37.24 35.87 33.70 31.90 31.00
44.90 45.81 46.26 46.06 46.15 46.53 46.66 45.84 47.09 45.56 45.33 46.39 43.81 42.63 43.14 42.49 41.28 40.09 39.32 38.82 38.79 40.47 38.86 38.13 38.97 39.89 40.36 39.48 38.52 37.01 36.11 36.02 35.59 35.52 36.89 36.80 37.59 37.26 38.83 37.92 36.65 32.84 29.03
46.04 45.56 45.81 46.41 46.59 46.59 45.60 45.01 44.96 43.74 43.23 42.68 42.36 42.04 41.09 41.10 40.42 39.46 38.82 38.68 38.52 38.80 37.72 37.52 37.86 38.28 38.61 38.24 37.10 36.00 35.86 35.34 35.13 35.99 33.88 33.71 34.74 35.34 35.21 35.10 35.89 35.45 32.80
44.82 45.69 45.76 45.98 45.45 44.38 43.18 42.48 42.14 42.23 41.73 41.50 41.22 40.38 39.82 39.77 40.08 39.18 38.84 38.73 38.29 38.18 37.70 37.94 36.98 34.75 34.23 34.29 33.85 33.78 33.44 32.43 30.54 30.13 29.96 29.90 30.27 29.66 30.11 30.99 31.90 33.71 34.67
45.49 44.03 44.35 43.29 42.55 42.02 41.22 41.68 41.05 41.35 41.59 41.18 40.73 39.68 39.57 38.94 39.11 38.62 38.64 38.03 37.53 38.34 38.63 37.92 34.82 34.57 33.11 32.60 31.59 31.06 30.66 29.70 29.06 29.28 28.82 28.69 30.29 27.54 27.85 28.03 28.12 29.57 30.72
42.87 42.80 42.07 42.30 42.08 41.46 41.03 40.65 40.35 40.07 41.27 40.68 38.99 38.23 38.51 38.06 38.00 37.69 37.47 38.02 37.89 37.61 37.93 35.30 34.62 34.37 33.48 32.12 31.06 30.33 29.25 28.06 27.91 27.79 27.30 27.35 27.37 25.98 26.63 26.91 27.46 28.55 30.57
41.74 41.39 40.99 40.99 41.09 40.46 40.07 39.70 39.52 39.42 39.88 39.78 38.95 38.33 38.09 38.80 37.80 36.68 38.31 39.18 39.92 38.58 37.36 35.03 34.71 34.23 32.93 31.29 30.25 29.19 27.21 26.87 27.33 27.85 27.36 26.50 26.11 25.69 25.81 27.31 27.41 28.19 26.28
41.46 41.40 41.06 39.81 39.77 39.52 39.13 38.23 38.09 38.82 39.60 38.40 38.16 38.45 39.33 38.77 37.19 37.66 38.56 38.85 38.31 38.57 37.38 35.26 34.38 33.05 31.06 30.64 28.02 28.06 27.29 26.38 26.03 26.63 26.47 26.24 27.43 29.48 28.65 28.42 27.78 27.33 25.94
40.76 40.21 40.36 40.68 40.88 39.73 36.85 37.33 36.98 37.35 37.54 36.83 37.73 38.99 38.58 38.35 38.30 38.32 37.90 36.88 38.27 37.69 33.87 33.81 32.42 30.48 31.38 32.17 31.35 30.04 26.13 26.55 25.71 24.38 25.07 25.20 27.33 26.77 28.45 28.97 29.61 29.13 26.97
39.15 40.41 40.75 40.82 39.77 36.14 36.59 35.61 35.97 36.62 35.92 36.70 37.90 37.99 37.67 37.28 36.92 37.43 37.57 37.60 34.08 33.98 33.39 31.83 30.65 28.74 28.37 32.23 33.27 33.27 28.62 26.35 24.89 24.06 24.28 25.10 26.34 26.54 25.85 27.21 28.42 28.45 29.60
39.72 39.82 38.57 36.88 35.76 35.44 35.33 35.43 35.57 34.92 35.28 36.66 36.66 37.16 37.34 36.63 36.28 35.25 35.79 34.90 33.58 32.87 30.66 29.39 28.33 27.90 29.50 31.75 31.54 30.63 26.53 25.36 25.41 25.33 24.68 23.96 23.77 25.01 25.50 25.95 26.93 26.98 26.98
39.74 36.77 35.51 35.54 34.55 34.58 35.09 34.64 33.58 33.64 34.91 34.55 34.62 35.61 36.07 35.88 35.95 35.30 34.69 32.51 31.08 29.03 29.32 29.11 27.77 26.72 26.62 30.22 29.56 27.66 23.67 24.01 23.16 24.46 24.47 24.14 23.68 25.98 28.39 26.23 25.88 24.82 25.40
36.42 34.74 34.47 34.43 33.42 34.07 34.26 33.15 32.27 32.94 33.22 34.10 34.23 35.05 35.79 35.09 34.53 33.83 32.44 31.49 29.55 29.53 28.55 28.22 26.81 28.06 24.38 27.26 28.10 26.54 23.20 18.08 21.88 22.97 23.71 24.84 24.96 26.64 27.16 25.85 24.38 23.38 23.80
35.34 34.88 33.91 33.12 33.31 33.52 33.25 32.09 32.37 32.11 33.78 34.27 34.19 33.50 33.45 33.69 33.91 33.93 33.34 30.72 27.94 26.98 24.57 23.61 24.57 24.84 24.86 23.45 26.02 25.84 22.38 21.55 21.94 21.40 21.91 23.45 25.68 28.01 27.22 27.30 25.38 25.06 26.59
33.85 34.04 33.24 32.88 33.29 33.64 33.65 31.69 31.16 33.31 33.80 32.85 31.99 31.17 31.05 31.47 31.45 29.23 27.00 27.06 25.43 24.83 22.60 12.36 16.81 20.62 21.73 24.49 24.44 25.06 24.62 24.23 20.81 21.53 22.84 24.23 25.99 26.29 26.61 26.61 27.38 26.82 26.59
32.13 33.48 31.61 32.59 33.50 33.55 33.40 31.85 32.67 33.21 32.66 30.84 29.51 29.60 29.91 29.98 28.61 26.00 25.34 25.06 24.37 20.37 20.72 22.16 14.88 19.08 21.85 19.55 23.74 24.13 24.62 24.15 22.05 23.27 24.77 24.58 24.52 24.63 24.90 25.48 26.10 24.78 24.39
31.12 31.87 32.12 31.79 32.00 33.50 33.84 32.89 32.94 32.64 30.94 29.33 28.77 28.90 27.31 28.33 27.80 26.57 26.34 24.35 19.55 17.89 22.21 19.39 17.83 15.63 18.09 17.47 18.91 21.10 17.52 22.65 23.48 22.00 22.72 22.15 22.90 22.71 23.21 23.17 23.88 23.55 23.94
31.85 32.25 31.78 31.71 32.17 32.91 32.73 32.77 32.51 31.86 29.71 28.85 28.70 26.74 26.22 26.09 26.96 26.06 24.78 25.26 23.47 21.73 19.55 18.56 17.40 6.33 5.81 16.04 24.62 23.78 22.09 21.72 20.69 15.09 17.59 18.85 19.00 18.79 19.45 19.96 20.94 21.37 22.91
31.94 31.78 32.35 32.12 32.37 32.20 31.73 32.08 31.88 31.63 29.58 28.08 26.86 25.29 24.36 23.10 25.58 25.42 24.82 28.36 28.19 29.86 30.34 28.22 17.10 12.69 20.93 25.23 26.09 25.08 23.57 22.93 21.69 14.40 12.15 15.30 16.16 15.59 17.08 16.97 17.56 18.57 20.09

GFSMW_sfc_wetblb_027.txt.gz
Wetbulb
49.35 50.80 51.45 52.37 52.65 52.42 52.45 53.48 53.30 52.05 53.03 51.75 51.37 49.30 48.93 47.86 47.77 47.08 46.87 46.47 47.49 47.27 45.38 45.15 44.47 44.22 43.58 42.86 43.41 42.88 42.39 42.24 43.43 42.56 42.99 43.24 43.64 42.30 40.87 42.53 42.37 43.98 44.79
48.41 49.43 49.91 50.22 50.50 51.02 52.18 50.38 50.40 50.17 49.71 49.49 49.25 48.83 47.70 47.23 46.68 45.28 45.20 46.49 45.89 44.71 45.15 43.66 43.68 43.54 43.70 43.33 42.86 42.17 41.96 42.40 41.78 39.30 39.35 36.19 38.53 39.66 41.25 39.82 41.20 39.40 42.20
47.27 48.89 49.86 50.00 49.58 48.56 48.47 49.22 49.00 49.37 49.66 49.66 48.85 48.26 48.24 47.26 44.99 43.44 42.87 43.83 44.43 44.23 44.35 43.98 43.31 42.81 42.60 41.48 41.42 41.19 40.39 39.30 40.88 40.15 37.71 33.88 31.95 36.29 38.00 39.36 38.19 37.75 38.20
48.83 49.75 49.04 47.75 46.94 47.21 47.93 48.71 49.21 48.96 49.32 48.74 47.84 46.98 45.48 44.66 44.14 42.39 41.70 42.25 43.29 43.59 43.67 43.19 43.01 41.97 41.85 40.37 40.42 41.18 39.04 38.63 36.86 38.24 40.32 38.20 36.69 34.76 31.40 35.28 36.82 36.43 37.24
48.75 47.99 47.93 48.04 48.42 47.98 47.00 47.86 48.63 48.92 48.61 48.17 47.64 46.52 44.98 44.50 43.36 42.22 41.69 41.85 41.97 42.65 42.21 42.11 42.15 40.79 40.62 39.56 39.11 38.22 38.07 38.40 38.05 36.22 36.27 35.39 35.54 34.47 34.93 30.93 32.79 36.61 35.86
48.20 47.91 48.26 48.79 48.24 47.71 46.23 46.19 47.55 47.58 47.71 47.10 46.69 45.48 43.55 42.09 41.01 40.41 40.10 39.73 40.03 40.02 39.89 41.12 41.21 40.42 39.82 39.33 38.71 38.10 37.48 36.76 36.36 36.12 35.48 35.70 35.90 34.69 35.24 33.21 32.69 32.88 34.08
46.15 47.03 48.68 48.93 48.68 46.91 45.83 46.16 46.85 47.04 47.00 45.66 44.67 43.77 42.79 41.71 40.69 40.40 39.39 38.38 38.72 38.52 38.24 38.84 39.74 39.72 39.67 39.48 39.09 38.01 36.77 35.84 34.63 33.99 33.66 34.14 34.86 38.26 36.88 34.56 33.13 33.33 31.88
46.44 46.85 46.43 45.67 46.04 46.46 45.75 45.28 46.20 45.95 45.64 44.68 43.76 43.32 42.93 41.72 41.29 40.34 39.25 38.41 38.85 38.39 38.58 37.74 39.85 39.79 40.11 39.76 38.54 37.12 36.20 35.13 34.56 33.42 33.24 33.95 35.13 35.82 35.82 35.83 33.98 29.95 31.51
43.50 43.98 44.63 44.93 44.84 44.89 45.06 44.23 44.42 44.44 44.31 43.50 42.38 42.32 42.56 41.65 40.68 40.12 38.86 38.68 38.53 39.16 38.37 37.08 38.10 38.68 39.80 38.78 37.61 35.95 34.93 34.37 33.96 33.45 33.27 32.84 33.39 33.08 34.08 34.71 34.95 31.89 26.89
43.68 43.90 44.19 44.56 45.13 45.62 43.93 43.30 43.54 43.02 42.80 42.12 41.86 41.28 40.26 40.40 40.35 39.14 38.56 38.26 38.22 37.92 37.94 37.11 37.22 38.60 38.26 37.79 36.23 34.19 34.24 33.27 32.63 32.93 29.11 28.58 30.11 29.45 30.29 29.86 31.70 31.98 30.85
43.42 43.13 43.73 44.40 44.01 42.86 40.95 40.78 41.01 41.47 40.89 40.62 40.21 39.48 39.07 38.66 38.67 38.65 38.52 38.22 37.76 37.45 38.57 38.66 38.07 36.54 35.00 34.18 33.13 32.14 31.94 30.60 28.75 28.41 28.29 28.29 28.74 27.94 27.23 27.57 28.07 27.71 27.82
42.59 42.65 43.88 43.31 42.40 40.63 39.88 40.45 39.70 39.57 40.11 40.07 39.06 38.07 37.67 37.46 36.92 37.63 38.02 37.72 37.19 38.57 37.24 37.60 38.16 37.34 34.35 33.54 32.67 31.46 30.66 28.68 27.65 27.43 27.17 27.18 29.16 25.74 25.71 25.87 25.99 26.35 27.29
40.96 41.17 41.12 41.22 41.28 39.83 40.23 39.42 38.26 37.96 38.73 38.73 37.11 36.98 37.14 37.05 36.52 36.39 36.93 36.93 37.42 36.98 37.42 37.18 37.89 34.89 34.60 33.56 31.76 30.46 28.63 27.42 27.22 27.11 26.67 26.43 25.68 24.22 24.47 25.13 25.13 25.94 28.40
40.36 39.85 39.80 39.50 40.38 40.13 38.26 37.02 37.14 37.58 37.30 36.77 36.61 36.70 36.57 37.21 36.34 36.08 35.85 36.42 37.21 36.93 36.13 37.02 34.32 35.49 34.32 32.35 29.99 28.42 27.51 27.53 27.39 27.39 27.05 26.05 25.20 24.22 24.14 24.74 25.30 27.10 26.97
40.48 40.30 39.48 40.41 38.75 38.38 36.16 35.88 35.82 36.34 36.41 36.60 36.52 36.61 37.03 37.12 36.94 37.11 37.21 37.43 36.69 36.81 37.95 36.85 34.33 33.81 32.32 30.48 28.32 28.38 27.96 26.56 26.18 26.83 26.78 26.46 27.16 29.85 28.20 25.70 24.12 24.08 25.06
40.54 40.26 39.43 39.60 39.17 35.98 34.96 35.53 35.40 35.55 35.30 35.59 35.99 37.01 36.77 36.76 35.95 35.46 35.81 35.95 38.03 35.21 35.13 34.71 32.78 29.20 31.00 32.51 32.79 32.10 27.77 27.62 26.51 25.31 26.07 25.73 27.29 26.99 27.70 27.69 28.26 27.41 24.46
38.68 38.91 38.85 38.36 35.28 34.54 34.90 34.06 34.53 34.62 34.16 35.94 36.51 36.56 36.50 35.72 35.31 35.42 34.76 35.02 34.22 33.29 32.43 30.43 28.48 27.96 28.65 32.30 32.13 31.15 27.67 26.59 25.68 24.62 24.49 24.26 25.46 25.52 24.76 26.17 26.98 27.21 28.65
38.58 37.22 35.10 34.58 34.28 33.99 33.70 33.87 33.49 33.07 34.86 34.83 34.82 35.23 35.15 34.44 34.78 34.14 34.40 34.96 34.18 30.54 28.41 27.76 27.81 27.05 28.19 30.55 29.72 28.83 24.36 23.16 23.75 23.12 23.03 23.14 22.95 24.21 24.85 25.39 26.57 25.06 26.68
38.07 34.81 33.98 33.92 33.16 33.09 33.37 32.73 31.97 32.87 33.36 33.04 32.95 33.39 33.71 33.87 33.45 33.49 32.28 32.44 30.36 28.02 28.06 28.27 27.00 25.17 24.35 27.97 28.04 26.41 22.75 22.56 21.84 23.37 23.49 23.79 23.23 25.44 27.95 26.31 24.57 24.24 25.37
34.32 33.10 33.03 32.87 32.11 32.37 31.98 31.43 31.24 31.60 31.82 32.68 32.74 33.03 32.55 32.60 32.13 31.51 31.48 32.69 30.82 29.23 28.15 27.31 25.92 26.48 22.87 25.98 26.43 25.28 20.17 15.22 21.24 22.03 22.80 24.53 25.01 27.10 27.24 25.48 24.58 22.73 23.96
33.58 33.42 32.44 31.77 31.30 32.14 32.22 31.42 31.21 31.02 32.49 33.01 32.49 31.42 30.78 30.06 30.00 29.95 30.38 28.63 26.94 26.39 24.24 24.21 24.10 23.98 23.78 22.47 25.79 25.79 19.93 20.80 21.21 21.24 21.64 23.33 25.97 26.26 26.84 26.64 25.51 25.33 25.83
31.89 31.95 31.43 31.40 31.89 32.35 32.16 30.66 30.19 32.36 32.48 31.97 30.70 29.83 29.69 29.72 28.74 26.75 26.37 26.43 25.39 25.23 23.56 11.04 16.07 20.76 21.71 24.04 24.38 25.74 24.95 24.66 20.20 21.41 22.44 23.97 25.18 25.42 25.47 25.15 26.27 25.83 24.98
30.48 31.71 30.51 31.24 31.91 32.01 31.96 30.54 31.11 32.00 31.45 30.18 29.39 29.09 28.59 28.90 27.89 25.55 24.71 24.82 24.00 20.03 19.88 21.44 14.95 18.70 22.14 19.56 23.61 24.87 24.99 24.38 20.54 21.02 22.52 23.47 23.53 23.25 23.16 24.05 24.67 23.38 23.00
29.78 30.33 30.73 30.38 30.55 31.87 32.45 31.53 31.86 31.60 30.23 30.05 29.47 28.77 27.47 27.53 27.28 26.52 25.95 24.08 19.76 17.24 21.49 19.06 17.77 15.63 17.60 17.01 18.03 21.98 17.41 21.79 20.78 18.00 17.96 18.54 21.70 20.50 21.07 21.12 21.70 21.47 22.33
30.58 30.84 30.40 30.32 30.53 31.57 31.42 31.42 31.21 30.86 30.61 30.67 29.78 28.00 27.19 25.80 27.11 25.92 24.84 25.37 23.98 21.98 19.80 19.10 17.78 5.69 5.52 15.59 24.24 23.27 19.46 14.48 18.16 11.58 9.87 12.35 15.86 16.00 17.49 17.96 18.60 19.10 19.54
30.31 30.58 30.50 30.24 30.84 30.51 29.90 30.35 31.33 31.03 31.37 30.26 29.47 28.27 26.16 22.97 25.43 25.98 24.88 28.10 27.40 29.07 30.00 29.74 17.42 12.41 20.87 25.22 26.15 25.09 23.36 22.34 20.27 11.69 5.40 3.05 6.28 11.16 14.95 14.92 15.51 16.40 15.91

GFSMW_sfc_wetblb_030.txt.gz
Wetbulb
47.90 49.29 50.76 51.71 52.50 54.17 56.66 57.39 54.76 54.74 54.68 52.40 49.49 47.24 46.17 45.31 44.60 44.53 45.95 47.10 46.78 45.59 44.26 43.84 43.82 43.65 42.62 42.51 42.89 42.30 41.50 41.78 41.61 40.34 39.78 41.11 42.82 40.13 40.01 41.12 40.28 41.23 42.39
47.36 49.23 49.53 49.88 51.71 53.25 54.54 54.32 53.56 53.35 50.74 49.03 47.72 47.06 45.20 44.35 43.67 43.60 43.85 43.86 44.31 44.48 44.38 43.05 42.27 41.78 40.70 40.45 40.95 40.20 39.61 40.26 40.09 37.99 37.10 34.08 36.42 38.45 39.76 39.35 39.89 38.35 39.57
46.77 48.37 50.07 50.34 51.26 50.68 48.64 48.88 48.58 48.34 48.57 48.39 48.17 46.36 45.86 45.14 42.76 41.70 41.47 42.63 43.82 43.75 43.25 42.78 41.52 40.97 40.95 39.97 39.37 38.93 37.89 37.07 38.49 38.12 36.95 32.65 30.98 34.70 37.17 38.10 37.77 37.58 37.75
47.52 48.71 48.56 46.84 46.09 45.86 46.84 47.41 48.07 47.89 48.18 47.59 46.75 45.49 44.35 43.69 42.59 41.25 40.94 41.27 42.61 42.60 42.49 42.23 41.48 40.72 40.46 39.20 39.32 40.13 38.15 37.43 35.41 37.00 39.46 37.29 36.64 32.73 31.45 37.41 37.95 37.20 37.75
47.24 46.94 46.18 46.04 46.36 46.59 46.88 46.62 47.90 48.11 47.77 47.29 46.46 45.22 43.45 42.43 41.78 41.01 40.35 40.40 40.96 41.80 41.18 41.27 41.05 40.26 40.04 39.23 38.64 37.88 37.44 37.28 36.28 35.47 35.17 34.97 34.73 35.21 34.16 31.04 33.39 37.17 37.48
45.42 46.79 47.04 47.39 46.64 46.10 47.17 48.00 48.35 47.33 47.28 46.75 46.15 44.85 42.63 41.16 40.42 40.37 39.58 39.36 39.74 39.91 39.63 39.89 40.39 39.73 39.19 38.54 38.13 37.76 36.80 35.97 35.39 35.29 34.64 34.15 34.32 33.56 34.07 31.80 31.31 32.01 34.06
45.43 45.94 46.63 47.52 48.16 46.79 46.16 46.87 46.53 45.98 45.79 44.99 44.16 43.46 42.58 41.87 41.40 40.58 39.55 38.36 37.86 38.06 38.44 37.63 39.02 39.11 39.19 38.77 38.26 37.39 36.17 35.31 33.92 33.16 33.29 33.35 33.86 35.52 34.15 33.04 30.89 32.37 32.06
45.47 46.42 47.49 45.80 45.66 45.78 44.88 45.56 45.43 45.38 44.62 43.86 43.21 43.06 42.61 41.34 40.74 39.88 38.87 38.49 37.67 38.04 38.00 37.57 37.38 38.67 38.97 38.67 39.01 36.95 36.17 35.40 34.55 32.85 32.59 32.75 33.73 34.25 34.00 33.56 31.40 26.93 29.02
44.53 44.81 44.52 44.25 44.25 43.50 43.46 44.11 44.28 44.23 43.55 43.20 42.65 41.93 41.62 40.82 40.23 39.60 38.59 38.17 38.13 39.26 38.22 37.16 36.15 37.66 38.45 39.86 39.47 38.02 35.42 34.17 34.19 33.10 32.63 32.20 31.94 30.77 30.79 31.23 30.68 29.59 23.49
42.36 42.99 42.96 43.28 43.55 42.83 42.08 43.10 43.44 42.75 42.90 41.87 40.75 40.25 38.69 38.44 38.10 38.11 38.05 37.94 37.85 37.35 37.40 37.05 37.90 38.24 36.93 36.85 37.77 36.43 35.30 33.82 33.35 33.49 30.19 28.69 29.01 28.83 29.14 28.20 28.51 28.96 27.21
41.59 41.70 41.68 42.06 41.57 41.07 40.89 40.36 40.36 40.86 40.18 39.43 38.82 38.06 37.31 37.11 36.75 36.77 37.20 37.29 37.17 37.26 36.94 37.12 36.66 35.53 35.74 36.34 33.93 33.82 32.99 31.27 29.67 29.07 28.71 28.05 28.23 27.37 27.13 26.99 26.71 26.52 26.97
40.79 40.84 41.34 41.01 40.18 40.13 39.92 39.45 39.75 39.13 37.67 38.29 37.62 36.53 36.61 36.47 35.86 35.76 35.84 36.09 36.27 36.92 36.61 36.21 35.89 36.21 37.40 35.16 32.31 31.86 31.28 28.97 27.88 27.89 27.28 27.51 29.02 26.29 25.64 25.45 24.92 25.23 26.08
39.54 39.76 40.03 40.43 40.90 38.72 38.91 39.63 37.54 36.85 36.87 36.38 35.55 35.68 35.63 35.60 34.95 34.78 35.00 35.51 35.57 35.87 35.62 35.90 37.29 37.19 34.45 32.77 33.25 30.90 29.09 27.77 27.71 27.42 26.88 26.86 26.50 24.77 24.52 24.65 24.54 25.15 26.22
39.36 38.82 38.91 40.16 38.73 38.86 38.99 36.11 36.26 36.26 35.71 35.67 35.18 35.12 35.06 35.10 34.61 35.00 35.07 35.36 36.02 35.37 35.07 37.65 37.06 35.68 33.64 33.69 30.63 28.57 27.74 27.31 27.40 27.65 27.14 26.73 26.15 25.15 24.52 25.06 24.97 24.78 24.84
39.20 39.23 38.38 38.31 39.83 38.14 35.82 35.52 34.99 35.11 35.19 34.91 34.93 35.17 35.41 35.37 34.78 34.76 34.81 35.11 34.98 35.92 36.05 35.24 34.25 31.89 30.49 29.73 28.47 28.70 28.26 27.30 27.11 27.12 27.46 27.68 28.12 29.89 28.63 26.52 25.18 24.18 23.55
39.17 38.80 38.97 40.08 39.39 35.59 33.83 34.44 34.30 34.19 34.38 33.29 34.95 35.58 35.37 35.32 34.67 34.20 34.00 34.01 34.41 35.33 34.93 33.09 30.46 27.82 29.95 32.69 32.72 30.50 27.47 26.76 26.23 25.03 25.26 25.39 26.25 26.10 27.00 26.85 27.18 26.62 24.35
38.72 39.55 39.77 38.20 34.99 33.46 33.73 33.02 33.24 33.41 32.76 34.54 35.10 34.83 35.00 34.49 33.76 33.90 33.17 32.98 32.69 30.49 30.04 28.60 27.72 26.60 28.03 31.73 30.48 30.11 26.37 24.11 23.34 22.76 22.50 22.79 24.51 24.82 24.38 25.34 26.54 26.71 27.77
39.27 38.49 35.12 34.14 33.54 32.96 32.49 32.37 32.38 31.87 33.68 33.52 33.20 33.28 33.06 32.48 32.70 32.33 35.18 31.70 32.28 33.10 28.11 27.06 26.71 26.41 27.34 28.57 28.41 28.28 24.35 22.78 22.86 22.71 22.44 22.46 22.84 24.20 25.04 25.87 26.46 26.27 26.58
37.94 36.05 34.09 33.60 32.93 31.89 31.86 31.45 30.89 32.07 32.21 32.06 31.99 31.93 31.95 31.06 31.33 30.89 30.33 30.72 31.10 30.27 27.98 27.21 26.27 23.90 23.36 27.28 27.06 25.81 22.76 22.38 21.87 23.06 23.25 23.71 23.76 25.64 28.38 25.77 24.68 24.56 25.62
34.86 33.28 33.15 32.39 31.20 31.50 31.22 31.04 30.64 30.85 30.72 31.68 31.59 31.74 30.80 29.58 28.70 28.67 28.84 29.93 30.15 28.25 27.78 26.91 25.39 25.96 22.75 25.15 26.29 25.60 20.80 15.65 20.97 22.52 23.13 24.16 24.68 26.07 26.50 25.50 23.60 22.62 24.05
32.88 33.54 32.84 31.56 31.03 31.27 31.36 30.59 30.15 29.90 31.15 31.72 31.51 30.63 29.69 28.99 28.29 26.87 28.37 28.48 26.79 26.27 24.31 24.13 24.18 23.97 23.90 22.72 25.59 26.45 21.09 20.77 22.22 21.44 21.41 22.84 24.93 25.29 25.58 25.62 24.21 24.41 24.89
33.16 32.18 31.37 30.89 31.17 31.18 30.86 29.75 29.19 30.98 31.21 30.81 30.16 29.17 29.04 29.34 28.51 26.25 26.06 26.17 24.87 24.83 23.49 11.65 16.40 20.83 22.01 24.25 24.16 26.18 25.47 24.51 18.40 19.94 20.98 21.60 24.09 24.20 23.89 23.86 25.01 24.33 23.38
30.96 31.26 30.97 31.04 31.34 31.01 30.97 29.65 30.46 30.91 30.51 29.70 29.35 30.66 30.50 28.43 27.89 25.87 24.69 24.25 23.52 19.90 19.77 20.87 15.63 18.60 22.08 20.10 23.58 24.58 25.37 23.47 17.39 19.67 20.89 22.06 21.96 21.68 21.49 22.22 22.78 21.69 21.28
30.28 30.62 30.62 29.83 29.90 30.80 31.13 30.48 30.48 30.39 29.78 29.42 29.39 30.29 29.45 27.84 27.35 26.81 25.98 24.01 19.84 17.33 20.77 18.99 18.57 16.77 17.36 17.32 18.07 21.65 18.45 20.06 20.04 16.63 15.81 15.32 19.43 15.80 16.76 18.75 19.84 19.44 19.28
30.59 30.71 30.14 29.66 29.58 30.40 29.90 29.57 29.43 29.61 28.82 29.04 29.84 29.77 29.69 27.37 26.29 26.33 24.82 26.01 24.59 22.71 20.99 20.36 18.64 8.29 6.52 15.69 21.81 22.45 17.41 12.01 16.50 9.67 8.26 10.62 11.52 12.97 15.32 15.83 16.77 17.43 16.51
30.08 30.03 29.91 29.37 29.88 29.66 28.42 29.09 29.46 29.27 29.05 29.06 30.26 30.19 29.15 26.42 25.20 25.91 26.48 28.39 27.92 28.35 29.50 29.70 20.81 13.66 21.70 24.96 26.48 25.15 23.70 22.33 19.68 11.08 4.36 -0.34 -0.88 4.71 12.40 13.29 13.58 14.26 12.88

GFSMW_sfc_wetblb_033.txt.gz
Wetbulb
51.98 54.73 56.59 58.92 59.50 59.84 59.39 59.24 56.04 55.62 55.96 54.07 51.32 50.77 50.80 50.52 50.64 51.10 51.02 51.17 51.17 50.81 50.62 49.29 48.75 48.46 47.02 46.90 47.31 46.55 45.52 44.98 45.82 43.96 43.52 45.65 49.16 47.11 46.61 46.10 46.02 45.78 45.92
53.31 53.98 55.35 57.76 59.74 58.33 56.52 57.75 59.12 56.40 56.44 54.67 54.25 53.88 51.99 50.91 50.24 49.89 49.87 50.44 50.51 49.96 49.34 48.74 48.01 47.79 46.98 46.42 46.31 45.47 43.44 44.21 45.11 41.35 41.70 38.97 41.19 45.68 43.72 44.78 44.22 45.02 44.59
52.72 53.02 55.00 56.88 57.99 57.75 58.56 58.21 57.00 56.52 55.76 54.66 53.02 51.52 50.80 49.82 49.23 49.00 49.40 49.49 49.55 49.07 48.99 48.59 48.68 48.24 47.94 46.45 46.62 45.71 43.00 41.20 43.50 43.05 40.33 36.52 35.36 37.59 42.29 41.86 43.15 43.09 43.50
52.44 52.60 52.76 52.70 52.96 53.04 54.30 55.40 54.79 54.34 53.87 53.52 53.02 52.46 52.67 51.35 50.49 49.89 49.80 49.60 49.01 48.77 48.22 47.93 47.91 47.90 47.88 46.10 45.88 45.99 44.35 43.19 40.01 41.61 42.78 41.86 39.99 33.76 33.06 39.93 40.41 41.59 41.62
51.82 51.13 50.84 51.03 51.90 52.27 53.19 53.83 53.67 52.91 53.18 53.39 53.38 52.95 51.18 50.06 49.35 49.49 48.47 48.63 48.43 47.89 47.31 47.55 47.53 47.29 46.83 46.14 45.57 45.31 44.33 44.06 41.64 40.21 39.64 39.41 39.08 38.82 34.79 31.88 33.82 38.57 40.32
50.77 50.88 51.44 51.74 51.68 52.22 52.54 52.96 53.58 52.29 52.75 52.66 52.21 51.71 50.72 49.54 49.85 49.72 49.12 48.63 48.06 47.81 47.62 46.83 46.94 46.98 46.27 45.73 45.34 45.07 44.18 43.45 42.49 41.43 40.48 38.72 36.22 35.19 34.02 33.10 32.09 33.19 36.51
50.66 50.78 50.51 50.57 51.11 51.74 52.49 52.84 53.14 51.43 51.45 51.40 51.30 51.08 50.78 50.34 49.48 49.21 48.47 47.43 47.26 47.09 47.52 46.45 46.06 45.64 45.75 45.28 45.03 44.46 43.94 43.44 41.85 41.12 39.79 40.25 39.10 39.14 37.35 35.16 33.06 32.65 34.96
50.51 50.52 50.92 51.61 51.83 51.12 51.14 52.14 51.73 50.65 50.26 50.20 50.44 50.64 49.99 49.42 48.12 47.01 46.80 46.47 46.18 46.14 46.11 45.44 44.86 44.24 44.46 44.95 44.83 43.73 43.57 43.68 42.61 41.34 40.64 39.91 39.92 40.00 37.96 34.97 33.35 30.42 31.64
49.84 50.51 51.09 51.06 50.86 50.43 50.26 50.90 50.25 49.34 48.46 49.68 49.48 47.98 47.61 47.14 46.91 46.55 46.09 45.54 45.73 44.93 45.32 45.25 44.59 44.23 44.13 44.13 43.79 42.68 41.95 42.17 41.94 41.07 40.39 39.58 39.48 38.37 37.12 36.01 34.86 31.56 26.90
49.01 49.60 49.44 48.68 48.91 48.90 48.51 49.20 49.04 47.62 48.31 47.99 47.14 46.17 45.72 45.05 44.73 44.79 44.28 44.23 44.63 44.63 44.52 44.59 44.51 44.24 43.22 42.63 41.05 39.74 39.92 39.46 40.10 39.29 38.59 37.50 36.92 36.10 36.14 35.31 34.23 32.98 30.06
47.70 47.68 47.46 48.02 47.23 46.34 46.59 47.16 45.82 46.68 45.86 44.88 44.87 44.69 43.84 43.73 43.54 43.14 43.46 43.42 43.62 43.40 42.76 42.79 42.79 42.11 40.22 40.57 40.97 40.30 38.57 36.91 37.04 36.74 35.49 35.01 35.46 34.68 34.43 33.94 32.68 31.31 30.62
46.42 46.29 46.20 45.93 45.30 45.16 44.36 43.42 44.72 43.11 43.71 44.66 43.61 42.88 42.96 42.76 42.57 42.16 42.00 42.16 41.03 41.47 41.23 41.71 41.05 40.38 39.73 39.38 38.01 36.92 37.27 36.25 34.85 34.14 34.14 33.87 33.61 33.09 33.19 32.24 31.09 30.46 30.57
44.63 44.98 44.59 44.83 44.60 43.11 44.07 43.89 42.63 42.50 42.66 42.66 42.48 42.33 42.01 41.78 41.07 40.64 40.70 40.96 40.54 40.79 41.43 41.15 40.62 38.73 36.87 36.90 37.46 36.85 34.87 33.85 33.61 33.79 33.10 32.59 32.35 31.46 31.63 31.05 29.89 29.33 28.81
43.48 44.38 44.27 43.85 42.81 43.06 43.11 41.49 41.72 42.03 41.75 41.73 41.65 41.44 41.29 40.58 40.31 40.19 39.96 39.95 40.17 39.98 39.75 40.24 39.17 37.24 37.28 36.65 35.42 34.08 33.88 34.03 33.45 33.06 32.35 31.47 30.73 29.85 29.54 28.79 28.33 28.35 27.40
42.58 43.11 43.24 43.15 43.20 43.16 40.63 40.60 40.88 41.02 41.40 40.12 40.32 40.69 40.61 40.51 39.82 39.22 39.31 39.39 38.64 38.70 38.67 37.55 37.23 35.62 34.90 33.99 34.56 34.11 33.18 31.81 30.74 30.58 29.66 29.33 28.81 28.29 28.20 27.69 27.35 26.68 25.37
42.74 42.83 42.18 42.71 42.78 40.78 40.32 39.48 39.59 39.52 39.80 38.61 39.29 40.14 39.58 39.41 38.79 38.41 38.35 38.43 37.87 37.48 37.64 36.59 34.54 34.02 33.76 32.44 31.35 31.51 31.49 29.89 28.45 27.39 27.70 27.64 26.91 27.52 26.95 26.73 27.03 27.12 25.79
42.66 42.09 41.96 42.22 41.42 39.76 39.06 39.04 38.96 38.64 37.69 38.15 39.26 38.56 38.19 37.68 37.56 37.61 37.55 37.30 37.38 36.36 36.19 34.87 33.67 32.71 33.19 29.85 29.45 29.38 30.06 28.22 27.56 26.65 26.37 26.13 27.04 26.86 26.97 27.00 27.73 28.30 28.43
42.72 41.85 40.79 39.16 39.16 39.28 38.66 37.96 37.42 36.89 37.11 38.19 37.47 37.40 37.19 36.65 36.49 36.15 35.92 36.41 37.58 37.00 35.77 33.03 32.35 32.07 30.18 28.20 27.95 27.52 28.66 27.66 26.92 26.67 26.50 26.20 25.86 26.42 26.03 27.61 27.09 27.27 27.49
43.04 42.33 39.96 39.32 38.88 38.30 37.34 36.49 36.24 36.66 36.73 36.09 36.64 37.05 36.54 35.41 34.91 34.78 34.39 35.12 35.87 35.75 34.11 33.11 31.35 29.90 29.25 26.72 27.08 27.44 27.77 26.81 26.13 26.42 26.85 26.26 25.25 25.74 27.19 26.05 25.68 25.06 26.01
41.65 38.05 38.07 37.70 37.72 36.92 36.37 35.97 36.03 35.56 35.33 36.02 36.27 36.58 36.15 34.74 34.29 33.91 33.47 34.68 36.24 35.41 33.75 31.21 30.55 27.80 28.14 25.29 26.32 27.21 28.11 26.17 25.81 26.26 26.10 24.84 24.62 25.28 25.69 25.41 24.67 23.39 24.46
36.75 37.01 37.01 36.94 36.51 36.22 36.10 35.63 35.04 34.74 35.51 36.04 36.00 35.96 35.25 34.22 34.42 33.62 33.41 33.13 33.56 32.67 31.22 29.76 29.61 28.57 27.78 27.47 25.67 26.24 27.42 26.28 25.13 24.52 24.23 24.79 23.86 24.76 24.58 24.45 24.90 24.05 24.65
35.83 36.26 35.73 35.61 35.63 36.06 35.46 34.73 34.33 35.52 35.94 35.87 35.24 34.87 34.51 33.93 33.23 33.04 32.62 31.97 31.54 30.47 29.26 28.20 28.38 29.19 28.35 26.06 26.06 25.75 26.48 25.99 24.84 23.70 23.79 23.92 23.16 22.97 22.43 23.05 23.15 22.71 23.33
34.38 34.98 35.31 34.97 35.29 35.37 35.26 34.17 35.44 35.42 34.90 34.35 34.29 34.30 34.15 33.79 33.60 31.84 31.53 30.54 30.46 29.34 29.03 28.18 28.25 28.26 29.07 28.77 25.13 25.13 25.81 25.14 24.39 24.64 22.60 21.51 21.32 20.96 21.61 20.99 21.36 21.34 22.08
34.44 34.38 34.15 33.64 33.56 34.16 34.19 34.57 34.53 34.07 33.43 33.30 33.83 33.97 33.40 33.32 32.96 31.94 31.35 30.26 29.66 29.00 28.15 27.71 27.41 28.16 28.13 28.17 27.98 27.28 27.89 24.61 23.98 22.32 22.10 19.70 19.52 18.79 19.72 21.04 21.48 20.88 19.88
33.86 34.17 33.50 33.00 32.21 33.60 33.81 33.76 33.40 33.20 32.36 32.88 33.19 33.57 33.30 32.32 32.06 31.12 30.90 30.26 30.78 29.80 28.77 28.36 28.50 28.28 27.66 28.22 26.81 26.95 26.68 26.34 23.55 20.31 21.13 20.21 19.26 18.74 19.38 20.05 19.50 19.12 18.01
32.98 32.98 32.47 32.04 32.59 32.62 32.06 32.46 33.06 32.59 31.88 31.88 32.94 33.46 32.80 32.29 31.60 30.81 30.54 30.23 29.51 29.22 29.29 29.38 29.35 31.00 28.31 26.27 26.64 27.01 25.68 23.55 20.58 21.08 19.54 18.07 17.50 17.22 17.42 18.10 18.04 18.43 15.97

GFSMW_sfc_wetblb_036.txt.gz
Wetbulb
58.37 60.59 62.33 63.17 64.08 63.89 63.02 63.55 61.84 57.93 58.23 56.87 55.77 54.46 52.50 53.19 55.00 55.82 55.56 55.91 55.77 54.34 53.54 52.80 52.58 51.69 50.52 49.70 49.69 48.61 48.20 47.56 48.94 46.70 46.14 46.84 49.23 49.91 48.88 48.69 47.99 48.16 48.51
58.52 59.93 62.08 62.48 62.49 62.82 63.84 62.58 62.13 61.36 60.47 60.30 58.84 58.61 57.37 56.67 56.39 55.88 55.57 55.57 54.12 53.33 52.13 51.82 51.47 51.19 49.80 49.67 49.55 48.97 47.38 47.09 47.73 44.61 43.65 41.19 43.79 46.63 47.11 46.60 47.11 47.17 47.23
58.63 59.70 61.31 62.78 61.97 61.73 62.67 62.90 63.72 63.12 61.79 59.86 58.58 57.74 56.64 55.63 54.94 54.71 54.95 54.65 53.88 53.39 52.88 52.12 51.31 50.90 50.63 49.02 49.27 48.83 47.41 44.90 46.37 46.26 42.95 39.41 37.95 41.12 44.41 44.45 45.00 45.53 45.52
59.38 60.76 60.68 61.31 62.60 62.92 63.85 63.63 62.65 61.34 59.84 59.22 57.86 56.84 56.85 55.17 56.65 55.56 55.61 54.49 53.26 53.20 51.69 50.96 51.28 51.03 50.62 49.80 49.26 48.08 47.80 46.18 43.65 45.10 44.74 44.50 42.74 37.83 36.57 41.63 42.21 43.28 42.83
58.79 57.94 58.20 59.44 60.62 61.42 61.44 60.97 59.98 58.99 58.45 57.89 58.36 57.94 56.42 56.45 55.60 55.32 53.21 53.88 54.18 52.58 51.68 51.36 51.20 50.87 50.30 50.10 49.33 48.12 47.11 46.40 43.37 43.19 42.36 40.85 40.04 39.40 35.58 33.62 38.04 41.35 42.06
57.01 56.51 56.65 57.09 57.02 58.21 58.27 57.99 57.50 57.19 57.71 57.78 57.48 56.99 55.53 54.35 53.67 53.25 51.99 51.29 51.53 51.63 51.48 51.09 51.12 50.84 50.33 49.74 49.10 48.26 46.07 45.59 44.80 42.72 41.19 39.05 37.33 36.87 35.81 34.20 36.40 37.34 39.39
55.40 54.88 54.80 55.19 55.77 56.42 57.21 57.86 57.33 56.40 57.22 57.01 56.53 55.67 53.85 52.55 51.37 50.96 50.65 50.27 50.05 50.29 50.39 50.68 49.82 49.52 49.66 49.27 48.59 47.48 46.18 45.58 44.38 42.81 41.03 40.75 39.29 39.02 37.56 35.34 35.46 35.08 37.86
55.34 55.01 55.31 55.82 56.04 56.48 57.37 57.05 57.08 55.57 55.68 55.17 53.59 53.23 52.20 53.42 52.74 51.48 50.95 50.10 49.33 49.04 48.95 47.93 47.59 47.26 47.20 47.56 47.67 46.90 45.95 45.32 44.28 42.69 41.45 39.83 39.28 39.17 38.50 36.58 34.19 32.97 34.50
55.05 55.08 55.62 56.18 56.33 56.27 56.30 56.63 55.61 54.37 52.65 51.51 51.32 50.80 52.80 51.37 50.60 49.64 49.36 48.39 47.50 46.32 46.45 46.67 45.98 46.00 46.13 46.71 46.74 45.68 45.06 44.62 43.52 41.94 40.98 39.45 39.20 39.28 38.82 37.65 36.85 32.93 29.76
55.04 55.11 55.49 55.65 56.09 56.09 55.19 55.44 54.28 52.67 49.79 49.84 51.13 51.62 50.85 49.79 48.67 48.75 46.44 45.90 46.06 45.85 45.45 45.00 44.68 44.85 45.26 45.83 45.81 44.62 43.25 43.35 42.13 40.81 39.73 39.29 38.81 37.86 38.12 37.57 36.86 35.84 33.45
54.68 54.91 55.17 55.13 54.94 54.08 53.64 52.87 50.98 48.83 48.44 48.40 49.08 49.25 48.18 47.73 47.78 47.17 45.69 45.38 45.53 44.94 43.94 43.72 43.71 43.71 43.93 43.97 42.35 41.50 41.70 40.97 39.52 39.26 38.54 38.50 38.86 37.96 37.73 37.36 36.54 35.31 34.75
54.71 54.55 54.01 53.39 52.22 51.50 50.97 50.06 48.32 46.99 46.80 47.91 47.64 46.81 46.95 46.66 46.54 45.30 44.62 45.13 44.22 43.95 43.67 43.63 43.29 43.24 41.30 41.71 41.30 40.29 39.68 38.22 37.83 38.44 38.27 37.63 37.36 37.09 36.98 36.18 35.11 34.35 34.02
52.73 52.72 52.33 51.58 50.70 49.71 48.80 46.55 45.45 45.67 47.36 46.82 46.14 46.00 45.71 45.53 44.77 43.96 44.42 44.10 43.17 42.95 43.24 42.63 40.46 40.01 40.64 40.30 39.39 38.59 38.74 38.50 38.03 37.81 37.04 36.37 36.01 34.93 35.00 34.62 33.51 32.09 31.46
50.80 51.04 50.71 50.64 49.28 48.22 45.68 46.02 46.33 46.57 46.38 45.30 45.06 45.11 45.00 44.89 44.56 43.67 43.58 42.79 42.71 42.19 41.90 41.68 40.70 39.77 39.77 39.00 38.72 37.99 38.09 37.95 37.30 36.65 35.69 34.68 33.55 32.85 32.21 31.51 31.43 30.69 30.14
49.46 50.06 50.01 49.63 48.31 47.31 47.42 47.04 46.54 46.18 45.24 44.03 43.77 43.84 44.72 44.11 43.41 42.90 42.31 42.05 41.85 41.72 41.81 40.21 39.68 39.70 39.01 38.23 37.77 37.57 37.05 36.45 35.18 34.60 33.66 33.49 31.40 28.68 28.80 29.35 29.36 28.38 27.49
49.24 49.26 49.62 49.01 47.89 47.40 46.75 45.76 45.17 44.08 44.10 43.29 42.65 43.23 42.94 42.13 42.11 41.66 41.08 41.19 41.38 41.33 40.82 40.30 39.47 38.19 37.94 31.58 30.64 31.40 34.93 34.74 33.27 32.39 32.60 32.67 30.78 30.70 28.18 28.29 28.02 28.48 27.45
49.14 49.01 48.70 47.89 47.33 47.02 45.48 44.30 43.59 43.60 42.83 42.30 42.03 42.25 41.48 41.03 40.82 40.55 40.32 40.23 40.26 40.70 39.16 38.69 39.08 37.68 37.56 29.65 29.11 28.82 33.16 32.96 32.43 31.68 31.27 30.76 30.98 29.95 29.18 28.17 28.14 29.24 29.14
49.42 49.37 48.67 47.22 47.26 44.95 44.22 43.83 42.89 42.20 41.79 41.01 40.86 40.77 40.52 39.86 40.07 39.79 39.48 39.71 39.78 39.51 37.98 37.35 37.90 37.27 36.04 28.31 27.74 28.03 32.94 32.69 32.14 31.48 30.99 30.83 30.31 29.50 27.39 27.18 27.12 27.79 29.44
50.54 50.20 48.91 46.00 44.36 43.31 43.10 42.31 41.43 41.13 39.94 39.62 39.66 40.11 40.11 39.51 39.52 38.90 38.85 38.85 38.76 38.66 37.58 37.82 37.29 36.34 35.35 27.75 27.26 28.12 32.02 31.62 30.90 31.06 31.14 29.73 28.76 27.02 26.20 25.60 25.72 25.98 27.37
50.63 47.80 44.48 43.31 41.44 42.54 41.92 40.96 40.08 39.32 38.51 38.94 39.64 40.14 39.87 39.21 38.70 38.53 38.19 38.48 38.45 37.16 36.30 36.51 36.75 33.25 33.91 27.90 26.53 27.98 31.25 29.96 29.98 30.62 30.40 27.90 26.25 24.57 25.33 25.14 25.07 24.46 25.25
47.10 43.58 40.66 39.81 41.46 41.09 40.77 39.58 39.06 38.11 39.03 39.77 39.74 39.20 39.23 38.76 38.74 38.49 38.57 37.89 37.21 36.56 35.99 34.73 35.19 34.73 33.88 32.93 26.69 26.56 29.36 29.62 28.78 28.51 28.76 29.01 25.00 24.10 24.18 23.57 25.18 24.20 24.83
41.16 41.09 40.10 39.54 39.93 40.18 39.48 38.16 37.35 39.19 39.56 39.31 38.49 38.26 38.58 37.87 37.15 37.60 37.88 36.97 36.33 34.84 33.21 33.53 33.08 33.43 33.40 30.26 29.12 26.91 26.52 27.19 27.88 27.15 28.43 27.68 23.73 23.31 22.90 23.51 22.32 22.71 23.74
39.99 41.73 41.31 38.52 39.05 38.74 38.68 36.67 38.42 38.83 38.33 37.44 37.38 37.87 37.58 37.18 37.25 37.05 36.01 35.40 35.33 33.65 32.38 31.01 31.02 31.18 32.18 31.92 28.67 26.98 26.05 26.58 27.40 28.19 26.08 23.15 22.38 22.61 23.67 22.57 21.93 23.00 24.59
39.09 37.81 38.58 37.69 36.71 37.28 36.88 38.01 37.93 37.78 36.94 36.29 36.44 37.11 36.99 36.57 37.15 36.05 34.71 34.28 33.32 31.87 30.25 29.82 29.37 30.16 29.96 30.88 31.23 30.65 29.89 28.07 27.48 27.66 27.05 24.70 21.86 23.09 23.11 25.00 25.07 24.71 23.54
36.10 38.23 37.33 37.15 36.56 36.50 36.59 37.48 37.03 37.18 35.74 35.65 35.91 36.18 36.71 36.27 36.03 35.61 34.35 33.33 33.78 32.71 31.12 30.67 30.23 29.58 29.01 30.16 29.93 29.06 29.66 29.48 27.68 24.59 26.38 26.29 25.13 24.16 24.39 24.85 24.20 24.60 23.24
37.56 37.06 36.52 35.30 35.28 35.37 36.01 36.40 36.59 35.84 34.92 34.35 35.01 36.03 35.86 35.21 34.53 34.27 33.20 31.76 30.52 30.50 30.38 30.20 30.39 32.60 30.89 30.17 28.42 27.72 27.64 26.56 24.21 24.87 25.81 25.44 25.24 23.63 23.23 23.01 23.19 23.84 22.30

GFSMW_sfc_wetblb_039.txt.gz
Wetbulb
60.51 61.94 63.29 63.75 63.77 66.14 64.40 63.53 62.69 62.66 61.75 59.11 58.59 55.74 55.10 54.51 55.33 55.79 57.10 57.54 57.52 55.76 55.04 54.57 53.58 52.92 51.57 50.93 51.34 50.30 49.43 48.59 49.27 46.89 46.66 46.92 49.79 49.74 49.00 49.51 48.68 48.52 48.12
60.22 61.33 63.02 63.87 64.32 64.79 64.04 63.62 63.05 62.26 63.58 60.32 61.22 60.62 58.31 57.53 58.26 57.42 57.85 57.99 55.95 55.09 54.06 53.45 52.63 52.33 51.09 51.07 50.78 50.09 48.30 48.18 48.42 44.62 44.34 41.05 43.30 46.61 47.75 47.29 46.97 47.13 47.24
59.47 60.89 62.22 63.26 63.84 63.13 62.93 64.17 63.44 63.92 63.33 63.15 61.27 60.19 59.61 58.43 57.07 56.75 56.55 56.27 55.07 54.60 53.85 52.87 52.32 51.86 51.42 49.96 50.34 49.84 48.36 45.43 46.88 47.21 43.55 39.54 37.86 41.12 44.35 45.18 45.79 46.24 45.12
60.43 61.59 62.45 62.15 63.25 63.57 65.18 64.27 63.71 63.32 62.34 60.99 59.47 58.25 56.69 55.72 57.08 57.11 57.33 56.32 55.17 54.11 53.02 52.22 52.18 52.00 51.37 50.48 50.01 49.71 48.83 47.51 44.41 45.90 45.35 45.27 43.10 37.60 35.88 41.86 42.80 43.65 43.81
60.93 61.62 62.64 63.39 63.85 64.02 63.53 63.50 63.06 61.53 60.43 60.00 59.41 58.46 57.80 58.26 58.11 57.68 55.77 55.13 54.70 53.89 52.82 52.59 52.11 51.51 50.78 50.53 50.75 50.28 48.55 47.77 45.58 44.14 43.01 42.91 41.98 41.69 37.88 34.93 37.83 41.24 43.10
60.78 60.87 61.86 61.70 61.25 62.71 62.64 61.77 60.71 59.60 59.74 59.20 59.48 58.67 57.14 55.54 54.41 54.70 53.31 52.64 52.14 51.92 52.26 51.87 51.96 51.30 49.98 49.90 49.73 49.58 47.89 47.08 46.36 45.04 43.54 41.90 39.57 38.27 37.75 36.22 36.62 37.02 39.39
59.28 58.68 58.36 58.49 59.14 59.68 60.02 59.45 58.96 57.86 58.66 58.92 58.47 57.47 56.00 54.42 52.17 52.79 51.60 50.51 50.42 50.41 50.74 50.68 49.27 48.23 47.84 47.51 47.79 48.09 48.05 46.92 45.55 44.38 43.03 42.98 41.49 41.24 39.20 37.62 36.06 35.28 38.30
58.43 57.37 57.04 57.34 57.69 58.16 58.68 58.57 58.18 57.13 58.20 57.66 56.55 55.49 53.99 52.57 52.46 51.76 51.05 50.10 49.38 48.97 48.98 47.81 47.48 46.84 46.49 46.65 47.05 47.01 47.35 46.71 45.90 44.08 43.48 42.14 42.15 41.67 40.19 37.93 35.60 33.10 35.02
57.25 56.50 56.87 57.51 57.71 58.11 58.54 58.54 57.59 56.67 56.55 55.27 54.35 53.17 52.39 51.92 51.16 50.49 50.41 49.28 48.46 47.29 46.95 46.86 46.00 45.61 45.52 45.47 45.72 45.86 45.97 45.79 45.04 44.13 42.93 42.20 42.13 41.52 40.84 39.27 37.74 35.10 30.84
56.73 56.63 57.11 57.58 58.14 58.52 58.80 58.91 58.20 55.89 54.56 53.67 52.71 51.53 51.53 50.98 49.99 49.62 48.06 47.29 47.08 46.57 46.00 45.21 44.93 45.05 45.12 45.08 45.06 44.53 44.35 43.66 43.70 42.18 41.01 40.51 40.32 40.08 39.91 38.91 38.73 37.68 34.67
56.46 56.74 57.27 57.94 58.25 58.37 57.78 57.26 55.98 53.83 52.95 51.81 50.58 50.79 49.98 49.22 48.47 48.27 47.72 46.31 46.23 45.56 44.48 44.27 44.48 44.21 44.07 44.25 43.50 43.15 42.92 41.22 41.03 40.56 40.35 39.19 39.55 38.85 38.66 39.04 38.36 37.24 36.53
57.05 57.37 57.50 57.64 57.28 56.57 56.26 55.01 53.25 52.04 51.19 49.65 48.71 49.54 49.15 47.96 47.22 46.86 45.85 46.06 45.23 44.90 44.05 44.17 43.70 43.45 42.50 42.49 40.73 39.96 39.26 39.18 37.98 39.02 38.50 37.96 38.02 37.44 37.46 37.22 35.61 35.85 35.62
56.77 57.10 57.14 56.41 56.07 55.12 54.51 52.88 51.96 50.30 49.03 47.53 49.03 48.41 47.56 47.24 46.52 45.60 45.42 45.38 44.60 43.77 43.80 43.56 42.75 41.88 40.63 39.80 40.18 40.16 39.38 38.41 38.22 38.04 37.25 36.75 36.41 34.99 34.96 34.38 33.69 33.59 33.35
56.13 56.49 56.10 55.67 55.16 54.25 52.93 51.70 49.85 48.94 47.90 48.42 47.92 46.87 46.70 46.46 45.66 45.28 45.13 44.58 43.71 43.05 42.97 43.03 42.37 41.33 40.49 40.03 39.72 39.11 38.17 37.82 37.79 37.70 36.63 35.76 34.65 33.73 32.18 30.90 31.10 31.31 30.59
54.62 54.70 54.68 54.59 54.30 52.65 51.63 49.98 49.75 48.87 48.44 47.28 46.17 45.79 46.17 45.72 45.07 44.40 44.29 43.59 43.21 43.01 43.12 42.27 41.03 40.55 40.41 39.28 37.92 37.85 37.31 36.38 36.11 36.25 35.71 35.29 32.96 30.79 30.21 29.68 29.33 28.73 27.57
53.70 53.66 53.86 53.82 52.71 51.15 50.07 50.23 49.04 48.01 47.61 45.82 45.05 44.95 44.30 44.25 43.73 43.51 42.99 42.53 42.29 42.44 42.53 41.40 40.04 38.92 39.05 31.34 30.90 31.26 34.99 35.26 34.89 34.04 34.23 34.37 34.01 33.09 31.14 30.26 28.96 28.89 26.54
53.10 53.24 53.35 53.32 52.35 51.24 50.44 48.62 47.28 46.55 44.97 44.76 43.96 43.11 43.46 42.55 42.67 42.24 41.84 41.32 41.37 41.70 40.98 39.54 38.63 38.63 38.70 31.24 30.04 29.14 32.97 34.20 34.41 33.99 33.07 32.57 33.15 32.13 31.61 30.11 29.36 28.94 29.30
52.91 53.48 53.49 53.13 52.49 51.60 49.29 46.78 46.73 45.29 44.31 43.22 42.23 42.34 42.28 41.76 41.63 41.23 40.99 41.05 41.25 40.28 40.09 39.22 38.08 37.65 37.34 30.80 29.22 28.42 32.21 34.39 34.30 33.96 33.12 32.25 31.83 30.49 27.56 27.20 26.81 27.95 28.69
53.84 53.97 54.00 52.99 51.35 48.49 45.97 45.52 43.92 43.45 42.27 41.36 41.16 41.22 41.47 40.72 40.52 40.17 40.40 40.81 39.96 39.65 39.39 39.02 37.77 37.74 37.40 30.26 28.93 28.10 32.44 32.85 32.66 32.92 32.81 31.87 30.56 27.80 26.31 25.36 25.31 25.95 26.98
53.78 53.27 53.07 51.32 48.33 46.26 44.97 44.04 43.20 42.53 41.02 40.42 40.21 41.05 40.97 40.17 39.68 39.92 39.90 40.38 39.75 38.68 38.43 37.10 38.08 36.68 36.42 30.40 29.40 28.44 31.68 30.85 31.07 32.04 32.00 29.13 27.20 25.26 24.93 24.30 24.12 22.98 25.56
53.12 52.79 50.34 47.00 46.29 45.58 44.37 42.77 41.85 40.21 40.19 40.87 40.74 40.36 40.23 39.80 39.98 39.64 39.73 39.33 38.90 38.20 36.84 35.75 36.26 35.74 35.23 34.61 29.80 28.35 29.60 30.43 29.70 29.24 29.94 30.92 26.80 25.08 24.39 24.18 24.13 24.15 24.06
50.01 47.48 45.69 43.99 43.03 43.63 41.78 39.94 39.67 40.38 40.57 40.07 39.43 39.30 39.19 39.03 38.92 38.68 38.58 38.77 38.55 36.57 35.40 35.50 33.95 34.62 34.86 33.00 30.54 29.04 27.97 28.30 28.08 28.18 29.76 29.91 26.14 24.68 23.97 24.16 24.26 23.61 23.77
45.33 44.67 42.89 41.98 40.21 39.85 39.68 37.56 38.92 39.84 39.52 38.66 37.94 38.19 38.99 39.26 39.10 37.81 37.73 37.25 36.70 35.36 34.08 33.03 32.83 32.69 34.72 34.92 31.50 30.29 28.45 27.13 27.72 29.52 28.85 26.14 25.94 25.23 25.46 25.51 24.44 23.73 25.92
43.13 42.50 40.08 37.95 37.73 39.25 38.50 38.59 38.57 38.55 37.49 36.51 37.01 37.79 37.84 38.05 38.32 37.94 38.00 36.46 34.56 34.05 33.01 32.07 31.04 31.64 32.35 32.98 33.83 31.72 30.41 28.36 28.77 29.27 29.73 27.58 26.21 25.57 25.08 26.29 27.66 27.16 26.30
39.14 38.19 37.61 37.21 37.47 38.17 37.46 38.30 37.79 37.51 36.52 36.54 36.75 36.63 37.18 37.41 37.37 37.67 37.50 36.03 35.81 34.50 33.30 32.57 32.47 33.33 31.48 31.65 31.55 30.96 31.30 31.42 29.87 26.77 27.83 27.82 27.91 26.92 27.08 26.99 26.62 26.71 26.23
37.09 36.83 37.12 37.30 37.17 37.03 36.86 37.40 37.70 37.31 36.36 35.33 35.82 36.55 36.38 36.69 36.67 35.71 34.62 34.24 32.10 32.02 31.76 31.54 31.44 33.78 31.66 31.01 30.63 29.55 28.97 28.30 27.72 26.25 26.33 27.13 27.98 26.32 25.68 25.75 25.48 26.05 24.98

GFSMW_sfc_wetblb_042.txt.gz
Wetbulb
57.34 59.48 60.75 61.56 63.38 64.11 62.81 62.36 61.31 60.98 60.04 58.93 57.05 56.42 55.29 54.53 54.81 54.29 55.03 55.84 55.92 54.68 52.49 52.22 50.99 50.04 48.83 48.08 47.99 46.65 45.51 45.00 45.35 42.81 42.34 42.52 43.75 43.00 43.77 43.63 43.34 43.87 44.37
56.91 59.80 61.15 62.07 63.37 63.52 63.57 62.12 61.51 61.13 60.79 60.20 58.93 58.20 56.73 54.86 54.90 55.20 55.89 56.65 55.23 53.42 52.93 50.95 50.19 49.61 48.15 47.84 47.89 46.74 45.02 44.32 44.74 40.57 40.45 36.73 39.24 41.67 42.71 41.88 42.34 41.38 43.15
57.82 59.34 60.71 61.83 63.32 63.38 62.32 62.40 61.61 61.21 61.70 60.00 60.85 59.48 57.24 56.02 55.48 54.86 54.89 54.67 54.37 53.48 52.09 51.01 49.77 48.80 48.37 46.74 46.79 46.10 45.31 42.15 43.07 43.39 40.44 36.18 33.32 37.56 39.64 39.50 40.41 39.99 39.74
59.57 60.01 60.97 61.56 63.13 63.21 62.72 63.19 62.67 62.21 62.60 61.76 58.68 56.81 55.09 53.50 54.46 54.49 55.09 53.48 53.66 53.03 52.13 50.57 49.52 48.90 48.50 47.20 46.81 46.86 45.39 43.98 41.05 42.22 43.84 40.68 38.92 33.79 33.20 36.69 38.18 39.42 39.55
59.28 59.61 61.00 61.86 61.94 62.17 62.78 63.35 62.98 61.55 60.84 59.49 58.55 56.95 56.29 55.18 55.22 55.00 53.99 53.89 53.51 52.90 51.65 50.86 49.73 48.38 47.91 47.03 46.73 45.98 45.01 44.35 42.80 41.02 39.93 39.72 38.90 38.24 34.64 32.11 33.72 37.21 37.71
59.28 60.74 61.49 62.27 61.37 62.82 63.02 62.51 61.34 59.83 59.01 58.78 58.47 57.59 56.44 54.77 53.59 53.36 52.51 52.07 51.29 49.68 50.32 50.32 48.42 47.07 46.22 44.77 43.83 43.78 42.87 42.11 42.64 42.02 40.82 39.48 37.97 36.60 34.38 33.48 32.99 32.73 35.08
59.59 60.27 60.41 60.77 60.77 60.64 61.26 60.90 59.76 57.63 58.32 58.02 57.89 57.36 55.56 53.79 51.29 51.27 50.46 48.67 48.02 47.85 47.40 46.70 45.23 44.66 44.50 44.17 43.49 42.64 42.24 42.17 41.80 40.76 40.97 40.59 39.43 38.94 36.99 35.09 32.85 31.61 34.00
59.40 58.92 59.65 59.12 59.26 59.70 59.31 58.88 58.24 56.91 57.38 57.76 57.06 56.02 53.97 51.79 51.18 51.60 49.47 47.62 46.69 46.13 46.23 45.13 44.47 44.12 43.66 42.99 42.49 41.98 41.76 41.45 41.57 40.30 41.24 41.00 40.43 39.46 37.38 36.60 32.67 29.70 30.82
57.82 57.45 57.94 57.76 57.91 57.76 57.84 57.62 57.02 56.68 56.81 56.20 54.43 52.69 51.87 51.07 49.44 48.54 48.35 46.68 45.89 45.75 44.66 43.98 43.00 42.92 42.83 42.73 42.16 41.06 40.99 40.94 40.54 39.80 39.46 38.22 38.80 38.36 36.62 35.85 34.60 31.10 27.40
57.05 56.84 56.27 56.58 56.92 57.58 57.85 58.39 57.75 55.88 55.71 53.99 52.62 51.65 50.98 49.86 48.85 48.47 47.19 45.41 44.65 44.24 43.49 42.62 42.18 42.33 42.34 42.22 41.31 40.40 40.53 39.54 39.18 38.64 38.31 38.20 36.99 36.47 35.87 34.71 34.34 34.06 31.48
56.50 56.29 55.90 56.84 57.21 57.65 57.82 57.70 56.95 54.81 53.34 52.37 51.49 50.23 48.76 48.28 48.00 47.02 45.54 44.43 43.85 43.46 42.57 42.26 41.87 41.77 41.32 40.46 39.48 38.94 38.71 38.07 37.31 36.98 36.68 36.59 36.72 35.00 35.34 34.60 33.42 31.36 30.86
57.00 56.55 56.46 56.70 56.78 56.92 56.83 56.28 55.73 53.58 52.30 51.03 49.44 48.94 48.52 47.83 47.27 46.09 44.92 43.90 42.91 43.28 42.20 41.99 41.67 41.54 39.99 39.33 38.55 38.45 37.86 36.34 35.70 35.84 35.06 35.43 36.37 32.28 31.81 30.94 29.53 29.44 29.43
56.53 56.41 56.40 56.10 56.30 56.25 55.55 55.32 54.19 51.93 50.68 48.99 48.06 47.52 47.44 46.06 45.99 44.96 43.89 43.63 42.78 42.04 41.57 41.56 41.10 40.52 39.73 37.97 38.21 37.58 37.25 36.38 35.63 35.45 34.44 32.98 32.03 29.60 29.10 27.93 26.99 27.63 29.59
55.75 55.95 55.93 55.99 55.81 55.90 54.91 53.75 51.69 50.62 49.01 48.44 47.55 46.47 46.74 46.48 44.85 43.82 43.25 43.07 42.69 41.62 41.32 41.55 41.45 40.48 39.06 39.15 39.16 38.68 36.03 34.41 34.12 33.86 33.16 32.41 31.12 28.44 26.78 26.93 25.30 26.45 25.20
54.46 55.01 55.78 55.45 55.52 54.77 54.00 52.15 50.82 49.02 49.29 47.74 46.53 45.87 46.29 45.48 44.70 43.56 42.83 43.09 42.20 41.49 41.67 41.18 40.69 39.22 39.00 38.75 35.78 34.60 33.00 32.14 31.90 32.37 33.36 31.84 32.33 33.49 30.31 27.36 24.87 24.63 23.99
53.19 54.69 55.50 55.67 54.86 54.09 52.01 51.44 49.24 48.80 48.19 46.44 45.52 45.85 44.66 44.43 42.93 42.21 42.54 42.16 41.51 41.00 40.87 40.19 39.39 37.81 38.95 32.56 32.32 31.97 29.79 31.37 31.15 29.81 30.32 30.59 32.93 31.91 32.12 31.92 29.78 28.31 23.67
51.91 53.91 54.28 54.30 54.33 52.96 51.58 49.46 49.35 48.66 46.17 44.82 44.76 44.03 43.79 42.94 42.14 42.15 41.24 40.29 39.84 40.12 39.21 38.79 38.52 37.19 36.89 32.84 31.60 30.02 29.09 29.12 29.60 29.37 29.12 29.79 31.97 28.55 26.59 28.03 27.93 27.34 28.67
52.16 53.64 54.00 54.07 53.96 52.44 51.06 49.70 47.70 45.58 44.29 44.03 43.06 43.10 42.56 41.43 41.31 40.83 40.25 40.06 39.84 38.76 37.79 37.40 37.47 36.38 37.05 33.06 31.63 29.78 27.30 28.93 29.61 30.07 29.16 28.07 27.59 24.75 25.07 24.18 23.00 24.38 25.49
52.65 53.27 53.97 53.65 53.08 51.30 48.92 46.64 45.17 44.03 42.33 41.91 41.75 41.17 40.98 40.46 39.96 39.32 39.13 39.22 38.64 37.58 36.81 37.34 36.48 35.81 34.19 32.11 30.86 28.55 27.87 28.38 28.49 29.93 29.55 29.20 26.92 26.36 27.12 23.52 22.12 22.48 23.33
52.62 52.63 53.33 52.93 50.29 47.20 46.10 44.52 41.90 41.90 40.85 40.39 40.11 40.77 40.47 39.63 38.75 38.44 38.38 38.74 38.19 37.48 36.65 35.45 35.68 35.69 32.88 32.07 31.08 29.16 27.56 26.82 27.41 28.04 28.21 27.81 25.78 25.87 25.56 20.43 20.49 19.32 21.65
52.30 52.74 50.53 47.94 46.07 45.54 44.13 41.87 40.53 39.62 40.18 40.62 40.81 40.18 39.85 39.17 38.88 38.05 37.67 36.96 36.20 35.36 34.10 32.70 33.16 33.04 33.23 33.23 31.55 30.71 27.28 26.73 26.87 26.09 25.76 26.76 27.18 26.83 26.18 24.87 21.50 20.76 23.40
48.08 47.47 44.50 41.98 41.57 41.79 40.77 38.74 38.12 39.88 40.20 39.59 38.99 38.70 38.32 38.09 38.00 37.12 36.53 36.57 35.38 33.66 32.88 31.67 31.06 31.10 32.11 33.48 32.32 31.23 29.46 29.45 24.31 25.71 26.08 26.67 28.05 27.37 26.29 24.59 25.28 25.37 23.81
45.00 44.04 41.28 39.70 39.27 39.13 38.45 36.44 37.82 39.35 39.10 37.83 36.80 36.87 37.60 38.02 37.87 36.17 35.26 34.54 34.08 31.06 30.81 30.58 29.61 31.41 32.30 31.57 33.63 31.43 30.66 29.45 24.64 25.97 28.01 28.66 27.82 28.19 26.02 27.58 26.81 22.84 21.28
40.52 39.76 38.77 37.87 37.22 37.84 38.20 38.73 38.24 37.76 36.90 35.90 36.23 36.55 36.44 36.14 36.36 36.11 35.43 33.88 32.21 30.71 30.82 30.13 30.42 30.65 29.77 28.82 29.70 28.31 29.05 29.42 27.50 26.42 27.87 25.67 24.94 22.47 22.65 22.32 24.79 23.38 21.26
37.98 37.94 36.86 36.30 36.75 38.20 37.91 38.19 37.98 37.71 35.85 35.79 36.12 35.81 35.74 35.39 35.77 36.37 35.18 32.04 32.54 32.19 30.52 30.49 31.47 30.79 30.29 29.76 29.85 28.88 30.59 30.33 29.40 22.32 22.18 21.77 24.03 23.53 22.64 22.70 22.72 22.37 22.13
36.72 36.05 36.32 36.63 37.32 37.86 37.37 37.78 38.00 37.02 35.76 34.73 34.61 33.92 33.98 33.58 33.95 33.41 32.57 34.12 32.35 32.91 32.54 32.44 30.44 29.77 31.79 31.50 31.26 31.30 30.90 30.08 28.81 22.23 19.35 19.63 21.32 22.51 20.76 19.42 20.08 20.34 19.93

GFSMW_sfc_wetblb_045.txt.gz
Wetbulb
55.13 57.40 57.85 60.12 60.64 60.89 59.66 58.93 57.57 57.71 57.43 55.81 54.16 52.95 51.80 51.70 50.68 50.44 51.95 52.69 52.69 50.93 49.89 48.97 47.78 46.67 45.69 44.35 44.83 43.79 42.63 42.29 42.08 39.48 39.37 39.69 40.85 40.75 39.73 40.03 39.33 40.66 41.53
53.70 54.92 55.08 60.34 60.72 60.10 59.60 58.75 57.90 57.75 57.93 56.41 54.67 53.93 51.11 50.79 50.35 50.79 51.33 52.50 51.98 50.09 49.17 47.47 46.24 45.86 45.04 44.57 44.06 42.99 41.93 41.65 41.69 38.63 37.29 35.28 37.78 38.46 40.31 38.25 39.02 38.00 39.26
53.45 55.41 56.77 59.91 59.84 59.67 59.63 58.76 58.74 58.08 58.60 58.36 55.63 54.49 52.01 50.69 50.19 49.86 50.54 50.96 50.71 50.32 49.29 47.80 46.29 45.75 45.29 43.88 43.15 42.98 42.51 40.14 40.88 40.64 38.70 34.21 31.53 34.33 37.07 37.85 37.12 37.07 37.11
55.40 56.38 56.48 58.48 59.80 59.50 60.17 59.76 59.63 59.04 59.22 58.87 56.25 53.51 50.77 49.69 50.39 50.75 50.73 49.61 50.45 49.85 49.07 47.64 46.37 45.82 45.21 43.92 43.57 44.90 41.99 41.35 39.23 39.94 42.33 38.42 36.88 32.71 31.68 34.75 36.77 36.97 37.31
55.83 56.29 57.03 58.72 60.57 60.11 60.03 60.08 59.85 59.21 59.41 59.27 56.29 53.84 50.71 50.59 51.12 51.42 50.62 49.89 50.87 50.54 48.89 47.25 45.91 44.72 44.08 42.45 41.37 40.35 39.77 39.74 39.09 38.45 38.26 37.35 37.10 36.65 33.54 31.76 31.62 35.25 35.84
55.93 57.11 58.63 59.96 60.29 60.54 60.20 60.12 59.68 59.28 58.12 56.23 54.23 52.61 51.79 51.58 51.68 51.76 51.17 50.89 50.15 47.96 46.03 45.21 42.89 42.30 41.53 40.63 39.95 39.65 39.33 38.89 38.71 39.00 39.06 37.96 37.75 37.58 37.05 32.84 31.28 31.19 32.70
53.60 56.40 58.25 58.20 58.93 59.17 59.39 59.47 59.40 56.45 55.72 53.71 52.97 52.49 50.16 49.30 48.89 49.20 49.00 46.90 44.67 43.36 43.13 42.08 41.24 40.59 40.37 40.29 39.78 38.91 38.35 38.32 37.84 37.98 39.35 40.90 39.09 39.24 38.96 37.25 32.86 29.63 31.25
55.34 57.34 58.26 57.78 58.51 58.89 58.14 58.57 57.11 56.47 55.04 53.37 52.85 50.95 48.59 47.14 46.90 47.62 46.25 45.35 44.84 44.00 42.11 41.54 40.58 40.18 40.40 39.83 39.28 38.88 38.17 38.50 37.60 37.53 38.50 38.95 40.31 38.48 38.95 36.24 33.36 30.13 28.35
53.42 54.74 55.80 56.60 56.72 55.10 54.52 55.06 54.79 53.60 53.12 52.95 50.07 47.72 47.39 47.08 45.71 45.81 46.29 45.23 44.35 44.13 42.31 41.66 39.38 39.53 39.77 39.72 39.42 38.40 37.71 37.22 37.17 36.68 35.88 35.42 36.19 37.78 36.14 36.95 34.88 31.58 26.81
52.74 53.30 53.74 53.84 54.29 54.02 53.75 53.47 52.63 52.46 52.19 49.45 48.65 47.36 47.03 45.66 46.33 44.87 45.40 44.32 43.33 42.81 41.65 39.49 38.98 39.01 39.39 39.04 37.77 36.97 37.24 36.34 35.80 35.99 34.85 35.06 35.33 35.83 35.12 33.97 33.78 32.64 30.15
52.05 51.70 51.61 53.40 53.84 53.28 53.37 53.22 52.04 52.32 50.23 48.78 47.23 46.41 44.91 46.73 47.12 46.03 44.62 43.28 42.21 41.98 40.36 39.57 39.35 39.26 38.71 37.91 36.86 36.11 36.33 35.47 34.86 34.78 34.79 33.73 33.86 31.57 30.70 29.94 28.81 26.96 26.29
52.36 51.81 51.29 52.47 52.64 52.98 53.69 52.56 50.99 51.42 49.98 48.81 47.00 46.66 47.25 47.78 46.02 44.86 42.57 42.90 41.64 40.95 39.40 39.98 39.63 39.72 38.15 36.75 36.41 36.41 36.10 35.42 34.49 34.48 33.12 32.46 34.02 29.16 27.96 26.34 24.91 24.48 24.67
52.10 52.01 51.46 52.34 52.67 53.25 54.67 54.00 51.52 50.12 48.24 47.25 47.21 48.14 47.59 46.65 44.64 44.27 43.26 40.93 40.14 39.41 39.46 40.10 39.09 39.01 37.62 36.36 36.43 36.07 35.78 34.96 33.86 32.40 31.51 30.83 29.85 26.48 25.41 24.99 24.14 23.97 26.67
53.19 52.06 52.04 52.91 54.12 54.48 54.48 53.66 49.83 48.38 47.25 46.94 47.07 46.10 46.15 45.08 43.93 42.38 41.54 40.34 39.71 38.99 40.01 39.50 39.57 39.58 37.90 37.68 38.21 36.54 33.67 32.39 31.90 31.79 31.00 30.40 28.00 26.27 25.30 25.30 23.54 24.54 22.87
50.95 50.93 51.18 50.92 51.51 51.78 51.54 50.78 48.57 47.39 47.33 46.71 46.19 45.53 45.67 43.76 42.50 41.82 41.15 40.93 39.77 40.61 39.99 39.57 39.39 38.30 37.75 37.60 34.41 33.79 31.82 30.77 29.84 30.22 30.69 29.82 31.79 35.00 29.68 26.16 23.15 23.20 22.16
48.46 50.56 51.61 52.10 51.75 51.34 49.12 48.82 47.02 46.76 47.39 46.23 44.73 43.82 43.18 42.28 41.93 40.93 40.72 40.34 39.96 39.40 39.11 38.62 37.97 37.08 37.53 34.33 34.09 32.19 29.56 29.70 29.08 27.57 28.42 28.33 31.30 30.81 30.98 29.96 29.00 26.82 21.89
47.63 50.01 50.30 51.14 50.76 49.97 49.13 46.61 46.69 47.29 45.64 43.45 42.95 42.62 42.69 41.75 40.68 40.32 39.70 38.66 37.80 37.56 37.51 36.88 37.15 36.39 34.93 34.05 33.88 32.04 28.42 27.83 27.00 26.92 27.42 28.12 29.94 27.42 25.02 25.84 26.34 25.53 26.67
47.68 48.58 49.26 49.21 47.80 48.06 47.12 46.77 45.16 43.55 42.79 41.41 41.01 40.22 40.37 40.16 39.67 38.89 38.63 37.66 37.93 37.43 36.34 35.80 35.89 35.59 36.32 34.13 33.56 31.19 27.41 27.64 27.31 27.74 27.17 26.20 25.47 24.80 24.54 23.37 22.27 22.44 22.90
47.12 47.81 48.03 46.61 45.29 44.60 44.07 43.59 42.55 41.56 40.89 39.97 39.54 39.61 39.43 38.49 38.49 37.64 37.00 37.38 36.82 36.38 35.49 35.63 34.75 34.44 33.31 33.93 32.91 29.67 27.22 27.43 27.01 28.23 27.83 27.69 24.44 26.76 26.75 23.21 21.63 21.21 21.99
46.04 45.05 43.40 42.64 41.57 40.71 40.64 40.08 39.23 38.44 37.93 38.60 38.83 39.47 39.30 38.40 37.33 36.97 36.46 36.67 36.17 35.95 35.08 34.03 33.94 34.52 31.03 33.21 32.62 30.21 26.82 26.10 26.49 26.63 26.87 27.93 25.15 25.98 26.32 20.38 19.18 17.70 20.16
39.85 39.63 38.77 38.00 38.22 39.18 39.04 37.76 38.04 37.14 38.58 39.02 39.18 39.01 38.78 37.92 37.34 36.09 35.66 35.15 34.35 33.44 32.21 31.83 31.61 31.91 31.66 30.10 33.27 32.42 26.90 26.33 25.94 26.11 24.82 25.17 27.43 27.20 27.74 26.61 20.88 18.82 22.59
38.00 37.66 36.20 35.81 36.75 37.37 37.14 36.32 36.02 38.08 38.51 38.61 38.28 38.21 37.57 36.69 36.93 35.26 34.93 34.59 33.45 31.30 30.88 27.01 28.59 29.39 31.00 32.74 33.54 33.44 31.78 28.53 24.03 25.24 25.17 25.39 29.32 28.87 28.28 26.52 26.21 26.44 24.75
36.94 37.36 36.36 35.85 36.69 37.13 37.35 35.37 36.64 38.32 38.21 37.00 35.97 35.68 35.99 36.18 36.14 33.47 32.69 31.72 31.56 28.97 29.26 28.86 26.17 27.69 29.77 29.34 33.04 33.18 32.06 30.65 26.30 25.17 25.62 28.17 29.27 28.92 27.47 28.02 28.09 24.21 20.05
35.78 36.38 36.55 36.09 35.73 36.98 37.62 36.80 36.79 36.48 34.96 33.79 33.99 34.01 33.95 33.80 33.52 33.88 32.85 30.79 26.96 25.53 28.02 27.27 27.21 26.13 26.62 26.12 25.76 28.17 29.78 31.13 28.51 25.63 25.42 23.61 24.71 21.50 22.08 22.41 24.37 23.00 20.00
36.14 36.07 35.50 34.79 34.98 36.16 36.33 36.23 35.59 35.45 33.71 33.34 33.46 32.78 32.75 32.06 32.25 32.91 31.47 28.92 28.49 27.67 26.56 26.64 27.05 23.84 23.69 27.72 29.53 28.05 26.90 26.04 26.40 25.05 25.13 22.28 19.22 20.79 23.03 22.26 21.61 20.97 20.15
35.04 34.50 34.66 34.64 34.92 35.29 34.06 34.22 34.72 33.97 32.60 31.66 30.94 28.45 28.75 29.00 30.32 29.96 29.39 32.17 31.46 32.71 33.12 32.83 28.55 29.14 31.78 32.29 32.85 32.27 32.21 31.80 29.59 22.71 17.24 11.46 10.39 15.99 21.43 21.63 19.30 17.38 17.43

GFSMW_sfc_wetblb_048.txt.gz
Wetbulb
56.93 57.23 57.31 57.71 57.72 59.45 59.35 58.60 57.17 56.30 56.10 54.78 52.90 52.18 51.59 51.94 50.76 50.53 51.31 51.78 51.62 50.53 48.37 47.24 45.63 45.14 43.80 43.58 43.84 42.50 41.52 40.95 40.69 38.45 38.11 38.53 38.96 38.69 38.27 38.41 37.53 39.09 39.52
54.39 55.88 56.45 56.70 58.64 58.46 58.60 58.01 57.23 56.38 55.96 55.52 53.78 53.36 51.40 50.79 49.69 49.94 50.51 51.43 49.29 48.50 47.91 46.16 44.66 44.63 43.94 43.31 42.64 41.58 40.67 40.73 40.39 38.31 36.20 34.66 36.82 37.29 39.48 37.67 37.87 36.24 37.50
53.25 54.17 56.33 57.77 58.36 57.82 57.81 57.41 57.02 56.80 56.63 55.73 54.12 51.40 50.27 49.29 48.11 48.16 48.73 50.52 49.45 49.06 47.76 46.41 45.02 44.61 44.10 42.76 41.74 41.34 40.65 38.89 39.56 39.21 37.95 33.83 31.58 33.16 36.15 36.99 36.17 36.11 35.97
53.99 54.71 56.89 57.74 58.11 58.04 58.39 57.64 56.95 57.07 57.26 56.39 53.97 51.17 49.27 48.49 48.84 48.62 49.20 49.17 49.00 48.48 47.73 46.62 44.90 44.36 43.70 42.66 42.37 41.71 39.23 38.73 36.11 37.91 40.67 37.62 36.24 33.02 32.66 34.20 36.31 36.22 36.38
53.33 54.65 57.45 58.26 58.87 58.78 58.11 58.06 57.55 57.14 57.58 57.30 55.19 52.43 49.39 49.29 49.23 49.20 49.03 47.89 47.82 47.69 46.69 45.61 44.14 42.76 41.83 40.88 39.77 38.39 37.61 37.46 36.84 36.10 36.43 36.19 35.59 34.71 32.38 31.23 31.23 34.77 35.82
52.82 54.15 58.17 58.93 58.71 59.04 58.46 58.31 58.00 57.97 58.22 57.68 55.48 53.15 50.41 49.45 49.06 48.82 47.49 47.07 46.65 45.35 45.13 43.27 41.87 40.84 40.45 40.02 39.01 37.35 36.87 36.63 36.31 36.40 36.59 36.66 35.64 35.03 37.00 35.23 35.20 34.32 32.85
52.76 53.50 57.13 58.20 58.21 58.22 58.43 58.45 58.21 57.94 58.01 56.88 55.15 52.91 50.92 49.91 49.96 49.71 48.37 44.99 43.75 43.93 43.28 42.50 41.10 41.04 40.49 38.88 38.22 36.94 36.61 36.54 36.06 36.06 37.12 38.08 37.43 38.25 39.49 37.21 35.68 32.54 30.71
53.50 54.84 57.32 58.34 58.36 58.63 58.61 58.80 58.55 57.69 56.10 54.52 52.37 50.53 49.32 48.86 48.22 47.85 47.20 45.57 44.31 43.27 42.81 42.38 42.03 40.55 39.88 38.45 38.41 37.54 37.72 36.14 35.92 35.33 35.43 36.17 36.75 37.20 36.68 37.23 34.85 31.67 28.14
53.26 55.37 56.63 57.48 58.24 58.47 58.52 58.54 58.56 56.73 54.30 53.31 51.47 47.97 46.70 46.70 45.48 45.82 45.90 45.03 43.95 43.16 41.36 39.91 40.44 39.74 38.40 39.15 37.49 36.40 35.70 35.27 35.13 34.81 34.40 34.26 34.47 36.05 36.30 36.58 34.80 34.22 26.54
53.28 54.86 55.62 55.71 57.26 56.71 55.28 53.59 54.93 53.63 53.36 51.29 49.92 48.37 48.48 47.71 46.72 46.11 44.98 43.97 43.42 42.16 41.53 40.67 39.95 38.39 38.32 38.74 37.08 36.16 35.67 34.86 34.12 35.04 33.57 33.34 33.40 32.96 31.82 30.46 30.47 29.79 27.25
51.85 53.55 53.84 54.76 55.06 54.46 52.22 51.31 52.05 52.94 51.02 49.01 48.49 47.36 46.35 47.66 47.79 45.91 44.63 42.78 43.00 42.71 41.09 39.61 38.71 38.31 37.95 37.89 36.78 35.35 35.23 34.60 34.10 33.84 33.04 32.73 32.45 30.36 29.11 28.06 27.11 26.18 24.82
51.48 52.98 53.44 53.63 53.13 53.30 52.57 51.60 50.43 49.66 48.37 47.29 46.49 46.26 47.07 48.00 46.25 44.71 44.05 44.03 42.75 41.69 40.37 39.87 38.84 39.16 37.93 36.79 35.54 35.67 35.31 34.59 33.74 33.43 32.31 32.11 33.51 28.75 27.64 26.24 25.17 23.97 23.87
50.97 51.48 52.43 53.08 53.31 53.37 53.15 51.08 50.37 49.47 48.18 47.29 46.75 47.31 47.78 46.53 45.54 43.84 43.48 43.24 40.82 39.57 38.53 38.90 38.48 38.51 37.73 36.37 35.93 35.77 35.33 34.49 33.07 31.75 30.78 30.05 29.72 27.45 26.40 25.01 23.94 23.36 25.95
51.65 50.77 50.88 52.54 53.24 53.14 53.49 52.24 50.43 49.34 48.01 46.94 46.78 47.11 47.09 45.73 43.72 43.33 40.30 39.49 38.84 38.00 37.52 38.51 38.95 38.65 37.90 37.39 37.79 37.29 35.47 32.72 31.96 32.16 31.17 30.53 28.55 26.66 25.47 24.86 23.55 23.69 22.67
49.91 50.01 49.33 49.39 49.86 51.11 50.62 49.23 47.96 47.33 47.40 47.00 46.65 46.65 46.39 43.72 42.63 41.06 39.81 39.05 39.35 38.33 38.16 38.97 38.54 38.87 38.47 38.01 36.57 34.57 32.42 31.23 30.60 30.90 30.75 30.25 30.28 33.67 30.33 25.34 23.28 23.04 21.59
47.45 48.66 49.78 50.26 50.71 50.60 48.56 47.77 46.76 46.72 47.12 46.51 45.52 44.78 42.68 42.25 41.42 40.34 39.09 39.73 38.97 38.23 38.80 38.43 38.12 37.19 37.49 35.96 35.76 33.38 30.60 30.58 29.34 27.91 28.45 28.46 30.89 31.28 31.95 30.72 29.30 25.94 21.71
47.00 49.22 49.49 50.18 50.22 49.44 48.07 46.19 45.91 46.29 43.25 43.12 42.46 42.60 42.03 40.77 40.22 39.61 38.94 37.86 37.75 37.41 37.36 36.50 36.28 36.15 36.24 35.41 35.37 34.35 29.52 28.46 27.82 27.24 27.70 27.93 29.21 28.53 25.85 27.18 26.59 25.52 26.44
45.76 46.78 47.44 46.99 45.41 45.20 44.42 43.61 42.90 41.71 41.16 39.47 39.55 40.42 39.73 38.76 38.94 38.69 38.22 37.69 37.77 36.74 36.11 35.41 35.44 34.96 36.01 35.14 35.21 33.44 27.84 26.94 27.19 28.03 28.55 26.01 25.60 25.31 24.60 23.57 22.65 22.85 22.55
41.81 40.91 41.33 41.19 41.67 41.77 41.89 40.30 39.45 38.89 38.42 38.02 38.30 38.16 38.28 38.02 38.18 38.05 37.38 36.90 35.47 35.46 35.06 35.18 33.83 33.05 33.41 35.22 34.62 32.14 26.42 26.23 27.39 29.10 28.52 27.06 25.43 26.78 28.32 24.03 22.27 21.87 21.96
38.48 37.84 38.30 38.20 37.80 37.91 38.17 37.39 37.20 37.57 36.60 36.95 37.44 38.26 38.94 38.96 37.88 36.83 35.62 35.46 34.89 33.91 33.65 32.77 32.77 33.71 31.91 34.15 34.81 32.45 25.76 25.78 27.20 27.57 27.02 29.25 26.02 27.55 27.15 21.70 20.43 17.85 20.26
36.74 37.05 36.53 35.92 36.73 38.06 38.29 36.73 36.84 35.91 38.48 39.65 39.87 40.03 39.13 36.84 35.68 34.35 33.97 33.21 32.61 31.74 30.48 30.43 30.50 30.34 31.02 30.33 34.35 33.99 27.24 26.71 26.66 26.27 25.81 25.68 28.48 28.03 28.02 28.20 22.08 19.72 22.75
35.57 36.13 35.50 36.39 37.41 37.84 37.46 36.40 36.23 38.15 39.07 39.04 37.74 36.70 35.47 35.31 35.16 33.00 32.43 31.94 30.71 29.37 29.14 25.11 28.01 27.82 29.90 32.33 32.96 34.18 33.21 29.66 25.58 25.98 27.19 25.84 28.55 28.84 29.38 27.93 27.49 27.91 25.21
35.11 36.06 35.57 35.76 36.73 37.04 36.29 34.34 35.62 36.81 36.88 35.94 34.30 33.82 33.82 33.98 33.64 31.27 30.20 29.37 29.19 26.82 27.51 27.73 26.63 26.92 28.69 29.93 32.92 33.29 33.48 32.69 27.28 27.12 27.12 27.66 28.44 28.84 28.08 29.00 28.49 24.65 21.48
36.53 36.89 36.09 34.94 34.85 35.91 35.80 35.23 35.27 35.07 33.57 32.19 31.96 32.00 31.52 31.51 31.26 31.15 30.70 29.38 25.14 23.31 26.92 26.54 26.47 26.15 26.64 26.89 27.70 28.40 30.05 32.68 30.31 26.41 27.40 24.36 25.24 20.86 21.78 21.88 24.58 23.26 20.72
35.02 35.44 34.71 34.61 34.39 34.64 33.89 33.90 33.88 33.71 32.19 31.45 31.47 30.88 30.40 30.24 29.95 30.79 30.87 29.58 28.70 28.07 26.99 26.60 26.42 23.81 24.06 26.54 30.01 29.80 27.63 27.12 29.02 25.20 23.65 24.72 21.93 21.80 22.04 22.06 22.30 22.54 21.12
34.87 34.53 34.09 33.34 33.08 32.27 32.20 32.63 33.04 32.22 30.83 30.12 29.91 28.88 28.04 27.92 28.85 29.30 30.07 32.10 31.47 31.49 32.19 32.46 28.56 28.70 30.59 31.87 32.66 32.94 32.81 31.65 30.13 26.49 21.54 22.82 18.52 19.69 19.52 19.63 20.62 21.23 19.18

GFSMW_sfc_wetblb_051.txt.gz
Wetbulb
58.69 59.07 59.24 59.00 56.76 56.51 58.12 57.89 56.78 55.80 56.28 54.84 53.13 51.52 51.75 51.36 50.24 50.03 50.85 51.30 50.09 49.04 46.78 45.35 44.64 43.63 43.12 42.92 42.42 41.37 40.50 40.02 39.58 37.72 37.78 37.29 37.77 37.10 37.37 37.20 36.46 37.94 38.11
56.80 57.79 56.35 56.54 56.02 57.23 58.12 57.37 57.21 55.92 56.22 55.93 52.67 52.68 51.45 51.25 49.77 49.64 50.35 50.83 49.98 48.37 47.01 45.20 43.95 43.38 43.48 42.48 41.55 40.94 39.88 39.65 39.26 37.44 35.29 33.76 35.88 36.38 38.02 36.87 37.12 35.34 36.60
55.11 56.31 54.73 55.38 55.33 56.97 57.49 57.60 57.26 56.51 55.94 55.17 53.09 50.47 49.52 48.74 48.12 47.73 48.49 49.67 48.26 48.33 47.21 45.36 44.16 43.12 42.99 41.77 41.09 40.62 39.83 37.33 38.42 39.33 36.38 31.25 30.30 32.54 35.71 35.77 36.31 35.51 35.54
54.94 55.02 54.51 54.30 55.88 56.85 58.12 57.89 57.46 56.59 56.16 55.20 52.99 50.57 49.30 47.97 48.06 47.90 48.14 49.24 48.37 47.41 46.45 45.11 43.94 43.37 42.91 41.95 40.64 40.17 38.27 38.70 35.19 36.56 39.44 36.64 35.35 32.14 30.96 34.21 34.95 34.99 35.65
53.47 53.89 54.46 55.00 56.57 57.20 57.11 57.05 57.15 56.59 56.56 55.45 54.06 51.59 49.30 48.70 48.18 48.05 48.11 48.04 46.64 46.12 45.64 44.75 43.77 42.27 41.31 39.10 38.50 38.28 37.24 37.05 35.26 34.80 34.80 34.67 34.14 33.33 31.84 28.92 31.13 35.01 36.47
52.49 53.80 55.37 55.98 56.80 57.11 57.04 56.34 56.50 56.61 57.00 56.01 54.91 52.06 49.85 48.46 47.80 47.25 47.04 45.98 45.00 44.30 43.74 43.05 42.75 42.46 41.32 38.70 37.57 36.81 36.07 35.66 34.97 35.34 34.90 35.15 34.69 33.99 32.81 31.28 33.14 35.15 35.88
50.56 52.01 54.36 56.21 56.98 57.25 57.20 57.57 56.65 56.27 56.69 56.50 55.32 53.31 50.38 49.24 48.34 48.00 47.63 44.28 42.31 41.20 41.70 42.29 42.38 41.77 40.82 39.99 38.41 37.51 36.34 36.31 35.24 35.30 36.20 36.48 36.26 36.64 36.42 35.10 34.47 33.11 32.66
50.74 52.85 55.97 56.77 57.20 57.48 57.92 58.02 57.21 56.92 56.88 56.74 55.60 54.02 51.11 49.89 49.27 48.52 46.77 44.01 42.97 42.70 41.96 42.84 42.22 41.26 40.61 40.42 39.55 37.34 36.06 34.84 35.12 34.36 34.30 34.76 35.00 35.07 35.57 34.97 35.17 31.12 28.58
50.05 53.10 56.15 57.14 57.21 57.43 58.18 58.16 57.59 57.58 57.25 56.81 55.82 51.15 49.67 48.20 46.73 45.86 45.74 44.21 43.42 43.38 42.86 41.80 41.08 40.88 41.17 39.89 36.66 35.32 34.95 34.63 34.62 34.67 33.31 33.27 33.87 34.31 34.33 34.42 33.57 32.34 23.18
50.01 52.20 55.92 57.08 57.67 57.96 58.39 57.85 58.10 57.78 55.95 53.39 50.62 48.42 47.20 47.09 46.62 46.62 44.91 43.42 43.47 41.72 41.97 41.40 41.37 40.09 39.72 38.42 36.17 34.81 34.94 34.63 34.11 34.31 33.78 32.94 33.64 32.38 31.04 29.87 29.69 30.30 27.70
51.77 53.61 54.81 56.53 57.58 57.71 57.53 57.32 57.13 55.13 50.69 49.68 47.55 46.76 46.76 46.58 46.79 44.52 43.72 42.50 42.61 42.83 43.07 41.28 39.79 39.33 37.96 37.01 35.26 34.85 34.98 34.91 34.48 33.61 32.76 32.14 31.95 29.84 29.00 28.51 27.01 25.58 24.80
52.14 53.95 54.69 55.10 55.56 55.82 55.62 55.88 54.81 53.15 50.66 49.68 48.31 46.84 47.07 45.55 44.22 43.41 42.93 43.95 44.56 43.63 41.52 40.83 39.34 39.20 37.53 36.83 36.22 35.73 34.84 33.87 33.39 33.30 31.32 31.13 32.89 29.13 28.25 26.89 25.70 25.08 23.97
50.34 52.20 52.70 53.62 54.22 54.80 54.37 52.90 50.92 49.64 48.89 47.91 46.76 45.58 45.61 45.03 43.61 43.67 44.76 44.47 41.59 41.31 40.16 39.50 38.37 37.18 37.39 36.90 35.87 34.44 34.69 33.82 33.81 33.02 30.59 30.35 29.77 28.78 27.48 26.08 24.61 23.42 25.21
49.90 49.47 51.03 52.30 53.25 53.21 51.76 50.66 50.07 49.50 47.73 46.83 46.10 45.75 46.34 45.59 45.26 45.12 43.05 40.40 39.01 38.88 38.35 38.02 38.23 38.32 38.14 36.87 36.42 35.93 35.15 34.37 33.23 31.48 30.73 30.45 29.79 27.97 26.02 25.12 23.79 23.54 22.18
48.96 48.95 48.32 49.66 50.57 50.48 50.76 48.98 48.01 47.55 47.33 47.07 47.22 46.65 46.74 45.21 43.35 41.68 38.61 38.82 39.54 39.21 39.06 38.72 38.56 37.66 37.50 37.30 35.50 35.20 33.01 31.50 30.43 30.33 30.35 29.82 30.39 32.00 29.22 26.00 23.54 22.35 21.45
46.27 48.55 48.71 49.04 49.45 50.07 48.30 47.19 46.20 47.00 48.14 47.15 46.98 44.35 42.36 41.62 41.34 41.11 40.34 39.49 39.04 38.87 38.62 38.22 37.66 36.18 36.72 36.40 36.82 34.51 30.91 30.60 29.09 28.30 27.74 28.19 30.97 31.44 33.55 32.88 30.22 25.61 21.80
46.53 47.67 47.31 48.09 49.03 47.49 46.39 45.29 45.99 46.93 44.83 43.12 42.67 42.49 41.93 40.44 39.55 38.97 38.14 38.18 38.17 38.55 37.31 36.43 36.56 35.57 34.93 36.26 36.85 35.62 29.80 28.69 27.89 26.93 26.70 27.56 29.30 29.94 27.56 29.99 28.97 27.60 27.33
42.20 42.25 44.67 43.98 43.88 43.50 43.36 42.38 42.01 40.87 40.85 40.74 39.92 39.20 38.74 38.47 38.85 38.87 38.88 39.44 39.00 36.29 35.30 34.81 34.28 33.58 34.16 35.91 36.12 34.90 29.72 27.29 27.02 26.68 28.18 28.76 27.61 26.88 25.91 24.05 23.05 23.25 23.53
37.19 36.91 37.91 39.46 39.58 39.48 39.42 39.05 38.56 38.41 38.14 37.62 37.86 38.47 38.81 38.46 38.61 38.92 38.64 37.83 35.37 34.00 33.17 33.31 32.34 31.31 31.43 34.69 35.37 33.63 28.72 26.67 26.34 27.38 27.88 29.27 26.41 28.26 30.13 24.59 23.19 22.86 23.16
36.37 36.20 36.25 36.30 36.23 36.47 37.49 36.87 35.50 35.69 36.11 37.56 37.99 38.85 39.06 39.55 39.50 37.73 35.78 34.21 33.49 32.64 31.69 31.15 30.94 32.26 30.86 33.82 35.37 34.14 27.44 26.00 27.05 26.99 27.64 30.73 28.48 28.40 29.10 22.96 21.51 19.64 21.63
35.19 36.18 36.08 35.19 35.36 36.59 37.12 36.15 36.72 36.68 38.81 39.91 40.34 41.23 40.34 37.36 36.54 33.85 32.56 31.78 30.78 30.08 29.20 29.50 29.50 29.49 30.15 30.52 34.40 35.12 28.35 27.74 27.22 27.07 26.87 27.09 29.40 29.66 29.06 28.46 22.77 20.77 23.13
34.60 35.54 35.13 34.93 35.60 36.50 37.90 37.13 37.08 39.08 39.82 38.94 38.13 36.60 36.13 34.52 33.96 31.90 30.92 30.73 29.38 28.37 28.38 24.49 27.49 28.32 29.11 31.63 32.57 34.36 34.02 30.59 26.76 27.00 27.31 27.47 29.69 30.01 29.75 28.17 28.15 28.55 25.24
32.80 34.79 35.06 35.29 36.02 36.74 36.84 35.03 35.39 35.83 35.26 35.00 33.45 32.97 32.68 32.50 32.07 30.27 29.64 28.72 28.22 26.68 27.22 27.56 26.47 27.54 28.05 27.48 32.18 33.40 33.46 33.04 29.29 28.63 28.63 29.31 29.88 30.48 28.79 29.63 29.72 25.82 22.19
33.91 35.40 34.98 34.48 34.38 35.85 35.76 35.37 34.50 34.11 32.38 30.88 30.55 30.36 30.09 29.99 29.98 29.73 29.79 28.32 26.51 25.84 27.91 26.97 27.15 27.20 27.13 26.23 26.59 27.39 27.84 31.72 31.80 29.40 29.64 27.54 28.16 25.97 25.11 23.89 25.89 22.90 21.77
34.66 34.92 34.71 34.52 33.92 33.73 32.44 31.33 30.98 31.25 29.99 29.72 29.73 29.51 29.43 29.10 29.21 29.16 29.32 29.46 29.58 29.45 29.91 29.54 28.77 27.57 26.26 27.26 29.32 28.22 26.33 26.25 28.16 27.73 28.63 25.56 25.11 24.39 24.27 23.37 22.83 21.76 20.48
34.53 33.26 32.51 31.36 30.27 29.79 30.52 31.27 31.66 30.47 29.58 29.72 29.17 27.80 27.41 27.42 28.21 28.32 28.82 31.96 31.41 32.23 32.55 32.60 30.93 31.50 30.93 32.07 32.90 32.83 32.64 32.78 31.66 27.09 25.13 23.77 23.64 23.76 22.72 21.79 22.10 20.13 18.71

GFSMW_sfc_wetblb_054.txt.gz
Wetbulb
56.59 57.20 56.99 57.15 57.97 55.52 57.82 57.79 56.21 55.29 55.77 55.61 54.06 52.29 52.01 51.78 51.42 52.66 52.55 50.97 48.88 47.86 47.23 45.42 44.37 43.32 42.62 42.35 41.96 40.88 40.15 39.85 39.77 38.65 38.21 37.84 38.11 38.20 37.78 38.28 37.99 38.93 39.08
56.28 57.44 57.16 56.79 55.92 55.68 57.98 57.27 57.01 55.81 56.17 56.37 52.36 52.78 51.55 51.63 51.28 52.18 50.65 50.30 48.72 47.37 46.17 44.80 43.15 42.66 42.70 41.92 41.58 40.94 40.06 39.71 39.23 36.90 35.33 33.12 35.55 37.09 38.14 38.15 38.16 37.71 37.67
55.51 56.89 56.84 56.06 55.97 55.35 57.19 57.40 57.09 55.98 56.45 55.28 52.66 50.26 50.90 50.30 49.85 48.18 48.44 49.29 48.75 47.57 46.22 44.53 43.14 42.79 42.49 41.10 40.83 40.46 39.56 37.05 37.65 38.08 35.09 29.83 29.23 32.85 36.20 36.59 37.16 36.67 36.96
56.32 56.43 56.79 55.37 55.83 55.86 57.19 57.61 57.11 55.98 55.96 54.33 53.02 51.10 50.45 48.85 48.99 47.96 48.19 48.92 48.05 47.44 45.87 43.99 43.19 42.56 42.24 41.31 39.78 39.79 38.61 36.92 34.93 36.03 38.94 36.65 35.58 32.32 31.54 35.17 35.86 36.10 37.25
54.69 55.84 56.64 56.21 56.04 55.70 56.49 57.52 56.91 56.19 56.21 54.73 53.83 52.08 51.05 51.12 50.43 49.37 47.81 48.27 45.97 45.70 45.04 43.86 42.85 42.02 40.46 38.71 38.64 38.24 37.40 36.74 36.06 34.88 34.97 34.89 34.45 33.81 32.72 31.93 32.79 37.24 38.09
52.14 54.77 56.06 54.75 54.59 54.81 55.31 55.79 56.35 55.98 55.98 55.36 53.95 52.23 51.83 51.17 50.15 47.57 47.24 45.95 44.52 43.73 43.34 43.11 41.35 40.87 40.16 39.03 39.58 38.58 38.23 37.13 35.96 35.46 35.38 35.31 34.80 34.17 32.99 31.00 31.85 34.46 34.85
49.93 51.52 51.84 52.72 53.47 54.74 55.39 55.74 55.99 55.82 56.19 56.09 55.06 53.77 52.63 52.62 49.98 47.76 47.59 44.52 42.11 40.88 40.97 41.08 41.36 41.10 41.05 40.90 38.82 39.56 38.99 38.03 37.05 36.34 36.63 36.16 36.50 36.70 36.06 34.74 35.02 31.25 33.18
49.94 50.86 52.29 53.42 54.36 55.44 55.76 56.09 55.84 56.52 56.09 56.79 56.07 54.06 53.80 51.10 49.44 47.99 47.27 45.33 42.96 41.10 41.93 40.70 40.95 41.50 41.36 40.95 40.65 39.55 38.09 37.38 35.76 34.49 34.32 35.69 35.55 35.36 35.87 35.16 33.57 30.86 31.49
47.12 49.57 51.74 53.72 55.18 55.87 55.84 55.99 56.49 56.93 56.88 56.73 56.39 54.33 53.10 49.97 48.59 47.42 45.89 43.51 41.90 42.75 40.77 41.90 41.64 41.95 42.22 41.11 39.80 38.40 37.05 35.97 34.47 34.74 35.65 34.11 33.76 34.22 34.93 34.99 34.00 31.42 27.36
46.40 48.76 51.56 54.19 55.71 56.64 56.59 56.79 57.34 57.33 57.20 56.49 56.17 54.84 52.09 49.96 47.62 45.85 43.72 43.57 42.97 41.70 41.44 41.22 42.54 42.35 41.18 40.03 38.80 37.36 36.53 34.46 34.68 34.45 33.48 32.85 32.98 33.23 32.35 31.67 31.88 32.26 29.86
47.61 49.12 52.56 55.06 55.82 56.09 56.61 56.85 57.55 57.11 56.47 55.57 54.40 51.68 48.50 47.53 46.37 45.65 44.35 43.40 43.06 42.92 42.75 42.92 42.18 40.20 39.84 39.03 37.60 36.50 35.24 34.26 34.13 34.52 33.21 32.59 32.13 30.46 29.57 29.37 28.77 27.66 26.54
48.93 50.62 52.08 53.94 54.81 55.79 56.23 56.89 57.27 57.13 55.11 52.73 49.98 47.71 46.81 47.23 47.05 44.23 44.74 43.85 44.04 44.61 44.66 42.20 40.16 39.81 39.07 38.06 36.94 35.62 35.17 34.40 33.93 33.93 32.93 31.89 32.72 29.47 28.60 27.85 27.47 25.89 25.56
49.44 51.10 51.90 53.07 54.90 55.48 55.76 55.51 55.13 54.45 50.54 49.68 48.42 47.79 47.14 46.38 45.31 44.44 44.11 45.50 45.03 43.18 40.66 40.74 39.65 38.96 38.30 37.51 37.19 36.64 35.39 34.13 33.45 33.30 32.25 30.63 29.17 27.79 28.32 28.21 26.09 24.97 26.08
49.40 49.56 50.32 51.63 52.27 52.80 52.58 51.90 50.03 49.84 49.69 48.63 48.46 47.48 46.83 46.03 43.69 44.74 45.36 44.26 41.69 40.23 39.34 39.11 39.36 39.01 38.49 38.05 37.20 35.84 34.26 33.54 33.40 32.96 31.41 29.81 28.79 28.00 28.41 26.75 25.61 24.89 23.27
47.47 48.62 48.87 49.51 50.37 50.68 49.66 49.18 48.37 47.16 47.71 46.77 46.68 46.70 46.33 45.50 45.07 44.20 41.36 40.62 40.34 37.95 39.52 39.00 38.84 38.99 38.01 37.24 35.65 34.79 33.26 32.47 31.74 31.02 29.98 29.76 30.42 32.80 30.60 26.71 25.28 24.07 22.38
45.32 46.48 47.96 47.94 49.34 49.06 48.19 47.04 45.63 45.46 47.15 46.18 45.67 45.54 44.60 43.59 41.01 40.15 40.05 39.60 39.00 38.66 38.89 38.80 38.22 37.44 37.24 36.66 36.90 35.20 32.20 31.24 30.09 29.22 28.91 28.73 31.44 31.75 33.67 34.39 33.97 26.63 22.95
42.77 45.31 45.62 46.48 47.16 45.96 45.01 44.33 45.36 45.76 44.60 43.17 43.15 42.53 41.82 40.45 39.56 39.30 38.60 38.05 38.84 39.69 38.70 38.57 36.84 35.16 34.61 35.82 36.75 36.48 32.26 30.35 29.21 28.60 28.02 27.76 29.69 31.14 29.74 30.00 32.48 30.78 29.33
37.37 38.12 40.51 40.77 40.93 41.38 41.03 40.49 40.75 40.49 39.93 39.55 39.47 39.41 39.06 38.62 39.03 39.60 40.18 40.26 39.94 39.09 37.43 34.68 33.66 32.70 33.31 35.27 35.90 35.51 32.18 29.42 28.97 28.26 27.45 26.67 27.37 27.93 28.15 26.68 24.74 24.75 24.85
35.15 34.71 35.41 36.37 36.82 37.32 37.99 37.45 37.06 37.34 37.65 37.95 38.31 38.83 39.31 39.25 39.30 39.52 39.25 39.81 37.94 35.16 32.90 32.71 31.82 30.66 30.73 33.98 34.77 34.14 30.74 29.33 28.33 28.48 27.49 27.62 27.53 30.36 31.62 26.86 24.20 23.83 24.01
34.60 34.05 34.58 35.06 34.89 35.32 36.32 36.15 36.26 37.54 37.34 37.99 38.31 40.00 41.01 40.93 40.41 39.58 37.41 35.53 33.16 32.22 31.39 30.62 30.55 31.58 30.23 33.07 34.45 34.25 29.24 28.38 29.16 27.98 27.48 30.49 29.32 30.33 30.30 26.27 23.73 21.19 22.81
33.99 34.62 34.64 34.29 34.93 36.32 36.95 35.90 37.48 37.50 38.94 40.65 41.87 41.39 39.89 37.84 36.31 33.82 32.29 31.13 30.25 29.41 29.07 29.30 29.30 29.49 29.80 30.31 33.65 34.52 30.66 30.07 29.04 28.18 27.74 28.20 30.35 31.85 31.21 30.16 24.17 22.65 24.45
33.30 34.20 33.95 33.70 34.44 35.54 36.79 36.32 37.71 39.28 38.73 37.92 36.27 35.53 34.41 33.43 32.75 30.62 30.25 30.10 29.20 28.18 28.26 25.51 28.23 28.89 29.38 31.28 32.20 33.76 33.86 31.88 29.11 28.25 28.22 28.44 30.69 31.39 31.43 30.31 28.84 27.94 25.35
32.57 33.55 33.39 33.39 34.06 34.62 35.35 34.32 34.41 34.67 33.87 32.19 31.16 30.91 30.66 30.42 30.14 29.68 29.22 28.79 28.33 26.66 27.46 27.52 27.85 28.85 30.27 28.07 31.67 32.54 32.99 32.83 30.32 29.56 29.31 30.03 30.71 31.36 30.35 30.85 29.98 27.84 26.01
31.52 32.86 33.38 32.57 32.34 33.07 32.84 32.55 32.81 32.76 30.51 29.46 29.10 29.35 29.02 29.57 29.03 29.04 29.03 27.54 25.78 26.14 27.86 27.92 27.94 28.46 29.02 28.98 27.68 27.90 27.81 30.80 31.37 29.42 31.04 28.99 28.65 28.09 29.47 28.36 29.63 28.64 26.36
32.76 33.29 31.65 31.20 31.08 32.32 31.91 31.81 30.99 30.27 29.56 29.29 28.93 28.54 28.21 27.36 27.81 27.93 27.72 28.04 28.02 27.75 28.12 28.57 28.92 29.12 28.75 29.71 31.60 29.99 29.34 29.18 28.87 28.43 27.89 28.20 27.44 26.64 25.81 25.72 25.94 26.07 24.76
32.24 31.02 30.89 30.82 30.10 29.10 28.03 28.79 28.78 28.07 26.96 27.01 27.20 26.14 25.71 25.09 25.96 26.00 25.55 29.36 29.56 30.78 30.81 31.11 29.01 29.33 30.99 32.18 33.00 33.47 33.31 33.26 32.24 27.78 27.41 26.83 26.08 24.53 24.52 24.40 24.25 24.48 23.20

GFSMW_sfc_wetblb_057.txt.gz
Wetbulb
58.80 59.32 59.68 60.25 60.95 61.90 61.69 62.30 61.88 61.42 60.32 59.10 58.34 58.00 58.57 59.77 60.04 58.91 58.52 57.42 56.61 55.08 54.43 51.44 50.48 51.85 51.44 51.21 51.19 49.87 49.74 48.98 49.81 48.72 47.91 47.91 47.73 46.72 46.89 47.76 48.28 46.85 47.80
57.80 58.41 59.04 59.32 59.70 60.34 61.16 61.11 61.50 60.82 60.69 60.44 59.96 59.87 59.40 59.59 59.70 58.66 57.82 57.21 55.62 54.73 53.80 51.03 51.50 51.45 50.74 50.52 50.38 50.18 48.59 49.06 48.59 45.87 44.68 42.28 43.73 45.53 46.68 46.72 46.87 47.19 47.50
57.41 58.29 58.27 58.74 59.87 59.68 60.47 60.67 61.07 60.82 60.59 60.56 59.16 57.48 57.82 57.01 56.42 56.62 56.85 55.98 54.73 53.54 52.32 51.66 51.42 50.97 51.17 50.01 50.15 49.85 48.82 46.39 46.72 45.88 43.27 39.92 38.78 41.63 44.82 45.38 46.14 46.02 46.89
57.39 59.12 59.18 59.13 59.35 59.67 60.86 61.25 61.32 60.75 60.27 59.57 58.54 57.62 58.05 57.43 57.20 56.61 56.48 55.81 52.69 51.15 51.07 51.50 51.11 51.08 50.67 49.66 49.18 47.87 47.55 45.99 43.28 44.36 44.90 45.33 42.87 39.05 37.90 43.74 44.80 45.13 44.63
57.58 58.57 59.74 60.47 60.52 60.40 59.89 60.84 61.19 60.67 60.47 59.40 59.35 58.52 58.25 59.13 56.02 55.41 54.95 54.47 53.78 52.72 51.38 50.97 50.35 50.18 49.98 49.01 47.75 46.40 45.74 44.97 43.23 42.61 42.90 42.61 43.31 43.06 39.66 36.88 40.13 43.10 43.54
57.20 58.63 60.42 61.08 60.36 60.29 60.02 60.43 60.17 59.87 60.12 59.46 59.00 58.23 58.10 56.29 54.20 54.14 53.21 53.17 52.90 51.70 51.68 50.14 50.25 49.97 48.53 47.17 45.26 43.78 42.70 41.95 44.35 42.44 42.21 42.20 40.96 40.47 39.81 38.02 38.56 38.56 40.56
56.84 57.04 58.60 59.05 59.47 58.29 59.16 59.98 60.31 59.63 59.74 59.10 58.26 57.30 56.60 56.45 55.38 54.64 51.97 53.06 51.53 49.99 50.00 49.75 48.48 47.42 46.43 45.61 43.17 41.84 42.06 41.86 41.98 43.62 43.36 43.64 42.56 42.72 41.47 39.78 38.19 36.95 38.89
56.74 56.59 57.69 58.93 59.03 58.58 59.07 59.56 59.40 59.68 59.50 59.00 58.54 56.60 56.14 56.66 56.26 54.14 51.75 51.99 51.98 51.13 49.61 48.29 46.94 45.64 45.32 43.21 42.25 42.18 41.15 41.42 44.02 43.26 42.85 42.57 42.47 42.60 41.38 39.40 37.96 35.47 35.98
54.85 55.54 56.79 57.89 58.36 58.06 58.86 59.14 59.52 59.54 59.61 59.01 59.24 57.30 56.49 56.65 55.11 52.13 52.46 53.62 52.71 48.41 46.28 45.62 45.77 45.28 44.94 43.51 41.97 41.46 40.20 40.61 42.18 42.85 42.49 42.00 42.49 41.73 41.32 41.33 40.30 36.95 32.27
50.09 52.43 54.56 56.33 57.67 58.30 59.20 59.42 59.74 59.29 59.70 59.37 58.96 58.18 57.27 57.11 55.34 53.42 53.00 50.63 48.74 46.59 44.53 45.35 45.80 45.03 44.33 44.26 43.20 41.01 40.13 39.73 42.03 42.01 41.51 41.46 41.34 40.97 41.03 40.67 40.13 39.04 35.90
51.77 51.94 53.49 55.71 57.45 58.70 59.02 58.99 59.09 59.30 59.35 59.31 58.73 58.43 57.41 57.13 54.51 52.30 49.84 47.86 44.93 44.93 44.35 44.81 44.86 45.27 42.68 41.39 40.53 39.79 39.76 40.92 41.38 40.99 40.84 40.58 40.99 40.07 39.85 39.30 38.39 37.03 36.09
52.64 53.71 54.05 56.11 57.55 58.23 58.87 58.94 59.22 59.26 59.46 59.05 57.74 57.81 56.62 54.08 52.19 49.66 46.92 45.34 43.96 45.17 45.65 45.80 43.59 41.50 40.53 40.33 39.19 39.83 41.12 40.73 40.35 40.55 40.33 39.73 39.52 39.33 39.52 38.07 37.03 36.04 36.74
54.12 54.40 54.89 55.72 57.25 58.14 58.54 58.66 58.17 58.19 58.33 56.36 55.85 53.61 52.09 51.04 49.09 47.28 45.76 45.79 45.69 45.59 45.62 42.72 41.35 42.06 41.26 41.49 42.59 42.36 41.57 41.17 40.88 40.96 40.22 39.82 39.91 38.59 38.39 37.26 36.17 36.79 35.66
51.02 54.56 55.00 55.46 56.26 57.27 57.80 57.13 56.89 56.21 53.79 52.20 51.34 49.92 49.24 48.51 47.60 46.98 46.06 45.69 46.25 44.09 42.01 41.71 41.11 41.55 41.19 41.00 42.43 41.62 41.62 41.49 40.81 40.65 40.35 40.22 39.42 38.59 38.03 36.45 36.06 35.79 34.09
49.54 51.24 52.82 54.76 55.82 56.06 55.47 54.27 52.91 51.74 51.07 49.91 48.96 48.33 47.87 46.58 46.20 46.43 45.54 42.91 42.44 41.89 41.75 41.32 40.98 41.18 40.99 41.26 41.19 41.77 41.70 41.00 40.55 40.46 39.88 39.79 39.23 36.97 36.35 35.45 35.71 34.26 32.98
47.94 49.10 50.41 52.30 53.07 52.57 51.93 50.32 50.09 49.93 51.15 49.91 47.69 46.33 45.83 45.02 43.03 42.41 41.89 41.83 41.60 40.44 40.31 40.32 39.86 40.19 39.70 38.36 37.60 38.37 41.36 40.57 39.44 39.29 39.75 38.90 35.53 35.75 34.89 35.09 34.22 33.98 33.41
44.81 46.19 46.46 47.87 49.22 49.03 48.69 48.24 48.30 48.57 47.62 46.75 45.74 43.48 42.23 41.46 41.35 40.29 39.94 39.05 39.53 42.17 41.81 40.17 40.03 39.53 41.89 37.18 36.99 36.55 40.33 40.11 39.86 39.39 38.68 37.87 35.92 34.31 35.67 33.62 33.10 32.88 32.84
41.66 42.74 44.03 44.16 44.91 45.71 45.20 45.24 44.88 44.29 43.10 41.25 40.48 40.46 39.95 39.38 41.33 41.45 41.86 41.86 41.53 41.03 41.68 40.45 41.27 40.17 39.39 35.73 35.85 35.38 39.56 39.63 39.12 38.84 38.35 37.84 37.66 36.75 35.25 34.03 33.56 33.44 33.33
38.69 39.45 40.75 41.34 41.85 42.16 42.76 42.57 42.16 41.92 40.27 39.29 39.94 40.68 41.14 41.17 41.59 40.67 40.55 41.19 41.02 40.33 40.15 39.19 38.71 38.35 38.55 35.33 34.48 34.90 38.20 37.64 37.61 37.96 37.78 37.31 36.78 34.82 32.60 32.41 32.01 32.03 31.80
38.51 38.58 39.18 39.81 40.03 40.73 42.09 41.25 40.23 39.83 39.95 41.47 42.57 43.24 42.84 41.52 40.78 39.71 39.25 40.22 39.63 37.80 37.52 37.06 37.55 36.32 36.61 35.52 34.48 34.90 37.18 36.32 36.44 37.50 37.18 33.31 34.94 32.73 31.52 32.80 32.58 30.14 30.63
37.65 38.83 39.26 38.71 39.36 41.09 41.61 40.40 40.80 40.12 41.56 42.60 40.92 39.28 38.68 38.50 38.74 38.21 38.14 37.62 37.08 36.41 36.19 35.25 36.32 36.28 36.13 36.48 34.67 34.45 35.54 36.49 35.95 35.80 35.91 36.17 32.29 31.99 32.00 32.20 32.99 31.46 32.27
37.18 38.31 37.96 38.18 39.85 41.46 41.39 40.07 38.68 39.38 39.23 37.33 36.47 36.81 36.57 35.74 35.75 35.98 36.02 35.92 35.68 34.89 34.79 34.62 34.70 35.93 35.92 34.12 34.36 34.12 33.69 34.09 34.76 34.47 36.08 36.33 33.29 32.34 32.09 32.49 32.18 30.59 29.55
36.88 38.09 37.47 36.60 37.21 38.23 38.30 35.72 35.58 36.44 36.17 35.32 34.73 34.73 34.86 34.27 34.38 34.36 34.04 34.09 33.99 32.73 31.98 31.61 31.71 32.12 34.11 34.39 33.52 32.51 32.09 32.17 33.47 35.45 35.20 33.58 32.88 32.35 31.53 31.51 31.64 30.34 30.49
36.06 36.50 35.26 34.10 33.44 34.67 34.35 33.66 33.86 34.53 34.58 33.32 32.54 32.31 31.70 31.25 31.47 31.48 31.33 30.61 30.00 29.48 28.95 28.99 28.82 29.65 29.97 31.24 32.48 33.29 34.18 32.81 33.21 32.44 33.80 33.34 32.12 32.02 32.93 32.03 31.91 32.46 32.73
34.92 34.78 33.81 33.07 32.14 31.83 30.44 30.83 31.03 32.94 31.56 30.64 29.40 28.67 28.61 28.21 28.39 28.74 28.70 28.06 29.13 28.65 27.74 28.20 27.97 28.20 28.04 29.01 28.82 29.28 30.01 30.56 30.74 31.98 32.65 32.32 31.73 30.28 30.06 30.71 30.89 31.72 31.58
33.62 33.19 31.79 30.12 28.44 27.67 27.25 28.48 29.41 29.35 28.63 26.98 26.81 25.81 26.23 26.48 26.61 26.05 25.76 26.42 26.20 26.46 26.97 27.41 26.42 27.08 26.08 25.62 26.43 26.76 28.29 29.64 30.24 30.32 29.66 31.25 31.52 30.42 29.77 29.55 29.55 29.83 29.24

GFSMW_sfc_wetblb_060.txt.gz
Wetbulb
60.96 62.42 62.30 63.45 62.98 62.39 62.83 63.58 63.79 64.59 65.37 64.28 62.18 61.16 61.11 62.53 63.58 64.94 65.44 64.40 63.66 62.73 61.72 59.97 57.29 56.73 56.32 55.60 55.86 54.90 53.70 53.17 54.87 52.91 52.31 52.10 51.18 50.78 50.68 50.76 50.55 50.00 49.59
60.38 61.23 61.99 62.34 63.02 62.41 62.78 63.37 64.26 65.47 65.21 64.52 62.97 61.82 61.74 62.89 63.47 64.54 64.49 64.17 62.88 62.10 61.01 59.65 56.83 55.11 56.39 55.68 55.38 54.44 53.24 54.05 53.88 51.04 49.36 48.76 49.48 49.41 49.82 50.35 49.35 50.01 49.64
59.16 60.67 61.18 62.10 62.81 62.94 63.25 63.42 64.27 65.13 65.07 65.25 63.64 62.44 62.45 62.75 62.39 62.71 62.30 62.51 61.87 61.04 59.99 57.50 55.83 55.34 56.53 55.17 55.09 54.83 53.57 51.98 51.72 49.82 47.26 47.21 46.08 46.89 49.14 48.32 48.48 48.65 48.53
60.00 61.37 61.91 62.13 62.82 63.10 63.96 64.12 64.42 64.87 65.00 65.44 63.55 61.61 60.20 59.26 61.44 62.76 62.56 62.68 61.21 60.08 59.04 55.57 54.96 55.69 55.60 55.54 55.03 54.58 54.03 52.28 49.12 47.33 45.83 47.76 47.07 43.86 42.77 47.02 47.03 48.40 47.34
60.17 60.44 62.04 62.77 63.61 64.15 64.23 64.40 64.08 64.39 64.96 64.88 64.39 62.68 61.11 60.76 62.49 62.88 61.81 60.80 59.22 57.49 55.50 55.59 53.89 54.32 55.42 55.64 54.72 53.32 52.06 47.89 44.33 44.76 45.29 45.81 46.68 46.07 42.65 40.42 43.22 46.31 46.84
60.54 61.03 61.91 63.94 64.14 64.84 64.95 64.65 64.17 64.08 64.90 64.83 64.33 63.81 62.84 62.04 61.30 60.54 60.27 59.79 59.35 57.74 56.38 53.46 53.62 54.60 55.30 54.80 53.61 52.22 48.18 46.15 43.60 43.55 43.62 43.01 43.04 43.17 42.73 41.49 42.22 42.44 44.25
60.93 61.42 61.17 62.14 63.65 64.24 64.62 64.46 64.46 63.74 64.43 64.90 64.36 64.13 63.85 62.78 60.25 59.54 60.33 58.98 57.21 55.29 53.16 52.99 52.87 54.74 54.92 53.84 51.25 47.07 46.23 44.10 43.47 43.13 44.17 44.30 44.97 44.83 43.88 42.59 41.47 40.76 42.70
59.96 61.52 61.82 62.48 63.18 64.06 64.53 64.44 63.39 64.01 64.18 64.24 63.79 63.80 63.26 62.22 59.94 59.02 59.93 59.73 55.35 52.25 53.13 52.52 54.44 54.81 52.95 47.83 47.59 43.92 47.64 46.82 43.35 44.28 43.96 43.43 44.70 45.26 44.23 42.56 40.94 38.88 40.13
58.12 60.21 61.98 62.85 63.76 64.08 64.33 64.17 63.24 63.33 64.00 63.85 63.92 62.81 61.84 60.56 58.55 59.32 59.19 58.04 54.46 53.24 53.29 54.83 53.87 48.07 46.69 49.16 45.08 45.37 44.80 43.19 43.54 43.72 44.01 43.83 45.38 45.51 44.92 43.87 42.86 40.27 36.15
55.76 57.92 60.01 62.07 63.16 64.22 64.75 65.03 64.86 64.31 64.74 64.68 63.24 60.94 60.39 60.42 60.01 58.61 58.80 56.14 53.96 55.46 53.86 51.61 45.88 47.68 47.01 46.79 44.80 43.23 42.30 41.73 41.78 42.20 44.25 45.18 44.94 44.97 44.53 43.71 43.21 42.37 39.59
56.51 56.78 58.14 59.72 61.55 63.19 63.31 63.47 63.48 63.56 63.83 64.00 63.22 60.37 59.88 60.07 59.96 58.79 56.63 54.53 53.83 52.57 51.13 46.43 46.50 45.70 46.35 43.93 42.56 42.33 40.90 40.33 42.31 44.50 44.34 44.37 44.94 44.05 43.74 43.62 42.64 41.35 40.66
57.41 58.23 58.10 59.00 59.84 61.06 61.94 62.37 62.71 62.64 63.02 63.36 62.30 59.98 59.76 58.95 58.69 57.17 54.28 52.91 49.87 47.19 46.40 45.37 46.18 45.51 43.27 41.89 41.17 40.74 41.46 43.45 43.90 44.12 44.23 43.67 43.41 43.52 43.62 42.77 41.70 41.10 41.12
57.13 58.69 58.82 59.16 60.03 60.72 61.31 61.78 62.25 62.31 62.57 61.42 59.23 58.28 57.70 56.52 54.13 51.01 47.85 46.11 45.47 45.01 45.29 46.33 44.77 41.89 42.03 41.19 41.23 42.49 44.18 44.95 44.46 44.33 43.98 43.32 43.52 42.49 42.64 42.33 41.35 41.04 39.87
52.94 57.57 59.08 59.79 60.41 61.01 61.16 60.51 60.12 59.41 57.53 56.44 54.64 52.26 51.55 50.06 48.23 46.90 46.33 45.79 46.74 45.89 46.18 43.59 42.67 41.77 41.70 42.21 43.03 43.54 44.65 44.82 44.48 44.32 43.83 43.58 43.30 42.54 42.42 41.72 41.19 40.14 39.14
53.20 54.73 58.01 59.67 60.60 60.73 60.79 58.10 54.95 53.47 52.81 51.69 50.79 49.88 49.12 48.30 47.11 46.71 46.12 46.55 46.21 44.24 43.98 42.17 42.15 42.40 42.36 42.30 43.02 43.47 44.10 44.01 43.94 44.08 43.88 44.13 43.06 40.71 40.67 41.01 40.66 39.87 38.42
52.85 54.26 55.95 57.85 57.62 57.69 57.06 56.29 55.55 54.41 53.24 50.66 48.26 47.37 47.32 46.76 45.81 45.89 46.42 47.05 45.62 44.27 42.35 41.35 40.97 41.16 41.11 39.32 38.22 39.40 44.14 43.83 43.17 42.78 43.52 43.86 41.16 39.82 37.00 35.86 35.19 36.62 37.54
51.63 52.52 53.88 54.93 54.95 54.71 54.80 53.77 53.34 53.61 52.04 49.59 48.05 47.74 48.43 47.48 47.35 46.12 43.57 40.94 41.46 41.00 40.65 41.12 41.51 41.88 42.12 39.05 39.02 37.65 41.85 42.63 43.07 43.01 42.57 42.06 41.87 39.81 41.09 36.37 34.46 34.64 34.13
49.84 50.73 51.77 51.99 52.59 52.80 52.32 52.12 51.57 50.22 48.82 47.62 47.18 46.53 45.56 43.82 43.63 43.79 42.95 42.25 42.18 41.75 42.67 43.00 41.93 43.12 44.06 37.59 36.60 35.40 40.68 41.46 41.62 41.95 42.07 41.67 41.47 41.56 40.53 39.68 38.81 38.26 37.28
48.55 49.02 50.11 50.47 50.91 50.54 50.54 49.56 47.89 46.61 45.02 45.15 45.47 45.86 46.05 44.50 43.58 42.85 42.10 42.62 42.59 42.28 41.35 43.43 42.56 42.25 42.44 37.14 35.77 35.63 40.23 40.00 40.44 41.21 41.62 41.35 40.83 38.33 37.22 38.72 37.09 36.88 36.21
47.15 47.25 48.18 49.01 49.00 49.07 49.28 47.65 46.26 46.20 45.63 45.72 45.28 45.37 46.24 45.10 42.56 40.68 40.99 44.16 44.35 42.67 42.31 40.68 41.14 38.87 40.08 37.31 36.05 36.47 38.81 38.01 39.00 39.81 39.98 36.68 37.91 36.02 34.19 37.62 36.09 34.92 35.60
45.73 46.88 47.51 46.90 47.39 48.05 47.78 46.10 45.88 44.71 45.40 45.42 44.46 43.54 42.09 42.54 42.89 42.08 42.01 42.07 41.68 40.48 39.84 38.78 40.14 40.12 39.57 39.65 35.93 35.17 36.36 36.29 36.15 36.49 37.61 39.49 35.49 34.38 34.10 33.75 36.49 36.08 36.74
44.30 45.54 45.29 45.53 46.63 47.38 46.77 45.20 43.74 44.40 44.12 42.82 40.20 40.55 40.52 39.44 40.02 40.05 40.72 40.58 40.19 38.77 37.99 38.75 36.29 37.59 37.25 34.16 34.07 33.59 33.24 33.26 33.80 33.11 34.91 36.16 35.09 34.69 34.24 33.38 33.36 33.13 32.97
44.33 45.07 44.56 44.07 44.62 45.06 44.43 41.84 41.42 41.87 41.07 40.23 39.31 38.98 38.78 38.46 38.20 38.08 37.48 37.12 36.20 34.50 33.59 32.84 33.04 33.56 34.35 34.49 32.28 31.22 29.98 30.05 32.13 33.77 33.59 32.27 32.33 32.78 32.78 32.63 32.23 32.06 34.84
43.05 43.04 41.63 40.20 39.39 40.40 40.27 39.70 39.57 40.13 39.16 37.63 36.94 36.89 34.50 35.24 34.80 35.17 34.35 33.97 33.04 31.90 30.86 30.72 30.48 31.02 31.00 31.67 30.32 29.26 30.20 29.49 30.30 31.15 34.35 32.52 30.68 31.22 32.28 32.91 33.57 33.53 33.98
41.75 41.80 40.46 38.81 37.32 37.38 36.30 36.67 37.38 38.12 36.39 34.83 33.64 33.09 32.88 32.52 33.19 32.60 31.72 30.79 31.31 28.76 28.57 29.51 28.92 27.59 27.08 27.34 25.35 25.89 26.96 28.52 28.49 29.00 31.69 32.28 32.32 32.51 32.86 33.25 33.28 34.75 33.82
40.52 39.53 37.84 35.67 33.38 32.45 31.53 32.41 34.71 35.02 33.60 31.68 31.21 29.88 31.32 31.54 31.32 31.23 31.53 26.11 25.78 25.70 26.68 25.16 25.41 26.42 24.67 23.38 23.76 24.43 24.20 25.04 25.95 29.61 30.21 31.45 32.19 31.81 31.56 32.79 32.86 33.29 31.86

GFSMW_sfc_wetblb_063.txt.gz
Wetbulb
60.99 61.99 62.06 61.69 61.62 62.12 61.69 61.66 61.38 62.07 63.34 62.83 61.49 60.70 60.44 61.50 62.11 63.70 64.94 65.82 65.36 64.91 64.03 63.37 61.88 59.86 58.88 58.56 58.63 57.64 55.92 54.70 55.57 53.88 54.08 54.04 53.88 52.55 52.43 52.59 51.94 51.44 51.29
60.30 60.58 61.67 61.21 61.51 61.26 61.72 62.13 61.72 62.18 63.68 63.93 63.27 61.78 61.02 61.43 62.09 63.13 64.91 65.46 64.93 64.45 63.43 63.34 61.55 59.60 58.78 59.00 58.11 57.46 55.11 55.31 55.42 52.80 52.23 49.88 51.06 51.43 51.70 52.10 51.57 51.51 51.33
59.71 60.45 60.70 61.72 61.75 61.56 62.07 62.95 63.36 63.52 64.05 64.22 63.76 62.00 61.69 61.77 61.57 62.12 63.32 64.68 64.69 63.58 63.03 63.16 61.04 59.93 58.90 57.68 57.82 56.92 55.79 53.53 54.24 53.12 50.68 48.31 45.11 48.34 51.89 51.28 50.74 50.63 50.03
59.88 61.44 61.91 62.22 62.75 62.75 63.29 63.55 63.87 64.27 64.70 64.96 63.78 61.92 59.74 58.46 60.54 61.78 63.10 62.97 63.52 62.65 62.74 61.93 60.63 58.97 58.28 57.29 56.42 57.06 56.79 55.53 52.85 52.12 49.31 47.44 46.56 44.29 44.54 49.29 49.05 49.61 48.66
59.40 60.19 61.96 63.10 63.73 64.15 63.98 64.57 64.02 63.89 64.71 64.89 64.67 63.23 61.52 61.02 61.87 62.21 62.87 62.56 62.99 62.92 61.52 60.37 58.07 57.52 57.71 56.97 55.68 56.52 55.84 55.11 53.14 47.56 45.26 47.08 47.30 48.89 44.28 42.52 45.67 47.85 48.28
59.44 59.96 61.97 63.23 63.46 64.56 65.29 64.85 64.34 64.02 64.95 65.19 65.01 64.67 63.41 62.84 60.84 61.62 62.27 62.32 61.93 61.43 60.61 58.80 57.79 57.47 55.95 55.40 54.43 56.96 55.60 51.24 48.10 45.03 46.30 43.93 44.27 44.11 42.67 42.93 44.02 43.92 46.14
60.20 60.33 60.22 61.78 63.04 63.40 64.34 64.85 64.73 63.73 64.59 65.00 65.06 64.79 64.56 64.30 63.25 62.47 61.75 60.98 60.94 59.44 59.35 58.14 56.81 55.38 54.14 53.43 53.71 55.10 52.49 46.43 45.85 46.41 45.56 44.65 45.57 44.55 44.27 43.43 42.73 42.29 44.45
59.57 60.72 61.45 61.15 62.65 63.79 64.47 64.81 64.37 63.88 64.46 65.20 65.22 65.64 65.62 64.99 64.80 61.16 59.68 60.52 60.34 60.41 60.61 59.14 55.17 52.95 53.10 52.83 52.78 49.67 45.79 46.85 45.59 43.95 43.98 43.69 44.18 44.95 45.33 44.01 42.31 40.06 40.78
57.51 59.97 61.67 62.56 62.26 63.60 64.94 66.00 64.96 64.83 65.12 66.00 66.21 66.18 66.13 65.32 64.94 63.76 62.62 59.77 61.12 58.35 56.01 54.00 52.74 51.89 52.46 48.58 47.93 45.15 46.08 45.20 43.64 43.82 44.22 42.72 44.51 46.61 46.38 45.51 44.24 40.73 36.76
57.40 59.38 61.30 62.70 63.73 64.45 65.92 66.83 66.33 65.38 65.18 65.51 65.41 64.83 64.62 63.62 63.47 62.79 61.10 60.37 59.97 57.33 54.03 52.53 52.26 48.41 47.31 45.91 46.62 45.57 43.35 42.24 43.02 42.81 41.92 43.47 45.71 46.06 45.84 45.26 44.19 43.07 40.21
57.37 58.67 59.90 61.75 63.47 64.60 65.45 65.66 65.82 65.61 65.64 66.00 65.31 64.38 62.62 61.47 60.85 60.60 59.55 59.59 59.25 57.56 54.40 53.05 47.17 46.17 45.44 46.70 46.22 43.59 41.83 41.18 41.16 41.48 43.64 44.62 46.11 45.25 45.37 44.91 43.99 42.33 41.30
56.73 58.90 59.76 60.55 61.20 63.09 64.30 64.96 65.34 65.48 65.73 65.98 65.77 62.53 61.51 60.64 59.33 58.95 58.67 58.11 54.73 51.27 49.12 47.22 46.43 46.60 46.15 44.65 42.75 41.26 41.57 40.62 40.93 43.06 44.81 44.96 44.67 45.36 44.91 44.12 43.11 42.34 42.64
56.57 58.02 59.65 60.19 60.89 61.93 62.87 63.58 64.06 64.11 64.29 64.41 63.97 60.82 59.48 58.54 54.28 50.86 49.55 47.77 47.21 46.38 46.00 46.45 45.86 45.65 43.38 41.68 41.89 41.88 41.95 42.91 44.37 44.98 45.33 44.84 44.08 44.43 44.22 43.64 43.12 42.99 41.94
55.52 57.66 58.84 60.30 61.72 62.34 62.66 63.17 62.88 62.54 61.94 60.20 56.80 54.26 52.67 50.68 48.90 47.65 46.70 45.90 46.03 46.26 46.03 45.58 43.17 43.29 42.30 42.07 42.07 42.60 43.68 44.32 44.05 45.57 45.35 44.68 44.59 43.58 43.92 43.53 43.47 42.97 42.18
54.34 55.29 58.76 60.00 61.37 62.13 60.95 58.83 56.35 55.58 55.22 53.14 51.39 50.18 49.55 48.79 47.87 47.68 46.61 46.65 46.28 45.53 43.94 43.10 42.82 42.90 42.60 42.92 42.98 43.14 42.86 43.20 43.38 44.75 44.76 45.35 44.73 42.11 41.87 42.44 42.39 42.19 41.14
54.82 56.07 58.06 60.65 60.93 61.10 58.68 55.25 53.14 51.95 51.94 49.88 48.59 48.67 48.33 47.45 46.88 46.56 45.34 44.87 44.40 43.82 43.46 43.11 42.44 41.80 42.25 39.68 39.21 40.12 41.01 42.46 43.11 43.83 44.36 45.46 42.67 42.29 39.06 38.39 37.97 39.21 39.61
54.92 56.25 58.13 59.14 59.07 58.48 57.39 55.00 53.54 52.43 50.52 49.40 49.09 48.94 48.73 47.84 48.03 47.51 46.08 45.12 44.80 43.51 41.93 41.14 41.25 41.36 42.99 39.43 39.23 38.34 43.22 42.84 42.53 42.55 42.99 42.97 43.24 41.54 43.52 39.40 36.84 36.32 35.58
54.25 55.39 56.45 56.61 56.99 57.21 56.45 55.87 54.97 53.55 52.24 51.46 50.86 50.14 48.89 47.65 47.27 46.78 46.32 44.58 42.75 42.03 42.43 42.73 43.66 44.37 44.94 40.52 39.05 36.48 40.89 41.09 41.49 41.86 42.13 42.61 42.71 43.12 41.87 41.76 41.29 40.75 40.46
54.10 54.67 55.19 54.94 54.84 54.42 54.10 52.83 52.03 51.26 49.98 48.94 48.30 48.16 48.18 46.91 46.32 44.72 43.73 44.77 43.26 43.45 44.28 44.67 44.55 43.74 43.63 38.33 36.34 36.09 39.61 39.13 39.50 40.45 40.77 40.83 41.34 38.93 37.92 38.78 38.73 38.85 39.36
52.45 52.60 53.36 53.56 53.04 52.64 52.30 50.76 49.84 49.72 48.69 48.48 48.18 48.14 47.58 46.55 45.55 44.88 44.59 44.80 45.73 44.10 44.19 42.66 42.01 37.99 40.57 35.81 35.69 36.05 37.87 36.72 37.28 37.73 38.30 36.07 36.78 34.57 34.44 36.63 37.42 35.70 37.38
51.16 51.90 52.03 51.50 51.53 51.91 51.56 49.95 49.46 48.10 48.16 48.14 47.58 46.77 45.35 44.37 45.45 44.62 44.03 42.97 42.22 41.70 41.32 40.02 41.08 40.72 39.47 38.68 34.42 33.57 33.87 33.19 31.97 32.62 33.96 35.74 33.60 33.83 34.07 33.81 34.27 35.08 37.04
49.32 50.55 49.83 49.78 50.44 51.00 50.15 48.48 46.92 47.67 47.18 46.40 44.30 43.76 43.30 42.17 42.46 42.05 41.54 41.20 41.37 39.95 38.76 37.15 36.52 37.81 37.65 34.02 32.61 30.59 29.71 29.44 30.11 29.69 31.94 32.66 31.94 31.70 31.26 31.69 32.49 32.80 33.06
49.05 49.37 49.03 48.62 49.29 49.89 49.30 46.57 45.87 45.61 44.52 43.58 42.30 41.37 40.97 40.51 40.43 39.68 38.79 38.73 37.81 36.49 35.02 34.04 33.99 34.21 34.91 34.91 31.25 29.79 28.48 28.63 29.32 30.32 30.31 29.74 30.02 30.93 31.84 32.12 31.95 31.55 32.71
47.95 48.42 47.67 46.92 46.06 46.61 45.78 44.89 44.44 44.05 42.68 40.83 39.87 39.09 38.59 37.13 37.03 36.99 36.41 35.91 34.90 33.65 32.30 31.88 31.69 31.78 31.25 31.77 29.55 27.44 28.01 27.95 28.03 27.89 29.61 28.20 28.38 29.54 30.14 30.85 33.08 34.27 32.88
47.73 46.90 45.26 43.93 43.15 43.28 42.51 42.70 42.42 42.10 39.83 38.27 37.04 35.99 35.42 35.42 35.04 34.60 33.23 32.36 30.77 28.79 29.39 30.77 29.20 27.92 27.08 26.95 24.22 24.23 25.06 25.75 25.46 26.22 28.70 30.52 31.07 30.55 31.82 32.80 33.42 33.91 34.22
45.62 44.39 43.33 42.04 40.50 39.69 38.93 39.57 40.24 39.40 37.04 34.95 34.09 33.79 33.88 33.56 33.83 33.62 31.25 26.48 26.92 26.33 26.52 24.64 25.01 26.11 24.55 23.10 22.82 23.44 24.11 23.82 25.25 25.27 26.87 26.53 27.08 26.84 27.40 28.84 29.81 33.77 33.10

GFSMW_sfc_wetblb_066.txt.gz
Wetbulb
59.26 60.20 60.02 58.66 57.75 58.73 58.53 58.82 58.56 60.92 61.06 59.73 59.38 59.10 59.23 59.45 59.75 60.48 61.50 63.56 63.63 63.60 62.33 60.38 60.32 58.09 56.74 55.54 55.04 55.07 53.53 51.28 51.33 49.59 49.54 49.89 50.24 48.67 48.01 48.45 47.95 48.10 48.12
58.33 58.82 59.29 58.53 58.09 58.86 59.81 60.09 60.50 61.17 61.28 60.81 60.40 59.58 59.79 60.09 59.88 60.70 61.63 63.49 63.43 63.56 63.23 62.01 60.51 58.05 56.87 56.37 55.91 54.33 52.36 52.47 52.01 48.37 48.26 44.28 46.26 47.16 48.56 48.55 48.51 46.83 47.40
57.78 58.61 58.71 58.96 59.35 59.00 59.61 59.92 60.28 60.41 61.26 61.51 61.21 60.55 60.04 59.50 59.26 59.71 60.48 62.95 63.71 63.19 62.71 61.86 60.94 58.32 57.50 56.32 56.21 55.05 53.98 51.19 52.22 49.81 46.83 43.65 42.29 43.12 48.55 48.28 46.99 46.54 45.63
58.72 58.79 59.42 58.58 59.12 59.27 60.38 60.81 60.66 60.37 61.19 62.41 61.35 59.81 57.53 56.22 58.28 58.76 60.50 62.75 63.49 62.64 62.80 61.57 60.81 58.57 57.07 55.51 55.27 55.42 53.62 52.68 50.12 49.02 47.71 44.01 43.84 41.62 41.52 45.97 46.61 45.91 45.73
58.46 58.48 58.67 59.94 60.11 60.81 60.38 61.24 61.90 61.45 61.79 62.12 62.03 60.95 58.87 58.55 58.65 59.78 59.62 61.77 61.77 61.42 61.49 60.90 59.87 56.45 55.88 55.07 55.78 53.73 53.23 52.51 51.11 48.39 43.45 43.87 44.52 45.59 41.63 39.87 41.57 44.17 44.11
58.26 59.85 60.88 61.21 61.34 61.97 62.03 61.37 61.75 61.95 62.58 62.83 62.28 62.00 59.99 59.31 58.11 58.70 58.98 60.84 60.88 60.92 60.88 59.87 57.17 56.82 55.07 54.55 55.01 54.24 52.79 51.17 46.52 44.98 43.67 43.47 43.37 42.72 41.96 37.77 39.00 39.59 41.39
57.87 58.37 60.06 60.89 61.40 61.54 62.02 62.38 62.00 61.50 62.28 63.11 62.88 62.04 62.85 60.60 60.21 59.27 59.86 60.24 60.00 58.87 58.39 57.94 56.05 55.32 55.00 54.28 53.75 52.81 50.50 46.70 44.15 43.92 44.08 43.71 43.60 43.24 42.22 40.56 39.34 36.95 39.68
58.85 58.41 58.59 60.96 61.41 61.91 62.50 62.80 62.52 61.92 62.61 62.75 63.26 63.40 62.95 63.04 61.91 61.64 61.01 59.84 59.59 59.23 58.82 57.57 56.32 55.43 53.86 53.35 52.06 49.20 46.12 45.87 46.50 44.58 43.18 43.35 42.85 43.13 42.29 40.92 39.47 35.15 36.05
57.26 59.02 60.02 60.07 61.54 61.90 62.55 63.03 63.02 62.94 62.96 62.69 62.92 62.67 63.65 62.87 62.78 62.86 61.49 59.89 59.75 59.66 58.99 57.56 54.67 52.41 52.38 51.74 48.10 45.87 44.96 45.22 43.85 42.98 43.00 42.66 42.78 42.58 42.57 43.33 42.22 37.98 31.69
57.93 58.02 59.95 60.85 61.21 62.74 63.06 63.58 63.68 63.51 63.66 63.74 63.58 63.55 63.65 63.95 63.67 62.77 61.25 60.47 59.68 56.69 55.09 53.00 52.37 51.52 48.65 46.29 45.79 45.96 44.05 43.19 42.66 42.82 42.56 42.05 42.22 42.79 42.44 42.96 42.11 40.35 37.16
56.89 58.11 59.32 61.42 61.95 62.42 63.04 63.74 64.06 63.74 63.70 63.85 63.81 63.38 64.08 62.66 61.49 60.07 59.45 59.26 58.20 57.13 55.09 53.15 50.15 47.50 45.27 46.04 44.72 43.79 41.85 40.99 41.38 41.68 41.38 41.01 42.62 42.84 43.18 42.67 41.35 39.88 38.63
56.55 58.19 59.48 60.14 60.92 62.42 62.86 63.90 64.43 64.28 64.51 64.54 63.37 63.19 62.44 60.74 59.77 57.94 57.44 57.00 54.83 54.14 51.89 49.10 46.61 46.02 45.79 45.62 42.89 41.76 41.70 40.77 40.53 40.98 41.39 42.46 44.56 42.87 42.65 41.42 40.41 38.12 37.40
55.70 57.50 58.69 59.13 59.88 61.05 62.51 62.96 63.40 63.48 63.93 62.05 62.10 61.59 59.60 57.96 52.80 51.22 50.15 49.18 48.78 47.83 46.95 46.49 45.88 45.51 44.37 42.70 42.26 41.83 41.89 41.75 41.85 42.72 43.23 43.03 43.42 41.64 40.28 41.10 38.51 37.76 40.41
55.01 55.84 57.42 58.89 60.18 61.31 61.94 62.18 61.07 60.34 58.72 57.99 55.13 52.42 51.20 49.70 47.87 47.72 47.81 46.59 46.88 46.55 46.02 45.67 44.12 42.88 42.60 42.19 42.23 42.40 42.47 42.83 43.78 43.80 43.38 43.72 41.88 40.39 40.52 39.69 38.47 39.02 36.83
54.55 55.47 57.03 58.87 60.36 60.27 58.58 57.47 56.49 56.04 54.51 52.41 50.29 49.15 49.12 47.92 47.43 46.45 46.91 46.39 46.14 45.71 43.98 43.49 42.99 42.40 42.26 42.42 42.36 43.01 43.04 42.43 42.25 42.66 43.54 42.83 42.41 42.06 40.84 41.21 38.03 36.38 35.14
55.08 55.95 57.34 59.41 60.23 57.63 54.87 53.67 52.21 51.31 51.21 48.86 47.83 48.04 47.59 47.32 46.30 46.79 44.97 44.28 43.78 43.14 42.77 42.15 42.00 41.94 42.60 40.03 39.98 40.71 41.41 41.21 40.97 40.43 41.52 41.96 41.15 40.74 39.14 39.17 38.46 39.19 37.47
55.23 55.88 57.68 59.94 57.64 55.57 54.18 51.99 50.23 50.09 49.22 48.65 48.09 47.79 47.84 46.50 46.03 45.78 44.37 43.41 42.94 43.24 42.52 41.48 41.64 41.18 41.77 39.14 39.40 38.36 40.44 40.17 39.33 37.97 38.23 39.13 41.05 38.70 39.56 38.41 36.83 36.08 36.58
55.17 56.74 58.04 57.76 56.59 55.46 54.01 52.80 51.82 50.54 49.72 49.29 49.03 48.54 48.03 46.68 45.98 45.79 45.34 44.23 42.77 41.13 41.16 41.25 41.63 42.11 43.62 39.66 39.32 37.80 38.23 37.03 37.17 37.17 37.15 36.59 36.49 37.06 35.67 34.18 33.77 35.00 35.98
55.59 56.27 56.83 56.42 55.86 55.15 54.78 53.46 52.07 51.36 50.51 49.35 48.57 47.83 47.18 46.07 45.85 43.80 42.49 42.49 42.42 42.41 42.39 43.29 42.90 42.28 38.61 36.64 35.36 35.28 35.58 35.74 34.80 36.68 35.88 34.86 33.12 34.55 34.89 31.98 30.37 31.46 33.07
55.04 54.83 54.94 54.57 53.74 53.08 52.51 51.03 49.84 49.00 47.69 47.56 47.32 47.42 46.96 45.53 44.28 43.80 43.42 43.61 43.73 43.45 43.40 41.31 39.74 37.06 34.44 34.29 33.66 33.46 30.92 29.58 28.96 29.76 31.16 32.19 32.08 32.46 32.20 29.64 29.27 28.11 29.37
53.04 53.64 53.32 51.99 51.68 51.82 50.81 49.24 48.77 47.61 48.26 48.12 47.42 46.68 45.89 44.97 44.92 44.41 44.06 43.13 40.36 39.79 36.59 36.03 36.59 36.97 35.25 32.26 31.81 31.21 27.74 26.22 26.16 26.59 26.68 27.56 30.87 31.00 30.74 30.23 27.06 26.76 28.79
51.41 52.11 51.18 50.58 50.74 50.90 50.11 48.46 47.01 47.96 47.68 47.03 45.31 44.45 44.52 43.45 42.58 40.35 39.26 39.13 38.96 36.33 34.06 31.96 31.68 32.26 32.40 31.12 30.58 29.37 28.06 27.40 25.23 25.20 25.97 26.84 28.98 29.52 29.64 29.08 29.90 30.69 30.11
50.33 51.34 50.07 49.17 50.05 50.35 49.59 46.75 46.31 46.63 45.24 43.65 42.19 40.84 40.93 40.90 40.61 38.53 36.61 35.84 34.82 31.89 30.24 29.79 29.85 29.87 29.79 29.23 28.65 27.46 26.87 26.87 24.85 25.45 26.15 26.81 27.45 28.37 28.41 30.36 31.04 29.71 28.68
49.52 49.84 48.79 48.12 47.69 48.77 48.35 46.52 45.46 44.55 42.99 40.66 39.51 38.97 37.14 36.08 35.59 35.21 34.52 33.45 30.46 29.46 29.13 28.96 27.93 27.55 27.20 25.26 23.95 23.43 23.00 25.20 24.69 23.98 23.50 23.81 25.93 26.34 26.58 27.18 27.86 28.37 28.35
48.90 48.86 47.63 47.18 46.64 46.14 44.52 44.42 43.74 42.97 40.56 38.81 36.92 34.57 34.19 34.12 33.09 30.22 30.16 28.17 26.23 26.74 26.91 26.75 26.08 23.00 21.68 22.69 22.88 22.56 22.22 21.74 23.07 21.34 22.55 23.30 23.55 22.89 23.20 23.45 24.57 24.68 26.01
48.10 47.38 46.65 44.63 43.32 42.51 41.63 41.71 42.11 40.62 37.44 34.69 33.82 32.33 31.77 30.51 31.66 29.42 27.51 28.47 26.86 27.41 26.73 25.47 24.38 24.19 23.95 22.97 22.94 23.09 23.49 24.05 24.30 21.30 20.18 18.45 19.23 19.39 20.26 20.84 21.26 21.79 22.54

GFSMW_sfc_wetblb_069.txt.gz
Wetbulb
56.44 56.39 55.39 55.11 55.19 55.26 54.54 54.79 55.61 55.72 56.54 55.46 54.72 56.78 55.33 55.44 55.88 56.76 59.89 59.73 59.50 60.31 59.05 58.09 57.21 55.39 54.74 54.08 52.89 51.85 51.60 49.86 49.52 47.38 46.67 46.95 46.99 46.38 45.98 45.02 45.26 46.19 45.59
55.16 56.23 55.62 55.32 54.40 52.69 53.22 54.10 54.75 55.20 57.28 57.92 57.62 56.01 56.74 55.66 55.80 56.44 57.64 60.67 60.03 60.32 59.77 58.39 57.82 55.48 54.47 54.11 52.29 52.17 50.88 50.99 49.67 46.34 46.21 43.16 44.57 45.67 46.16 45.69 46.26 45.74 45.53
54.62 55.27 54.34 54.02 53.98 52.21 52.92 53.87 55.01 56.46 58.41 58.09 57.13 55.68 56.11 55.91 55.58 55.27 57.07 60.33 61.52 61.76 61.20 59.86 58.84 56.32 55.63 54.63 52.87 52.04 51.43 50.65 51.35 48.65 47.61 43.12 40.76 41.98 45.02 45.56 47.46 46.50 44.16
56.00 55.87 54.29 53.14 54.31 54.88 55.68 56.27 56.74 58.12 58.57 58.18 57.34 56.28 55.97 55.24 56.34 55.70 56.27 60.60 61.48 61.69 61.48 60.91 60.11 57.40 56.58 55.04 53.94 55.22 54.53 51.85 50.00 48.87 46.91 44.84 44.04 40.27 39.46 43.43 45.67 46.32 44.31
55.07 54.90 54.71 54.79 55.22 56.33 57.26 57.43 57.81 57.90 58.52 58.55 58.27 56.94 55.56 55.61 55.25 55.54 56.56 59.86 60.96 61.27 61.42 60.26 58.96 56.91 56.65 55.51 55.14 54.79 53.55 52.93 51.50 48.46 44.84 44.82 44.49 44.29 40.45 37.82 41.77 44.34 42.54
55.57 56.10 56.57 57.07 56.73 57.55 57.46 57.80 57.42 57.40 58.13 58.49 58.78 59.08 57.67 54.70 54.08 55.29 55.87 58.68 60.27 60.45 60.16 60.51 59.49 57.30 55.48 54.63 53.53 53.65 53.40 51.23 48.57 46.59 45.64 44.93 43.70 43.21 42.02 39.67 39.19 38.65 41.12
55.43 55.92 55.80 55.70 56.50 56.58 57.05 57.55 57.86 57.38 57.89 57.97 58.62 58.68 58.69 56.23 54.99 54.70 56.20 58.08 58.79 59.66 59.51 58.55 55.89 55.58 53.89 53.17 53.26 53.10 50.88 47.89 46.48 45.28 45.15 45.09 44.20 43.39 43.19 41.55 39.79 38.42 38.38
55.07 55.78 56.24 56.99 56.68 57.17 57.40 57.85 57.81 58.44 58.92 58.65 59.19 59.44 59.05 58.18 57.44 56.62 57.19 59.06 59.12 59.01 57.20 55.46 54.20 53.47 53.01 52.37 52.08 50.09 46.88 46.30 45.49 45.17 44.34 43.66 43.64 44.11 43.37 41.77 39.93 37.23 34.91
54.41 55.53 57.14 57.53 58.02 57.89 58.21 58.33 58.28 58.67 59.57 59.52 59.93 59.83 59.62 59.53 58.24 58.59 58.18 59.24 58.78 57.37 56.57 55.93 53.60 52.24 51.46 51.14 49.59 47.29 46.30 45.92 45.07 43.81 43.22 42.94 43.38 43.40 43.22 42.54 41.81 38.89 32.03
52.18 54.76 55.93 58.47 59.20 59.62 60.06 60.01 60.04 59.57 59.73 59.84 59.94 60.47 60.30 59.70 59.96 59.64 57.65 57.99 58.11 56.85 55.39 54.91 53.52 52.44 50.49 47.83 47.11 45.47 45.33 44.20 43.46 43.44 42.85 42.74 42.79 42.44 42.02 41.99 41.03 40.25 36.78
50.96 52.43 53.67 56.95 59.76 60.31 60.24 60.32 60.40 60.55 60.44 60.63 59.97 60.06 59.26 59.81 59.64 59.13 58.94 59.14 57.66 55.85 54.24 53.24 52.42 49.45 47.60 46.68 45.96 44.45 43.68 42.52 42.02 42.54 42.40 42.22 42.33 41.10 42.08 41.02 40.90 39.38 37.22
52.01 53.18 53.82 54.89 56.40 59.30 60.00 60.25 60.80 61.04 61.28 61.42 60.80 60.14 59.11 59.55 58.90 59.16 59.37 57.51 56.09 54.96 53.82 51.06 48.87 47.11 46.11 45.71 44.53 42.73 42.34 41.90 41.49 41.52 41.28 40.93 42.30 41.96 41.47 41.11 39.46 37.25 37.08
51.72 52.95 53.93 54.49 54.87 56.81 58.80 60.04 60.77 61.01 62.87 61.39 59.50 59.12 57.36 58.32 57.77 54.04 53.28 53.28 51.42 50.56 49.51 48.48 47.00 45.80 45.31 43.39 42.77 42.49 42.39 42.15 41.82 41.89 41.53 42.08 42.33 40.59 41.47 41.13 38.89 37.11 39.57
50.76 52.29 52.64 53.77 55.80 57.70 56.89 56.15 56.01 60.88 59.58 55.99 53.43 52.16 51.32 50.59 50.05 49.51 48.59 47.76 47.74 47.20 46.48 46.30 45.24 43.96 43.52 43.18 42.91 42.77 42.18 42.21 42.55 43.29 43.65 43.06 41.79 41.95 38.58 37.83 36.91 37.37 35.17
49.75 50.91 52.20 53.75 55.53 54.24 52.99 52.11 52.36 52.26 52.18 50.95 49.65 47.99 48.36 48.77 48.33 46.93 46.52 46.21 46.00 45.10 44.82 43.81 43.36 43.30 42.93 42.53 42.38 42.55 42.18 42.34 42.51 42.55 42.53 42.46 41.90 41.65 40.08 40.84 37.42 34.99 34.05
50.57 51.76 55.19 56.54 55.03 53.46 51.41 50.82 49.67 50.21 50.06 49.13 47.94 47.74 46.63 46.45 45.83 45.58 45.62 44.02 43.95 43.89 43.71 42.71 42.07 41.79 42.41 39.42 40.17 41.79 41.90 41.85 40.82 39.38 38.94 39.55 40.41 39.07 38.06 37.41 36.54 36.00 34.82
51.49 53.14 56.58 55.81 53.69 52.14 50.79 48.91 48.30 48.97 48.70 48.10 47.52 47.40 46.74 45.75 45.25 44.71 43.84 43.02 42.58 42.67 42.00 41.64 41.65 41.23 41.74 39.66 39.91 38.80 39.52 38.02 37.08 36.47 35.33 35.98 37.73 35.61 33.89 33.58 33.33 32.81 34.57
51.40 55.26 54.74 53.45 52.31 50.93 49.57 49.07 49.08 48.45 47.58 47.16 47.10 46.80 45.92 44.90 44.40 43.89 43.11 42.55 41.57 40.01 39.52 40.93 41.32 41.40 41.92 38.70 38.47 36.88 36.55 35.78 34.42 34.03 33.12 31.47 30.51 31.67 31.89 29.66 28.19 29.05 30.19
51.95 52.93 53.72 52.52 51.58 50.67 50.17 49.60 49.36 48.91 48.44 47.53 47.07 46.47 45.85 44.88 44.71 43.20 41.82 40.38 39.24 40.26 40.78 41.51 40.76 38.50 34.74 35.54 35.03 34.61 32.09 31.33 29.76 31.03 29.87 29.82 28.75 31.83 32.03 28.14 25.99 25.37 25.64
52.80 52.68 53.12 52.56 51.37 50.53 50.34 48.81 48.47 48.43 47.51 47.46 46.68 45.59 45.33 44.14 41.82 40.21 39.89 40.66 41.25 41.46 41.76 40.35 36.28 34.35 31.78 33.45 33.93 31.60 28.05 25.91 25.10 26.29 27.99 29.46 29.18 30.23 30.20 26.42 25.22 23.99 25.31
51.36 51.67 51.31 50.09 49.09 50.16 49.41 47.27 46.34 45.27 45.67 45.83 45.91 45.75 43.96 42.41 42.43 41.79 41.15 40.72 39.28 36.16 33.26 32.61 33.55 31.81 31.07 30.69 31.13 29.46 25.10 24.68 25.15 24.66 24.36 24.43 27.70 27.90 28.52 29.27 26.72 26.64 28.48
49.70 49.81 48.26 47.35 47.20 47.73 47.27 45.46 44.31 45.72 45.87 45.08 44.10 43.24 43.38 43.69 42.76 39.35 36.99 37.14 35.78 32.93 30.48 29.92 29.07 28.59 27.93 29.34 28.92 28.39 27.12 26.42 24.20 23.89 23.71 24.15 26.65 27.70 28.40 28.28 29.39 29.70 27.93
47.79 47.77 46.88 46.05 46.17 46.51 46.65 44.18 44.31 44.75 43.76 42.59 41.69 39.62 39.43 38.87 37.84 35.82 34.04 32.90 31.64 28.43 27.33 27.69 27.39 26.18 26.07 23.96 25.78 25.60 25.22 25.22 23.43 23.91 24.13 25.27 26.08 26.80 26.50 26.90 26.66 25.15 24.18
45.50 45.63 45.84 45.01 44.38 45.24 45.10 44.00 43.67 42.72 41.20 37.86 36.61 35.44 34.07 32.96 31.90 32.84 31.59 28.75 26.10 25.42 26.97 26.89 25.17 24.78 22.64 21.54 21.06 21.97 20.59 23.29 23.22 23.10 22.43 22.23 24.11 23.89 23.06 22.58 23.06 22.84 21.83
45.03 45.49 44.57 43.81 42.96 42.97 42.12 41.95 40.72 39.87 37.61 35.36 33.06 31.40 30.90 28.80 27.46 27.71 26.70 24.76 24.78 26.73 24.95 23.62 24.61 19.76 18.02 21.88 22.35 22.23 22.09 18.94 23.02 19.88 19.84 20.92 21.03 20.59 20.21 20.02 20.17 19.97 20.01
44.27 44.09 42.78 40.09 39.16 39.65 39.21 39.85 39.67 36.62 33.23 31.22 30.06 27.68 26.85 26.69 26.53 25.38 25.28 27.68 27.30 27.97 27.57 26.52 23.37 24.09 24.10 23.11 23.22 24.00 23.78 24.20 24.55 19.36 15.69 11.52 10.19 13.96 17.21 16.93 16.61 17.25 17.42

GFSMW_sfc_wetblb_072.txt.gz
Wetbulb
55.41 54.75 54.17 53.99 54.89 55.64 56.36 56.79 56.19 56.54 57.18 55.54 54.74 55.11 54.88 54.40 55.20 56.80 58.30 58.57 58.68 58.80 57.41 57.35 55.77 54.48 53.50 52.86 51.95 50.70 49.91 50.04 47.48 46.53 45.37 45.29 45.31 43.84 43.96 43.68 44.74 44.92 44.97
53.96 53.93 53.42 52.77 53.78 54.24 54.64 54.26 55.57 55.43 55.62 55.52 54.15 55.94 54.47 54.20 56.50 56.09 58.01 58.82 58.20 58.63 57.72 57.29 56.04 54.13 53.05 52.50 51.86 50.81 49.72 49.75 48.33 45.63 46.95 44.74 45.42 45.06 45.05 43.65 43.99 43.22 44.05
53.20 53.72 53.33 52.38 53.28 53.44 53.36 53.31 54.90 54.87 55.46 55.92 54.37 54.37 54.78 54.11 54.15 53.97 55.58 58.36 58.58 58.55 58.68 57.54 56.66 55.20 53.78 52.77 51.55 50.47 50.12 48.51 49.41 49.23 47.86 44.37 43.34 43.63 45.44 45.31 44.63 44.60 43.46
54.37 54.50 53.70 52.92 52.62 52.40 53.05 53.16 53.96 53.59 55.21 56.61 54.98 54.45 54.54 53.84 54.99 54.45 54.84 56.72 59.07 58.93 59.58 58.84 57.33 55.69 54.62 53.18 52.93 52.55 51.29 51.59 50.82 49.83 47.45 45.88 45.34 42.51 41.71 44.43 44.96 45.95 45.63
54.05 54.03 53.60 53.82 53.32 52.22 52.00 52.63 53.46 54.23 55.68 57.09 56.09 55.92 54.64 55.85 54.81 53.80 54.15 55.73 58.77 59.64 59.79 59.59 58.21 56.62 55.96 55.03 54.77 53.35 52.14 52.50 51.04 49.13 45.43 45.09 45.48 45.61 43.12 41.67 42.89 44.80 44.50
54.49 54.73 54.34 53.96 51.92 51.84 51.97 52.62 52.97 54.04 55.86 57.40 56.75 56.00 55.47 53.34 53.21 54.62 54.12 54.99 58.32 59.45 59.99 60.08 59.83 58.84 56.18 54.75 54.76 53.63 53.36 52.47 50.96 48.35 46.58 45.94 45.04 44.42 43.72 42.05 41.88 40.49 41.63
54.50 54.31 53.04 52.43 52.32 51.89 52.22 53.50 54.25 54.39 56.36 57.44 56.99 56.20 55.46 54.02 54.26 54.12 54.98 54.58 57.19 58.48 59.10 59.38 58.20 56.36 56.48 54.32 53.83 53.39 52.86 51.23 50.29 48.94 46.94 46.82 46.15 44.47 43.70 42.09 40.60 39.49 40.57
54.53 54.46 54.34 53.61 53.27 53.79 54.49 55.03 55.04 55.42 56.73 57.05 57.22 57.62 57.15 56.95 56.00 55.10 55.75 55.72 56.49 58.44 60.07 59.48 57.60 55.52 55.34 53.03 52.14 52.05 49.25 48.55 48.10 47.50 46.09 45.88 45.10 45.04 44.57 42.95 41.05 38.41 38.34
53.99 54.17 54.85 54.80 54.77 54.92 55.28 56.20 56.31 56.40 56.93 56.81 56.78 56.67 57.37 57.70 57.27 56.40 54.82 56.31 57.35 58.27 56.76 57.16 56.06 55.40 53.75 52.63 51.40 49.27 47.70 47.86 46.40 45.99 45.09 44.72 44.15 44.26 44.33 43.82 42.67 39.63 35.22
54.17 54.94 55.42 55.54 56.09 56.51 56.59 56.88 57.09 56.75 57.15 57.29 57.13 56.70 57.02 57.72 58.35 56.22 55.37 56.28 56.24 55.86 56.40 54.82 53.32 53.02 52.76 51.08 49.98 47.90 46.56 46.27 45.33 45.07 44.15 43.40 43.64 43.62 43.38 42.49 41.92 41.05 38.91
51.20 53.46 55.49 56.66 56.97 57.07 56.90 56.81 56.81 56.96 57.13 57.98 58.10 57.43 57.75 58.16 58.16 57.10 57.00 57.63 57.34 57.32 57.77 55.98 53.80 53.10 52.21 50.19 48.06 46.51 45.48 44.98 43.88 43.42 43.17 42.63 43.17 42.17 41.30 42.02 41.81 39.95 37.20
50.01 52.13 54.59 55.73 56.53 57.03 57.27 56.89 57.35 57.37 57.87 58.93 59.63 58.92 58.16 58.49 58.12 58.20 58.37 58.77 57.58 56.78 55.20 54.46 53.11 51.27 49.77 48.44 46.42 44.83 44.54 43.31 42.62 42.45 42.66 42.46 42.59 40.95 41.09 40.73 39.45 37.00 36.90
49.74 50.48 51.35 52.79 55.56 57.34 57.88 58.26 58.42 58.55 60.20 59.78 59.65 58.70 58.72 58.78 58.69 58.75 57.84 55.55 54.46 55.62 52.81 51.07 49.65 48.37 47.03 45.66 44.73 44.15 43.57 43.13 42.97 42.75 41.64 41.58 41.97 41.28 40.98 39.46 39.27 40.46 40.34
50.54 50.33 50.64 52.38 55.46 55.71 56.69 57.87 58.57 59.52 59.20 56.83 56.28 56.02 55.01 55.32 56.54 55.52 54.17 53.25 53.17 50.28 49.34 49.79 48.02 46.06 44.29 44.11 43.71 43.96 43.09 42.72 42.50 42.58 42.64 43.02 43.01 41.54 40.62 40.22 39.28 37.79 34.33
49.40 50.54 50.37 54.09 53.60 54.03 54.08 54.18 53.39 52.45 54.15 52.23 51.53 49.69 49.67 49.81 48.89 48.87 48.51 48.21 47.93 47.77 47.93 45.22 44.05 43.94 43.83 43.79 43.46 43.14 42.21 42.11 42.24 43.20 43.29 42.67 42.06 41.48 39.93 39.09 34.45 33.62 33.99
47.34 49.67 52.53 54.38 52.63 52.33 51.94 52.35 51.43 50.91 51.58 50.15 48.40 48.20 47.90 47.66 47.19 46.29 45.57 45.21 45.01 44.96 44.33 43.53 43.26 42.49 43.11 39.41 40.20 41.51 42.00 42.30 41.40 39.85 39.26 37.53 35.85 35.14 34.87 34.34 34.05 32.54 29.04
50.49 52.67 54.22 54.37 52.45 51.87 51.36 50.64 50.36 50.56 49.77 48.60 47.88 47.70 47.30 46.09 45.37 45.08 44.49 43.65 43.23 43.34 42.58 42.15 42.32 41.58 41.56 39.58 39.94 39.37 41.08 39.56 37.73 33.84 32.48 33.35 32.75 32.14 30.61 30.68 30.19 30.00 31.24
51.62 53.63 54.18 52.09 50.82 50.70 50.34 50.08 50.29 49.74 48.96 48.30 47.39 46.96 46.35 45.17 44.75 44.22 43.67 42.91 42.52 41.77 41.59 41.34 41.41 41.73 41.76 38.96 38.56 36.80 37.13 33.00 31.63 30.07 29.41 27.90 27.39 29.93 28.91 27.36 25.47 25.30 25.56
52.44 53.06 52.69 50.59 49.19 48.63 49.26 49.27 48.56 48.32 47.93 46.96 46.55 46.18 45.47 44.21 43.99 42.90 41.88 40.90 40.39 40.85 41.13 41.70 41.62 38.91 38.59 37.45 36.05 34.11 30.32 28.72 27.37 28.22 27.93 27.41 26.67 29.35 29.81 26.28 24.65 24.48 25.78
52.57 51.87 51.04 50.71 49.61 48.80 49.02 47.80 47.23 47.33 46.90 47.03 46.39 46.12 45.18 44.62 43.05 41.82 40.91 39.58 40.20 40.89 41.67 40.37 36.50 34.34 32.51 34.29 33.61 30.60 26.58 24.67 24.41 25.52 25.99 27.69 26.58 27.62 27.91 25.39 24.88 24.41 25.34
51.78 51.95 51.31 50.04 49.09 48.96 48.20 46.73 46.53 46.11 47.51 47.08 46.04 45.05 43.67 41.63 40.87 40.46 39.94 39.35 38.16 36.52 33.16 31.65 31.33 29.84 30.23 30.35 30.87 29.33 24.98 24.74 24.71 24.03 23.53 23.75 26.04 27.12 28.34 28.53 25.86 25.64 25.67
50.03 50.97 49.28 48.16 48.78 48.40 46.91 44.68 43.31 44.55 45.08 44.46 42.78 41.94 41.56 41.88 41.05 39.55 38.22 37.00 34.36 30.95 30.13 28.36 26.58 26.43 27.01 29.26 29.08 28.28 26.92 25.62 24.19 23.19 23.31 23.19 26.13 27.21 27.48 25.63 26.11 25.51 24.91
47.65 47.98 46.43 45.11 45.36 45.94 45.57 43.05 43.22 43.30 42.77 42.15 41.34 41.32 40.50 39.44 37.68 35.71 34.14 33.25 31.95 29.39 28.33 27.53 25.01 23.90 23.74 23.27 26.07 25.78 25.29 24.70 23.32 24.25 24.03 24.81 25.47 25.91 25.36 24.49 24.07 22.70 21.03
45.84 46.06 45.77 44.50 42.94 43.90 44.16 43.40 42.67 42.30 40.57 37.73 36.99 35.23 31.48 30.83 30.72 30.30 29.77 28.81 26.29 26.35 27.82 26.83 25.09 23.57 22.24 21.68 21.72 22.33 22.22 23.40 23.34 23.12 23.15 22.30 23.55 22.88 22.18 21.97 22.07 21.03 19.60
44.70 45.56 44.40 42.95 41.66 42.08 41.12 41.30 40.14 39.52 36.09 34.26 32.18 29.39 28.88 28.26 26.90 25.25 25.22 25.73 26.30 27.20 26.85 25.55 25.41 22.07 20.39 22.20 23.11 23.52 23.03 21.46 23.52 21.79 20.80 21.24 19.75 18.60 19.04 19.37 18.71 18.47 17.89
43.89 41.03 39.63 37.31 34.53 35.51 36.57 37.93 38.01 36.01 33.07 30.24 29.02 28.34 27.15 26.23 26.17 25.16 25.57 29.02 28.34 28.73 27.99 26.88 25.27 24.93 24.88 24.05 23.78 24.20 23.68 24.13 24.29 21.41 18.35 14.62 11.41 13.96 16.49 15.53 15.32 15.78 15.00

GFSMW_sfc_wetblb_075.txt.gz
Wetbulb
54.48 55.40 55.87 55.79 55.97 56.18 56.60 57.28 56.35 56.37 56.56 55.98 55.23 54.93 54.82 56.20 57.01 58.56 58.33 58.21 57.48 57.00 56.29 55.16 54.41 54.18 53.54 53.07 51.73 49.73 49.24 48.23 46.41 45.01 44.33 44.57 44.82 43.60 42.58 43.33 46.38 47.64 48.12
53.94 53.05 52.58 54.45 54.92 54.73 55.91 56.59 55.54 56.09 56.39 56.29 56.22 56.37 55.38 55.39 56.12 56.82 57.09 58.24 57.91 57.49 56.83 56.09 55.04 54.53 53.24 51.69 50.07 49.77 49.21 48.57 46.94 44.90 45.38 43.25 44.15 45.00 45.51 42.85 42.87 44.14 43.92
52.46 52.73 52.49 52.17 54.21 53.77 55.02 55.37 55.04 55.15 56.32 56.04 54.27 55.00 54.94 54.59 53.88 53.46 55.10 56.62 57.60 57.81 57.11 56.51 55.50 53.46 52.68 51.61 50.55 50.20 49.97 48.18 48.45 49.28 47.43 44.59 43.58 44.28 44.44 44.48 45.07 44.27 43.96
53.67 52.99 52.37 50.67 51.83 53.53 53.95 53.88 54.80 54.73 55.36 55.18 52.98 53.48 52.66 51.93 53.31 53.63 53.86 55.62 57.20 56.92 57.60 56.89 55.68 54.49 53.24 51.72 51.76 51.35 50.36 50.18 48.59 48.57 47.32 46.65 47.09 43.94 42.88 44.86 45.47 46.51 45.64
53.32 52.62 52.50 52.36 52.15 53.26 53.16 52.91 53.30 54.69 55.47 54.98 53.43 52.92 51.26 52.04 52.56 53.16 53.57 53.34 56.15 57.30 57.54 57.52 55.74 55.40 54.39 54.43 53.63 52.60 50.68 51.56 51.80 49.03 45.45 45.14 45.74 45.77 44.23 42.93 44.37 45.49 45.60
53.10 53.45 53.54 53.53 52.59 51.72 51.78 52.28 51.85 52.34 53.85 54.43 54.66 52.70 52.68 52.75 52.62 52.32 52.64 52.75 54.33 56.61 57.52 57.71 57.31 56.94 55.97 54.16 53.81 53.55 51.95 51.20 51.04 49.41 47.40 45.12 45.42 44.84 44.64 43.43 43.76 43.22 43.40
52.95 53.07 52.51 52.28 52.51 50.60 50.68 51.29 51.35 51.74 52.85 53.77 55.03 54.49 54.08 53.32 53.57 53.96 54.10 53.28 53.38 55.34 56.95 57.57 57.51 57.92 57.87 55.81 54.56 54.65 53.42 50.89 50.15 49.35 48.54 48.22 48.04 46.95 46.23 44.61 42.47 40.76 41.52
53.41 53.21 53.19 52.31 52.15 50.76 50.28 51.21 51.19 51.42 52.46 53.63 54.99 55.84 55.10 55.02 54.91 54.86 55.32 54.58 54.49 55.28 57.31 58.07 58.50 58.61 56.85 55.85 54.93 54.13 53.49 51.73 51.15 49.87 48.46 48.68 47.56 46.63 45.48 43.96 42.68 39.47 39.12
53.08 53.55 53.91 52.82 52.19 50.61 50.52 50.86 51.49 51.91 52.65 53.73 54.96 55.79 56.13 55.41 55.45 54.87 53.64 54.53 53.96 55.32 56.35 58.40 58.42 56.71 54.21 55.01 54.35 52.84 51.30 50.18 49.29 48.05 48.39 47.94 46.18 45.70 45.46 44.79 43.61 41.92 38.00
53.06 54.04 54.48 53.77 53.12 52.61 51.95 51.83 52.42 52.79 53.64 54.49 55.51 56.20 56.46 56.31 56.33 55.13 54.10 53.59 54.47 55.74 55.93 55.31 54.53 53.96 53.80 52.46 52.20 50.87 49.75 49.51 48.19 47.45 46.69 45.33 44.77 44.56 44.30 43.77 43.01 41.75 40.00
51.94 53.45 54.37 55.27 54.69 54.29 53.73 53.48 53.38 54.04 54.69 55.29 55.74 55.16 54.78 54.73 56.20 56.06 54.88 55.14 56.01 56.35 56.13 56.17 55.51 53.82 52.53 51.35 51.32 49.89 48.12 47.27 46.22 45.52 45.26 44.11 43.84 43.05 42.53 42.05 41.64 40.86 40.20
52.54 53.70 54.14 54.63 54.63 54.72 54.97 54.52 54.86 55.47 56.56 57.37 57.54 56.56 56.83 56.46 56.39 56.64 56.45 56.93 57.01 57.47 57.31 57.55 57.81 53.97 52.29 51.55 50.43 47.71 47.51 46.57 45.65 44.21 43.53 43.08 43.22 42.02 41.59 41.42 40.67 39.96 38.87
50.66 51.97 53.50 54.17 54.63 55.12 55.22 55.55 55.68 55.76 56.73 57.46 57.47 57.49 57.40 57.27 57.35 56.75 57.17 57.35 57.73 57.87 58.01 55.93 54.57 53.08 51.34 49.35 48.34 47.63 46.03 45.47 44.94 43.96 43.34 42.39 42.04 40.91 41.24 41.11 40.41 39.57 40.60
49.14 50.43 51.30 52.56 54.26 55.00 55.62 55.77 55.68 55.98 56.47 57.21 57.02 56.81 57.31 57.19 57.48 57.46 57.37 57.77 58.18 56.53 53.85 53.95 52.96 49.77 47.76 47.00 46.03 45.89 44.77 44.17 43.74 43.12 42.68 42.38 42.27 41.66 41.24 40.75 39.99 38.97 36.75
46.76 49.26 50.20 50.98 51.87 52.23 53.64 54.34 54.88 55.53 56.89 56.58 56.64 55.69 53.70 53.35 53.32 54.83 55.87 53.83 52.82 52.44 51.01 48.68 46.40 45.65 45.59 45.72 45.63 44.47 43.67 42.67 42.18 42.53 43.18 43.20 41.93 39.08 38.45 39.22 33.14 30.91 28.58
46.42 48.29 49.70 53.09 52.55 52.70 51.66 52.23 53.06 52.50 53.65 52.31 52.84 50.89 50.96 50.06 48.79 48.25 47.53 46.96 46.57 46.71 46.13 44.96 44.31 43.84 44.49 41.95 40.96 42.37 42.46 42.51 42.15 41.05 39.11 36.16 35.72 34.90 34.19 33.71 33.22 31.05 26.83
46.48 48.04 51.19 53.51 52.43 51.74 53.15 52.69 51.66 52.16 51.69 51.26 49.82 49.17 48.97 47.74 46.68 46.62 45.94 45.09 45.63 45.43 43.82 42.92 43.55 42.72 41.93 39.38 39.86 39.66 41.82 40.36 38.66 35.79 34.70 32.88 32.04 30.88 28.83 29.78 29.02 28.18 28.83
46.13 47.85 51.04 52.30 50.96 51.39 51.93 50.96 51.27 51.03 50.14 49.56 49.40 49.04 48.32 46.32 45.71 45.33 44.50 43.44 43.21 42.50 42.13 42.36 42.04 42.06 41.22 38.63 38.44 37.27 36.91 33.88 32.19 31.05 29.85 28.98 27.36 28.68 27.73 26.30 24.56 25.00 25.58
48.63 49.82 51.44 50.96 51.85 51.53 51.04 50.41 49.94 49.60 48.89 48.03 48.21 47.74 46.29 45.10 44.66 43.45 42.31 42.16 41.91 41.89 41.79 42.20 42.08 41.34 40.15 36.97 36.18 34.55 31.99 29.30 28.03 27.73 27.18 26.48 25.73 28.33 28.67 25.91 24.77 24.78 25.93
50.82 50.13 49.31 50.31 50.11 50.23 50.64 49.70 48.65 48.38 47.72 47.32 46.61 46.13 45.64 44.63 43.21 41.97 41.12 41.67 42.34 41.80 41.45 37.53 36.81 36.43 36.16 35.79 34.23 32.07 29.09 26.02 24.99 25.64 25.80 27.22 26.04 27.01 27.78 26.32 24.96 23.67 23.86
51.04 50.24 49.45 48.62 48.83 49.68 49.98 48.67 48.18 47.50 47.70 46.91 45.99 45.48 44.98 43.40 42.84 41.86 41.16 41.06 40.63 37.85 33.25 30.65 30.98 31.16 31.71 31.36 31.63 30.24 25.87 25.15 24.57 23.98 23.20 23.43 25.68 27.05 27.99 27.22 25.24 23.95 23.36
49.73 49.72 48.36 47.69 48.48 47.99 47.47 46.55 46.56 47.43 46.91 45.66 43.90 42.75 42.31 41.86 41.28 40.36 39.05 37.34 35.44 32.45 30.11 28.39 27.28 27.44 28.24 29.37 29.51 28.54 27.05 26.32 25.00 23.72 23.68 24.11 25.83 26.83 26.28 24.50 24.42 23.94 22.80
48.59 48.51 47.99 46.62 46.73 46.81 46.27 43.56 43.04 44.74 43.78 42.83 41.66 40.84 40.21 39.37 38.00 37.55 34.01 32.11 32.23 29.75 28.46 27.38 25.51 23.92 24.04 24.47 27.11 26.84 25.89 24.75 23.86 24.55 24.32 24.72 25.10 25.53 24.50 23.39 22.92 21.95 20.17
46.42 46.42 46.06 44.55 43.09 44.15 44.44 43.26 42.77 42.49 41.44 39.52 36.48 35.47 33.35 31.76 31.43 31.52 32.08 31.24 30.32 29.55 28.33 25.83 23.71 22.44 22.01 22.29 22.97 23.09 23.49 23.95 24.03 23.66 24.06 23.12 24.17 22.88 22.15 21.66 20.96 19.91 18.96
44.66 45.29 44.09 42.13 41.33 42.23 41.98 42.21 41.60 39.74 35.55 33.60 32.67 31.06 29.37 27.75 26.91 27.42 28.46 27.87 27.81 29.83 28.46 27.00 25.75 22.54 21.77 22.71 23.94 23.92 23.35 23.32 23.99 22.37 22.00 20.57 19.32 18.40 18.69 18.62 18.09 17.68 16.96
42.85 39.98 37.25 37.08 37.17 37.69 36.44 36.88 37.50 35.80 32.95 30.25 29.78 29.11 27.69 26.71 26.69 25.70 25.30 28.78 28.43 29.03 28.86 27.61 25.61 25.51 25.43 25.05 24.74 24.38 24.06 24.24 23.76 21.08 17.92 14.78 13.92 15.09 16.05 15.37 14.98 15.07 14.44

GFSMW_sfc_wetblb_078.txt.gz
Wetbulb
54.11 55.30 55.94 55.37 55.85 56.84 57.27 57.58 56.86 57.28 57.38 56.86 56.48 56.68 56.78 57.65 58.33 58.23 57.67 55.93 56.01 56.01 54.54 53.74 52.74 53.48 52.67 51.63 50.41 49.98 49.29 47.47 46.63 45.39 44.86 44.95 45.02 44.19 43.12 44.25 46.78 48.18 49.66
54.10 55.25 55.37 55.07 55.05 55.78 56.85 56.91 56.72 56.70 56.83 56.66 57.51 57.16 55.64 56.70 58.19 58.28 57.77 57.51 55.89 55.44 55.17 54.23 53.50 53.95 52.64 51.69 50.70 49.94 48.14 48.08 46.68 44.92 44.42 42.64 44.78 45.26 45.48 44.42 44.74 46.70 48.34
53.64 54.00 53.91 54.13 54.86 54.88 55.72 56.31 56.10 56.24 56.73 56.97 56.36 55.54 55.55 55.85 55.23 55.01 56.02 56.36 56.96 56.08 55.87 55.27 54.44 53.87 53.08 52.28 50.25 49.60 49.22 47.69 47.09 46.95 45.99 43.26 42.41 43.89 46.00 46.58 45.24 44.99 45.43
53.73 53.52 53.25 52.71 53.46 54.05 55.30 56.49 55.95 55.72 56.55 56.59 55.95 54.28 54.65 54.42 55.36 54.26 55.27 55.81 56.82 57.00 56.82 56.46 55.60 54.48 53.31 51.49 51.37 50.81 49.55 49.24 47.43 47.77 48.02 47.20 47.77 44.72 44.24 44.57 45.99 45.69 44.66
53.10 52.75 52.62 52.83 53.68 54.19 54.16 54.00 54.80 54.68 55.77 55.00 55.49 53.66 52.57 53.31 53.83 53.80 53.99 54.18 55.85 56.74 57.10 56.66 55.15 54.01 53.39 52.96 51.61 50.51 49.65 50.37 49.46 47.50 44.88 44.97 46.20 46.61 45.34 45.28 44.21 45.52 46.33
52.81 53.39 53.20 52.49 52.13 53.13 53.02 52.17 53.27 53.89 54.87 54.64 52.84 53.00 51.49 51.94 51.50 52.14 53.10 53.64 53.72 55.57 55.96 56.56 56.14 55.39 54.63 53.19 52.99 52.00 50.51 50.33 49.85 48.26 47.40 47.47 46.33 45.56 45.10 44.06 45.19 44.99 45.74
52.01 52.33 51.39 51.05 51.22 50.74 51.21 51.60 52.07 52.66 53.93 54.28 54.07 52.48 52.60 51.93 52.02 51.84 52.70 51.66 52.51 52.56 55.03 55.45 54.70 55.53 55.53 54.93 54.22 52.80 52.28 51.08 51.62 50.94 50.33 49.15 48.81 48.59 47.11 45.80 45.36 43.88 43.73
52.02 52.42 52.45 51.86 51.29 51.45 51.46 51.74 51.40 51.84 52.03 53.09 53.59 54.19 52.48 53.11 53.17 52.46 52.41 52.23 52.34 52.65 54.20 55.39 56.16 56.54 56.48 55.89 55.07 55.05 54.35 53.66 52.70 52.21 51.35 50.09 49.70 48.32 47.58 47.24 45.63 40.72 41.06
51.24 52.33 52.69 52.36 52.05 51.56 51.05 51.44 51.65 51.88 51.86 52.10 53.00 53.15 54.01 52.96 52.42 53.13 52.97 53.04 52.92 53.56 53.42 54.63 55.93 55.33 55.21 55.12 54.24 54.98 54.10 53.25 53.54 52.35 51.38 49.17 48.89 48.37 47.47 46.47 45.61 44.69 39.38
50.86 52.23 52.86 52.55 52.66 52.24 51.53 51.40 51.80 51.61 51.93 51.76 52.35 52.90 53.04 53.62 53.19 53.03 52.93 53.13 53.64 53.87 54.34 54.97 55.22 54.48 54.09 54.23 54.43 54.86 53.74 52.08 52.10 51.45 50.36 49.59 47.82 47.28 45.82 45.39 44.25 43.43 42.03
50.08 52.30 53.03 53.33 52.82 51.92 50.79 51.02 51.47 51.51 51.37 51.60 51.76 51.81 53.29 54.01 54.72 55.05 55.07 54.56 54.47 54.44 55.44 56.11 56.22 55.58 55.04 54.38 53.67 53.81 51.54 50.60 50.24 49.19 49.12 48.61 47.17 44.76 43.96 43.54 42.79 41.96 40.90
49.57 51.55 53.13 53.54 52.34 51.73 50.62 50.44 51.19 51.66 52.55 53.31 53.99 54.20 55.25 55.58 55.67 55.95 56.26 56.52 55.37 55.46 55.72 56.16 56.08 55.67 54.96 53.43 52.69 51.48 49.86 49.48 47.89 47.67 47.37 45.98 45.08 43.17 43.02 42.20 41.07 40.81 40.32
48.28 49.88 50.98 51.94 53.15 52.55 52.22 51.59 51.64 51.84 52.93 54.08 54.73 54.79 55.32 55.54 55.56 55.42 55.73 55.61 55.58 55.49 56.04 56.50 56.08 56.04 53.49 52.05 51.65 51.05 49.14 48.66 48.37 46.99 46.46 45.78 43.97 42.34 41.70 41.31 40.70 40.52 40.97
47.47 48.18 49.60 51.21 52.44 53.18 53.41 53.24 53.07 53.23 53.45 54.19 54.58 54.64 55.55 55.94 55.60 54.11 53.96 55.07 55.63 55.98 56.14 56.28 54.82 52.83 51.20 50.48 49.43 48.50 47.06 46.82 47.11 46.97 46.30 44.27 43.08 41.76 41.43 41.14 40.08 40.02 38.08
45.82 46.94 47.88 48.91 51.15 51.32 52.32 53.23 53.40 54.02 54.37 54.71 54.81 54.68 55.60 56.09 55.46 54.25 54.31 54.21 54.45 55.45 54.87 52.20 50.19 48.56 48.00 47.24 47.02 46.46 45.18 44.35 44.64 44.59 44.14 43.11 41.71 39.55 39.48 40.64 34.56 33.51 32.17
45.24 46.43 47.50 47.79 48.43 49.50 50.37 51.25 51.71 52.81 54.23 54.30 54.26 55.03 54.05 54.22 54.03 52.60 51.69 51.69 50.77 50.23 49.79 48.76 47.91 46.52 45.30 40.55 41.62 43.86 44.51 44.57 43.25 39.74 36.76 35.84 35.04 34.13 33.95 33.53 32.73 31.55 28.80
45.33 47.05 48.47 50.06 51.56 50.73 49.89 49.93 51.72 50.62 53.02 53.42 53.24 52.69 51.30 50.29 49.27 48.54 47.64 47.09 46.03 45.63 44.38 44.54 44.31 43.44 43.04 41.09 40.94 40.61 43.11 41.72 38.76 35.44 33.34 32.43 32.19 31.60 30.46 29.73 29.22 28.69 28.94
45.83 45.55 47.69 49.08 50.00 50.30 49.86 51.32 52.86 51.95 51.65 51.32 50.38 49.86 49.55 47.96 47.06 46.68 45.79 44.00 43.98 43.41 43.04 42.68 42.85 42.37 40.59 38.57 37.99 36.97 36.32 33.82 32.76 32.21 31.18 30.42 29.40 29.34 28.84 26.65 26.34 26.24 27.01
47.75 46.48 47.51 48.86 50.61 51.14 51.25 51.27 51.06 50.61 50.27 49.24 48.84 48.90 48.39 46.61 46.03 44.29 43.04 42.70 42.27 42.09 42.07 42.54 42.13 40.63 38.15 36.29 35.17 34.09 31.69 29.95 28.98 28.83 28.97 28.25 27.87 28.58 28.73 26.50 26.20 25.89 26.53
46.53 47.78 49.35 50.14 49.93 50.06 50.95 50.28 49.51 49.26 48.14 48.21 47.58 47.51 47.35 46.14 43.84 42.24 41.89 42.60 42.57 41.29 38.53 37.08 38.27 36.85 35.79 35.13 34.18 31.97 29.60 27.24 26.37 26.49 27.07 27.48 26.91 27.57 28.62 27.02 25.49 23.84 23.71
48.15 48.76 49.40 49.51 49.48 50.76 50.78 49.02 48.84 47.80 47.61 46.95 46.29 45.86 44.84 43.36 42.56 41.77 42.08 41.58 37.23 34.35 32.42 30.74 31.12 31.54 32.23 32.51 32.63 31.64 28.92 27.24 26.07 24.62 23.53 24.02 26.73 27.78 28.15 26.31 24.98 23.53 23.13
48.68 48.48 48.22 48.55 49.67 50.51 50.07 48.44 46.81 46.67 46.40 45.44 43.86 42.86 42.60 42.30 41.40 39.76 38.44 36.85 34.15 31.49 29.77 28.71 27.61 27.96 28.95 29.96 29.59 28.92 28.01 27.66 25.38 24.07 23.75 24.75 26.59 27.54 26.16 24.66 24.31 23.25 21.70
48.91 48.25 47.51 46.95 47.74 48.61 48.91 45.93 45.52 45.03 43.80 42.41 40.95 40.13 39.37 39.41 39.24 37.18 35.28 33.66 32.80 30.72 29.37 28.26 26.42 25.13 25.56 26.58 27.84 26.74 25.86 25.64 24.68 24.81 24.66 25.24 25.83 25.82 24.14 23.50 22.82 21.55 19.85
46.53 47.11 46.90 45.69 44.46 44.83 43.94 43.13 43.30 43.18 41.41 38.63 37.28 36.78 34.79 33.49 33.52 33.54 33.75 32.98 31.53 30.02 28.81 27.61 25.50 24.03 22.93 22.98 23.52 23.59 24.40 25.14 24.55 23.87 24.14 23.53 24.15 22.79 22.11 21.88 20.97 19.97 18.96
43.84 43.92 43.32 42.16 41.87 42.16 41.54 41.31 40.60 40.28 37.59 36.24 34.67 32.67 31.99 30.72 28.69 28.18 29.17 29.16 29.56 31.00 28.99 27.10 25.54 23.31 22.43 23.17 24.76 24.48 23.48 23.71 24.26 22.92 22.44 20.57 19.78 18.97 19.12 18.99 18.24 18.04 17.19
39.53 38.41 37.84 36.24 34.48 33.87 34.35 36.25 37.33 36.31 33.35 30.06 28.05 27.98 28.01 27.21 26.80 26.24 26.10 29.78 29.71 30.32 29.73 28.77 26.71 26.47 26.08 26.02 25.48 25.11 24.89 24.71 24.36 21.25 18.80 15.94 15.23 15.70 16.60 16.18 15.57 16.00 15.14

GFSMW_sfc_wetblb_081.txt.gz
Wetbulb
57.45 57.58 56.37 56.42 56.35 57.47 57.98 57.33 56.44 57.01 58.03 57.48 57.78 57.78 57.40 58.50 58.57 58.88 58.26 58.60 58.15 57.30 56.89 57.08 56.23 55.82 56.19 56.07 55.94 54.69 53.64 51.94 52.27 51.09 51.36 51.37 51.90 52.16 52.76 53.76 53.13 53.45 56.17
55.52 55.84 56.08 56.23 55.72 56.55 57.60 57.64 57.02 57.17 57.56 57.70 58.06 58.13 57.80 58.62 58.51 58.70 58.03 58.41 58.94 57.88 57.43 57.55 56.56 56.87 56.84 56.92 55.79 55.18 53.82 54.65 53.44 52.51 52.51 51.12 52.00 51.93 52.39 52.39 52.06 51.04 50.69
55.38 55.49 55.25 55.48 55.33 56.01 57.07 57.36 57.18 57.37 57.43 58.23 57.58 57.24 57.32 57.38 57.12 57.28 57.01 58.89 58.69 58.55 58.38 58.23 57.88 57.74 57.89 57.09 56.71 56.16 55.86 54.53 53.74 54.33 54.99 51.19 50.94 52.19 53.34 52.24 51.62 51.13 49.79
56.84 56.44 54.91 55.10 55.18 55.82 57.50 57.64 57.52 57.23 57.47 57.70 57.22 56.37 55.84 55.26 56.69 56.52 57.11 58.25 59.64 58.67 58.61 58.66 58.51 58.48 58.36 57.95 57.62 56.99 56.81 56.34 54.34 52.88 53.51 54.45 54.40 52.21 51.88 50.40 52.73 52.42 51.55
56.92 56.57 55.63 55.76 55.12 55.73 56.41 57.07 57.48 57.47 57.47 57.42 57.32 56.60 56.32 57.06 57.69 57.43 58.34 59.33 59.90 59.45 58.69 59.19 59.38 59.26 58.85 58.79 58.58 57.60 56.35 57.01 56.76 55.02 53.67 52.99 53.10 52.84 52.41 50.53 49.30 51.19 51.13
56.20 57.41 57.45 56.80 54.37 55.35 55.36 56.36 56.41 57.59 58.12 57.67 58.05 56.72 57.44 57.67 56.71 56.65 58.14 58.83 59.63 59.92 60.63 60.08 59.72 60.03 59.78 59.13 58.83 58.83 57.96 57.30 56.86 56.80 55.02 54.56 52.66 50.65 50.57 48.45 49.27 51.98 53.52
55.35 56.11 55.71 53.93 53.69 53.92 53.88 54.84 55.35 56.15 57.68 57.05 56.79 57.65 57.54 58.05 57.85 58.29 58.69 58.69 58.56 58.69 59.80 60.28 60.51 60.23 60.40 60.15 60.17 59.33 58.28 58.03 57.45 57.21 56.41 54.66 51.94 52.66 50.92 49.60 51.13 48.26 51.03
54.91 55.77 56.20 55.78 54.74 53.29 53.17 53.90 55.39 56.20 56.97 57.18 56.33 56.36 57.64 57.19 57.26 57.48 58.11 57.91 58.86 58.82 59.56 59.78 60.40 60.21 60.49 60.36 60.30 60.49 59.81 59.36 58.57 57.66 56.93 55.70 51.35 51.67 51.74 50.94 49.39 43.40 45.61
53.89 55.19 56.08 56.40 56.07 54.89 53.89 54.24 55.93 56.63 56.88 57.04 57.75 56.97 56.78 57.43 56.98 57.20 57.97 58.41 58.38 57.83 58.48 59.37 59.46 60.08 60.32 60.19 60.45 60.21 59.47 59.02 59.05 58.26 57.42 54.25 54.99 53.72 51.73 51.62 50.20 48.69 42.91
53.49 54.82 55.65 56.01 56.42 56.11 55.62 55.71 56.20 56.13 56.47 57.08 57.42 57.20 57.01 57.60 57.63 58.05 57.52 57.63 58.50 58.33 58.20 58.32 58.94 59.41 59.93 60.13 59.77 58.95 59.36 58.01 57.11 56.66 55.76 54.90 53.20 51.79 50.26 49.27 48.45 50.06 48.66
53.12 54.68 55.86 56.65 56.53 56.58 55.62 55.12 55.67 55.59 55.82 56.02 56.68 57.20 57.27 57.64 58.11 57.65 57.78 57.95 59.17 58.69 58.28 58.34 58.75 59.16 59.20 59.17 58.40 57.65 56.26 55.72 55.52 53.33 51.72 51.82 52.68 49.71 48.09 48.43 46.34 47.30 45.88
53.71 55.23 55.85 56.22 56.00 55.90 55.36 54.93 55.55 55.34 56.38 55.98 55.86 56.08 56.86 57.44 57.33 56.21 57.50 59.05 58.60 58.77 57.94 58.21 58.09 58.57 58.01 57.35 55.62 55.86 54.75 53.11 52.22 51.70 51.05 51.31 48.17 46.10 45.32 45.47 44.06 44.49 45.23
52.51 54.80 55.63 55.39 55.54 55.67 54.97 54.89 55.14 55.88 55.88 55.94 55.11 54.44 55.04 55.26 55.41 55.87 57.06 59.02 58.83 58.42 57.65 57.65 57.77 58.14 58.27 58.02 55.76 55.38 54.34 52.69 52.61 52.13 50.59 49.16 46.18 44.44 44.19 43.68 44.40 42.16 41.82
51.03 53.58 55.10 55.86 55.90 55.69 55.41 54.83 54.94 55.91 55.83 54.92 55.15 54.90 54.91 56.01 55.65 55.57 57.23 58.48 58.57 58.36 58.24 57.98 57.38 58.25 58.38 57.10 55.60 54.40 53.29 52.06 51.06 49.58 48.71 47.49 46.13 43.99 43.47 42.50 42.21 43.01 41.31
48.92 51.40 53.66 55.10 56.01 55.77 55.41 55.35 55.35 55.17 55.50 55.31 55.25 55.38 56.63 56.67 57.17 57.65 57.69 58.48 58.40 58.26 58.75 58.41 58.18 57.97 56.04 53.57 52.44 51.84 49.55 48.46 46.52 45.52 44.96 44.65 44.30 42.46 42.10 43.06 40.58 40.29 36.18
48.79 50.31 51.49 52.79 54.11 54.83 55.71 55.50 55.26 55.17 55.42 54.98 55.17 56.09 56.54 56.96 57.18 57.52 57.73 56.99 56.86 57.40 57.76 57.01 55.50 51.78 50.49 44.93 43.85 46.89 46.86 45.49 44.15 39.56 39.01 37.44 36.67 35.64 35.32 34.65 34.21 35.08 33.33
49.44 49.08 51.25 52.22 53.13 54.47 55.22 55.42 55.74 56.25 55.63 55.23 55.56 56.00 56.57 56.34 57.10 56.87 54.76 55.00 54.74 52.03 50.06 48.27 47.69 46.40 44.94 40.22 41.11 40.93 44.90 43.09 39.04 36.32 34.92 33.81 33.14 33.77 31.28 30.48 30.11 29.99 29.48
50.25 49.95 49.95 51.91 53.63 54.24 54.49 55.53 55.57 55.71 55.71 55.78 55.94 56.33 55.89 54.69 51.73 51.19 50.60 47.58 46.73 46.03 45.05 44.36 43.79 42.94 40.66 38.69 38.28 37.36 37.98 36.00 34.28 34.00 33.04 31.64 30.93 30.55 29.39 28.17 27.43 28.26 28.91
50.75 51.51 51.75 51.83 53.33 53.93 53.86 54.31 53.95 54.71 54.71 53.81 52.62 52.25 52.09 50.12 49.35 47.85 45.41 44.46 43.81 43.29 42.93 43.11 41.84 39.15 36.66 35.83 35.24 34.83 32.81 30.83 29.72 30.06 30.54 29.87 29.16 29.60 29.72 28.13 27.57 27.58 27.92
48.62 48.76 50.45 52.27 53.25 53.26 54.13 53.21 52.24 51.93 50.71 50.60 50.58 50.92 50.34 48.81 46.61 44.14 43.36 43.48 42.38 39.74 38.70 37.32 37.55 35.77 34.66 34.51 33.92 32.92 30.86 28.36 27.17 27.41 27.63 28.40 28.32 28.88 28.69 28.49 27.77 26.65 27.40
50.58 50.64 51.46 51.55 52.63 53.32 53.40 51.73 51.26 49.54 49.08 48.57 47.54 46.88 45.99 44.43 43.62 42.98 42.17 39.05 36.62 34.18 32.67 31.43 31.90 32.58 33.07 32.90 32.95 32.14 29.75 28.16 26.55 25.42 25.03 26.93 28.30 29.24 28.00 27.63 28.14 26.12 26.53
49.10 50.41 50.67 50.23 51.04 52.14 51.91 50.31 47.95 47.45 46.93 45.69 44.10 43.41 42.99 42.45 41.96 39.60 37.39 35.91 34.12 31.79 30.28 29.33 28.69 29.26 29.62 30.47 30.62 30.29 29.57 28.98 26.86 24.86 25.35 27.21 28.33 28.10 26.27 26.36 24.86 22.96 23.59
47.97 48.41 48.24 48.57 49.76 50.24 49.45 46.16 45.43 44.96 43.70 42.21 40.79 40.31 39.95 39.32 38.68 37.03 35.24 33.79 33.40 31.56 30.38 28.75 26.86 26.15 27.04 27.13 27.67 27.23 27.17 26.90 26.56 27.45 26.82 26.84 27.54 25.90 25.04 24.06 22.76 22.26 24.11
47.02 46.10 45.67 44.46 43.62 45.19 45.80 44.98 44.06 43.42 41.68 39.76 38.61 37.65 35.98 34.58 34.56 35.08 34.81 33.49 32.34 31.11 29.88 28.04 25.74 24.38 24.03 24.26 25.34 26.48 27.68 26.23 26.32 25.89 25.92 25.89 25.38 24.64 24.04 24.28 23.58 23.73 23.00
44.72 44.95 43.23 41.82 41.43 41.97 41.87 42.70 42.44 42.48 39.17 37.21 35.49 33.69 32.47 31.20 29.54 29.71 30.44 30.27 31.09 32.13 29.24 27.44 26.44 26.06 26.64 26.65 27.29 26.92 26.05 26.82 25.46 25.92 25.76 24.91 24.15 23.33 23.14 22.80 21.71 22.15 21.29
38.16 36.95 35.43 34.30 34.08 35.39 36.15 37.57 38.99 37.90 34.74 32.04 31.63 31.01 30.07 29.48 29.44 28.16 27.58 30.71 30.55 30.55 29.95 29.65 29.27 28.06 27.60 27.12 26.24 26.01 25.82 25.46 24.23 24.68 23.63 22.39 21.64 20.73 20.33 20.46 20.22 20.19 18.74

GFSMW_sfc_wetblb_087.txt.gz
Wetbulb
61.41 62.69 63.28 62.85 62.96 62.41 59.80 59.32 58.24 58.39 59.66 58.46 57.40 56.86 56.38 57.06 56.82 56.57 57.42 57.47 58.55 58.07 57.78 56.79 57.39 56.64 56.60 57.30 59.11 59.37 58.57 57.08 58.38 55.63 55.72 56.59 58.00 58.47 58.94 59.86 59.60 59.41 60.08
60.35 61.69 62.38 61.74 61.94 61.29 60.46 58.59 58.47 58.54 58.93 58.94 57.95 57.21 56.55 56.71 56.80 56.97 57.71 58.39 57.68 57.55 59.22 59.51 58.29 58.66 57.97 58.02 58.76 59.38 57.50 56.73 58.24 55.11 55.81 53.39 54.35 56.45 57.36 58.04 57.88 59.79 59.72
59.68 61.04 61.57 61.02 60.37 60.31 59.69 58.55 58.57 59.15 59.88 59.57 58.84 57.59 57.41 57.46 56.92 56.39 55.77 57.36 57.48 57.34 58.73 61.28 59.51 59.82 59.21 58.87 60.34 60.78 59.12 57.11 57.84 58.84 57.67 54.97 54.09 56.68 57.59 57.71 57.89 59.34 58.36
60.21 61.64 61.80 61.15 60.97 61.44 60.31 60.69 59.41 58.62 59.54 59.87 58.11 56.36 54.63 53.99 55.66 55.37 55.93 57.53 58.99 57.82 56.82 58.48 59.99 59.14 59.83 60.29 60.51 61.42 61.58 60.94 57.67 58.40 58.15 59.78 58.95 55.37 54.71 57.92 58.40 58.87 58.08
59.54 61.33 62.09 62.07 62.59 62.80 59.88 60.29 59.51 58.45 58.75 59.58 58.42 57.23 55.01 54.97 55.58 55.73 56.25 58.25 59.39 59.74 58.86 58.35 60.32 61.98 61.81 62.02 62.56 62.35 60.99 60.87 59.92 58.97 58.53 58.31 58.11 59.36 55.76 53.25 56.29 57.44 58.22
59.14 61.30 63.17 63.11 62.82 62.78 61.12 59.86 58.94 58.18 58.60 58.50 58.29 57.36 56.25 55.44 55.69 55.33 55.64 57.14 57.62 58.13 58.65 59.78 61.85 61.96 62.32 62.37 62.93 62.97 61.91 61.84 61.76 60.67 61.02 59.23 57.44 56.44 56.47 55.32 56.93 56.05 57.43
58.48 60.52 62.22 62.06 62.46 61.70 60.64 58.98 58.43 57.57 58.05 58.26 58.65 58.05 57.19 56.38 57.18 55.78 55.82 54.70 55.49 56.44 58.16 60.25 62.31 61.90 62.66 62.51 62.60 62.65 62.38 62.60 61.59 61.98 60.91 61.47 60.44 60.35 60.00 57.97 57.30 56.67 58.28
58.41 60.18 62.12 62.51 62.17 61.85 60.29 58.15 57.97 57.96 58.41 58.08 58.66 59.20 58.58 56.80 57.51 57.96 56.46 54.98 55.35 56.71 59.30 62.06 62.14 62.28 62.59 62.47 63.18 62.93 63.21 63.56 63.23 63.06 62.42 61.70 61.62 61.61 60.90 58.69 57.07 53.00 53.83
57.72 59.43 61.62 62.73 62.55 62.05 60.87 59.79 57.80 58.33 58.62 58.73 58.85 58.68 59.11 59.71 59.02 58.07 57.64 56.23 56.38 56.49 57.85 62.46 61.33 62.55 62.86 63.27 63.31 63.11 63.36 63.64 63.83 63.65 63.18 62.33 62.57 62.69 61.72 60.32 58.69 54.65 49.91
56.72 59.27 60.78 62.70 63.16 62.42 62.04 61.19 60.34 59.53 59.31 59.48 59.60 59.79 60.86 60.79 60.98 60.54 58.72 59.46 57.92 59.50 60.38 61.57 62.58 62.45 63.18 63.80 63.16 62.95 63.53 62.88 63.32 62.97 62.87 62.38 62.65 62.34 62.00 61.35 59.02 55.23 52.23
56.72 58.73 60.70 62.58 63.31 62.76 62.46 61.13 60.42 60.18 60.76 59.62 59.73 59.86 60.04 61.62 62.24 61.70 61.06 61.40 60.37 61.19 61.27 61.81 62.16 62.36 62.89 63.34 62.48 62.62 62.64 61.82 62.22 62.32 61.98 61.65 62.39 61.24 61.11 57.95 55.74 54.16 52.37
57.93 58.84 60.91 61.96 62.40 62.22 62.37 61.27 60.54 60.17 62.20 62.22 61.12 60.65 60.03 60.36 60.61 62.46 62.92 62.90 61.97 62.29 62.04 61.94 62.18 62.11 62.15 62.30 62.04 61.62 61.53 61.39 61.07 61.35 60.97 60.32 59.96 59.02 57.52 54.96 53.11 51.83 52.19
57.85 59.32 60.56 60.98 61.87 62.03 62.07 61.53 60.79 60.99 61.81 62.21 62.83 62.76 62.17 61.56 61.82 62.22 63.16 63.23 62.97 62.58 62.67 62.32 62.20 62.15 62.06 61.85 61.99 61.48 61.24 61.40 61.18 60.74 60.48 59.24 57.67 56.63 55.42 52.23 51.70 50.92 50.00
55.89 58.39 59.88 60.68 61.44 62.05 62.27 62.01 61.59 62.22 62.26 61.64 61.69 62.04 62.69 62.84 63.00 62.71 61.75 61.73 61.65 61.98 62.00 62.43 62.46 62.31 61.96 61.45 61.42 60.74 60.93 61.05 60.83 60.51 58.97 58.42 56.89 55.58 54.35 50.80 49.70 46.95 44.82
54.28 55.70 58.63 60.47 61.10 61.42 62.46 62.72 62.64 62.31 62.42 61.24 61.01 61.61 62.78 62.55 62.58 62.78 62.80 61.59 60.77 61.67 62.25 61.88 62.04 62.14 61.49 60.90 61.42 60.90 60.53 60.37 59.36 58.09 56.02 52.89 51.49 47.22 47.87 47.59 46.00 44.55 42.40
54.42 55.19 56.21 59.07 60.62 60.92 61.21 62.66 62.76 62.78 62.55 61.70 61.41 61.37 61.70 61.31 62.35 62.50 62.47 62.46 62.04 61.87 61.96 61.37 61.50 61.39 60.27 50.05 46.21 52.33 59.82 57.68 55.13 45.13 40.87 39.90 40.08 37.87 37.67 37.23 37.14 40.72 39.88
54.30 55.27 55.78 56.56 58.81 61.46 61.77 61.79 62.30 63.35 62.42 61.59 61.11 60.84 60.76 60.30 61.30 60.92 60.55 61.04 60.95 61.33 60.95 60.96 60.84 60.57 60.46 42.62 42.62 42.80 49.34 45.49 41.59 38.60 36.71 35.50 35.09 35.21 34.32 33.95 33.66 33.26 33.34
54.86 55.66 55.51 56.18 57.41 59.14 62.29 62.17 62.54 62.13 62.27 61.71 61.20 61.36 60.94 60.17 60.32 60.15 60.30 60.90 61.09 59.88 58.91 57.85 56.10 50.88 43.68 41.15 41.03 39.23 38.97 36.55 35.88 35.13 34.46 33.60 32.87 32.77 32.64 31.34 30.13 30.04 30.47
56.30 56.78 57.08 57.53 56.85 57.01 59.08 61.96 61.83 61.47 61.12 60.75 61.10 61.33 61.32 60.60 60.86 60.45 60.77 61.24 59.29 51.97 48.74 46.72 43.10 39.55 37.08 36.40 36.28 36.16 34.66 32.70 31.81 32.62 33.06 32.98 31.96 32.08 32.98 30.21 28.75 28.29 28.36
56.93 56.51 57.19 57.15 56.89 56.92 58.21 59.40 60.26 60.80 59.86 60.58 60.54 61.36 61.20 60.74 60.36 60.69 54.45 51.46 48.04 41.98 38.95 36.56 37.03 35.60 34.99 34.91 35.08 34.54 32.88 30.60 29.45 29.81 30.11 31.05 29.95 30.16 31.23 30.16 29.96 28.70 29.30
55.60 56.63 56.80 56.16 56.72 57.56 57.59 57.46 58.86 59.81 60.71 61.01 60.77 60.60 60.32 59.31 53.44 48.13 45.18 41.22 37.98 36.47 34.90 32.89 32.97 33.33 33.66 33.69 33.84 33.39 31.25 29.72 28.31 28.00 27.90 29.36 29.51 29.56 30.27 30.68 29.97 26.87 31.21
54.35 54.62 53.06 52.57 54.77 56.59 56.76 56.22 55.09 53.50 53.17 50.68 48.07 46.44 45.16 44.05 43.17 40.43 38.15 37.17 36.86 33.40 30.84 29.63 28.82 29.89 31.20 31.92 31.79 31.18 30.19 29.75 27.52 26.85 28.20 29.18 28.71 28.17 28.87 26.82 25.24 25.49 27.59
51.52 50.92 48.80 47.00 46.82 50.64 51.15 46.99 46.35 46.42 44.71 42.69 41.18 40.12 39.56 39.14 38.82 37.82 37.02 34.84 33.15 31.25 30.08 28.28 26.94 26.74 28.17 28.97 30.11 30.22 30.24 29.93 28.96 29.63 29.48 28.77 27.72 26.80 26.59 25.01 24.05 25.35 28.47
47.09 45.94 43.99 42.13 42.15 43.43 44.21 43.84 42.59 41.36 38.98 36.78 35.97 35.40 34.89 34.43 35.97 35.68 34.46 33.15 31.74 30.20 28.82 27.25 25.63 25.78 27.14 27.98 28.72 28.84 29.01 28.57 28.10 28.77 29.75 28.81 28.17 25.58 27.00 26.64 26.92 28.21 27.12
40.74 41.01 39.43 37.42 36.86 40.20 40.30 40.30 39.30 38.13 35.34 34.31 33.45 31.90 31.18 31.29 29.62 29.84 30.58 29.97 30.46 30.39 27.84 26.96 27.50 27.04 26.10 28.50 30.50 31.36 31.30 30.71 29.86 29.48 29.45 29.40 29.08 28.40 28.16 27.98 27.45 27.23 26.11
36.14 35.19 34.32 34.45 33.88 33.76 34.18 37.76 37.75 36.33 34.03 32.15 31.44 31.03 30.17 29.27 28.68 27.79 27.34 30.38 30.16 30.48 29.93 29.15 27.51 27.81 28.45 28.32 27.46 27.10 26.99 26.83 27.15 29.27 28.11 27.20 26.46 25.19 24.71 24.32 23.73 23.99 23.25

GFSMW_sfc_wetblb_090.txt.gz
Wetbulb
59.89 62.05 62.79 62.57 62.52 61.43 59.89 58.13 58.02 59.38 59.12 57.46 56.18 55.57 54.92 55.51 55.98 56.30 56.53 56.44 56.42 56.56 56.39 56.48 56.06 55.87 55.46 55.95 56.18 56.37 55.78 54.26 56.02 53.24 53.67 53.71 55.42 55.94 55.89 56.28 56.16 56.57 57.32
58.27 60.88 61.96 61.52 61.80 60.45 59.18 58.21 58.40 59.09 58.80 57.99 56.97 56.13 55.30 54.93 55.13 55.71 55.82 55.73 56.12 56.30 56.16 55.60 54.82 54.38 54.22 54.76 55.76 55.53 54.05 54.08 54.41 51.81 51.79 48.71 50.73 52.78 54.40 54.82 55.69 55.34 55.87
57.52 59.87 61.04 60.54 61.54 59.81 58.27 58.10 57.75 58.88 58.72 58.11 56.97 56.49 55.42 54.68 53.72 53.99 54.70 55.48 56.05 56.37 56.19 55.25 54.88 54.80 54.62 54.78 55.47 56.24 53.75 52.03 53.85 55.11 53.25 51.31 49.65 49.96 52.66 53.19 53.44 53.21 54.74
58.22 60.13 61.01 60.34 60.38 60.50 59.06 58.30 58.67 58.73 58.87 57.95 56.11 54.81 53.12 51.71 53.18 53.35 54.22 55.57 56.34 55.83 56.03 55.59 56.43 55.54 56.11 56.43 56.73 58.29 56.05 55.74 52.93 53.86 56.11 55.42 55.32 52.56 50.71 52.81 53.56 54.06 54.22
56.61 59.63 60.91 61.02 60.83 60.89 58.88 58.14 58.56 58.67 58.82 57.77 56.71 54.59 53.34 54.11 54.80 54.54 54.07 54.05 54.91 55.66 56.21 58.29 57.91 57.52 57.41 57.61 57.41 57.98 58.74 57.74 56.90 54.67 53.91 53.83 53.92 54.66 52.48 49.86 51.48 53.52 53.71
56.88 60.23 61.97 61.99 61.15 61.49 59.31 58.14 57.60 57.91 58.83 58.38 56.92 55.31 53.98 54.07 54.05 53.11 53.20 54.43 54.96 56.28 56.16 57.27 57.38 57.88 57.77 58.27 58.91 58.77 58.51 58.03 57.47 57.30 56.52 55.31 53.71 53.00 52.34 50.87 51.57 52.08 53.34
56.86 58.47 61.07 60.74 60.79 60.45 58.92 58.23 57.79 56.63 57.99 58.26 57.73 55.74 54.70 54.35 54.24 53.28 53.20 53.73 54.62 56.16 57.18 57.36 56.62 57.65 58.80 59.27 59.94 58.80 58.74 58.25 57.44 57.33 56.59 56.99 56.36 56.21 54.82 53.29 52.11 52.15 54.09
57.53 58.42 61.16 61.15 61.16 60.89 59.31 57.77 57.85 57.09 57.79 58.12 57.92 57.42 56.00 55.18 55.16 54.43 54.55 54.78 54.97 55.66 57.06 57.63 58.04 58.16 59.08 59.46 59.14 58.89 58.93 58.90 58.49 57.95 57.92 57.42 57.25 56.87 56.04 54.45 52.70 50.24 51.06
56.95 57.65 60.98 61.63 61.06 60.96 59.71 58.14 57.52 57.73 57.55 57.49 58.13 57.99 57.36 56.08 55.65 55.45 55.79 55.51 55.64 56.19 56.62 57.57 57.87 58.65 58.99 59.25 59.03 58.55 58.85 58.92 59.33 59.22 59.16 58.68 58.23 57.88 57.60 56.96 56.02 53.55 50.44
55.57 57.49 59.77 61.65 61.66 61.56 60.29 58.90 57.93 57.63 57.75 57.92 58.00 58.24 58.08 57.29 57.08 57.36 55.59 55.59 55.53 55.61 56.04 56.87 57.70 57.88 58.58 59.40 59.21 58.66 58.94 59.07 59.50 59.83 59.42 58.67 58.81 58.49 58.63 57.96 56.42 55.49 54.32
56.17 57.49 59.25 62.11 61.71 62.19 60.39 59.05 58.27 57.86 57.70 57.95 58.11 58.32 58.45 58.00 57.02 57.34 57.67 56.60 56.07 55.70 55.62 56.27 56.72 57.96 58.27 58.63 59.10 59.31 58.97 59.15 58.84 59.17 58.26 58.24 58.87 58.28 57.83 57.73 57.86 56.03 54.84
57.03 57.71 59.14 61.80 61.63 61.13 60.62 59.59 58.73 58.37 58.45 58.61 58.39 58.04 58.67 58.87 58.43 57.63 57.67 58.12 56.83 56.38 55.94 56.14 56.06 57.04 58.60 58.77 58.46 58.59 58.89 58.35 57.91 57.89 57.45 57.75 58.47 57.64 57.77 57.31 55.78 54.88 54.93
57.73 57.99 59.04 60.79 61.46 60.94 60.89 60.03 59.38 59.01 59.61 58.93 58.52 58.25 58.88 59.06 59.05 59.06 59.04 58.65 58.08 57.34 57.00 56.42 56.24 57.72 58.26 58.37 58.84 58.84 58.27 58.35 58.24 57.67 57.30 57.29 57.02 56.66 57.26 55.49 55.08 54.18 53.24
56.13 58.13 58.94 59.85 61.31 61.52 61.06 60.82 59.67 59.72 59.68 60.10 58.68 58.12 58.24 58.99 59.16 59.95 60.17 60.20 59.20 58.76 57.95 57.58 58.16 58.09 58.63 59.25 59.22 58.95 57.99 57.54 57.63 57.59 57.45 56.99 55.83 54.88 54.51 54.33 54.29 53.04 50.50
54.11 56.10 58.07 59.08 60.30 61.16 61.38 61.54 60.43 59.73 59.91 59.76 59.75 59.05 59.21 59.60 59.30 59.53 59.72 60.41 60.43 59.86 59.45 59.13 58.79 58.90 59.05 59.16 58.51 58.38 57.65 57.10 56.22 56.01 54.99 48.14 44.82 43.96 48.04 51.99 50.35 47.71 45.89
53.92 55.05 56.15 58.40 59.66 60.54 61.45 61.74 61.10 60.15 60.32 59.57 59.53 60.38 60.80 60.55 59.58 59.36 59.62 59.76 59.71 59.76 59.72 58.99 58.85 58.35 59.05 50.26 47.20 52.53 56.14 55.59 53.58 46.56 40.57 39.22 38.60 37.85 37.96 37.67 36.71 39.52 40.97
54.33 54.63 54.84 56.31 58.12 60.34 61.10 61.31 61.65 61.54 60.41 59.86 59.86 60.17 60.31 60.24 60.28 60.62 60.21 59.51 58.67 58.93 58.59 58.61 58.63 58.21 57.80 42.40 42.57 42.07 49.97 46.23 42.23 39.67 37.71 36.33 36.28 36.05 35.19 34.83 33.89 33.35 33.22
54.56 55.38 55.81 56.25 56.76 57.00 60.63 61.42 62.55 61.87 60.49 60.09 60.05 60.30 59.80 59.83 59.87 59.75 59.44 59.34 59.29 58.50 57.96 57.90 57.40 48.99 42.21 38.91 38.42 38.01 38.79 36.72 36.54 36.65 35.24 33.74 33.26 33.77 33.15 31.97 30.91 31.05 31.36
55.79 55.61 56.50 56.74 56.87 56.40 56.82 60.71 61.01 61.48 61.09 60.19 59.93 60.14 59.73 59.19 58.89 58.54 58.31 58.25 57.93 57.73 52.00 46.76 44.00 39.58 37.14 37.05 37.08 36.79 34.94 33.80 33.73 33.83 33.62 33.22 32.31 33.28 34.06 31.27 30.03 28.78 28.69
55.37 55.23 56.28 56.39 56.30 56.93 56.27 56.45 59.66 59.89 59.90 60.66 60.45 60.42 60.21 59.33 58.13 57.62 56.66 50.24 45.29 40.71 38.70 36.49 36.33 35.68 35.14 35.66 36.64 35.24 33.22 31.14 30.61 30.19 30.48 31.26 30.93 31.88 31.67 29.98 29.54 28.07 28.07
54.32 54.86 54.59 53.24 53.65 55.59 56.65 56.03 56.44 57.33 59.40 59.81 58.23 55.13 54.94 53.80 49.56 45.17 43.02 41.26 38.03 35.54 33.83 32.54 32.69 32.89 33.41 34.00 34.62 34.19 31.87 30.64 29.22 28.61 28.00 29.28 30.74 30.06 29.28 28.23 26.70 26.61 28.34
51.25 50.67 49.72 48.17 48.68 51.47 53.41 50.03 48.22 49.09 48.93 47.01 45.27 44.92 44.85 43.53 42.06 39.19 38.03 36.74 35.02 33.05 31.31 30.04 29.31 30.33 30.99 31.95 32.24 31.97 31.33 30.64 28.65 27.62 27.69 28.18 29.42 28.03 27.10 26.12 27.37 28.34 28.63
45.73 45.46 44.01 42.92 42.94 44.12 45.58 45.48 43.78 43.68 42.45 40.99 39.98 39.85 39.60 38.81 39.12 37.87 36.73 33.92 32.39 30.37 28.95 27.88 27.01 27.36 29.09 29.73 31.08 30.76 30.45 30.20 28.57 28.44 28.56 28.92 28.41 27.26 26.09 26.90 27.68 27.55 26.05
38.59 39.24 38.47 36.34 36.06 39.43 39.33 38.87 39.05 39.15 37.50 36.62 35.03 34.38 33.83 34.02 34.57 34.20 33.56 32.24 30.65 29.29 28.26 27.22 26.29 26.87 27.65 28.00 28.67 28.48 28.81 29.74 28.97 28.54 28.83 28.41 27.49 27.36 25.89 26.35 27.41 26.08 24.26
35.51 35.09 34.82 34.69 34.54 35.53 36.02 36.67 36.21 35.60 33.28 32.46 31.68 30.74 30.34 30.04 29.70 29.89 29.84 29.39 30.00 29.89 28.10 27.85 28.08 26.67 25.87 28.16 30.19 29.92 29.15 28.81 28.51 27.77 28.44 28.13 27.62 26.27 25.65 25.39 24.96 24.40 23.74
32.77 32.85 32.81 32.81 33.20 34.14 34.10 34.22 34.25 33.99 32.25 30.44 29.81 29.28 28.77 28.20 27.90 27.18 27.01 30.09 29.55 29.90 29.41 28.76 26.95 27.51 28.56 29.05 29.39 29.39 29.45 29.96 30.56 28.15 25.42 24.02 23.83 22.76 22.54 21.81 21.18 21.31 20.10

GFSMW_sfc_wetblb_093.txt.gz
Wetbulb
55.01 58.24 58.98 58.19 57.93 57.48 56.77 56.63 56.85 58.86 58.10 57.04 56.13 55.77 55.09 55.59 56.17 58.10 58.94 60.20 61.28 60.66 59.88 59.00 58.23 58.77 57.37 55.79 55.33 54.98 54.05 53.15 53.34 52.21 51.97 52.96 54.06 53.81 54.49 56.01 55.30 55.48 55.61
54.30 57.53 57.78 57.76 57.50 56.27 56.39 56.39 57.22 58.69 57.73 57.11 56.71 55.90 55.12 55.32 55.38 56.08 56.26 57.07 58.28 58.89 58.06 57.13 56.14 56.72 56.07 54.46 54.16 54.82 52.73 52.51 53.39 51.10 49.95 47.24 49.31 51.44 53.33 53.55 55.32 54.93 56.05
54.05 56.76 56.98 56.86 56.71 55.78 55.66 56.35 57.56 58.59 57.87 57.48 56.15 55.20 54.73 54.42 53.60 53.38 53.92 55.60 56.83 57.68 57.01 55.67 54.46 54.29 54.24 53.65 53.50 53.74 52.59 51.32 51.27 52.96 50.45 47.53 46.16 47.96 50.31 51.07 52.49 53.36 53.37
56.48 57.17 56.70 56.53 55.84 55.92 56.33 56.80 57.73 58.39 57.69 56.87 55.26 53.43 52.57 51.77 53.18 53.14 53.66 54.66 56.02 55.86 55.58 55.03 54.49 54.17 53.59 52.79 53.82 55.21 53.07 51.39 49.98 51.22 55.31 54.44 53.94 48.62 48.32 50.16 51.12 51.34 52.28
56.50 56.77 56.67 57.24 56.33 56.29 56.04 56.25 57.72 58.05 57.21 56.32 55.29 53.53 52.21 52.41 53.42 53.50 52.98 53.86 54.91 55.65 55.15 54.97 54.69 54.51 54.28 54.02 54.38 55.01 54.19 53.84 52.37 51.70 51.83 52.16 52.87 53.22 50.99 48.11 48.97 50.50 51.60
56.42 57.56 57.89 58.02 56.39 56.20 55.83 56.46 57.32 57.58 56.94 56.04 55.05 52.58 51.63 52.20 51.87 52.22 52.66 52.93 54.09 54.30 54.53 54.68 54.51 54.31 54.82 55.99 55.92 56.28 56.00 55.87 55.33 55.26 54.60 52.78 51.16 50.84 50.76 49.03 49.46 49.19 50.73
55.66 57.09 56.56 56.64 56.49 55.65 55.36 56.12 56.89 57.30 57.12 55.92 54.67 53.84 53.82 53.43 52.62 52.29 53.08 52.30 52.52 53.45 54.32 54.59 55.23 55.83 56.21 57.35 56.58 56.72 57.26 56.95 56.31 56.34 55.39 55.71 54.28 54.08 52.74 51.15 49.96 49.75 51.96
56.07 57.33 57.24 57.07 56.96 55.90 55.59 55.76 56.35 57.11 57.18 56.23 55.16 54.32 54.77 54.51 53.63 52.95 53.47 53.24 52.76 52.94 54.42 55.29 56.52 56.63 56.54 57.13 57.34 57.47 57.45 57.16 56.77 56.70 56.40 55.92 55.47 55.14 54.80 53.20 51.10 47.82 48.88
55.30 57.56 57.68 57.89 57.39 56.22 55.74 55.52 55.65 56.71 57.45 57.32 56.03 54.89 54.75 54.69 54.07 53.23 52.74 53.87 54.20 54.41 55.10 55.13 55.33 55.75 57.40 57.80 57.73 57.41 57.11 57.10 56.93 56.74 56.52 55.72 55.90 55.86 55.22 54.59 53.62 51.53 47.71
54.17 57.80 57.94 58.03 58.18 57.08 56.40 56.10 56.15 56.21 57.05 57.66 57.29 56.03 55.25 55.08 54.94 54.46 52.87 53.97 54.12 54.97 54.74 55.73 55.75 55.80 56.30 57.41 57.55 57.26 57.32 56.92 56.55 57.58 56.78 56.78 56.41 55.86 55.66 55.14 55.14 55.12 54.47
50.39 54.10 58.36 58.62 58.99 57.94 56.31 56.00 56.04 56.59 56.50 57.29 57.67 57.34 56.18 55.57 55.32 55.06 54.14 54.98 54.60 55.43 55.18 55.34 55.23 55.47 56.66 57.50 57.08 56.18 56.68 56.93 57.07 56.99 56.26 57.18 56.16 56.71 56.12 56.06 56.47 55.62 54.94
51.33 52.49 58.70 58.60 58.37 57.54 56.29 56.00 55.93 56.27 57.05 57.43 57.34 57.44 57.52 56.88 55.30 55.19 55.29 54.96 54.60 54.34 55.22 55.47 55.61 55.87 56.26 56.83 57.34 56.73 57.15 56.60 56.50 56.66 55.51 56.74 56.81 55.64 56.71 56.18 56.11 55.72 55.86
51.82 52.75 58.49 58.06 58.35 57.51 56.71 56.17 55.92 55.71 56.77 57.33 56.94 57.30 57.48 57.18 56.11 55.30 56.06 56.03 55.10 54.29 54.48 55.00 54.63 55.51 56.35 56.91 56.94 56.71 56.60 56.76 56.90 56.93 55.90 56.48 55.64 55.85 56.11 54.98 55.58 55.30 54.09
52.25 53.11 57.41 57.91 58.58 58.16 57.37 56.86 56.55 56.65 56.63 56.86 56.76 56.65 57.08 57.49 57.17 55.88 55.93 56.42 56.25 55.03 54.35 54.35 54.18 54.39 54.93 55.88 56.87 57.05 56.48 56.63 56.77 56.67 56.33 56.65 55.62 55.65 54.95 54.25 53.88 53.66 53.08
51.83 53.17 53.84 57.64 58.28 58.04 58.12 57.80 57.25 57.06 57.23 56.80 56.41 56.13 56.91 57.31 57.88 57.85 57.31 56.60 56.37 56.38 56.16 55.10 54.59 54.30 54.54 54.81 55.64 56.38 56.40 56.30 55.90 55.30 52.22 45.49 43.70 41.65 44.75 50.84 51.68 51.21 49.29
51.65 52.15 53.13 55.18 58.46 58.55 58.33 58.41 57.67 57.41 57.90 57.52 56.41 56.83 56.83 57.08 57.37 57.64 57.97 57.69 57.22 56.93 56.33 56.00 55.03 54.56 55.27 49.06 46.43 51.92 56.39 55.00 54.61 46.96 41.11 39.61 39.01 37.64 37.43 37.20 36.44 40.45 42.54
51.84 52.44 53.13 52.97 53.02 54.62 58.66 58.42 58.29 58.25 57.61 57.07 58.03 57.62 57.42 56.89 57.29 57.55 57.40 57.49 57.67 58.43 57.58 57.22 56.87 55.81 55.58 46.32 45.72 44.65 53.79 50.80 47.10 42.56 38.50 36.99 36.89 36.38 35.70 34.83 34.54 34.21 33.90
51.87 52.34 52.84 53.15 53.19 53.46 53.71 54.88 59.06 58.35 57.47 57.29 57.37 58.49 58.39 57.65 57.66 57.74 56.98 56.98 57.12 57.06 57.55 57.84 57.57 53.43 42.72 39.58 39.56 39.66 41.11 38.99 38.46 37.42 36.52 34.80 34.35 34.71 34.23 33.19 32.01 32.07 32.46
52.27 52.11 52.53 52.08 52.25 52.40 53.94 54.47 55.36 58.68 57.97 57.47 57.71 58.03 58.31 58.27 58.43 57.85 57.36 57.47 57.43 56.80 53.43 47.44 44.12 40.98 37.76 37.21 37.07 39.34 38.17 35.46 34.04 34.41 33.88 33.49 32.62 34.00 35.00 31.57 29.40 28.52 29.10
49.69 49.26 48.74 47.77 46.74 47.24 51.38 52.20 50.29 52.59 55.90 57.89 58.40 58.28 57.75 57.48 57.33 57.13 54.61 46.81 47.21 40.52 38.61 36.33 36.69 36.00 35.33 35.88 36.28 36.00 33.79 31.21 30.38 30.72 31.02 31.92 31.49 31.84 32.05 30.33 28.77 26.58 27.04
45.70 46.66 45.34 43.24 43.16 44.07 48.40 45.75 45.75 45.15 46.78 46.64 55.58 56.94 56.32 56.74 53.96 47.52 44.07 41.18 38.14 35.70 33.45 32.32 32.94 33.61 34.33 34.59 35.06 34.83 32.49 30.19 28.78 28.66 28.71 29.66 30.16 30.02 29.62 29.58 28.67 28.16 29.37
41.90 42.19 41.32 40.18 40.85 41.00 42.90 41.13 39.94 42.43 43.18 43.41 43.32 44.26 46.53 44.80 43.43 41.15 39.29 38.33 35.91 33.24 31.45 30.28 29.63 30.70 31.81 33.06 33.32 32.84 31.83 30.92 28.04 27.49 27.70 27.98 28.52 29.28 29.44 28.87 29.00 28.27 27.66
37.75 38.80 37.81 37.78 38.42 39.00 38.44 36.77 36.72 37.94 38.86 38.87 38.32 38.32 40.32 41.20 41.45 38.06 34.88 33.76 33.78 31.73 29.86 28.88 27.87 28.31 30.07 30.72 31.58 31.23 30.03 29.27 27.44 28.51 28.81 29.35 29.27 29.22 28.81 28.51 27.41 26.33 25.77
34.66 36.31 36.54 35.50 35.41 36.90 36.66 35.54 35.01 34.30 33.15 32.22 32.59 33.98 33.69 32.78 33.52 34.43 34.96 33.22 31.87 30.36 29.11 28.14 26.87 27.03 27.49 28.24 29.32 29.06 29.10 29.76 29.04 29.12 28.88 27.72 27.37 27.42 27.51 26.85 26.28 25.30 23.58
33.14 33.21 32.40 31.73 31.75 34.34 34.83 34.97 34.18 32.95 30.55 29.83 29.56 29.40 29.53 29.17 28.43 28.84 29.36 28.51 29.67 30.45 28.41 27.87 28.30 27.19 26.92 28.86 30.27 29.82 28.54 28.33 27.88 27.21 27.59 26.99 26.15 24.88 23.96 23.59 23.12 21.99 20.88
29.97 29.60 29.70 29.60 29.74 30.87 31.88 33.93 34.18 32.79 30.44 28.53 27.95 27.33 26.91 26.83 27.79 26.59 26.53 29.90 29.28 29.92 29.68 29.49 28.63 29.06 30.13 30.86 31.30 31.31 30.82 30.60 28.91 25.87 23.39 22.09 21.89 20.99 20.55 19.54 18.81 18.61 18.46

GFSMW_sfc_wetblb_096.txt.gz
Wetbulb
50.32 57.37 57.81 57.77 57.52 57.35 56.79 56.55 56.90 58.14 58.38 57.64 56.62 56.47 56.25 56.64 57.96 59.99 62.07 62.35 62.67 61.25 59.21 58.20 56.90 53.78 56.16 56.25 55.44 54.42 54.01 53.13 53.34 52.37 52.43 52.62 54.74 54.67 54.98 55.51 54.70 55.04 54.79
52.85 56.22 56.43 56.77 56.57 56.14 56.31 56.26 57.04 57.27 57.59 57.49 56.88 56.24 55.84 55.61 56.60 57.10 58.58 61.88 62.38 61.35 59.39 57.94 57.36 55.13 56.93 55.52 54.85 54.27 51.87 52.37 53.47 52.24 50.09 48.19 49.84 51.76 53.55 54.22 54.17 53.92 54.81
52.84 54.96 55.66 55.58 55.66 55.36 55.34 55.84 56.52 56.89 57.35 57.03 55.92 55.14 54.72 54.39 53.85 54.61 55.67 57.46 61.17 60.63 60.05 57.86 57.80 56.99 56.32 55.10 54.88 54.39 53.51 52.27 51.54 53.40 50.33 46.68 46.17 48.62 50.81 52.28 53.62 53.64 53.82
54.22 55.63 55.61 54.98 54.94 55.08 55.64 56.18 56.83 57.06 57.08 56.06 55.20 53.94 53.13 52.07 53.24 53.59 54.36 55.91 58.43 59.87 59.14 58.06 57.62 56.78 56.29 54.51 54.59 54.04 53.04 53.27 51.37 50.54 54.07 53.09 51.07 47.63 46.35 50.13 51.42 53.16 53.41
53.32 55.09 55.45 55.30 55.28 55.08 55.32 55.94 56.85 56.82 56.64 55.30 54.89 54.12 53.15 53.48 53.35 53.09 53.64 54.53 55.69 57.17 57.58 57.25 56.49 54.90 54.87 53.81 54.55 53.32 52.90 52.36 51.60 50.71 51.50 52.12 52.64 53.09 49.90 46.61 48.28 50.20 51.69
53.38 55.85 56.48 55.93 55.24 55.14 55.24 55.44 56.33 55.77 56.25 55.57 54.77 54.10 53.18 52.78 52.38 52.30 52.70 53.85 54.98 55.18 55.52 55.45 55.33 54.92 54.21 54.12 53.80 54.86 53.67 53.61 52.64 52.81 52.43 52.03 51.43 51.06 50.99 49.51 48.65 48.66 49.57
52.06 55.07 54.91 54.30 54.74 54.34 54.42 55.12 55.74 54.63 55.76 55.16 54.37 52.17 52.24 52.15 52.46 52.46 52.55 52.80 53.29 54.00 54.17 54.74 54.38 54.31 54.47 55.20 55.34 55.05 55.53 54.47 53.67 53.69 52.94 54.18 53.28 53.81 52.71 51.12 49.22 49.32 50.40
54.44 55.16 55.24 54.69 54.66 54.47 54.52 55.24 55.46 54.74 55.47 54.65 53.92 52.55 52.11 52.74 53.11 53.37 53.26 53.01 53.30 54.04 54.16 54.28 54.57 54.33 54.78 54.92 55.93 55.56 55.30 56.23 55.31 54.69 55.06 55.01 54.97 54.63 53.14 51.39 49.43 47.16 47.95
54.64 55.32 55.82 55.40 54.91 54.53 54.69 54.97 55.50 55.51 55.48 54.85 54.67 53.25 53.22 53.12 53.42 53.19 53.49 53.15 52.80 53.87 53.38 54.07 54.37 55.30 54.75 55.14 55.85 55.36 55.33 56.17 56.09 55.53 55.78 55.40 55.79 55.08 54.62 53.67 52.88 50.19 46.25
55.18 55.83 56.09 55.91 55.68 55.35 55.51 55.20 55.91 55.77 55.76 55.46 55.12 53.91 53.72 53.54 53.97 53.56 51.97 52.66 52.42 53.77 53.87 54.10 54.81 55.66 55.12 55.56 55.94 55.61 55.87 56.01 55.98 56.19 55.44 55.24 54.84 54.90 54.98 54.52 53.25 52.23 52.05
53.64 56.10 56.57 56.78 56.58 55.92 55.45 54.85 55.06 55.89 55.74 56.13 55.60 54.37 54.03 54.52 54.12 53.51 53.26 53.17 53.59 53.21 54.59 53.99 54.38 54.61 55.23 56.01 55.70 55.39 56.28 55.96 55.44 55.70 55.56 55.49 55.67 55.42 54.82 54.34 54.54 54.34 53.43
51.35 56.35 56.74 56.92 55.86 55.03 55.19 54.82 54.85 55.19 56.18 56.61 56.94 55.30 54.79 54.78 54.43 53.99 53.40 54.26 53.68 54.12 54.60 54.58 53.97 54.05 54.30 54.46 55.47 55.92 56.26 56.04 55.16 55.85 55.76 55.64 55.60 54.18 55.48 55.36 54.69 54.50 55.00
50.71 51.61 56.71 56.71 55.82 55.24 55.04 54.82 54.92 55.12 55.85 56.77 57.06 56.73 55.53 54.72 54.28 54.40 54.47 53.83 54.39 53.82 54.08 54.36 53.78 53.80 54.05 54.48 55.10 56.01 56.24 56.07 55.93 56.18 55.54 55.46 54.52 54.64 55.30 54.92 55.16 55.08 54.61
51.05 52.91 55.74 56.60 56.62 55.91 55.31 55.27 55.14 55.69 55.60 56.04 56.31 56.42 56.82 56.15 55.23 54.95 54.89 54.55 54.07 53.63 53.60 53.99 53.93 53.89 54.19 54.39 54.65 55.43 55.62 56.16 56.49 56.54 55.95 56.03 55.28 54.79 54.69 54.61 54.95 55.05 53.76
50.26 52.95 54.52 55.92 56.51 55.91 55.91 55.92 55.31 55.60 55.99 55.62 55.06 55.49 56.67 57.51 57.18 55.98 55.16 55.31 54.19 53.82 53.78 53.36 53.35 53.50 53.61 54.13 54.41 55.20 54.73 55.41 55.20 54.55 54.45 53.20 49.32 42.98 45.46 52.85 54.39 52.77 52.76
51.06 51.43 52.99 55.55 56.76 56.76 56.07 56.21 55.71 55.53 55.93 55.17 54.74 55.51 56.15 57.16 57.31 56.61 55.69 55.45 55.29 54.78 53.82 53.13 52.87 52.34 52.93 47.24 44.63 49.79 54.45 54.26 54.10 53.47 43.01 40.21 39.36 37.44 37.26 37.97 37.75 39.16 45.69
50.50 51.05 50.92 51.42 52.27 53.98 57.62 56.42 56.54 56.85 55.92 55.40 55.73 55.87 55.69 55.38 56.20 57.25 56.57 55.58 55.20 55.56 54.73 54.24 53.72 52.96 52.85 44.75 44.08 43.24 53.33 53.79 53.23 48.84 41.28 38.37 37.24 36.53 35.95 35.34 35.10 34.51 34.10
48.10 47.72 47.44 47.90 47.72 49.42 52.24 53.98 58.05 57.20 56.57 56.06 56.01 56.19 56.01 55.57 55.36 55.72 56.37 56.84 56.86 55.78 55.57 54.69 54.90 54.97 54.04 44.43 43.38 41.73 47.29 40.94 39.90 40.41 39.93 37.72 36.11 35.68 34.83 34.01 32.34 31.88 32.44
46.45 45.31 45.34 45.03 44.85 46.25 47.98 48.66 48.68 53.59 56.86 56.54 56.57 56.94 56.52 55.81 55.79 55.57 56.08 56.71 57.07 56.87 56.78 56.79 55.79 55.29 41.91 38.53 39.62 41.23 37.98 34.68 33.81 34.56 35.00 34.76 34.11 34.75 35.44 31.24 29.36 28.53 29.10
45.27 44.28 43.53 43.09 42.43 43.47 45.67 44.75 44.75 45.01 45.84 47.16 48.76 54.67 57.56 57.11 56.39 56.08 55.77 56.21 56.19 53.82 46.25 41.38 39.90 38.86 37.30 37.32 38.56 38.87 34.84 32.08 30.94 31.30 31.74 32.28 32.14 31.88 31.73 29.86 28.67 27.09 28.12
41.18 43.06 42.16 40.65 40.26 41.13 43.02 41.01 40.47 40.83 42.86 43.64 44.19 47.57 49.05 53.23 55.46 56.01 51.21 44.56 42.04 41.02 38.72 37.04 35.43 34.08 34.86 35.63 36.58 36.85 35.55 32.25 30.48 30.09 29.77 30.62 31.59 31.45 31.26 30.40 29.14 28.45 29.57
38.62 39.36 38.82 37.34 38.13 38.27 39.44 37.75 36.43 38.06 38.75 38.72 37.77 37.48 40.60 44.28 44.58 43.01 41.10 39.80 38.08 34.24 32.09 31.13 30.80 31.72 32.12 33.10 33.49 33.01 32.34 31.60 28.35 26.84 28.45 30.29 30.94 30.52 29.77 29.06 29.42 29.14 28.31
34.96 36.61 36.02 35.24 35.36 35.99 35.76 34.47 34.45 35.02 34.41 33.67 32.89 33.86 34.13 35.05 37.95 39.05 37.91 35.50 35.65 33.70 31.78 29.65 28.52 28.73 29.96 30.72 31.50 31.63 30.63 29.37 27.68 28.73 30.42 30.45 29.69 28.75 27.62 28.02 27.64 26.29 24.77
31.98 32.86 33.11 32.32 32.54 34.29 34.36 33.82 33.68 33.10 32.00 30.81 30.15 30.16 29.64 30.16 32.19 32.39 33.59 33.02 32.01 31.58 29.82 28.67 27.84 27.26 27.90 28.16 29.36 29.37 29.32 30.00 29.06 28.42 27.47 27.50 26.90 26.28 25.89 24.23 23.90 23.18 22.46
30.20 30.52 30.38 30.50 30.98 32.64 33.01 34.04 32.95 32.18 29.89 29.31 29.12 28.80 28.54 28.19 28.17 28.86 30.19 29.97 30.63 31.63 28.80 28.19 27.91 26.71 26.20 27.76 29.22 28.95 27.80 27.75 27.57 27.14 27.06 25.22 24.22 22.64 21.83 21.15 20.91 21.24 20.35
28.01 28.11 28.64 29.05 29.42 30.85 31.05 31.94 31.31 30.20 28.61 27.08 26.55 26.94 27.48 27.50 27.65 27.06 27.23 30.73 30.52 31.03 31.27 30.94 29.91 30.26 30.89 31.35 31.22 30.65 30.19 29.16 27.67 24.53 21.97 20.76 20.39 19.46 18.94 17.69 17.32 17.10 16.42

GFSMW_sfc_wetblb_102.txt.gz
Wetbulb
46.87 48.41 50.44 47.51 55.16 56.51 57.31 58.01 58.30 56.95 57.69 58.36 58.24 58.14 58.76 58.88 60.36 61.31 61.90 61.84 62.21 60.36 59.25 57.61 56.33 56.63 55.87 54.98 54.64 54.21 54.31 53.98 54.85 52.49 51.45 51.66 53.17 53.91 54.09 55.04 54.88 55.56 55.97
46.30 47.79 53.51 53.55 55.35 56.63 57.05 58.25 58.08 57.65 58.10 58.50 58.92 57.84 58.03 57.55 58.88 60.57 61.78 61.88 62.20 60.38 59.12 57.50 56.25 55.83 55.25 54.00 53.82 54.02 53.63 53.80 54.70 52.48 50.96 49.28 51.22 52.67 53.53 53.90 54.08 53.66 54.90
44.84 46.21 52.75 53.69 53.96 55.77 57.08 57.60 57.21 57.85 58.14 58.21 57.01 55.53 55.31 55.26 55.83 56.97 58.78 60.83 61.87 60.52 59.42 58.04 56.19 55.20 55.51 53.98 53.68 53.87 53.91 52.64 54.07 54.51 50.94 48.31 47.54 49.81 51.78 52.79 53.54 53.60 53.28
48.84 45.76 49.76 53.27 54.65 55.69 57.57 57.17 56.99 57.56 57.66 56.88 55.67 54.28 53.17 52.71 54.27 55.77 56.77 57.96 60.43 60.62 59.72 57.76 55.67 54.36 54.38 53.94 53.73 54.46 54.81 54.29 52.00 53.65 52.56 52.56 51.89 49.04 46.59 50.14 52.41 53.29 53.10
48.59 47.18 47.77 54.07 55.00 55.97 56.27 56.89 57.17 57.02 56.76 56.19 55.65 54.43 54.33 54.31 53.91 54.45 55.49 56.31 57.17 59.88 59.67 58.00 56.29 53.46 54.35 54.84 53.55 53.80 53.35 54.82 53.68 52.50 51.74 51.70 52.35 50.78 48.56 46.52 48.34 51.61 52.98
48.76 49.84 49.97 53.69 54.68 56.09 56.03 56.63 56.28 55.71 55.86 55.20 54.61 53.39 52.52 53.21 53.05 53.56 53.92 55.27 56.21 58.29 59.78 58.80 56.64 54.37 55.04 54.84 53.61 54.34 54.10 53.92 54.28 52.88 52.83 52.14 50.93 50.82 50.35 48.27 48.12 49.20 50.39
48.07 49.01 50.02 52.73 54.27 54.94 55.18 55.83 55.35 54.35 54.90 54.45 54.08 51.68 51.76 52.86 52.88 53.02 53.64 54.27 54.69 55.73 58.42 58.03 56.43 54.55 56.28 55.28 54.30 53.68 53.61 53.41 53.27 52.73 52.29 53.53 53.51 53.86 52.66 51.53 49.89 48.68 49.92
48.21 49.49 50.55 52.23 54.20 54.96 55.16 55.61 55.21 54.51 54.90 54.34 53.79 52.13 52.08 53.01 52.89 53.27 53.93 54.50 54.72 55.23 56.79 57.39 55.20 55.06 55.85 55.05 54.70 54.39 53.62 53.27 52.85 52.48 52.79 53.20 53.88 54.28 54.04 52.52 51.02 49.04 49.05
47.74 49.03 50.94 52.76 54.64 54.76 54.90 55.17 54.92 55.35 54.66 54.21 53.29 52.37 52.25 52.65 52.74 52.73 53.63 54.30 55.12 55.23 55.73 56.55 55.45 55.79 55.67 55.18 54.63 53.63 53.88 53.68 53.21 52.29 52.66 53.06 53.28 54.19 54.17 53.62 53.05 51.34 47.92
47.50 49.12 50.96 53.45 55.07 55.19 55.25 55.71 55.40 54.89 54.56 53.90 53.10 51.90 51.83 51.72 51.92 52.00 52.18 53.88 54.82 55.24 55.21 55.17 55.11 55.20 55.42 54.98 54.90 54.56 54.66 53.53 53.55 53.79 53.20 53.49 53.94 54.05 54.21 53.93 53.12 52.47 51.29
46.92 48.37 51.54 54.77 54.98 55.26 54.64 54.74 54.72 54.95 54.35 53.96 52.95 51.39 51.15 51.50 51.77 51.96 52.36 52.50 54.37 54.48 54.68 55.28 55.08 54.78 54.78 55.16 54.78 54.35 54.07 53.77 53.54 54.33 54.19 54.04 54.33 53.85 53.79 54.29 54.03 53.55 52.84
48.18 49.56 51.85 53.84 54.39 54.47 54.27 54.33 54.70 54.62 55.11 54.41 52.96 51.11 51.41 51.52 51.24 51.70 52.02 52.66 52.02 54.35 54.51 54.47 55.00 55.35 54.96 54.90 54.27 53.84 53.94 53.41 53.43 53.78 53.94 54.06 54.50 53.90 53.91 53.77 53.57 53.83 53.80
48.98 50.05 50.28 53.84 54.13 54.41 54.09 53.94 54.93 54.74 55.14 54.51 53.25 51.69 51.18 51.31 51.09 51.14 51.42 51.85 51.67 52.15 53.19 54.00 54.05 53.97 54.21 54.21 54.37 53.88 53.84 53.69 53.63 54.11 54.11 54.15 54.20 54.23 54.34 54.10 53.39 53.45 53.38
49.30 48.11 48.90 54.39 54.51 54.60 53.71 54.19 54.49 55.48 55.30 54.43 53.51 52.11 51.56 51.32 51.35 51.28 51.16 51.47 51.61 52.27 52.07 53.28 53.47 53.56 53.77 53.82 53.80 53.84 53.63 53.43 53.46 53.39 53.58 54.06 53.97 54.15 53.95 53.86 54.05 53.77 52.48
47.87 46.21 47.08 47.90 53.42 54.33 54.74 54.68 55.42 55.87 55.32 54.73 53.88 53.06 51.85 52.16 51.91 51.29 51.05 51.24 51.29 51.65 52.93 52.33 52.37 52.79 52.84 53.27 53.43 53.78 53.43 53.01 52.92 53.28 53.39 53.76 52.72 49.72 51.59 54.02 53.82 53.34 52.06
45.50 45.08 45.15 45.97 46.94 48.51 54.21 54.80 54.66 55.81 56.07 54.58 54.70 54.45 53.80 52.28 51.84 51.89 51.70 51.12 52.27 52.33 52.39 52.21 52.30 51.51 52.42 46.29 44.96 49.58 52.76 52.61 52.47 52.00 52.37 52.69 47.81 47.05 40.05 38.49 36.72 38.67 50.80
43.75 43.14 42.92 43.07 44.04 45.74 46.85 52.11 55.34 56.05 55.83 55.63 55.87 55.37 54.90 54.10 52.84 52.45 52.52 52.98 52.33 52.64 52.46 52.37 52.27 52.21 52.37 43.70 44.01 43.64 51.86 51.54 51.70 51.92 50.94 46.51 42.88 40.46 37.16 35.20 34.24 33.43 33.31
40.91 41.17 40.72 39.91 40.93 43.19 44.57 47.84 53.94 56.13 55.32 55.02 55.34 55.77 55.18 55.16 55.51 54.11 53.76 53.76 53.67 52.85 52.24 52.21 52.40 52.19 51.96 43.59 42.64 41.32 49.19 49.37 49.16 50.13 49.95 47.98 42.94 39.49 36.87 33.00 30.93 30.67 30.54
39.42 39.26 38.94 38.42 38.38 40.30 42.49 43.40 44.25 46.94 47.58 47.74 49.32 50.52 53.84 54.43 54.68 54.90 54.82 54.45 53.66 53.32 53.32 52.84 52.10 51.47 51.23 42.80 42.38 41.97 47.61 47.14 43.19 41.78 43.00 45.55 40.76 36.68 36.69 31.81 29.50 28.64 29.38
37.70 37.69 37.03 36.83 36.23 37.93 39.00 38.46 38.13 38.58 39.62 40.34 41.71 43.45 44.53 48.07 51.22 54.35 54.51 55.24 54.80 53.67 53.15 52.35 50.14 47.47 50.88 43.61 42.41 42.71 48.76 43.05 34.88 33.46 34.20 35.74 35.98 34.66 33.26 31.00 29.08 26.25 25.93
35.76 36.47 35.93 34.71 34.82 35.83 36.50 34.57 34.57 34.16 35.45 36.86 36.43 36.73 37.22 39.77 41.20 44.21 51.19 53.55 53.85 48.53 40.31 34.52 33.57 33.72 34.50 35.24 36.64 38.97 46.61 40.67 32.42 31.42 31.06 32.20 32.59 32.60 32.17 31.08 28.84 26.50 26.16
33.47 34.66 33.83 33.54 34.11 34.50 34.42 31.88 31.30 32.97 33.40 32.89 32.52 32.79 33.84 35.15 36.54 36.94 36.89 37.35 37.59 34.50 33.06 31.96 30.90 31.42 32.32 33.94 34.74 34.38 32.98 32.98 31.11 29.93 30.84 31.54 31.97 31.33 30.16 28.94 28.54 27.34 25.28
31.35 32.69 32.45 32.21 32.36 32.43 31.91 30.20 30.51 31.73 31.59 31.10 30.46 30.99 31.33 32.01 33.03 33.51 33.46 33.79 33.58 32.20 30.66 29.89 28.24 28.21 30.21 31.13 32.42 32.90 32.39 31.56 30.08 30.20 30.34 29.58 28.88 27.79 26.70 26.76 25.87 24.09 22.40
29.62 30.15 30.43 29.78 29.66 30.66 29.88 29.69 30.25 30.73 30.03 29.16 29.24 29.81 29.91 29.77 30.45 31.08 31.79 31.33 30.61 29.73 29.22 28.69 27.48 27.53 28.37 28.98 29.45 29.34 28.33 27.24 24.72 23.81 23.49 23.47 23.27 22.35 21.67 21.46 21.82 21.15 20.70
28.36 28.66 28.61 28.53 28.75 29.09 28.64 28.21 27.96 29.43 28.29 28.27 28.63 28.85 28.93 28.54 28.06 28.87 29.76 29.54 30.31 30.58 28.71 28.47 28.47 27.18 26.51 27.81 28.43 27.09 25.50 24.92 24.53 23.48 22.47 21.13 20.20 19.10 18.73 18.68 18.83 18.99 18.43
26.58 26.60 27.20 27.20 27.86 28.07 27.12 27.02 26.28 26.32 26.87 26.23 26.43 27.21 27.45 27.05 26.37 25.57 25.81 30.10 30.21 30.85 30.93 30.49 29.12 29.33 29.89 29.39 28.83 28.29 27.41 26.48 25.20 21.13 18.73 17.58 17.22 16.40 16.45 15.86 15.74 16.27 15.45

GFSMW_sfc_wetblb_105.txt.gz
Wetbulb
52.08 52.90 53.89 55.88 56.58 57.23 60.32 61.53 62.09 62.73 62.04 60.07 59.63 60.24 60.54 61.33 61.61 62.56 62.53 62.21 62.59 62.60 62.08 61.33 59.80 60.86 58.43 56.28 56.15 56.27 55.30 56.43 58.63 56.41 55.72 57.19 58.47 58.87 59.42 60.50 60.70 60.49 60.83
50.86 53.03 53.91 56.31 58.15 58.43 60.19 60.93 61.35 61.19 62.63 61.49 61.64 61.83 61.42 61.03 61.09 62.21 62.04 62.01 62.42 62.26 60.67 59.17 57.64 58.21 58.04 56.44 55.68 56.07 55.22 55.48 56.35 55.44 54.96 50.97 53.05 57.06 58.54 59.49 59.56 59.74 60.28
50.55 53.60 53.53 53.86 57.27 58.56 59.37 59.95 60.82 59.85 62.51 62.57 61.60 60.93 59.43 59.18 59.00 59.27 61.00 61.56 62.67 61.02 60.35 58.27 57.49 56.24 55.94 55.32 55.88 56.20 55.85 54.15 55.43 57.21 56.07 50.83 50.26 53.60 56.99 57.61 58.52 58.82 58.84
52.74 53.25 53.40 54.06 54.99 57.55 59.96 59.78 59.98 59.45 61.12 61.30 59.35 59.12 58.50 57.15 57.59 58.27 59.78 61.73 62.51 60.85 60.16 58.42 57.57 57.03 56.27 55.36 55.72 56.53 56.21 55.42 54.14 56.51 56.32 57.52 55.22 52.52 50.69 55.17 56.60 58.29 57.70
51.88 52.07 53.05 54.44 55.97 57.55 59.20 59.35 58.76 58.81 59.74 60.17 60.07 58.59 57.28 57.80 57.88 58.32 57.98 59.95 61.24 61.18 59.58 58.10 56.85 56.65 56.69 55.94 56.27 55.94 55.92 56.36 56.50 55.57 53.84 54.16 55.51 56.17 53.59 51.38 53.47 56.50 57.29
51.06 52.32 53.87 54.92 55.61 58.25 59.16 58.95 57.45 57.65 58.49 59.22 58.31 56.77 56.66 57.56 56.82 56.00 55.89 58.01 57.79 59.05 60.16 58.05 57.30 56.10 55.92 55.50 55.83 56.56 56.44 56.61 57.22 57.21 56.30 54.68 53.62 52.69 53.07 52.66 53.54 53.39 54.71
50.79 51.81 52.53 53.10 54.34 56.36 58.38 58.10 56.81 56.64 57.57 57.75 56.65 56.22 56.92 57.30 56.56 55.77 55.47 56.46 56.58 57.53 59.14 57.77 56.46 55.94 55.46 55.28 54.65 54.96 57.00 58.03 56.97 56.30 56.09 56.52 56.09 56.67 56.18 55.88 54.24 53.42 55.72
50.69 51.54 52.21 52.79 53.83 56.68 57.98 56.98 56.24 55.94 56.85 56.57 55.53 55.45 57.74 57.55 57.72 57.01 56.31 56.43 57.88 57.69 60.10 58.83 56.91 56.09 55.18 55.26 54.48 54.80 55.11 55.49 56.55 56.54 56.33 56.29 56.47 56.97 56.91 56.51 55.80 53.66 54.56
50.20 51.10 52.59 53.25 53.96 55.82 57.40 56.86 55.85 55.89 55.90 55.65 55.63 55.71 57.22 57.61 57.38 56.83 55.54 55.74 57.39 57.63 59.27 58.78 57.07 55.54 55.58 55.54 54.26 54.26 54.38 54.55 55.50 55.16 55.94 55.94 55.06 55.82 56.31 57.36 56.89 55.47 51.99
50.01 51.09 52.42 53.33 54.65 55.71 57.82 57.02 56.70 55.86 55.93 55.51 57.25 56.11 56.51 57.45 57.44 57.12 54.74 55.91 57.77 57.56 57.99 57.39 56.02 55.20 56.08 54.93 54.51 54.10 54.55 54.55 54.28 54.30 53.29 54.65 55.06 56.49 57.96 55.52 54.67 55.71 55.66
49.51 50.80 52.51 53.09 53.34 54.74 57.70 56.61 56.54 56.05 55.44 55.86 56.61 54.59 55.30 56.72 56.88 56.51 56.39 56.54 57.56 57.02 56.64 56.32 55.50 55.40 55.24 54.51 53.47 52.89 53.38 53.65 53.49 53.68 53.54 53.61 55.04 56.00 56.37 55.06 54.09 54.16 55.21
49.88 50.10 49.96 50.14 53.16 54.35 56.13 56.15 55.96 55.62 55.25 55.82 55.11 53.53 54.67 55.97 56.00 55.83 56.45 57.44 56.13 56.60 56.51 56.13 55.38 55.30 55.34 54.71 53.51 52.01 52.53 53.36 52.86 52.79 53.53 53.48 54.02 54.73 55.18 54.25 54.61 54.57 57.28
49.22 48.94 47.92 47.76 51.26 55.38 54.83 55.04 55.24 55.46 55.29 55.43 53.81 52.62 53.53 54.94 55.34 55.52 56.25 56.69 56.87 55.46 56.29 55.85 54.97 54.89 54.99 54.32 53.93 53.49 52.56 52.88 53.81 53.44 53.28 53.32 53.16 53.78 54.67 54.20 54.21 54.83 55.01
48.51 47.27 45.97 45.74 48.06 55.08 54.65 54.39 55.02 55.62 55.49 54.72 53.52 52.25 52.89 54.37 55.24 55.65 55.90 55.82 56.35 56.23 55.24 55.48 55.22 55.14 55.12 54.89 54.39 54.49 53.65 53.39 53.49 53.88 53.94 54.02 53.38 53.09 53.65 53.98 54.23 54.65 54.16
45.94 44.91 44.22 43.60 44.38 47.60 52.92 54.80 55.16 55.54 55.76 54.80 53.48 52.58 53.07 53.55 54.93 55.08 55.33 55.60 55.49 56.06 56.08 55.98 55.99 55.24 54.59 54.44 54.25 54.16 54.02 53.81 53.55 53.90 54.30 54.74 53.36 49.64 51.76 54.12 54.34 53.69 53.01
42.58 42.44 42.05 41.30 41.10 42.72 46.12 54.48 55.06 55.48 55.67 54.78 54.26 54.02 53.21 53.61 54.25 54.93 54.90 55.03 55.12 55.18 55.26 54.54 55.08 55.69 55.51 46.47 45.64 51.00 53.55 53.34 52.99 52.59 53.09 53.26 48.23 48.18 44.00 41.18 40.32 48.61 53.46
40.14 39.77 39.05 38.84 39.27 40.64 43.84 47.62 53.60 56.50 55.52 55.38 55.07 54.51 53.73 53.34 54.00 54.74 54.62 54.27 54.52 55.16 54.82 54.28 54.07 53.98 55.07 43.92 44.56 44.20 56.34 54.68 53.71 53.65 53.17 52.47 50.69 45.80 41.37 35.79 34.82 34.15 33.89
38.06 38.04 37.58 37.44 37.56 39.61 40.82 43.43 52.21 55.84 55.56 55.66 55.58 55.20 54.69 53.69 53.83 54.02 54.36 54.37 54.52 53.90 53.99 53.96 53.42 53.52 52.91 42.70 42.90 42.23 55.62 56.01 56.08 56.55 56.26 55.57 53.65 46.88 41.26 37.23 33.58 32.86 32.89
36.85 37.11 37.04 36.40 36.69 37.45 38.54 39.41 40.14 42.03 42.68 42.48 43.77 45.94 48.01 52.44 54.89 53.49 53.53 54.97 54.78 53.97 53.48 53.57 52.97 52.58 52.50 42.94 41.67 42.63 50.94 52.52 52.30 53.63 55.38 55.64 55.71 41.19 38.86 34.73 31.82 30.56 30.17
36.00 36.02 35.57 35.11 34.66 35.45 37.01 36.50 35.49 36.13 36.35 37.42 38.08 39.44 40.70 42.89 43.36 44.75 52.59 54.55 54.67 53.96 53.65 45.86 38.72 36.80 44.57 36.82 40.14 42.79 49.10 46.73 43.13 35.51 34.65 35.15 43.67 36.02 35.37 35.58 31.30 27.42 26.74
33.63 35.50 34.74 32.98 32.94 34.11 34.14 32.71 32.95 32.48 33.97 35.05 35.39 35.52 36.28 37.63 38.24 40.11 40.60 42.18 51.27 39.55 35.20 33.19 33.23 33.71 34.38 35.97 37.50 38.92 45.05 38.06 32.96 32.30 31.68 32.45 33.01 33.23 32.84 31.93 29.22 25.87 25.12
31.92 32.96 32.90 32.03 32.04 32.40 32.67 30.62 30.33 32.24 32.90 33.20 32.92 32.83 33.48 34.23 35.43 35.98 36.43 36.43 35.97 33.82 32.24 31.09 30.85 31.36 32.53 34.03 35.35 36.17 34.91 34.45 32.69 31.55 31.42 31.43 31.23 30.42 29.29 27.91 27.61 26.20 24.29
30.35 31.99 31.41 31.22 31.01 30.86 30.48 29.69 30.13 31.66 31.54 31.36 31.12 31.06 31.61 32.05 32.53 32.57 32.92 33.19 32.70 31.22 30.24 29.94 28.97 28.75 30.43 30.98 32.46 32.77 32.35 31.71 30.23 29.95 29.80 29.63 28.43 27.60 26.52 26.38 25.42 23.51 21.70
28.43 29.60 29.78 29.20 28.39 29.33 28.90 29.18 30.73 31.49 31.15 29.98 29.46 29.40 29.38 29.83 30.60 30.74 30.97 31.06 31.25 30.80 30.08 29.07 27.91 28.05 28.12 27.55 27.17 26.60 26.23 26.52 26.01 23.77 23.18 22.91 22.92 22.54 22.09 21.73 21.73 21.46 21.25
27.63 28.13 27.86 27.68 27.48 28.03 27.72 28.11 29.39 31.05 29.79 29.71 28.96 28.32 28.44 28.43 28.03 28.74 29.29 29.00 29.96 30.33 28.54 28.42 27.99 25.91 24.74 26.30 26.97 27.44 27.40 26.40 25.88 26.37 25.30 23.81 22.65 20.95 20.38 19.63 19.33 19.63 19.26
26.02 25.57 25.90 26.20 26.50 26.56 26.63 27.31 27.80 28.64 29.29 28.10 27.75 27.99 27.68 27.69 27.35 26.64 26.64 29.75 29.76 30.14 30.24 29.61 27.99 28.57 28.96 28.57 28.14 27.51 27.22 26.48 26.30 25.54 23.38 22.21 21.78 20.28 19.25 18.57 17.95 18.17 17.36

GFSMW_sfc_wetblb_108.txt.gz
Wetbulb
55.68 55.67 57.05 59.88 60.65 61.60 61.68 61.29 63.65 66.01 66.24 65.35 63.63 62.62 62.05 63.39 63.94 65.78 65.95 66.73 65.91 66.46 64.80 64.16 63.13 60.89 57.90 57.74 58.40 57.84 56.62 56.87 58.27 57.92 58.35 59.57 60.53 60.58 59.95 61.34 61.29 61.26 60.62
51.75 54.77 57.86 59.84 60.79 61.87 62.53 62.86 63.85 65.48 65.99 64.23 63.40 64.30 63.31 63.24 64.12 64.60 66.01 65.11 65.58 64.88 63.30 62.45 61.94 60.01 58.52 58.57 58.81 57.62 56.31 56.44 58.16 56.30 55.25 52.61 54.96 58.13 59.76 61.16 60.65 60.88 60.98
52.65 55.46 57.26 58.92 60.72 61.16 62.13 62.52 63.69 64.84 65.91 65.72 63.18 63.86 63.69 63.34 62.51 62.81 63.66 64.25 64.67 63.91 62.83 62.35 61.73 60.62 59.23 56.88 56.94 57.00 56.18 54.34 57.03 58.77 56.45 51.71 50.85 55.34 58.01 58.87 59.93 59.93 60.04
55.41 56.53 57.32 58.45 59.96 61.10 62.47 62.90 63.49 64.36 65.08 65.57 62.37 62.72 62.09 60.71 62.61 62.03 62.76 63.00 63.47 63.00 62.93 63.06 62.07 59.87 59.00 56.92 56.88 57.35 56.56 56.41 55.09 57.33 58.76 59.71 57.68 54.08 52.48 57.15 58.95 59.91 59.10
56.15 56.07 56.93 58.45 59.70 60.93 62.55 62.96 63.21 63.72 63.77 63.82 62.76 63.29 63.76 64.14 64.32 63.88 62.94 61.48 62.54 63.06 62.93 60.61 58.82 57.44 58.07 57.30 57.22 57.10 56.62 56.12 55.92 55.97 56.00 57.73 57.31 58.29 54.66 52.55 54.44 58.20 59.41
55.26 56.11 57.49 58.44 59.08 60.54 61.85 63.04 62.51 62.41 62.24 61.70 62.70 63.49 64.31 64.01 62.36 60.80 59.62 59.29 60.64 62.22 61.36 59.91 58.83 58.27 57.92 56.85 57.11 57.34 56.50 56.30 56.46 56.60 56.70 56.79 56.21 55.26 54.73 53.81 53.67 54.49 57.16
53.84 55.06 55.98 57.06 58.07 58.69 60.23 62.00 61.91 60.75 60.57 60.28 61.13 63.04 64.58 63.54 62.69 62.21 60.93 58.36 59.29 60.30 61.11 58.57 58.47 57.44 56.97 58.56 57.74 57.71 56.97 57.15 56.48 56.16 56.75 58.19 58.10 57.50 57.23 55.27 54.00 53.31 56.30
54.06 54.45 55.43 56.61 57.69 58.24 59.50 60.61 61.21 59.39 58.99 58.99 59.54 61.55 62.71 63.60 62.75 62.00 60.44 59.59 59.54 61.33 60.16 58.91 59.56 57.72 57.55 57.68 57.47 56.98 57.02 57.66 57.13 56.45 56.61 58.01 58.94 58.12 57.04 55.27 56.46 54.64 55.40
53.86 54.51 55.73 56.86 57.46 57.50 58.69 60.23 59.99 58.81 58.61 58.18 58.26 59.01 61.25 62.91 62.20 61.97 61.24 60.11 60.49 60.43 60.99 58.59 57.65 57.31 56.81 56.36 55.55 55.89 56.22 56.90 56.96 57.07 57.61 58.17 57.57 58.99 57.31 58.20 58.90 55.24 52.03
53.95 54.56 54.90 55.38 55.75 56.28 57.43 59.61 60.52 57.91 58.68 57.85 57.32 57.04 61.01 62.30 62.24 61.51 58.46 59.38 59.27 60.38 59.95 60.00 58.05 56.83 55.87 55.74 55.23 54.72 55.31 55.63 56.54 56.81 56.39 55.78 58.15 58.15 59.39 59.58 58.60 58.48 55.84
53.44 53.68 53.75 53.90 53.31 55.23 53.60 59.48 58.61 57.33 57.53 57.24 56.65 58.41 60.52 61.37 61.04 60.12 58.46 58.44 59.94 59.90 59.75 60.45 58.26 56.54 55.67 55.53 54.62 54.11 54.48 54.58 55.23 55.57 54.72 54.74 55.25 56.10 55.89 57.12 57.71 57.01 57.00
53.27 52.80 52.48 51.32 50.63 48.43 46.32 56.51 57.10 57.02 57.80 57.20 57.27 57.99 59.05 60.50 58.77 58.58 57.80 58.57 58.76 59.49 59.63 58.13 56.91 55.53 55.51 55.13 53.81 53.56 53.82 53.84 53.99 54.56 53.88 53.52 54.24 54.85 54.82 57.30 55.46 57.18 57.78
52.20 51.75 51.09 49.31 47.20 44.76 44.90 55.47 57.04 57.16 57.22 57.02 56.53 56.83 56.76 58.12 57.51 58.02 58.08 58.12 58.59 59.22 58.99 58.36 56.76 55.89 55.51 54.42 54.14 53.82 53.74 53.84 54.16 54.32 53.89 53.58 53.53 53.14 53.71 54.64 55.73 56.98 55.42
49.08 47.84 48.32 48.18 44.37 43.08 43.02 46.99 56.27 56.84 56.17 55.72 55.59 55.69 55.66 56.77 57.57 57.84 57.72 58.00 57.78 57.51 57.31 56.70 57.70 57.15 56.45 55.67 54.77 53.60 52.73 52.96 53.64 53.88 53.70 53.72 53.76 53.88 53.72 53.99 54.70 55.39 54.10
44.97 43.84 43.61 43.95 41.97 41.25 41.40 42.91 55.64 55.51 55.54 54.80 54.64 54.44 55.40 56.23 57.69 57.27 57.38 57.67 57.26 57.26 58.31 57.17 56.92 57.51 56.42 55.80 55.06 54.05 53.37 52.48 52.79 53.84 53.44 53.96 52.83 48.92 51.00 53.00 53.56 54.17 54.15
41.69 42.29 40.65 40.43 39.27 38.85 39.79 41.69 53.64 55.35 55.39 54.78 54.19 54.50 54.61 54.80 55.81 57.04 56.96 56.88 56.55 56.94 57.27 56.37 56.19 56.04 55.93 46.16 45.61 51.15 53.64 52.96 52.59 52.82 53.21 53.35 48.62 47.78 43.95 43.85 42.55 48.04 52.90
39.19 39.27 37.42 37.55 37.62 37.99 39.02 39.70 45.24 55.57 54.84 54.76 54.82 54.86 55.17 54.50 55.13 55.76 55.93 56.06 56.21 56.98 56.64 56.71 56.64 55.85 55.75 44.00 44.56 44.52 55.19 53.55 53.13 53.31 53.13 52.39 51.05 48.76 49.36 38.88 36.49 35.21 34.11
36.30 37.45 36.73 36.01 35.80 37.00 38.34 39.52 45.92 52.98 52.46 51.85 53.12 54.42 54.46 54.96 55.66 55.43 55.23 55.93 56.35 56.12 56.48 56.54 56.20 55.80 55.72 42.72 43.63 42.73 55.25 53.67 53.66 53.52 53.15 52.65 51.56 49.76 44.81 40.29 35.83 33.65 33.62
35.02 35.64 36.21 35.45 34.78 35.15 36.26 36.01 37.06 39.87 41.22 41.03 41.59 43.35 46.79 50.46 53.70 54.01 54.89 56.20 56.08 56.49 57.13 56.43 55.55 54.91 54.19 40.87 41.54 43.01 53.07 56.01 55.55 56.15 56.30 55.65 54.26 45.93 40.73 38.30 32.72 30.45 29.74
34.23 34.48 35.13 34.06 33.35 33.50 34.85 34.72 34.15 34.43 35.07 37.05 37.76 39.33 41.34 42.46 42.70 43.90 46.17 52.59 55.52 54.68 52.77 41.66 39.57 37.99 43.61 36.68 39.61 42.24 50.38 49.17 44.26 38.81 38.53 35.13 44.90 38.38 37.12 38.01 32.49 27.67 26.48
33.05 33.89 34.04 32.80 32.39 33.29 33.42 32.93 33.17 32.17 33.20 35.05 35.47 35.68 36.65 37.59 38.43 39.31 39.75 42.16 44.22 37.84 34.68 33.05 33.71 34.52 34.70 36.42 37.15 39.22 47.87 39.80 33.88 32.70 32.10 32.90 33.71 33.84 34.08 33.35 29.29 24.95 24.31
30.77 32.40 32.04 31.78 32.02 32.47 33.29 31.93 31.30 32.41 32.90 33.12 33.25 33.60 34.43 34.52 35.86 36.10 35.93 36.32 35.21 33.36 32.10 31.41 31.14 31.04 32.04 33.68 34.85 35.73 35.77 35.30 33.38 31.33 31.12 31.62 31.88 31.48 30.27 28.28 27.66 26.36 24.30
29.72 30.84 30.62 30.66 31.34 31.46 31.62 31.14 32.14 33.38 32.65 31.99 31.32 31.79 32.57 32.97 33.30 33.61 33.93 33.45 33.32 31.99 30.50 29.80 28.27 27.16 28.17 29.23 31.31 31.61 31.65 31.27 29.74 29.63 29.45 29.19 28.58 27.65 26.43 26.18 25.31 24.28 23.60
28.18 29.04 28.95 28.23 28.30 30.29 30.68 30.75 32.48 33.44 32.72 31.35 30.57 30.35 29.64 29.98 31.12 31.23 31.07 31.36 31.11 30.38 29.55 28.00 26.45 26.08 26.14 26.14 26.92 26.49 25.79 26.42 24.91 24.44 24.14 24.16 24.45 24.91 25.27 25.13 25.08 25.84 26.23
28.50 27.98 27.16 26.84 26.82 27.94 28.91 30.72 31.49 33.68 32.55 31.94 31.73 31.10 30.03 29.20 28.35 28.80 29.16 28.45 29.60 29.96 28.02 27.76 27.55 25.94 25.11 27.16 27.80 28.40 27.87 26.94 26.90 28.22 28.64 27.90 27.28 27.57 26.77 25.40 25.13 25.78 25.93
27.16 26.74 26.75 25.91 25.72 26.21 26.06 28.05 30.34 32.07 33.31 31.37 30.16 29.90 29.08 29.27 28.75 27.79 27.38 29.93 29.66 29.79 29.76 29.37 28.90 28.63 28.95 29.20 28.83 28.59 28.75 29.12 30.03 31.48 29.46 27.82 27.65 26.43 25.58 24.59 23.78 24.17 23.36

GFSMW_sfc_wetblb_111.txt.gz
Wetbulb
57.69 58.73 59.67 59.61 60.04 61.55 61.59 61.87 62.45 65.90 68.52 67.62 67.98 68.73 65.21 65.35 66.01 68.44 68.56 68.07 67.36 66.68 65.84 65.65 65.69 64.92 62.73 61.13 60.71 59.33 58.99 58.35 59.50 58.49 58.62 58.92 61.08 61.98 61.30 62.16 61.31 61.05 61.09
56.32 57.58 57.30 58.49 60.83 61.72 62.53 63.27 63.44 63.75 65.35 67.05 67.68 67.88 64.51 64.68 65.44 66.84 68.23 67.91 67.04 66.13 65.69 65.85 63.72 61.42 60.68 59.90 59.18 57.96 56.97 57.41 58.79 56.95 55.95 53.56 56.60 59.63 59.77 60.91 61.08 60.30 60.44
53.55 54.77 55.77 59.15 60.90 61.57 62.43 62.93 63.63 64.19 65.43 66.82 67.61 65.52 65.11 64.21 63.72 64.16 65.87 66.68 66.70 66.00 66.12 65.78 63.81 60.96 60.04 58.45 58.28 57.80 57.11 55.53 57.63 58.30 55.81 52.36 51.89 55.16 58.62 59.56 60.54 61.62 60.66
52.79 54.63 57.26 58.79 60.22 61.44 62.54 64.05 64.08 64.25 65.12 66.96 66.40 63.81 62.50 61.40 62.81 64.00 65.04 65.51 66.48 65.67 64.96 64.59 62.98 60.96 59.59 58.50 58.51 59.49 57.64 56.70 55.27 57.25 58.49 57.49 56.59 53.24 52.62 57.97 60.13 61.20 59.63
55.92 56.31 57.45 58.33 59.05 60.33 62.01 63.65 64.44 64.42 65.08 65.77 66.43 64.36 62.37 64.33 65.43 65.19 64.83 63.88 65.28 64.29 65.05 64.15 62.04 61.10 59.62 58.97 58.03 57.69 56.96 56.41 55.33 55.51 56.03 56.19 56.19 58.09 54.83 52.30 55.71 58.75 59.11
55.67 56.20 57.33 58.03 58.52 60.22 61.49 62.67 63.41 64.00 64.65 65.46 65.49 64.36 62.88 65.06 64.82 65.11 64.35 62.64 63.83 64.46 63.77 63.27 62.37 62.16 60.79 58.90 57.87 58.03 57.20 56.65 56.10 56.69 56.65 55.94 54.93 55.43 55.45 54.13 54.83 55.18 57.97
54.55 55.09 55.30 56.29 57.51 58.68 60.14 60.97 61.50 62.87 64.16 64.27 63.89 63.63 63.32 64.91 65.64 65.38 64.29 62.86 62.27 62.65 62.58 61.28 61.50 60.79 60.49 59.67 58.31 57.52 57.06 56.72 56.43 56.91 56.52 57.52 56.83 57.47 56.70 56.66 54.86 53.90 56.05
54.71 54.78 55.65 56.98 57.63 58.50 59.29 59.81 60.37 61.30 63.26 63.23 61.20 63.04 63.15 63.56 64.65 64.68 63.84 62.75 62.17 62.57 61.45 60.67 60.14 59.50 59.44 59.64 58.32 57.46 57.18 56.92 56.55 56.57 56.54 56.66 57.17 57.79 58.71 56.95 55.71 52.90 54.56
53.38 55.13 56.30 56.78 57.19 57.16 57.35 58.64 58.68 60.03 62.17 62.75 61.12 61.89 62.52 62.70 63.33 65.29 65.10 63.31 62.50 62.21 62.14 61.38 60.72 60.13 58.95 59.28 58.12 57.20 56.60 56.78 56.71 57.16 57.18 56.42 56.99 57.48 58.61 58.42 58.02 55.88 51.79
53.77 54.76 55.46 55.59 55.56 55.71 55.88 57.50 57.96 59.77 61.48 61.67 60.51 60.82 60.53 63.26 63.66 64.85 63.13 62.66 61.55 61.92 61.01 59.77 59.13 58.23 57.46 57.39 57.21 57.04 57.27 56.44 56.82 56.88 56.23 56.48 56.55 56.86 57.35 56.52 56.54 59.29 56.50
53.41 54.29 54.09 54.41 54.38 54.34 53.86 54.22 54.74 59.51 61.35 60.25 59.78 59.81 59.33 61.70 62.93 63.35 62.62 61.94 61.50 61.30 60.94 61.22 59.53 57.93 56.96 56.37 55.67 55.81 56.07 55.99 56.05 56.41 55.73 55.71 56.19 55.83 56.34 56.41 57.42 54.60 56.64
52.11 52.95 53.76 53.89 53.37 52.27 51.17 50.35 49.20 56.06 60.03 59.11 58.59 58.05 58.61 60.51 61.87 61.92 60.75 61.19 60.90 61.32 60.92 60.79 59.05 57.70 56.42 55.95 54.84 54.12 54.58 54.68 54.88 55.47 55.67 55.27 54.96 54.03 55.12 54.97 54.34 56.36 55.83
50.76 51.47 51.42 50.84 50.84 50.59 49.27 46.52 45.95 46.37 58.12 57.83 57.28 57.36 57.40 59.54 60.29 60.29 59.71 59.50 60.58 59.60 60.11 58.90 58.87 57.15 56.27 55.33 55.16 54.70 54.13 54.40 54.96 55.07 54.77 54.72 54.30 53.32 53.51 53.98 54.09 55.46 55.69
47.91 48.09 48.27 48.07 49.13 48.68 46.83 43.41 43.50 44.22 57.34 57.47 56.88 56.78 57.63 58.87 58.96 58.91 59.23 58.42 59.82 58.94 58.59 58.26 58.29 57.04 56.25 55.10 54.46 54.07 53.75 53.84 54.26 54.83 54.66 54.08 53.87 53.66 53.35 53.28 53.52 53.86 53.44
44.49 44.78 44.50 44.21 45.71 45.45 43.79 41.31 42.51 43.95 56.06 56.27 56.07 55.73 56.73 57.73 58.79 57.98 58.38 57.87 58.74 58.99 58.16 57.45 57.49 57.91 56.92 56.09 55.13 54.35 53.72 53.16 53.27 53.69 54.02 53.99 52.65 49.12 51.28 53.54 53.35 53.22 52.95
41.02 41.72 41.85 41.28 41.71 41.33 39.37 39.20 40.05 41.60 46.51 54.98 54.32 55.12 56.01 56.88 58.19 57.66 57.29 57.16 58.02 58.91 58.36 57.03 56.95 56.70 56.58 45.86 45.78 51.76 53.66 52.98 52.54 52.28 52.90 53.17 48.22 47.89 45.21 45.68 45.91 50.72 52.39
39.38 38.26 37.75 38.16 38.90 38.62 37.71 37.47 38.53 39.54 47.04 54.44 54.30 54.66 55.02 55.72 56.73 56.54 56.73 56.96 56.75 57.71 57.85 58.34 58.00 57.28 58.04 44.62 44.19 44.21 55.36 53.51 52.98 52.81 52.92 52.35 52.43 49.80 52.12 40.04 38.69 36.18 35.45
37.31 35.50 35.86 35.47 36.90 36.90 37.06 37.44 37.07 39.02 49.45 50.80 52.34 54.62 55.02 55.02 55.33 55.84 55.95 56.38 57.07 56.45 56.70 56.78 57.01 57.68 57.14 42.91 43.09 42.28 55.39 54.49 54.51 53.72 54.16 53.55 52.09 51.74 48.92 41.60 35.49 33.03 33.45
35.19 34.47 35.27 34.33 34.76 34.40 35.94 35.89 34.86 34.72 37.95 39.29 41.21 43.94 47.78 51.78 55.22 54.86 55.89 56.51 56.32 56.39 56.09 56.50 56.83 56.64 49.93 38.84 40.73 44.68 54.39 53.72 53.25 53.46 53.90 53.55 52.79 45.18 42.82 38.43 31.92 29.75 29.24
34.58 33.58 34.06 33.46 33.33 32.55 34.55 33.42 32.52 32.77 33.00 35.02 36.34 38.08 40.71 43.02 43.53 44.67 47.51 50.19 56.06 52.95 44.92 40.28 38.83 36.01 42.98 35.96 37.63 43.55 51.90 48.08 41.03 36.75 35.19 34.76 41.78 39.47 38.74 37.04 32.75 28.25 26.49
32.55 33.62 33.60 32.96 32.26 32.37 32.58 32.03 31.79 31.15 32.03 33.72 34.45 34.80 35.62 37.47 38.80 40.00 40.71 42.21 39.27 36.43 34.67 32.82 32.49 32.90 33.81 35.50 36.92 38.58 49.27 42.17 34.43 33.29 32.32 33.15 34.72 35.20 34.62 34.17 31.60 27.31 25.47
31.26 32.10 31.90 31.72 32.46 32.41 32.03 31.85 31.25 31.85 32.40 32.76 32.20 32.72 32.67 33.65 35.99 35.59 35.88 36.07 35.09 33.12 31.78 30.12 28.94 29.69 31.03 32.94 34.20 35.27 35.47 35.14 32.88 31.33 31.39 31.87 32.75 32.09 30.97 29.21 28.43 26.88 25.02
30.42 30.79 29.92 29.91 30.84 32.02 31.93 31.74 31.87 32.75 32.50 31.49 30.74 31.02 31.68 31.75 32.60 32.72 33.14 32.86 32.49 31.08 29.95 28.53 26.82 26.24 27.39 27.92 30.71 31.31 30.88 30.34 28.61 28.72 28.81 28.76 28.60 27.77 26.63 27.08 26.35 25.52 24.30
29.72 29.76 28.58 27.78 27.47 30.14 30.79 31.32 34.33 34.57 33.05 30.94 30.16 30.04 29.12 28.87 29.98 29.81 29.97 30.30 30.12 29.00 28.25 26.94 25.81 26.16 26.59 26.36 26.94 26.04 26.37 26.74 25.78 25.57 25.98 26.01 25.77 25.51 26.13 27.12 26.86 26.19 26.05
29.67 29.32 28.37 27.48 27.14 28.36 28.31 30.19 32.40 34.38 32.09 31.44 31.13 30.20 29.19 28.23 27.74 28.23 28.29 27.96 29.03 29.23 27.38 27.35 27.41 26.22 25.31 27.72 28.61 27.50 27.42 27.18 27.49 28.62 28.94 27.56 26.96 26.26 26.21 26.80 26.85 26.98 26.39
30.58 29.08 27.86 28.02 27.69 27.93 28.35 29.19 30.87 32.00 31.32 30.05 29.62 29.63 28.86 28.71 28.16 26.61 26.31 29.67 29.96 30.37 30.26 29.69 28.50 29.00 29.87 30.29 30.45 30.90 31.50 31.65 31.34 31.25 29.53 29.14 29.28 28.03 26.87 25.90 25.68 26.14 25.70

GFSMW_sfc_wetblb_114.txt.gz
Wetbulb
57.15 58.57 59.59 60.12 61.89 61.14 60.71 61.98 63.72 67.73 68.71 68.35 68.35 68.17 67.50 66.82 66.89 67.11 67.33 66.56 66.41 67.00 66.14 65.55 64.86 65.13 63.82 62.47 62.49 61.08 59.96 59.36 60.48 59.26 58.60 58.88 59.82 59.71 59.39 60.36 59.65 59.68 59.87
56.06 57.52 58.77 59.87 59.69 60.09 62.26 63.02 63.03 62.99 65.34 67.56 67.28 68.17 68.02 67.21 66.46 66.16 66.84 67.21 66.86 66.50 65.24 64.97 63.63 63.94 62.36 61.33 60.79 59.44 57.93 58.37 60.05 57.49 56.61 54.00 55.74 57.77 58.65 59.18 59.53 58.46 59.52
54.89 56.16 57.50 58.87 60.71 61.15 62.24 61.97 62.25 62.82 63.40 62.95 66.15 66.58 66.01 64.81 63.63 63.86 64.40 66.58 66.29 65.80 65.26 64.22 63.63 62.76 61.72 60.25 59.91 59.29 57.64 56.29 57.93 58.80 56.03 52.18 51.13 54.58 56.88 57.32 58.40 58.01 58.01
53.97 54.24 56.04 57.98 59.50 60.93 62.64 62.49 63.36 63.11 63.44 64.69 63.83 64.96 63.01 61.89 62.98 63.29 63.69 65.35 65.48 65.02 64.92 64.53 62.87 61.61 60.97 59.62 59.31 59.20 58.45 57.59 56.05 57.29 57.63 56.43 56.01 52.33 50.93 55.63 56.59 57.78 57.36
52.14 53.90 56.69 58.15 59.36 60.63 61.73 62.23 63.05 63.16 63.36 64.01 64.17 64.73 63.45 63.48 63.15 62.69 62.51 63.29 64.15 64.44 64.08 64.25 62.78 60.97 60.08 59.51 58.76 58.25 57.78 57.70 57.05 56.38 55.35 55.15 55.37 55.31 53.12 50.32 53.45 56.53 57.34
55.23 55.42 57.45 58.28 58.95 60.25 60.64 61.29 61.26 60.90 63.30 63.58 64.01 64.68 63.07 62.63 61.98 62.42 61.83 62.33 63.36 63.67 64.10 63.45 62.43 61.12 59.78 58.82 58.69 58.59 58.03 57.14 57.47 57.00 56.32 55.24 54.31 53.87 53.82 51.64 52.80 53.55 55.54
54.75 53.85 54.91 55.73 57.16 58.06 59.14 59.33 59.35 58.81 60.53 63.27 62.77 64.09 64.04 63.06 62.36 62.98 62.77 62.15 61.87 62.22 62.72 62.91 61.64 60.84 59.76 58.87 58.94 58.12 57.76 57.00 56.13 56.25 56.17 56.60 56.35 56.41 55.34 53.46 52.75 52.46 54.28
54.71 54.94 55.64 56.26 56.09 56.53 56.29 56.46 56.00 56.67 58.75 59.00 62.12 62.76 64.28 62.86 62.97 63.83 63.92 62.01 61.53 61.75 62.75 62.52 61.84 60.63 60.22 59.23 58.71 58.06 57.40 56.92 56.21 56.11 56.45 57.11 57.01 57.41 56.20 54.80 52.96 50.71 51.58
53.61 54.17 55.36 55.49 54.91 54.51 54.83 54.49 54.49 55.30 57.14 57.64 58.97 61.96 62.05 62.60 62.20 63.84 63.38 62.61 62.23 61.91 62.27 62.00 60.36 60.14 59.72 59.07 58.24 57.31 56.91 56.71 56.41 56.54 56.80 56.80 57.15 57.46 56.92 56.52 55.61 52.52 48.30
53.44 53.93 53.56 53.58 54.11 54.38 53.95 53.41 52.88 53.08 54.63 55.41 57.75 61.10 60.61 61.77 62.51 63.27 62.06 62.34 61.82 61.19 61.20 60.36 59.44 58.74 58.65 58.71 57.76 57.01 56.93 56.25 56.45 56.65 56.41 56.19 56.77 56.53 56.91 56.25 55.21 55.13 52.22
52.40 52.88 53.32 53.54 53.54 53.69 52.46 51.43 50.10 49.54 49.92 51.75 55.99 60.32 60.01 61.02 61.89 62.22 61.79 61.46 61.36 60.96 60.76 60.04 59.36 58.81 57.80 57.99 57.15 56.71 56.37 55.79 55.87 56.21 56.13 55.85 56.35 55.99 56.01 55.99 54.84 53.91 53.75
50.79 51.16 50.97 50.74 50.69 50.85 50.66 48.46 47.62 47.15 47.00 48.53 57.49 59.39 59.86 60.10 60.83 60.98 61.05 60.73 60.11 60.66 60.61 59.47 58.46 57.52 56.77 56.73 56.29 55.83 56.05 55.59 55.21 55.57 55.71 55.49 55.87 55.43 55.85 55.17 54.31 54.24 54.04
47.65 47.69 48.25 47.65 47.50 48.06 47.99 46.79 46.07 45.21 44.97 47.01 54.62 57.85 58.08 58.82 59.32 59.89 59.45 59.84 59.78 59.69 58.85 59.73 58.26 57.03 56.53 55.81 55.61 55.47 55.19 55.59 55.81 55.79 55.37 55.33 55.15 54.57 55.01 54.53 53.35 53.12 54.09
45.19 45.10 44.99 44.87 44.62 45.10 44.69 44.04 43.30 43.70 43.29 45.49 53.48 56.45 56.70 57.86 58.55 58.74 58.68 59.12 59.12 58.36 58.12 59.21 58.02 56.80 56.07 55.49 55.05 54.74 54.18 54.63 54.95 55.35 55.83 55.63 54.93 53.68 53.77 53.88 53.57 53.11 52.65
42.41 42.27 41.76 41.34 41.55 41.53 41.33 40.82 41.15 41.28 41.64 42.51 48.62 56.07 57.05 57.59 58.55 57.40 57.57 58.51 58.27 57.86 57.56 57.71 57.07 56.65 56.11 55.45 54.82 54.44 53.88 53.52 53.76 54.30 54.54 54.77 53.84 49.92 51.56 53.20 52.79 52.89 51.96
39.98 39.61 38.91 38.02 37.89 37.95 37.68 38.46 38.72 38.83 40.44 42.92 47.47 56.41 56.76 56.83 57.16 56.88 57.11 57.47 57.30 57.31 56.81 56.10 56.69 56.18 56.01 45.73 46.11 51.18 53.34 53.24 52.91 52.35 52.79 52.55 48.03 47.51 45.39 46.11 46.48 50.47 51.73
37.64 36.38 35.96 35.51 35.69 35.88 36.20 36.72 37.89 38.86 38.68 43.86 53.07 55.47 55.97 56.23 56.49 56.80 56.49 56.50 56.29 56.83 56.41 55.68 55.87 55.34 55.31 44.54 44.46 45.37 53.80 52.65 52.48 52.15 52.12 51.59 51.21 48.34 50.09 40.44 37.69 36.17 36.13
35.25 34.59 34.68 33.98 34.09 34.94 35.17 36.19 36.81 36.95 36.38 37.27 41.51 50.18 54.89 55.43 56.45 56.26 55.78 55.86 56.25 56.14 56.22 55.83 56.04 55.68 51.08 42.31 42.85 42.49 54.21 52.88 52.21 52.21 52.23 51.97 50.47 50.53 47.71 40.11 34.49 32.67 32.80
34.46 33.86 34.24 33.40 33.53 33.47 34.70 34.97 34.36 34.67 34.50 33.53 35.39 38.38 43.42 54.25 55.33 55.04 55.25 55.64 55.47 55.47 53.44 50.31 47.59 46.70 39.77 37.76 40.31 44.65 52.22 52.52 51.03 50.10 43.19 49.69 50.88 44.03 41.95 38.03 32.65 30.09 29.93
33.36 32.96 33.33 33.12 32.26 32.31 33.93 33.20 32.14 31.86 31.57 32.02 33.60 35.72 38.05 42.08 46.12 48.97 50.91 50.08 50.49 44.01 39.46 36.30 35.61 35.37 37.95 36.13 38.81 42.67 51.32 43.65 37.28 35.61 35.28 34.90 41.84 38.68 38.24 37.81 33.45 28.79 27.22
31.76 32.58 33.12 31.52 31.41 32.73 32.62 32.22 31.71 30.73 31.52 31.94 32.96 34.23 34.33 36.32 37.88 39.31 41.20 41.12 38.25 35.20 32.64 31.15 31.17 31.97 33.12 34.58 37.55 39.69 46.33 37.96 33.42 32.50 32.10 32.67 34.28 35.97 35.33 35.89 33.65 28.52 26.23
30.54 30.51 29.82 29.83 30.88 31.66 31.68 31.51 30.95 31.75 31.78 31.53 31.50 31.60 32.31 32.61 34.46 34.93 35.10 35.45 34.11 31.80 30.09 28.66 27.64 28.45 30.25 32.66 33.87 35.02 35.34 34.21 31.53 30.23 30.94 31.53 32.39 31.84 31.21 29.73 29.35 27.93 26.24
29.80 30.19 29.17 28.63 29.58 29.76 30.43 29.66 31.51 31.79 31.79 30.52 29.59 29.61 30.67 31.64 31.94 31.74 31.96 31.67 31.33 30.19 28.62 27.43 26.11 25.65 26.84 27.53 30.60 30.87 30.71 29.95 28.34 28.70 29.39 29.32 29.21 28.69 27.73 28.08 27.51 26.11 25.32
29.26 29.56 28.72 28.02 27.39 29.50 30.16 30.77 32.38 32.76 31.79 29.82 29.05 28.73 28.29 28.40 29.84 29.98 29.96 29.24 29.23 28.04 27.47 26.76 25.51 25.71 26.16 26.02 27.04 26.66 27.36 27.96 26.73 26.10 26.74 26.85 26.62 25.88 25.47 26.15 26.89 25.75 24.79
30.41 29.26 28.00 27.32 27.06 28.66 28.77 30.54 31.43 32.67 30.99 30.02 29.56 28.44 27.41 26.77 26.64 27.83 28.15 27.85 28.66 28.66 27.14 26.96 27.21 26.10 25.45 27.52 28.65 27.91 27.56 28.08 28.15 28.02 27.71 26.88 26.33 25.52 25.39 25.38 25.73 26.30 25.79
29.60 28.07 27.60 27.61 27.01 27.36 27.69 29.36 30.74 30.79 30.20 28.67 28.88 29.08 28.13 26.68 25.46 25.00 25.42 29.90 29.88 30.46 30.69 30.55 29.43 30.38 31.39 31.95 31.99 32.03 32.19 31.76 30.81 28.88 27.02 26.24 25.86 24.85 24.67 23.90 23.36 23.79 23.27

GFSMW_sfc_wetblb_117.txt.gz
Wetbulb
53.02 54.14 53.66 53.28 52.22 53.68 55.98 61.05 66.43 67.34 67.25 66.22 65.15 64.22 65.39 64.98 63.78 64.87 66.16 66.62 66.44 67.01 66.27 65.29 64.44 64.78 63.09 62.40 62.03 62.13 61.26 59.73 60.34 59.74 59.33 59.79 60.58 60.47 60.39 61.01 60.56 60.50 60.05
51.44 53.81 53.69 52.87 53.50 54.77 56.26 56.56 62.35 66.94 67.37 67.11 66.46 65.44 64.66 64.65 65.42 63.83 64.45 65.46 64.74 65.65 66.35 65.47 63.79 63.09 62.31 62.43 61.74 60.53 58.92 59.06 60.66 57.78 56.49 53.95 56.35 58.72 60.05 59.65 59.72 59.61 59.81
50.29 52.19 54.00 52.56 53.18 54.56 55.47 56.54 57.29 58.69 62.98 65.90 64.51 63.11 62.79 61.93 61.38 61.77 62.61 63.85 64.43 64.78 65.23 64.52 63.50 62.88 61.29 60.72 60.86 60.13 59.33 57.53 59.22 59.30 56.39 52.49 51.57 55.13 57.66 58.01 58.61 58.25 58.60
51.49 51.91 54.36 52.84 53.06 54.14 56.17 57.00 58.53 58.54 59.26 58.74 61.64 62.21 61.64 59.53 60.35 60.94 61.72 63.55 65.00 65.24 65.31 64.38 63.09 61.23 60.63 60.38 60.41 60.11 59.18 57.92 56.11 58.64 57.70 55.45 55.12 52.61 51.62 56.03 57.60 57.81 57.72
49.93 51.42 53.90 54.04 53.77 54.36 54.99 56.62 57.96 58.31 58.89 58.54 59.15 62.20 60.84 62.02 60.37 60.57 60.83 61.25 63.87 64.89 64.63 63.97 62.60 61.15 60.34 58.71 59.73 59.62 58.77 58.28 57.03 57.45 56.85 55.13 55.47 55.31 53.53 51.45 54.04 56.66 57.28
51.39 53.71 54.08 53.38 53.58 53.74 53.58 53.73 53.86 54.64 56.01 57.78 58.02 61.60 60.86 60.39 59.63 59.97 60.55 61.43 62.41 63.71 63.17 63.72 62.32 61.64 60.97 59.73 59.31 59.33 58.61 58.18 57.82 57.86 56.97 55.46 54.69 54.19 53.70 52.57 53.47 53.75 55.31
50.96 51.46 52.33 51.74 51.79 51.44 51.43 52.72 52.79 52.77 53.26 54.23 55.28 56.53 61.23 60.44 60.00 60.22 60.44 60.41 60.89 62.27 63.00 62.98 61.78 60.54 59.98 59.67 59.31 58.65 58.13 57.75 57.45 57.05 56.31 56.75 55.97 56.52 55.31 53.57 52.95 53.10 54.62
51.27 51.73 51.04 50.52 50.34 50.88 50.79 50.24 50.70 50.74 51.65 52.95 53.85 54.68 56.16 61.81 61.20 61.45 62.00 61.01 61.43 62.52 63.24 62.71 61.92 60.91 59.92 59.39 59.16 58.69 58.21 57.62 57.03 57.07 56.57 56.49 56.65 57.10 56.23 54.33 53.17 51.09 52.56
50.13 50.10 50.81 50.41 49.81 49.76 50.26 49.19 48.76 49.20 49.63 49.58 50.74 51.29 54.51 59.32 61.70 61.62 62.11 61.99 62.97 62.79 62.53 62.30 61.34 60.52 59.73 59.13 58.77 58.15 57.65 57.21 56.77 56.41 56.57 56.93 57.23 57.33 56.95 55.79 54.82 52.46 49.48
49.44 49.37 49.07 49.55 50.24 50.00 48.93 48.22 47.37 47.14 47.39 47.39 47.34 49.07 51.41 54.28 61.52 60.65 59.98 61.33 62.19 62.15 61.95 61.65 60.87 60.23 59.71 59.07 58.35 57.65 57.43 56.77 56.57 56.41 56.31 56.55 57.13 57.27 56.61 56.03 55.32 54.59 52.19
46.68 46.64 46.94 47.45 47.26 47.38 47.30 46.48 45.80 45.24 45.26 45.38 45.20 46.22 47.47 52.58 60.04 59.54 59.55 60.71 61.56 61.30 61.25 60.53 59.51 59.01 58.77 58.33 57.63 57.11 56.89 56.27 56.07 56.23 56.21 55.97 56.69 56.57 56.31 55.83 54.95 54.27 53.54
44.58 44.78 44.92 44.31 43.96 44.18 44.57 43.40 42.98 42.91 43.18 43.65 43.54 45.29 47.25 57.69 58.92 59.13 59.47 61.29 60.76 60.67 60.20 59.00 58.80 58.35 57.95 57.89 57.15 56.15 56.21 55.55 55.39 55.65 55.83 55.67 56.11 55.99 56.15 55.75 54.78 54.46 53.77
42.78 42.68 41.48 40.65 41.19 41.34 41.33 40.80 40.98 40.41 41.01 41.43 41.45 44.06 46.22 58.26 58.36 58.81 59.02 60.41 59.86 60.18 59.92 58.85 58.56 58.01 57.27 56.85 56.87 56.39 56.05 55.79 55.77 55.67 55.67 55.56 55.57 55.15 55.19 54.90 54.45 54.41 54.14
40.56 39.59 38.78 37.99 38.21 39.21 38.65 38.46 38.74 39.66 40.21 39.85 40.12 42.43 44.75 56.77 58.04 58.73 57.95 59.42 59.42 58.85 58.69 58.63 58.25 57.27 56.63 56.45 56.19 55.87 55.65 55.79 55.71 55.77 55.77 55.65 55.50 55.18 54.90 54.31 54.25 53.46 53.32
37.57 37.14 36.76 36.14 36.25 36.36 36.27 36.62 37.49 38.30 39.30 38.87 39.76 41.61 45.22 55.61 57.64 58.11 58.38 58.75 58.63 57.79 58.09 58.59 57.44 56.75 56.17 55.81 55.31 55.17 54.65 54.53 54.32 54.89 55.51 55.73 54.50 50.49 53.10 54.88 54.44 53.55 52.64
35.85 35.74 35.70 35.11 34.56 34.29 34.74 35.76 36.34 36.87 38.14 37.98 38.80 41.08 48.04 55.50 56.73 57.35 57.49 57.59 57.05 56.85 56.98 56.71 56.31 55.51 55.85 46.42 46.24 51.72 54.01 53.71 53.37 52.87 53.17 53.31 48.88 47.98 45.33 46.24 46.96 51.91 52.77
34.46 34.16 33.84 33.21 33.28 33.52 34.33 34.24 35.30 36.26 36.47 36.97 37.89 38.74 40.74 56.27 56.85 57.12 56.96 56.91 56.29 56.25 55.45 55.99 55.79 55.01 55.34 44.06 44.61 45.33 53.62 52.95 52.74 52.48 51.99 51.02 50.84 48.68 49.42 38.53 37.59 36.67 37.26
32.99 33.19 33.08 32.40 32.56 33.32 33.58 34.80 34.81 34.30 34.29 34.51 35.59 36.87 37.89 45.10 56.41 56.37 56.09 56.33 56.23 55.57 54.92 54.84 55.24 53.95 47.23 42.61 42.97 42.97 52.79 52.08 52.07 52.19 52.23 51.50 49.86 49.33 43.75 38.92 34.60 33.35 33.49
32.65 32.96 33.52 32.63 32.41 32.45 33.16 34.07 33.23 32.74 32.23 31.81 32.96 34.75 36.28 38.71 53.97 55.35 55.35 55.81 55.75 55.02 50.70 50.95 48.58 44.74 40.84 38.56 42.07 45.69 51.97 50.88 48.19 45.75 43.28 51.05 50.32 41.49 41.01 36.69 32.21 30.59 30.43
31.63 31.47 33.05 32.00 31.38 31.32 32.20 32.57 31.88 30.97 30.08 30.70 32.00 33.95 35.35 35.67 38.01 50.97 54.77 54.32 48.48 41.85 39.66 35.73 35.52 36.23 37.89 36.93 39.88 46.31 49.86 41.19 36.85 34.50 34.48 34.43 42.00 38.24 37.62 37.04 33.95 29.83 27.90
30.44 30.69 31.04 30.03 29.81 30.87 31.31 30.54 31.13 29.74 30.35 30.93 31.01 32.11 33.29 34.55 34.37 38.09 45.01 42.17 37.60 34.72 32.25 30.93 31.17 31.98 33.20 35.46 39.22 41.70 44.36 37.11 33.17 32.27 31.87 32.64 34.83 36.11 36.34 36.95 35.07 30.33 27.18
29.27 29.63 29.03 28.71 29.80 30.27 30.14 29.25 29.92 31.23 31.33 30.16 29.03 29.28 31.17 32.63 33.36 33.11 34.73 35.33 34.43 31.44 29.74 28.30 27.43 28.84 31.11 33.03 34.61 35.74 35.45 34.65 31.68 29.65 30.57 31.79 32.90 32.36 31.57 29.91 29.59 28.56 27.21
28.84 29.65 28.47 27.87 28.31 28.48 29.10 27.70 30.59 31.44 31.07 29.35 27.59 27.46 28.72 30.74 32.02 31.49 31.16 30.57 30.90 29.83 28.45 27.33 25.61 25.48 27.30 29.23 31.61 31.63 31.17 30.75 29.10 29.46 30.04 30.11 29.85 29.37 28.55 28.88 28.14 27.01 25.71
28.00 28.34 27.54 26.20 26.01 27.14 28.61 29.68 30.83 32.22 30.75 29.23 27.64 26.89 26.50 27.55 28.77 29.61 30.15 29.47 28.80 27.79 27.24 26.20 25.23 25.67 26.17 26.36 27.58 27.53 28.05 28.70 27.20 26.70 26.58 26.68 26.80 26.68 26.04 26.00 25.86 25.57 25.09
28.03 27.28 26.52 25.26 24.99 27.25 27.83 29.72 30.05 30.98 29.87 29.78 29.27 27.19 26.16 26.13 26.95 28.29 28.74 28.59 29.37 29.45 27.33 27.33 27.62 26.45 25.76 27.50 29.11 28.50 27.67 27.95 28.18 28.09 27.43 26.17 25.50 24.75 24.89 25.09 25.02 25.08 24.88
26.85 25.75 24.94 25.27 25.23 26.37 27.44 28.69 30.04 29.49 29.06 28.75 28.67 28.49 27.62 26.02 25.82 25.90 26.27 30.45 30.88 31.62 31.63 31.63 30.52 31.02 31.76 32.13 32.02 31.75 31.41 30.86 29.55 27.27 25.07 24.24 24.05 23.30 23.16 22.76 22.79 23.43 23.17

GFSMW_sfc_wetblb_120.txt.gz
Wetbulb
51.15 50.76 51.65 52.22 50.75 49.93 51.83 62.77 64.00 65.66 66.89 66.45 65.48 64.34 64.27 64.81 65.36 66.25 66.81 66.34 66.38 66.61 65.46 64.91 64.98 64.95 63.02 61.41 61.09 61.20 60.98 60.57 61.79 59.49 59.53 59.87 60.46 60.42 60.57 61.29 61.36 61.04 60.39
49.14 50.98 51.34 49.29 50.48 52.32 53.46 61.93 64.32 65.30 66.41 66.71 66.68 64.98 64.06 63.90 65.07 65.39 65.78 66.49 65.74 66.03 66.27 65.19 64.38 64.92 63.38 60.94 61.10 61.68 59.87 59.49 61.23 58.18 56.59 54.30 56.75 59.34 59.91 60.20 60.66 60.26 60.43
48.03 50.41 51.27 50.05 52.48 53.28 56.51 63.11 65.54 65.89 66.31 66.22 64.38 62.85 62.62 61.60 61.37 61.27 63.57 65.12 65.45 65.45 65.76 65.20 64.39 64.16 63.80 62.55 62.40 61.70 60.46 58.34 59.99 59.29 56.63 52.85 52.20 55.46 58.74 58.82 59.95 59.69 59.41
48.71 50.00 50.05 50.59 52.42 52.47 55.76 57.54 59.06 59.52 60.47 62.42 62.64 60.78 62.19 62.15 61.55 62.59 63.01 63.48 64.66 64.55 64.87 64.02 63.42 63.58 63.29 62.64 61.83 61.38 60.64 59.16 57.65 59.08 58.45 56.13 55.54 52.66 51.76 57.11 58.14 59.24 58.47
48.20 51.94 51.65 51.89 51.69 51.67 51.67 52.64 53.83 54.12 56.42 57.22 58.28 61.53 60.94 61.69 60.07 59.89 61.76 62.89 63.61 64.70 65.12 64.27 63.98 63.00 62.37 61.40 60.74 60.25 59.46 59.26 57.92 57.84 57.09 55.49 55.43 55.35 52.99 51.86 54.94 57.11 58.31
51.56 51.84 51.77 51.24 49.72 49.81 50.46 50.63 51.05 51.23 52.71 53.83 54.61 56.72 58.62 59.78 59.50 59.26 59.98 60.13 61.67 64.10 64.29 64.18 63.25 62.91 61.88 60.17 60.30 60.09 59.41 58.76 58.06 57.68 57.83 56.57 55.42 54.18 53.83 52.36 54.35 54.34 55.93
50.32 49.21 48.92 48.81 48.93 48.27 48.97 49.91 49.58 49.23 50.25 49.85 49.72 51.25 52.20 54.35 58.89 59.97 60.92 60.98 60.49 59.50 61.86 63.01 62.53 62.20 61.83 60.72 60.24 59.29 59.15 58.73 58.01 57.49 57.74 58.11 57.51 56.44 56.10 54.72 53.92 53.95 54.74
49.24 47.91 47.95 47.98 47.71 47.54 47.04 47.15 47.23 47.25 47.74 47.74 46.97 47.79 49.52 50.54 54.02 59.92 60.82 61.04 61.28 61.64 62.53 62.18 62.40 61.99 61.24 60.30 59.86 59.26 58.81 58.73 58.15 57.61 57.73 57.31 57.20 57.15 56.61 55.50 54.25 52.44 52.83
46.32 46.61 47.08 47.11 46.20 45.86 45.51 45.29 45.29 45.46 45.73 45.89 45.66 45.54 46.12 47.61 50.82 53.41 60.86 61.49 61.42 61.22 61.87 62.84 62.30 61.26 60.30 59.88 59.31 58.83 58.18 57.91 57.65 57.71 57.39 56.89 57.00 57.07 56.80 56.35 56.30 53.80 50.16
43.55 43.71 43.40 43.95 44.48 44.50 44.31 44.10 43.80 43.06 43.13 43.15 43.58 44.19 44.31 45.89 48.08 50.46 53.92 61.03 61.43 61.17 61.44 62.17 61.90 60.89 60.00 59.40 58.83 58.37 58.21 57.39 57.29 57.11 56.57 56.73 56.97 57.07 56.67 55.95 55.99 55.26 52.88
41.38 41.15 41.39 42.50 42.73 42.60 41.87 41.40 41.01 40.57 40.83 40.93 41.79 41.89 42.50 43.83 47.22 48.36 52.42 60.00 61.13 61.64 61.31 62.02 61.40 60.41 59.59 59.11 58.39 57.81 57.45 56.99 56.65 56.33 56.03 56.05 56.93 56.63 56.39 55.83 55.44 54.45 53.73
40.14 40.10 39.41 39.53 39.45 39.03 38.82 38.54 39.19 39.05 39.92 40.31 40.47 40.56 41.57 43.08 45.60 48.77 55.57 60.02 60.18 60.84 61.29 61.99 60.96 60.03 59.35 58.69 57.83 57.01 56.97 56.47 55.67 55.79 55.81 55.61 56.27 56.37 55.99 55.43 54.78 54.50 54.22
38.82 38.07 37.17 36.44 36.82 36.87 36.73 36.66 37.09 37.77 38.85 39.52 40.02 40.21 40.90 42.19 44.27 46.76 58.17 59.43 59.70 59.53 61.02 61.06 59.57 58.98 58.49 57.73 57.69 57.03 56.43 56.31 56.07 55.77 55.61 55.69 55.61 55.65 55.65 55.07 54.21 54.55 53.97
36.89 36.22 35.36 34.89 35.28 35.42 35.25 35.57 36.20 37.13 37.60 37.90 38.79 38.77 39.91 41.79 43.51 46.88 55.39 59.21 59.73 59.29 59.75 59.38 58.93 58.27 57.84 57.40 57.17 56.61 55.99 55.79 55.77 55.73 56.01 55.91 55.71 55.67 55.31 54.86 54.34 54.02 53.71
35.08 34.79 34.04 33.50 33.88 33.92 34.47 35.15 35.66 36.01 36.41 36.85 37.53 37.88 39.34 40.87 42.94 48.09 54.23 58.34 58.66 59.39 59.54 58.56 58.09 57.67 56.85 56.83 56.39 56.17 55.73 55.39 55.07 55.35 55.53 55.95 54.48 50.68 53.18 55.07 54.45 54.01 53.40
33.76 33.62 33.30 32.97 32.67 32.74 33.03 33.99 34.66 34.52 35.05 34.52 35.21 36.52 38.19 39.60 41.89 44.77 54.86 57.63 57.57 58.84 58.81 57.61 56.77 56.13 55.91 46.04 46.58 52.51 55.07 54.75 54.22 54.02 54.53 55.05 49.42 48.86 45.13 46.40 47.12 51.84 53.28
32.02 31.79 31.80 31.67 31.50 31.99 32.92 32.66 33.76 34.11 33.28 33.36 34.07 35.32 36.54 37.52 39.93 42.10 55.04 56.91 57.25 57.13 57.25 56.93 55.97 55.19 55.20 44.58 44.77 45.13 54.35 53.68 53.50 53.02 52.69 51.72 51.97 49.42 50.30 38.90 38.55 37.62 38.93
31.55 32.13 32.06 31.26 30.96 32.35 31.99 32.64 33.41 32.66 32.12 31.52 31.82 33.28 34.34 35.62 38.40 40.86 47.60 56.67 56.67 55.85 55.93 55.41 55.33 54.77 50.54 42.95 43.13 42.59 53.24 52.60 52.45 52.42 52.47 51.97 49.87 47.72 43.40 38.75 34.96 33.72 34.22
30.77 31.34 31.82 30.66 30.99 30.69 30.79 31.11 31.55 31.63 31.15 30.20 30.33 31.23 32.39 33.91 36.75 37.77 40.57 56.53 55.87 55.27 55.29 54.51 52.75 49.62 44.00 40.78 41.50 46.40 51.23 50.58 47.59 45.88 43.20 50.99 49.28 39.46 40.56 37.20 32.56 30.94 30.96
30.15 29.76 29.96 30.08 28.70 28.80 29.74 30.04 29.77 29.36 28.69 29.67 29.45 30.20 31.32 32.30 34.39 35.54 37.11 55.11 52.36 44.42 41.71 37.77 38.34 38.52 40.04 38.37 40.96 47.36 48.17 40.99 36.69 35.07 35.58 34.84 44.59 37.27 37.26 37.36 34.83 30.74 28.45
29.02 29.21 29.00 27.47 27.62 28.59 29.65 28.84 29.10 27.83 29.82 29.72 28.56 28.87 30.14 30.84 33.54 34.58 35.17 40.44 38.80 36.41 34.29 32.26 32.32 32.98 34.43 36.66 39.67 42.41 44.68 38.01 33.57 32.49 32.12 33.06 36.38 36.71 36.91 37.09 35.77 31.91 28.25
28.29 28.66 26.91 26.47 27.43 27.79 29.01 27.97 28.20 30.61 30.43 29.16 26.97 26.74 28.97 29.72 31.52 32.58 31.93 33.00 34.38 32.67 31.46 30.79 29.21 30.29 32.13 34.17 36.65 37.55 36.54 35.44 32.47 30.06 31.33 32.52 33.93 33.54 32.74 31.48 30.57 29.38 27.84
26.88 26.72 26.83 26.49 27.49 28.03 28.93 27.15 28.87 30.60 29.64 27.48 26.37 26.51 27.88 29.02 29.76 30.05 30.52 29.72 30.93 30.20 30.60 29.68 26.81 26.35 28.82 30.83 32.55 32.65 31.93 31.34 29.69 30.29 30.81 31.16 30.94 30.36 29.60 29.84 29.12 28.07 26.80
24.86 23.90 24.23 24.75 24.84 27.46 27.92 28.43 29.30 30.04 29.30 28.32 26.90 26.78 26.24 27.44 28.58 29.65 29.76 28.94 28.49 27.77 27.81 27.05 25.95 26.56 26.94 26.96 28.36 28.83 28.86 29.19 27.70 26.96 26.68 26.60 26.59 26.38 26.14 26.13 26.29 25.93 25.64
23.45 22.66 22.09 22.42 23.32 25.61 26.82 28.52 28.79 29.02 28.93 28.11 27.54 27.03 26.49 25.91 27.23 28.13 29.00 29.07 29.95 29.89 28.00 28.18 28.18 27.16 26.38 28.07 29.31 28.78 27.70 27.70 27.77 27.65 27.33 26.33 25.60 24.50 24.54 24.51 24.65 24.96 24.69
23.36 22.46 22.33 22.62 22.68 23.69 25.72 27.68 28.74 28.15 28.27 28.07 26.94 26.23 25.62 25.64 25.49 26.52 26.76 29.80 30.64 30.94 31.17 31.37 30.10 30.54 31.19 31.60 31.34 31.08 30.65 30.03 29.00 26.01 23.87 23.31 23.27 22.72 22.90 22.70 22.79 23.34 23.18

GFSMW_sfc_wetblb_123.txt.gz
Wetbulb
49.58 50.52 50.35 49.94 49.58 51.32 57.74 62.55 63.40 65.33 66.30 65.84 64.29 63.71 64.73 65.11 65.00 66.04 66.29 65.93 66.29 65.95 65.61 64.93 63.65 63.91 62.91 61.39 61.27 60.49 60.75 60.60 62.11 59.53 59.41 59.75 60.61 60.79 61.11 61.33 61.47 61.29 60.96
47.25 49.56 50.34 49.42 49.01 48.71 50.77 59.70 62.48 64.23 65.67 66.25 65.88 65.58 65.54 64.64 65.38 65.66 66.09 66.20 66.22 65.80 65.64 64.85 64.10 64.68 63.81 61.98 61.51 62.00 60.26 60.51 61.43 58.57 57.22 55.07 56.88 59.43 60.01 60.60 61.13 60.93 61.23
47.35 49.33 50.19 50.06 47.80 48.09 48.98 57.03 61.38 63.01 64.96 65.70 64.02 62.28 62.21 61.45 61.40 62.47 64.56 65.79 65.28 65.80 66.05 65.06 64.49 63.74 63.45 61.98 61.88 62.15 61.13 58.85 60.37 59.35 56.04 52.69 51.36 54.08 58.71 59.12 60.03 60.27 60.19
45.55 47.91 50.83 51.37 50.88 50.89 56.24 57.11 58.55 59.31 61.99 63.05 62.13 61.76 61.83 60.48 62.47 63.33 64.63 64.28 65.06 65.06 65.80 64.83 64.22 64.45 64.06 63.09 62.51 62.81 62.01 60.67 58.62 59.33 58.38 56.49 55.01 52.54 51.93 57.26 59.04 60.20 59.76
45.74 48.67 49.43 49.68 49.40 50.30 50.58 51.63 52.73 53.50 54.97 57.33 59.58 60.30 60.06 60.97 60.59 60.66 61.44 61.65 63.85 64.41 64.89 65.20 64.50 64.08 63.85 63.53 62.81 62.04 61.26 60.59 59.26 58.51 57.40 55.43 53.01 55.36 53.18 51.93 55.05 58.44 59.59
47.77 48.25 49.10 49.12 47.96 48.34 48.57 49.20 49.16 49.09 50.22 52.03 52.18 52.39 52.49 54.69 57.88 59.10 59.89 60.27 61.49 63.13 63.80 64.30 64.16 64.40 63.12 62.57 62.14 61.61 61.01 60.25 59.47 58.92 57.75 56.62 55.44 54.38 53.85 52.62 54.27 54.99 56.84
47.09 46.76 45.51 45.24 45.48 45.49 46.34 47.38 47.39 46.47 47.54 47.53 48.23 49.47 50.21 50.98 51.89 56.31 59.33 60.09 59.27 60.35 62.70 62.68 62.84 62.91 62.44 61.99 61.98 61.01 60.35 59.71 58.83 58.01 57.83 57.87 56.57 56.83 56.05 54.74 53.89 53.84 55.21
44.80 44.30 44.22 44.54 44.30 43.85 43.61 44.26 44.44 44.17 44.83 45.12 45.07 45.73 46.70 47.99 50.01 53.48 57.32 59.99 61.14 61.50 62.58 62.28 62.65 62.72 62.09 60.69 60.75 60.43 60.17 59.43 58.85 57.89 57.85 57.63 58.08 58.24 57.24 56.01 54.38 52.51 52.85
42.15 41.87 43.13 42.98 42.25 42.13 42.17 42.02 42.04 42.18 42.55 42.93 43.48 43.49 43.95 44.17 45.19 47.64 50.43 52.65 60.47 61.53 61.31 61.49 62.38 62.49 61.85 61.24 60.43 60.04 59.30 59.04 58.67 58.15 57.87 57.71 57.92 57.75 57.76 57.20 56.69 54.47 50.61
39.17 40.17 40.39 40.09 40.15 40.46 41.06 40.94 40.94 40.28 40.98 41.33 41.66 42.26 41.76 42.61 43.53 45.39 47.65 50.17 53.10 60.29 60.41 60.76 61.39 61.77 61.55 61.07 60.31 59.79 59.19 58.40 58.18 58.04 57.48 57.35 57.53 56.40 57.25 56.79 56.84 56.56 54.18
36.97 37.62 38.28 38.85 38.46 38.63 38.35 38.41 38.36 38.56 38.86 39.26 39.78 39.95 40.43 41.32 42.27 43.56 45.95 48.20 51.33 54.42 60.77 60.51 60.65 61.06 60.67 60.30 59.50 59.43 58.32 57.90 57.42 57.18 56.78 56.55 56.81 56.44 56.60 56.46 55.82 54.41 54.78
36.51 36.09 36.77 36.94 36.58 36.06 36.17 36.04 36.81 36.68 37.45 38.00 38.33 38.86 39.91 40.93 41.28 42.69 44.66 47.95 50.86 55.01 59.22 60.79 60.51 61.20 60.20 59.72 58.98 58.42 57.70 57.36 56.56 56.16 55.97 55.94 56.38 56.32 56.64 56.14 55.26 54.98 54.56
36.34 35.46 35.02 34.32 34.58 35.02 35.19 35.50 36.06 36.48 36.35 36.58 37.05 38.07 38.78 39.51 39.83 41.01 43.26 46.59 48.61 57.11 58.51 60.78 60.72 60.62 60.10 59.36 59.03 58.43 57.26 57.16 56.62 56.24 55.98 55.68 55.70 55.53 55.91 55.80 55.12 55.24 54.80
35.10 34.49 34.01 33.70 33.62 34.01 34.14 34.52 35.11 35.62 35.13 35.37 35.37 36.47 37.20 37.79 38.71 40.31 42.55 45.84 49.52 57.18 59.36 60.18 60.55 60.07 59.79 59.23 58.48 57.74 56.88 56.66 56.36 56.16 56.20 55.96 55.66 55.38 55.59 55.07 54.68 54.44 53.67
33.40 33.06 32.77 32.50 32.87 32.80 33.03 33.59 34.76 34.88 34.62 34.31 34.14 35.18 36.52 37.11 38.12 39.78 41.93 44.33 48.71 56.45 59.23 59.54 60.12 59.57 58.89 58.24 57.60 57.30 56.38 55.92 55.47 55.62 55.66 55.94 54.50 50.57 52.87 55.00 54.34 53.91 53.30
32.45 32.56 32.25 31.82 31.31 31.58 31.90 32.65 33.76 33.98 34.29 33.20 33.11 34.44 34.63 35.65 36.44 38.59 40.75 43.21 45.79 55.56 58.55 58.93 58.73 57.98 57.70 47.35 47.17 52.99 55.70 55.48 54.85 54.23 54.49 55.00 49.41 49.05 45.36 46.44 46.99 51.67 53.26
31.46 31.76 30.72 30.29 30.17 29.71 30.83 31.01 32.86 33.56 32.91 32.45 32.46 33.16 33.49 33.91 34.99 36.79 39.21 41.32 43.64 54.35 57.73 58.29 58.25 57.22 57.35 44.99 45.54 45.90 55.88 54.97 54.48 54.37 53.89 53.42 52.88 49.45 51.94 41.53 41.73 38.62 40.26
29.72 30.25 29.63 29.01 29.45 29.95 29.98 31.44 32.57 31.52 30.88 30.48 30.43 31.17 31.36 32.01 33.79 35.60 37.50 39.24 42.46 50.21 56.88 57.32 57.12 56.58 54.99 43.91 43.72 43.72 54.53 54.19 53.95 53.57 53.59 52.97 51.49 50.82 45.49 40.84 36.33 34.52 35.02
28.86 29.21 29.31 28.63 29.09 28.79 29.75 30.73 30.39 30.02 29.88 29.41 28.73 29.13 29.73 30.76 32.25 33.96 35.09 37.43 40.46 44.80 56.32 56.58 55.75 54.73 49.38 42.09 41.91 47.17 52.68 51.63 49.43 48.87 49.21 51.98 49.70 39.87 41.05 38.00 33.56 31.96 31.23
29.01 27.86 27.52 27.50 28.08 28.06 29.94 28.57 29.30 28.69 28.48 28.45 27.69 28.27 29.02 30.01 30.71 32.06 34.12 35.83 38.99 48.20 44.29 39.46 43.71 44.07 45.41 40.44 41.37 48.18 48.52 42.81 38.53 36.56 37.10 35.50 44.92 36.94 37.30 37.78 35.62 32.68 29.95
27.40 28.05 27.32 26.92 28.12 28.36 28.85 27.22 27.89 27.78 29.67 28.66 27.10 27.06 28.66 29.44 30.59 31.10 33.32 34.09 35.05 35.99 35.18 33.89 33.75 34.59 37.45 40.36 41.91 42.82 45.76 39.85 35.26 34.05 33.15 33.53 36.24 36.72 37.16 37.54 37.02 33.84 29.96
25.32 25.79 25.05 26.12 27.83 28.01 28.02 26.47 26.63 28.56 29.60 28.75 25.59 26.18 27.39 28.96 30.13 30.06 30.79 32.15 31.89 32.64 32.21 32.76 31.80 31.91 32.68 36.57 38.81 39.49 37.89 36.89 34.81 31.42 32.02 33.36 34.97 34.63 33.72 32.44 31.43 30.30 29.29
23.46 23.50 22.67 23.24 24.48 26.96 27.72 26.71 26.88 28.19 27.51 25.80 25.05 25.07 25.78 28.21 28.14 28.89 28.96 29.64 30.10 29.58 29.24 30.86 30.79 29.20 29.98 31.87 33.30 33.98 33.25 32.35 31.04 31.42 31.95 32.14 31.89 31.28 30.26 30.58 29.92 29.23 28.49
20.88 20.65 20.66 21.90 22.77 25.33 27.20 27.54 27.48 28.31 27.67 24.71 24.26 24.67 24.61 25.68 27.07 27.65 28.72 28.38 28.64 28.61 28.09 27.99 28.08 27.72 28.09 27.69 28.51 29.53 29.78 29.90 27.91 26.83 26.57 26.60 26.72 26.60 26.21 26.27 26.65 26.51 26.61
21.51 20.43 20.06 20.71 21.37 23.83 25.71 27.34 27.53 27.99 27.77 26.47 25.05 24.63 25.03 24.85 25.43 26.86 26.71 27.25 28.45 28.99 27.87 28.30 28.60 28.02 27.38 28.66 29.81 28.95 27.40 27.51 27.65 27.51 27.10 26.01 25.47 24.34 24.37 24.50 24.90 25.29 25.08
21.49 21.04 21.17 21.48 21.47 22.78 24.84 26.18 27.63 27.47 26.65 26.13 25.08 24.58 24.51 24.75 24.98 24.87 24.98 27.87 27.84 29.64 29.83 30.03 28.38 28.16 29.81 30.40 30.38 29.93 29.77 29.33 28.41 25.68 23.68 22.82 22.93 22.75 22.94 22.75 22.97 23.61 23.60